Wetterdaten: Sonntag, 01.04.2018
Datum Zeit Temp. A. Pool Temp. Feuchte A. Luftdruck Regen Wind Richtung Richtung Sonnenschein ET UV Solar Taupunkt Windchill Windben Empfang
01.04.2018 00:00 6,3 C 6,1 C 92 % 997,8 hPa 0,0 l/m 17,0 km/h (3 Bft) W-SW 238 0 min 0,000 mm 0,0 UV-I 0 W/m 5,1 C -0,3 C 22,5 km/h (4 Bft) 92,31 %
01.04.2018 00:02 6,2 C 6,1 C 92 % 997,8 hPa 0,0 l/m 13,3 km/h (3 Bft) W-SW 239 0 min 0,000 mm 0,0 UV-I 0 W/m 5,0 C 1,4 C 17,7 km/h (3 Bft) 97,73 %
01.04.2018 00:03 6,2 C 6,1 C 92 % 997,8 hPa 0,0 l/m 14,1 km/h (3 Bft) W-SW 255 0 min 0,000 mm 0,0 UV-I 0 W/m 5,0 C 1,0 C 17,7 km/h (3 Bft) 95,83 %
01.04.2018 00:04 6,2 C 6,1 C 92 % 997,8 hPa 0,0 l/m 13,8 km/h (3 Bft) W-SW 238 0 min 0,000 mm 0,0 UV-I 0 W/m 5,0 C 1,1 C 20,9 km/h (4 Bft) 100,00 %
01.04.2018 00:05 6,2 C 6,1 C 92 % 997,8 hPa 0,0 l/m 15,2 km/h (3 Bft) W 272 0 min 0,000 mm 0,0 UV-I 0 W/m 5,0 C 0,4 C 22,5 km/h (4 Bft) 95,83 %
01.04.2018 00:06 6,2 C 6,1 C 92 % 997,8 hPa 0,0 l/m 17,9 km/h (3 Bft) W-SW 252 0 min 0,000 mm 0,0 UV-I 0 W/m 5,0 C -0,8 C 24,1 km/h (4 Bft) 100,00 %
01.04.2018 00:07 6,2 C 6,1 C 92 % 997,8 hPa 0,0 l/m 15,8 km/h (3 Bft) W-SW 237 0 min 0,000 mm 0,0 UV-I 0 W/m 5,0 C 0,1 C 22,5 km/h (4 Bft) 92,31 %
01.04.2018 00:08 6,3 C 6,1 C 92 % 997,8 hPa 0,0 l/m 16,3 km/h (3 Bft) W 259 0 min 0,000 mm 0,0 UV-I 0 W/m 5,1 C 0,0 C 20,9 km/h (4 Bft) 96,67 %
01.04.2018 00:09 6,3 C 6,1 C 92 % 997,8 hPa 0,0 l/m 15,4 km/h (3 Bft) W 269 0 min 0,000 mm 0,0 UV-I 0 W/m 5,1 C 0,5 C 20,9 km/h (4 Bft) 100,00 %
01.04.2018 00:10 6,2 C 6,1 C 92 % 997,8 hPa 0,0 l/m 17,0 km/h (3 Bft) W-SW 248 0 min 0,000 mm 0,0 UV-I 0 W/m 5,0 C -0,4 C 20,9 km/h (4 Bft) 96,97 %
01.04.2018 00:11 6,2 C 6,1 C 92 % 997,8 hPa 0,0 l/m 16,3 km/h (3 Bft) W-SW 237 0 min 0,000 mm 0,0 UV-I 0 W/m 5,0 C -0,1 C 20,9 km/h (4 Bft) 90,91 %
01.04.2018 00:12 6,2 C 6,1 C 92 % 997,8 hPa 0,0 l/m 17,8 km/h (3 Bft) W-SW 245 0 min 0,000 mm 0,0 UV-I 0 W/m 5,0 C -0,7 C 24,1 km/h (4 Bft) 96,97 %
01.04.2018 00:13 6,2 C 6,1 C 92 % 997,8 hPa 0,0 l/m 16,3 km/h (3 Bft) W 269 0 min 0,000 mm 0,0 UV-I 0 W/m 5,0 C -0,1 C 22,5 km/h (4 Bft) 96,15 %
01.04.2018 00:14 6,2 C 6,1 C 92 % 997,8 hPa 0,0 l/m 15,1 km/h (3 Bft) W 274 0 min 0,000 mm 0,0 UV-I 0 W/m 5,0 C 0,5 C 20,9 km/h (4 Bft) 96,30 %
01.04.2018 00:15 6,2 C 6,1 C 92 % 997,8 hPa 0,0 l/m 16,6 km/h (3 Bft) W 265 0 min 0,000 mm 0,0 UV-I 0 W/m 5,0 C -0,2 C 20,9 km/h (4 Bft) 100,00 %
01.04.2018 00:16 6,2 C 6,1 C 92 % 997,8 hPa 0,0 l/m 16,9 km/h (3 Bft) SW 234 0 min 0,000 mm 0,0 UV-I 0 W/m 5,0 C -0,4 C 25,7 km/h (4 Bft) 100,00 %
01.04.2018 00:17 6,2 C 6,1 C 92 % 997,7 hPa 0,0 l/m 15,6 km/h (3 Bft) W-SW 255 0 min 0,000 mm 0,0 UV-I 0 W/m 5,0 C 0,2 C 19,3 km/h (3 Bft) 92,31 %
01.04.2018 00:18 6,2 C 6,1 C 92 % 997,8 hPa 0,0 l/m 16,8 km/h (3 Bft) SW 228 0 min 0,000 mm 0,0 UV-I 0 W/m 5,0 C -0,3 C 20,9 km/h (4 Bft) 100,00 %
01.04.2018 00:19 6,2 C 6,1 C 92 % 997,8 hPa 0,0 l/m 18,9 km/h (3 Bft) W-SW 256 0 min 0,000 mm 0,0 UV-I 0 W/m 5,0 C -1,2 C 25,7 km/h (4 Bft) 100,00 %
01.04.2018 00:20 6,2 C 6,1 C 92 % 997,8 hPa 0,0 l/m 15,1 km/h (3 Bft) SW 228 0 min 0,000 mm 0,0 UV-I 0 W/m 5,0 C 0,5 C 19,3 km/h (3 Bft) 100,00 %
01.04.2018 00:21 6,2 C 6,1 C 92 % 997,8 hPa 0,0 l/m 19,0 km/h (3 Bft) W-SW 256 0 min 0,000 mm 0,0 UV-I 0 W/m 5,0 C -1,2 C 25,7 km/h (4 Bft) 100,00 %
01.04.2018 00:22 6,3 C 6,1 C 92 % 997,8 hPa 0,0 l/m 13,6 km/h (3 Bft) W 263 0 min 0,000 mm 0,0 UV-I 0 W/m 5,1 C 1,4 C 19,3 km/h (3 Bft) 96,30 %
01.04.2018 00:23 6,2 C 6,1 C 92 % 997,8 hPa 0,0 l/m 13,6 km/h (3 Bft) SW 228 0 min 0,000 mm 0,0 UV-I 0 W/m 5,0 C 1,2 C 19,3 km/h (3 Bft) 100,00 %
01.04.2018 00:24 6,2 C 6,1 C 92 % 997,8 hPa 0,0 l/m 18,4 km/h (3 Bft) W 265 0 min 0,000 mm 0,0 UV-I 0 W/m 5,0 C -1,0 C 24,1 km/h (4 Bft) 100,00 %
01.04.2018 00:25 6,2 C 6,1 C 92 % 997,8 hPa 0,0 l/m 16,6 km/h (3 Bft) SW 235 0 min 0,000 mm 0,0 UV-I 0 W/m 5,0 C -0,2 C 22,5 km/h (4 Bft) 96,30 %
01.04.2018 00:26 6,2 C 6,1 C 92 % 997,8 hPa 0,0 l/m 15,2 km/h (3 Bft) W 269 0 min 0,000 mm 0,0 UV-I 0 W/m 5,0 C 0,4 C 20,9 km/h (4 Bft) 100,00 %
01.04.2018 00:27 6,2 C 6,1 C 92 % 997,9 hPa 0,0 l/m 17,2 km/h (3 Bft) W 277 0 min 0,000 mm 0,0 UV-I 0 W/m 5,0 C -0,5 C 22,5 km/h (4 Bft) 95,83 %
01.04.2018 00:28 6,3 C 6,1 C 92 % 997,9 hPa 0,0 l/m 15,9 km/h (3 Bft) W 261 0 min 0,000 mm 0,0 UV-I 0 W/m 5,1 C 0,2 C 20,9 km/h (4 Bft) 100,00 %
01.04.2018 00:29 6,3 C 6,1 C 92 % 997,9 hPa 0,0 l/m 14,6 km/h (3 Bft) W 270 0 min 0,000 mm 0,0 UV-I 0 W/m 5,1 C 0,8 C 20,9 km/h (4 Bft) 93,33 %
01.04.2018 00:30 6,3 C 6,1 C 92 % 997,9 hPa 0,0 l/m 12,3 km/h (3 Bft) W-SW 251 0 min 0,000 mm 0,0 UV-I 0 W/m 5,1 C 2,1 C 14,5 km/h (3 Bft) 100,00 %
01.04.2018 00:31 6,3 C 6,1 C 92 % 998,0 hPa 0,0 l/m 16,8 km/h (3 Bft) W 261 0 min 0,000 mm 0,0 UV-I 0 W/m 5,1 C -0,2 C 19,3 km/h (3 Bft) 96,30 %
01.04.2018 00:32 6,3 C 6,1 C 92 % 998,0 hPa 0,0 l/m 15,1 km/h (3 Bft) W 265 0 min 0,000 mm 0,0 UV-I 0 W/m 5,1 C 0,6 C 19,3 km/h (3 Bft) 100,00 %
01.04.2018 00:33 6,3 C 6,1 C 92 % 998,0 hPa 0,0 l/m 16,4 km/h (3 Bft) W 271 0 min 0,000 mm 0,0 UV-I 0 W/m 5,1 C -0,0 C 20,9 km/h (4 Bft) 100,00 %
01.04.2018 00:34 6,3 C 6,1 C 92 % 998,0 hPa 0,0 l/m 14,2 km/h (3 Bft) W-SW 256 0 min 0,000 mm 0,0 UV-I 0 W/m 5,1 C 1,1 C 19,3 km/h (3 Bft) 100,00 %
01.04.2018 00:35 6,3 C 6,1 C 92 % 998,0 hPa 0,0 l/m 13,3 km/h (3 Bft) W 277 0 min 0,000 mm 0,0 UV-I 0 W/m 5,1 C 1,5 C 19,3 km/h (3 Bft) 96,30 %
01.04.2018 00:36 6,3 C 6,1 C 92 % 998,0 hPa 0,0 l/m 14,2 km/h (3 Bft) SW 225 0 min 0,000 mm 0,0 UV-I 0 W/m 5,1 C 1,1 C 25,7 km/h (4 Bft) 100,00 %
01.04.2018 00:37 6,3 C 6,1 C 92 % 998,0 hPa 0,0 l/m 16,6 km/h (3 Bft) W 269 0 min 0,000 mm 0,0 UV-I 0 W/m 5,1 C -0,1 C 20,9 km/h (4 Bft) 100,00 %
01.04.2018 00:38 6,3 C 6,1 C 92 % 998,0 hPa 0,0 l/m 15,7 km/h (3 Bft) W-SW 255 0 min 0,000 mm 0,0 UV-I 0 W/m 5,1 C 0,3 C 19,3 km/h (3 Bft) 100,00 %
01.04.2018 00:39 6,3 C 6,1 C 92 % 998,0 hPa 0,0 l/m 16,5 km/h (3 Bft) W 261 0 min 0,000 mm 0,0 UV-I 0 W/m 5,1 C -0,1 C 19,3 km/h (3 Bft) 100,00 %
01.04.2018 00:40 6,3 C 6,1 C 91 % 998,1 hPa 0,0 l/m 14,6 km/h (3 Bft) W-SW 258 0 min 0,000 mm 0,0 UV-I 0 W/m 4,9 C 0,8 C 20,9 km/h (4 Bft) 100,00 %
01.04.2018 00:41 6,3 C 6,1 C 91 % 998,1 hPa 0,0 l/m 13,9 km/h (3 Bft) W-SW 243 0 min 0,000 mm 0,0 UV-I 0 W/m 4,9 C 1,2 C 20,9 km/h (4 Bft) 100,00 %
01.04.2018 00:42 6,3 C 6,1 C 91 % 998,1 hPa 0,0 l/m 15,8 km/h (3 Bft) SW 232 0 min 0,000 mm 0,0 UV-I 0 W/m 4,9 C 0,3 C 19,3 km/h (3 Bft) 100,00 %
01.04.2018 00:43 6,3 C 6,1 C 91 % 998,1 hPa 0,0 l/m 15,0 km/h (3 Bft) W 264 0 min 0,000 mm 0,0 UV-I 0 W/m 4,9 C 0,7 C 19,3 km/h (3 Bft) 100,00 %
01.04.2018 00:44 6,3 C 6,1 C 91 % 998,1 hPa 0,0 l/m 15,4 km/h (3 Bft) W-SW 252 0 min 0,000 mm 0,0 UV-I 0 W/m 4,9 C 0,5 C 20,9 km/h (4 Bft) 100,00 %
01.04.2018 00:45 6,3 C 6,1 C 91 % 998,1 hPa 0,0 l/m 12,2 km/h (2 Bft) W-NW 285 0 min 0,000 mm 0,0 UV-I 0 W/m 4,9 C 2,1 C 16,1 km/h (3 Bft) 100,00 %
01.04.2018 00:46 6,3 C 6,1 C 91 % 998,1 hPa 0,0 l/m 13,2 km/h (3 Bft) W 267 0 min 0,000 mm 0,0 UV-I 0 W/m 4,9 C 1,6 C 20,9 km/h (4 Bft) 100,00 %
01.04.2018 00:47 6,3 C 6,1 C 91 % 998,1 hPa 0,0 l/m 16,6 km/h (3 Bft) W-SW 243 0 min 0,000 mm 0,0 UV-I 0 W/m 4,9 C -0,1 C 22,5 km/h (4 Bft) 96,15 %
01.04.2018 00:48 6,3 C 6,1 C 91 % 998,1 hPa 0,0 l/m 13,4 km/h (3 Bft) W 265 0 min 0,000 mm 0,0 UV-I 0 W/m 4,9 C 1,5 C 17,7 km/h (3 Bft) 100,00 %
01.04.2018 00:49 6,3 C 6,1 C 91 % 998,2 hPa 0,0 l/m 15,2 km/h (3 Bft) W 267 0 min 0,000 mm 0,0 UV-I 0 W/m 4,9 C 0,6 C 17,7 km/h (3 Bft) 94,12 %
01.04.2018 00:50 6,3 C 6,1 C 91 % 998,2 hPa 0,0 l/m 14,5 km/h (3 Bft) W 259 0 min 0,000 mm 0,0 UV-I 0 W/m 4,9 C 0,9 C 19,3 km/h (3 Bft) 100,00 %
01.04.2018 00:51 6,3 C 6,1 C 91 % 998,3 hPa 0,0 l/m 16,6 km/h (3 Bft) W 275 0 min 0,000 mm 0,0 UV-I 0 W/m 4,9 C -0,1 C 24,1 km/h (4 Bft) 91,30 %
01.04.2018 00:52 6,3 C 6,1 C 91 % 998,3 hPa 0,0 l/m 12,9 km/h (3 Bft) W 262 0 min 0,000 mm 0,0 UV-I 0 W/m 4,9 C 1,7 C 16,1 km/h (3 Bft) 96,30 %
01.04.2018 00:53 6,3 C 6,1 C 91 % 998,2 hPa 0,0 l/m 12,8 km/h (3 Bft) W 265 0 min 0,000 mm 0,0 UV-I 0 W/m 4,9 C 1,8 C 17,7 km/h (3 Bft) 95,65 %
01.04.2018 00:54 6,3 C 6,1 C 91 % 998,4 hPa 0,0 l/m 12,5 km/h (3 Bft) W-SW 239 0 min 0,000 mm 0,0 UV-I 0 W/m 4,9 C 2,0 C 16,1 km/h (3 Bft) 91,67 %
01.04.2018 00:55 6,3 C 6,1 C 91 % 998,3 hPa 0,0 l/m 14,8 km/h (3 Bft) W-SW 244 0 min 0,000 mm 0,0 UV-I 0 W/m 4,9 C 0,7 C 22,5 km/h (4 Bft) 100,00 %
01.04.2018 00:56 6,3 C 6,1 C 91 % 998,3 hPa 0,0 l/m 14,8 km/h (3 Bft) W-SW 254 0 min 0,000 mm 0,0 UV-I 0 W/m 4,9 C 0,7 C 19,3 km/h (3 Bft) 100,00 %
01.04.2018 00:57 6,3 C 6,1 C 91 % 998,4 hPa 0,0 l/m 14,7 km/h (3 Bft) W 262 0 min 0,000 mm 0,0 UV-I 0 W/m 4,9 C 0,8 C 19,3 km/h (3 Bft) 96,15 %
01.04.2018 00:58 6,3 C 6,1 C 91 % 998,4 hPa 0,0 l/m 14,8 km/h (3 Bft) W-SW 237 0 min 0,000 mm 0,0 UV-I 0 W/m 4,9 C 0,7 C 19,3 km/h (3 Bft) 95,83 %
01.04.2018 00:59 6,3 C 6,1 C 91 % 998,4 hPa 0,0 l/m 12,5 km/h (3 Bft) W-SW 240 0 min 0,000 mm 0,0 UV-I 0 W/m 4,9 C 2,0 C 17,7 km/h (3 Bft) 96,15 %
01.04.2018 01:00 6,3 C 6,1 C 91 % 998,4 hPa 0,0 l/m 15,5 km/h (3 Bft) W-SW 250 0 min 0,025 mm 0,0 UV-I 0 W/m 4,9 C 0,4 C 20,9 km/h (4 Bft) 96,30 %
01.04.2018 01:02 6,3 C 6,1 C 91 % 998,5 hPa 0,0 l/m 12,5 km/h (3 Bft) W 260 0 min 0,000 mm 0,0 UV-I 0 W/m 4,9 C 2,0 C 17,7 km/h (3 Bft) 91,43 %
01.04.2018 01:03 6,3 C 6,1 C 91 % 998,4 hPa 0,0 l/m 13,0 km/h (3 Bft) W 279 0 min 0,000 mm 0,0 UV-I 0 W/m 4,9 C 1,7 C 17,7 km/h (3 Bft) 100,00 %
01.04.2018 01:04 6,3 C 6,1 C 92 % 998,4 hPa 0,0 l/m 13,3 km/h (3 Bft) W 269 0 min 0,000 mm 0,0 UV-I 0 W/m 5,1 C 1,5 C 17,7 km/h (3 Bft) 96,15 %
01.04.2018 01:05 6,3 C 6,1 C 92 % 998,5 hPa 0,0 l/m 14,7 km/h (3 Bft) W-NW 290 0 min 0,000 mm 0,0 UV-I 0 W/m 5,1 C 0,8 C 17,7 km/h (3 Bft) 95,83 %
01.04.2018 01:06 6,3 C 6,1 C 91 % 998,5 hPa 0,0 l/m 19,6 km/h (3 Bft) W 278 0 min 0,000 mm 0,0 UV-I 0 W/m 4,9 C -1,3 C 27,4 km/h (4 Bft) 100,00 %
01.04.2018 01:07 6,3 C 6,1 C 91 % 998,5 hPa 0,0 l/m 13,3 km/h (3 Bft) W 280 0 min 0,000 mm 0,0 UV-I 0 W/m 4,9 C 1,5 C 14,5 km/h (3 Bft) 91,67 %
01.04.2018 01:08 6,3 C 6,1 C 91 % 998,5 hPa 0,0 l/m 12,8 km/h (3 Bft) W-SW 245 0 min 0,000 mm 0,0 UV-I 0 W/m 4,9 C 1,8 C 17,7 km/h (3 Bft) 96,15 %
01.04.2018 01:09 6,3 C 6,1 C 91 % 998,5 hPa 0,0 l/m 17,1 km/h (3 Bft) W 275 0 min 0,000 mm 0,0 UV-I 0 W/m 4,9 C -0,3 C 22,5 km/h (4 Bft) 95,83 %
01.04.2018 01:10 6,3 C 6,1 C 91 % 998,5 hPa 0,0 l/m 16,9 km/h (3 Bft) W 270 0 min 0,000 mm 0,0 UV-I 0 W/m 4,9 C -0,2 C 20,9 km/h (4 Bft) 100,00 %
01.04.2018 01:11 6,3 C 6,1 C 91 % 998,6 hPa 0,0 l/m 13,4 km/h (3 Bft) W-SW 239 0 min 0,000 mm 0,0 UV-I 0 W/m 4,9 C 1,5 C 16,1 km/h (3 Bft) 93,33 %
01.04.2018 01:12 6,3 C 6,1 C 91 % 998,5 hPa 0,0 l/m 12,4 km/h (3 Bft) W 277 0 min 0,000 mm 0,0 UV-I 0 W/m 4,9 C 2,0 C 17,7 km/h (3 Bft) 92,31 %
01.04.2018 01:13 6,3 C 6,1 C 91 % 998,6 hPa 0,0 l/m 14,3 km/h (3 Bft) W-NW 292 0 min 0,000 mm 0,0 UV-I 0 W/m 4,9 C 1,0 C 17,7 km/h (3 Bft) 100,00 %
01.04.2018 01:14 6,3 C 6,1 C 91 % 998,6 hPa 0,0 l/m 12,7 km/h (3 Bft) W 273 0 min 0,000 mm 0,0 UV-I 0 W/m 4,9 C 1,9 C 19,3 km/h (3 Bft) 90,91 %
01.04.2018 01:15 6,4 C 6,1 C 91 % 998,6 hPa 0,0 l/m 19,5 km/h (3 Bft) W 266 0 min 0,000 mm 0,0 UV-I 0 W/m 5,0 C -1,2 C 22,5 km/h (4 Bft) 93,94 %
01.04.2018 01:16 6,4 C 6,1 C 91 % 998,7 hPa 0,0 l/m 15,9 km/h (3 Bft) W-NW 283 0 min 0,000 mm 0,0 UV-I 0 W/m 5,0 C 0,3 C 19,3 km/h (3 Bft) 94,12 %
01.04.2018 01:17 6,4 C 6,1 C 90 % 998,6 hPa 0,0 l/m 15,0 km/h (3 Bft) W 267 0 min 0,000 mm 0,0 UV-I 0 W/m 4,9 C 0,8 C 22,5 km/h (4 Bft) 100,00 %
01.04.2018 01:18 6,4 C 6,1 C 90 % 998,7 hPa 0,0 l/m 14,8 km/h (3 Bft) W-SW 252 0 min 0,000 mm 0,0 UV-I 0 W/m 4,9 C 0,9 C 16,1 km/h (3 Bft) 92,31 %
01.04.2018 01:19 6,4 C 6,1 C 90 % 998,7 hPa 0,0 l/m 14,6 km/h (3 Bft) W-SW 248 0 min 0,000 mm 0,0 UV-I 0 W/m 4,9 C 1,0 C 17,7 km/h (3 Bft) 100,00 %
01.04.2018 01:20 6,4 C 6,1 C 90 % 998,6 hPa 0,0 l/m 13,8 km/h (3 Bft) W 259 0 min 0,000 mm 0,0 UV-I 0 W/m 4,9 C 1,4 C 19,3 km/h (3 Bft) 95,65 %
01.04.2018 01:21 6,4 C 6,1 C 90 % 998,7 hPa 0,0 l/m 16,3 km/h (3 Bft) W 267 0 min 0,000 mm 0,0 UV-I 0 W/m 4,9 C 0,2 C 22,5 km/h (4 Bft) 91,67 %
01.04.2018 01:22 6,4 C 6,1 C 90 % 998,7 hPa 0,0 l/m 18,9 km/h (3 Bft) W 266 0 min 0,000 mm 0,0 UV-I 0 W/m 4,9 C -0,9 C 25,7 km/h (4 Bft) 92,59 %
01.04.2018 01:23 6,5 C 6,1 C 90 % 998,7 hPa 0,0 l/m 15,1 km/h (3 Bft) W 272 0 min 0,000 mm 0,0 UV-I 0 W/m 5,0 C 0,8 C 17,7 km/h (3 Bft) 96,15 %
01.04.2018 01:24 6,5 C 6,1 C 90 % 998,7 hPa 0,0 l/m 12,7 km/h (3 Bft) W 274 0 min 0,000 mm 0,0 UV-I 0 W/m 5,0 C 2,1 C 16,1 km/h (3 Bft) 96,30 %
01.04.2018 01:25 6,5 C 6,1 C 90 % 998,7 hPa 0,0 l/m 12,9 km/h (3 Bft) W-SW 253 0 min 0,000 mm 0,0 UV-I 0 W/m 5,0 C 2,0 C 16,1 km/h (3 Bft) 100,00 %
01.04.2018 01:26 6,4 C 6,1 C 90 % 998,7 hPa 0,0 l/m 17,2 km/h (3 Bft) W-SW 248 0 min 0,000 mm 0,0 UV-I 0 W/m 4,9 C -0,2 C 22,5 km/h (4 Bft) 100,00 %
01.04.2018 01:27 6,4 C 6,1 C 90 % 998,7 hPa 0,0 l/m 12,0 km/h (2 Bft) W 264 0 min 0,000 mm 0,0 UV-I 0 W/m 4,9 C 2,4 C 16,1 km/h (3 Bft) 100,00 %
01.04.2018 01:28 6,4 C 6,1 C 90 % 998,7 hPa 0,0 l/m 13,6 km/h (3 Bft) W 276 0 min 0,000 mm 0,0 UV-I 0 W/m 4,9 C 1,5 C 20,9 km/h (4 Bft) 100,00 %
01.04.2018 01:29 6,5 C 6,1 C 89 % 998,7 hPa 0,0 l/m 15,0 km/h (3 Bft) W-NW 286 0 min 0,000 mm 0,0 UV-I 0 W/m 4,8 C 0,9 C 22,5 km/h (4 Bft) 100,00 %
01.04.2018 01:30 6,5 C 6,1 C 89 % 998,8 hPa 0,0 l/m 17,5 km/h (3 Bft) W 274 0 min 0,000 mm 0,0 UV-I 0 W/m 4,8 C -0,2 C 27,4 km/h (4 Bft) 100,00 %
01.04.2018 01:31 6,5 C 6,1 C 89 % 998,7 hPa 0,0 l/m 16,9 km/h (3 Bft) W 271 0 min 0,000 mm 0,0 UV-I 0 W/m 4,8 C 0,0 C 19,3 km/h (3 Bft) 100,00 %
01.04.2018 01:32 6,5 C 6,1 C 89 % 998,7 hPa 0,0 l/m 16,3 km/h (3 Bft) W-SW 249 0 min 0,000 mm 0,0 UV-I 0 W/m 4,8 C 0,3 C 19,3 km/h (3 Bft) 95,83 %
01.04.2018 01:33 6,5 C 6,1 C 89 % 998,7 hPa 0,0 l/m 18,8 km/h (3 Bft) W 279 0 min 0,000 mm 0,0 UV-I 0 W/m 4,8 C -0,8 C 25,7 km/h (4 Bft) 100,00 %
01.04.2018 01:34 6,5 C 6,1 C 89 % 998,8 hPa 0,0 l/m 16,7 km/h (3 Bft) W 272 0 min 0,000 mm 0,0 UV-I 0 W/m 4,8 C 0,1 C 22,5 km/h (4 Bft) 100,00 %
01.04.2018 01:35 6,6 C 6,1 C 89 % 998,7 hPa 0,0 l/m 15,2 km/h (3 Bft) W-SW 252 0 min 0,000 mm 0,0 UV-I 0 W/m 4,9 C 0,9 C 19,3 km/h (3 Bft) 96,30 %
01.04.2018 01:36 6,6 C 6,1 C 89 % 998,7 hPa 0,0 l/m 18,5 km/h (3 Bft) W-SW 250 0 min 0,000 mm 0,0 UV-I 0 W/m 4,9 C -0,5 C 24,1 km/h (4 Bft) 95,83 %
01.04.2018 01:37 6,6 C 6,1 C 89 % 998,8 hPa 0,0 l/m 17,9 km/h (3 Bft) W 275 0 min 0,000 mm 0,0 UV-I 0 W/m 4,9 C -0,3 C 24,1 km/h (4 Bft) 91,67 %
01.04.2018 01:38 6,6 C 6,1 C 89 % 998,8 hPa 0,0 l/m 14,2 km/h (3 Bft) W-NW 284 0 min 0,000 mm 0,0 UV-I 0 W/m 4,9 C 1,4 C 19,3 km/h (3 Bft) 100,00 %
01.04.2018 01:39 6,6 C 6,1 C 88 % 998,8 hPa 0,0 l/m 12,7 km/h (3 Bft) W-NW 287 0 min 0,000 mm 0,0 UV-I 0 W/m 4,8 C 2,2 C 19,3 km/h (3 Bft) 100,00 %
01.04.2018 01:40 6,6 C 6,1 C 89 % 998,8 hPa 0,0 l/m 16,0 km/h (3 Bft) W 269 0 min 0,000 mm 0,0 UV-I 0 W/m 4,9 C 0,5 C 24,1 km/h (4 Bft) 100,00 %
01.04.2018 01:41 6,6 C 6,1 C 89 % 998,8 hPa 0,0 l/m 12,3 km/h (3 Bft) W-SW 250 0 min 0,000 mm 0,0 UV-I 0 W/m 4,9 C 2,4 C 14,5 km/h (3 Bft) 100,00 %
01.04.2018 01:42 6,5 C 6,1 C 89 % 998,8 hPa 0,0 l/m 11,9 km/h (2 Bft) W 263 0 min 0,000 mm 0,0 UV-I 0 W/m 4,8 C 2,5 C 16,1 km/h (3 Bft) 100,00 %
01.04.2018 01:43 6,5 C 6,1 C 89 % 998,8 hPa 0,0 l/m 12,8 km/h (3 Bft) W 263 0 min 0,000 mm 0,0 UV-I 0 W/m 4,8 C 2,0 C 16,1 km/h (3 Bft) 100,00 %
01.04.2018 01:44 6,5 C 6,1 C 89 % 998,8 hPa 0,0 l/m 16,5 km/h (3 Bft) W 267 0 min 0,000 mm 0,0 UV-I 0 W/m 4,8 C 0,2 C 19,3 km/h (3 Bft) 96,15 %
01.04.2018 01:45 6,5 C 6,1 C 89 % 998,9 hPa 0,0 l/m 10,9 km/h (2 Bft) W 261 0 min 0,000 mm 0,0 UV-I 0 W/m 4,8 C 3,1 C 14,5 km/h (3 Bft) 100,00 %
01.04.2018 01:46 6,5 C 6,1 C 89 % 998,8 hPa 0,0 l/m 16,4 km/h (3 Bft) W 269 0 min 0,000 mm 0,0 UV-I 0 W/m 4,8 C 0,2 C 20,9 km/h (4 Bft) 100,00 %
01.04.2018 01:47 6,5 C 6,1 C 89 % 998,8 hPa 0,0 l/m 17,0 km/h (3 Bft) W 279 0 min 0,000 mm 0,0 UV-I 0 W/m 4,8 C -0,0 C 19,3 km/h (3 Bft) 100,00 %
01.04.2018 01:48 6,5 C 6,1 C 89 % 998,9 hPa 0,0 l/m 16,1 km/h (3 Bft) W 274 0 min 0,000 mm 0,0 UV-I 0 W/m 4,8 C 0,4 C 20,9 km/h (4 Bft) 100,00 %
01.04.2018 01:49 6,5 C 6,1 C 89 % 999,0 hPa 0,0 l/m 17,9 km/h (3 Bft) W 269 0 min 0,000 mm 0,0 UV-I 0 W/m 4,8 C -0,4 C 24,1 km/h (4 Bft) 100,00 %
01.04.2018 01:50 6,5 C 6,1 C 88 % 999,0 hPa 0,0 l/m 15,0 km/h (3 Bft) W 278 0 min 0,000 mm 0,0 UV-I 0 W/m 4,7 C 0,9 C 19,3 km/h (3 Bft) 100,00 %
01.04.2018 01:51 6,6 C 6,1 C 88 % 999,0 hPa 0,0 l/m 17,1 km/h (3 Bft) W 264 0 min 0,000 mm 0,0 UV-I 0 W/m 4,8 C 0,1 C 24,1 km/h (4 Bft) 100,00 %
01.04.2018 01:52 6,6 C 6,1 C 88 % 998,9 hPa 0,0 l/m 16,0 km/h (3 Bft) W 276 0 min 0,000 mm 0,0 UV-I 0 W/m 4,8 C 0,5 C 20,9 km/h (4 Bft) 100,00 %
01.04.2018 01:53 6,6 C 6,1 C 88 % 999,0 hPa 0,0 l/m 15,6 km/h (3 Bft) W 276 0 min 0,000 mm 0,0 UV-I 0 W/m 4,8 C 0,7 C 19,3 km/h (3 Bft) 100,00 %
01.04.2018 01:54 6,6 C 6,1 C 88 % 999,0 hPa 0,0 l/m 14,6 km/h (3 Bft) W 269 0 min 0,000 mm 0,0 UV-I 0 W/m 4,8 C 1,2 C 20,9 km/h (4 Bft) 100,00 %
01.04.2018 01:55 6,6 C 6,1 C 88 % 999,0 hPa 0,0 l/m 16,2 km/h (3 Bft) W-SW 257 0 min 0,000 mm 0,0 UV-I 0 W/m 4,8 C 0,5 C 19,3 km/h (3 Bft) 100,00 %
01.04.2018 01:56 6,6 C 6,1 C 88 % 999,0 hPa 0,0 l/m 15,2 km/h (3 Bft) W-SW 246 0 min 0,000 mm 0,0 UV-I 0 W/m 4,8 C 0,9 C 19,3 km/h (3 Bft) 100,00 %
01.04.2018 01:57 6,6 C 6,1 C 88 % 999,0 hPa 0,0 l/m 16,8 km/h (3 Bft) W-NW 291 0 min 0,000 mm 0,0 UV-I 0 W/m 4,8 C 0,2 C 22,5 km/h (4 Bft) 100,00 %
01.04.2018 01:58 6,6 C 6,1 C 88 % 999,1 hPa 0,0 l/m 15,4 km/h (3 Bft) W 271 0 min 0,000 mm 0,0 UV-I 0 W/m 4,8 C 0,8 C 22,5 km/h (4 Bft) 96,15 %
01.04.2018 01:59 6,6 C 6,1 C 88 % 999,1 hPa 0,0 l/m 21,9 km/h (4 Bft) W-SW 254 0 min 0,000 mm 0,0 UV-I 0 W/m 4,8 C -1,8 C 29,0 km/h (5 Bft) 100,00 %
01.04.2018 02:00 6,6 C 6,1 C 88 % 999,1 hPa 0,0 l/m 18,2 km/h (3 Bft) W 259 0 min 0,026 mm 0,0 UV-I 0 W/m 4,8 C -0,4 C 25,7 km/h (4 Bft) 100,00 %
01.04.2018 02:01 6,6 C 6,1 C 88 % 999,1 hPa 0,0 l/m 17,2 km/h (3 Bft) W-SW 245 0 min 0,000 mm 0,0 UV-I 0 W/m 4,8 C 0,0 C 19,3 km/h (3 Bft) 96,55 %
01.04.2018 02:02 6,6 C 6,1 C 88 % 999,1 hPa 0,0 l/m 21,2 km/h (4 Bft) W 281 0 min 0,000 mm 0,0 UV-I 0 W/m 4,8 C -1,5 C 25,7 km/h (4 Bft) 100,00 %
01.04.2018 02:03 6,6 C 6,1 C 88 % 999,1 hPa 0,0 l/m 17,4 km/h (3 Bft) W 268 0 min 0,000 mm 0,0 UV-I 0 W/m 4,8 C -0,1 C 24,1 km/h (4 Bft) 97,14 %
01.04.2018 02:04 6,6 C 6,1 C 88 % 999,1 hPa 0,0 l/m 22,9 km/h (4 Bft) W 269 0 min 0,000 mm 0,0 UV-I 0 W/m 4,8 C -2,1 C 25,7 km/h (4 Bft) 100,00 %
01.04.2018 02:05 6,6 C 6,1 C 87 % 999,1 hPa 0,0 l/m 14,1 km/h (3 Bft) W 277 0 min 0,000 mm 0,0 UV-I 0 W/m 4,6 C 1,5 C 20,9 km/h (4 Bft) 100,00 %
01.04.2018 02:06 6,6 C 6,1 C 87 % 999,2 hPa 0,0 l/m 19,7 km/h (3 Bft) W 267 0 min 0,000 mm 0,0 UV-I 0 W/m 4,6 C -1,0 C 25,7 km/h (4 Bft) 100,00 %
01.04.2018 02:07 6,6 C 6,1 C 87 % 999,2 hPa 0,0 l/m 12,6 km/h (3 Bft) W-NW 284 0 min 0,000 mm 0,0 UV-I 0 W/m 4,6 C 2,3 C 17,7 km/h (3 Bft) 100,00 %
01.04.2018 02:08 6,6 C 6,1 C 88 % 999,2 hPa 0,0 l/m 17,9 km/h (3 Bft) W-NW 284 0 min 0,000 mm 0,0 UV-I 0 W/m 4,8 C -0,3 C 25,7 km/h (4 Bft) 100,00 %
01.04.2018 02:09 6,6 C 6,1 C 87 % 999,2 hPa 0,0 l/m 18,9 km/h (3 Bft) W 267 0 min 0,000 mm 0,0 UV-I 0 W/m 4,6 C -0,7 C 25,7 km/h (4 Bft) 100,00 %
01.04.2018 02:10 6,6 C 6,1 C 88 % 999,2 hPa 0,0 l/m 20,0 km/h (4 Bft) W 279 0 min 0,000 mm 0,0 UV-I 0 W/m 4,8 C -1,1 C 25,7 km/h (4 Bft) 100,00 %
01.04.2018 02:11 6,6 C 6,1 C 87 % 999,3 hPa 0,0 l/m 19,9 km/h (4 Bft) W 263 0 min 0,000 mm 0,0 UV-I 0 W/m 4,6 C -1,1 C 27,4 km/h (4 Bft) 100,00 %
01.04.2018 02:12 6,6 C 6,1 C 87 % 999,3 hPa 0,0 l/m 20,3 km/h (4 Bft) W 270 0 min 0,000 mm 0,0 UV-I 0 W/m 4,6 C -1,2 C 24,1 km/h (4 Bft) 100,00 %
01.04.2018 02:13 6,6 C 6,1 C 87 % 999,3 hPa 0,0 l/m 16,6 km/h (3 Bft) W 276 0 min 0,000 mm 0,0 UV-I 0 W/m 4,6 C 0,3 C 22,5 km/h (4 Bft) 100,00 %
01.04.2018 02:14 6,6 C 6,1 C 87 % 999,4 hPa 0,0 l/m 17,9 km/h (3 Bft) W 263 0 min 0,000 mm 0,0 UV-I 0 W/m 4,6 C -0,3 C 24,1 km/h (4 Bft) 100,00 %
01.04.2018 02:15 6,6 C 6,1 C 87 % 999,4 hPa 0,0 l/m 17,1 km/h (3 Bft) W-SW 249 0 min 0,000 mm 0,0 UV-I 0 W/m 4,6 C 0,1 C 27,4 km/h (4 Bft) 100,00 %
01.04.2018 02:16 6,6 C 6,1 C 87 % 999,4 hPa 0,0 l/m 22,0 km/h (4 Bft) W-NW 285 0 min 0,000 mm 0,0 UV-I 0 W/m 4,6 C -1,8 C 29,0 km/h (5 Bft) 100,00 %
01.04.2018 02:17 6,6 C 6,1 C 87 % 999,4 hPa 0,0 l/m 13,5 km/h (3 Bft) W 275 0 min 0,000 mm 0,0 UV-I 0 W/m 4,6 C 1,8 C 16,1 km/h (3 Bft) 100,00 %
01.04.2018 02:18 6,6 C 6,1 C 87 % 999,4 hPa 0,0 l/m 18,6 km/h (3 Bft) W-NW 290 0 min 0,000 mm 0,0 UV-I 0 W/m 4,6 C -0,6 C 24,1 km/h (4 Bft) 96,55 %
01.04.2018 02:19 6,6 C 6,1 C 87 % 999,4 hPa 0,0 l/m 25,3 km/h (4 Bft) W 267 0 min 0,000 mm 0,0 UV-I 0 W/m 4,6 C -2,9 C 33,8 km/h (5 Bft) 95,83 %
01.04.2018 02:20 6,6 C 6,1 C 87 % 999,4 hPa 0,0 l/m 16,9 km/h (3 Bft) W-SW 252 0 min 0,000 mm 0,0 UV-I 0 W/m 4,6 C 0,1 C 24,1 km/h (4 Bft) 95,65 %
01.04.2018 02:21 6,6 C 6,1 C 87 % 999,4 hPa 0,0 l/m 17,5 km/h (3 Bft) W-NW 298 0 min 0,000 mm 0,0 UV-I 0 W/m 4,6 C -0,1 C 20,9 km/h (4 Bft) 100,00 %
01.04.2018 02:22 6,6 C 6,1 C 87 % 999,4 hPa 0,0 l/m 13,9 km/h (3 Bft) W 265 0 min 0,000 mm 0,0 UV-I 0 W/m 4,6 C 1,6 C 19,3 km/h (3 Bft) 96,15 %
01.04.2018 02:23 6,6 C 6,1 C 87 % 999,4 hPa 0,0 l/m 12,1 km/h (2 Bft) W-NW 286 0 min 0,000 mm 0,0 UV-I 0 W/m 4,6 C 2,5 C 16,1 km/h (3 Bft) 100,00 %
01.04.2018 02:24 6,6 C 6,1 C 87 % 999,5 hPa 0,0 l/m 15,7 km/h (3 Bft) W 262 0 min 0,000 mm 0,0 UV-I 0 W/m 4,6 C 0,7 C 20,9 km/h (4 Bft) 100,00 %
01.04.2018 02:25 6,5 C 6,1 C 87 % 999,5 hPa 0,0 l/m 15,0 km/h (3 Bft) W 261 0 min 0,000 mm 0,0 UV-I 0 W/m 4,5 C 0,9 C 17,7 km/h (3 Bft) 100,00 %
01.04.2018 02:26 6,5 C 6,1 C 87 % 999,5 hPa 0,0 l/m 19,6 km/h (3 Bft) W 278 0 min 0,000 mm 0,0 UV-I 0 W/m 4,5 C -1,1 C 27,4 km/h (4 Bft) 95,65 %
01.04.2018 02:27 6,5 C 6,1 C 87 % 999,5 hPa 0,0 l/m 17,2 km/h (3 Bft) W 279 0 min 0,000 mm 0,0 UV-I 0 W/m 4,5 C -0,1 C 20,9 km/h (4 Bft) 100,00 %
01.04.2018 02:28 6,5 C 6,1 C 87 % 999,5 hPa 0,0 l/m 15,4 km/h (3 Bft) W-NW 286 0 min 0,000 mm 0,0 UV-I 0 W/m 4,5 C 0,7 C 22,5 km/h (4 Bft) 96,15 %
01.04.2018 02:29 6,5 C 6,1 C 87 % 999,6 hPa 0,0 l/m 12,9 km/h (3 Bft) W 277 0 min 0,000 mm 0,0 UV-I 0 W/m 4,5 C 2,0 C 16,1 km/h (3 Bft) 100,00 %
01.04.2018 02:30 6,4 C 6,1 C 86 % 999,6 hPa 0,0 l/m 19,6 km/h (3 Bft) W-SW 254 0 min 0,000 mm 0,0 UV-I 0 W/m 4,2 C -1,2 C 24,1 km/h (4 Bft) 100,00 %
01.04.2018 02:31 6,4 C 6,1 C 86 % 999,6 hPa 0,0 l/m 17,2 km/h (3 Bft) W 279 0 min 0,000 mm 0,0 UV-I 0 W/m 4,2 C -0,2 C 24,1 km/h (4 Bft) 100,00 %
01.04.2018 02:32 6,4 C 6,1 C 86 % 999,6 hPa 0,0 l/m 14,2 km/h (3 Bft) W 273 0 min 0,000 mm 0,0 UV-I 0 W/m 4,2 C 1,2 C 19,3 km/h (3 Bft) 100,00 %
01.04.2018 02:33 6,4 C 6,1 C 86 % 999,6 hPa 0,0 l/m 14,8 km/h (3 Bft) W 267 0 min 0,000 mm 0,0 UV-I 0 W/m 4,2 C 0,9 C 20,9 km/h (4 Bft) 100,00 %
01.04.2018 02:34 6,4 C 6,1 C 86 % 999,6 hPa 0,0 l/m 15,9 km/h (3 Bft) W-NW 290 0 min 0,000 mm 0,0 UV-I 0 W/m 4,2 C 0,3 C 19,3 km/h (3 Bft) 96,15 %
01.04.2018 02:35 6,4 C 6,1 C 86 % 999,6 hPa 0,0 l/m 14,0 km/h (3 Bft) W-SW 257 0 min 0,000 mm 0,0 UV-I 0 W/m 4,2 C 1,3 C 17,7 km/h (3 Bft) 100,00 %
01.04.2018 02:36 6,4 C 6,1 C 86 % 999,7 hPa 0,0 l/m 13,5 km/h (3 Bft) W 275 0 min 0,000 mm 0,0 UV-I 0 W/m 4,2 C 1,5 C 17,7 km/h (3 Bft) 100,00 %
01.04.2018 02:37 6,4 C 6,1 C 86 % 999,7 hPa 0,0 l/m 13,4 km/h (3 Bft) W-SW 258 0 min 0,000 mm 0,0 UV-I 0 W/m 4,2 C 1,6 C 16,1 km/h (3 Bft) 100,00 %
01.04.2018 02:38 6,4 C 6,1 C 86 % 999,7 hPa 0,0 l/m 12,5 km/h (3 Bft) W 275 0 min 0,000 mm 0,0 UV-I 0 W/m 4,2 C 2,1 C 17,7 km/h (3 Bft) 100,00 %
01.04.2018 02:39 6,4 C 6,1 C 86 % 999,7 hPa 0,0 l/m 17,4 km/h (3 Bft) W 273 0 min 0,000 mm 0,0 UV-I 0 W/m 4,2 C -0,3 C 24,1 km/h (4 Bft) 98,08 %
01.04.2018 02:40 6,4 C 6,1 C 86 % 999,7 hPa 0,0 l/m 17,8 km/h (3 Bft) W 268 0 min 0,000 mm 0,0 UV-I 0 W/m 4,2 C -0,5 C 22,5 km/h (4 Bft) 100,00 %
01.04.2018 02:41 6,4 C 6,1 C 85 % 999,7 hPa 0,0 l/m 12,0 km/h (2 Bft) W 279 0 min 0,000 mm 0,0 UV-I 0 W/m 4,1 C 2,4 C 16,1 km/h (3 Bft) 96,55 %
01.04.2018 02:42 6,4 C 6,1 C 85 % 999,8 hPa 0,0 l/m 15,3 km/h (3 Bft) W-NW 285 0 min 0,000 mm 0,0 UV-I 0 W/m 4,1 C 0,6 C 20,9 km/h (4 Bft) 100,00 %
01.04.2018 02:43 6,4 C 6,1 C 85 % 999,8 hPa 0,0 l/m 15,8 km/h (3 Bft) W 259 0 min 0,000 mm 0,0 UV-I 0 W/m 4,1 C 0,4 C 22,5 km/h (4 Bft) 97,37 %
01.04.2018 02:44 6,4 C 6,1 C 85 % 999,8 hPa 0,0 l/m 15,0 km/h (3 Bft) W 279 0 min 0,000 mm 0,0 UV-I 0 W/m 4,1 C 0,8 C 20,9 km/h (4 Bft) 100,00 %
01.04.2018 02:45 6,4 C 6,1 C 85 % 999,7 hPa 0,0 l/m 19,2 km/h (3 Bft) W-NW 294 0 min 0,000 mm 0,0 UV-I 0 W/m 4,1 C -1,1 C 25,7 km/h (4 Bft) 91,30 %
01.04.2018 02:46 6,4 C 6,1 C 85 % 999,8 hPa 0,0 l/m 16,0 km/h (3 Bft) W-SW 244 0 min 0,000 mm 0,0 UV-I 0 W/m 4,1 C 0,3 C 24,1 km/h (4 Bft) 93,33 %
01.04.2018 02:47 6,4 C 6,1 C 85 % 999,8 hPa 0,0 l/m 14,2 km/h (3 Bft) W 266 0 min 0,000 mm 0,0 UV-I 0 W/m 4,1 C 1,2 C 17,7 km/h (3 Bft) 100,00 %
01.04.2018 02:48 6,4 C 6,1 C 85 % 999,8 hPa 0,0 l/m 16,1 km/h (3 Bft) W 277 0 min 0,000 mm 0,0 UV-I 0 W/m 4,1 C 0,3 C 19,3 km/h (3 Bft) 100,00 %
01.04.2018 02:49 6,4 C 6,1 C 85 % 999,8 hPa 0,0 l/m 18,0 km/h (3 Bft) W 270 0 min 0,000 mm 0,0 UV-I 0 W/m 4,1 C -0,6 C 22,5 km/h (4 Bft) 95,65 %
01.04.2018 02:50 6,4 C 6,1 C 85 % 999,8 hPa 0,0 l/m 13,4 km/h (3 Bft) W 273 0 min 0,000 mm 0,0 UV-I 0 W/m 4,1 C 1,6 C 19,3 km/h (3 Bft) 100,00 %
01.04.2018 02:51 6,4 C 6,1 C 85 % 999,8 hPa 0,0 l/m 12,9 km/h (3 Bft) W-NW 292 0 min 0,000 mm 0,0 UV-I 0 W/m 4,1 C 1,9 C 17,7 km/h (3 Bft) 100,00 %
01.04.2018 02:52 6,4 C 6,1 C 85 % 999,9 hPa 0,0 l/m 13,8 km/h (3 Bft) W 281 0 min 0,000 mm 0,0 UV-I 0 W/m 4,1 C 1,4 C 17,7 km/h (3 Bft) 100,00 %
01.04.2018 02:53 6,4 C 6,1 C 85 % 999,9 hPa 0,0 l/m 16,5 km/h (3 Bft) W-SW 248 0 min 0,000 mm 0,0 UV-I 0 W/m 4,1 C 0,1 C 22,5 km/h (4 Bft) 94,12 %
01.04.2018 02:54 6,3 C 6,1 C 85 % 999,9 hPa 0,0 l/m 13,8 km/h (3 Bft) W-NW 289 0 min 0,000 mm 0,0 UV-I 0 W/m 4,0 C 1,3 C 17,7 km/h (3 Bft) 100,00 %
01.04.2018 02:55 6,3 C 6,1 C 85 % 999,9 hPa 0,0 l/m 14,2 km/h (3 Bft) W-NW 292 0 min 0,000 mm 0,0 UV-I 0 W/m 4,0 C 1,1 C 19,3 km/h (3 Bft) 96,15 %
01.04.2018 02:56 6,3 C 6,1 C 85 % 999,9 hPa 0,0 l/m 14,5 km/h (3 Bft) W 265 0 min 0,000 mm 0,0 UV-I 0 W/m 4,0 C 0,9 C 20,9 km/h (4 Bft) 100,00 %
01.04.2018 02:57 6,3 C 6,1 C 85 % 999,9 hPa 0,0 l/m 16,5 km/h (3 Bft) W 281 0 min 0,000 mm 0,0 UV-I 0 W/m 4,0 C -0,1 C 20,9 km/h (4 Bft) 96,30 %
01.04.2018 02:58 6,3 C 6,1 C 85 % 999,9 hPa 0,0 l/m 12,4 km/h (3 Bft) W 279 0 min 0,000 mm 0,0 UV-I 0 W/m 4,0 C 2,0 C 16,1 km/h (3 Bft) 96,15 %
01.04.2018 02:59 6,3 C 6,1 C 85 % 999,9 hPa 0,0 l/m 10,4 km/h (2 Bft) W-SW 257 0 min 0,000 mm 0,0 UV-I 0 W/m 4,0 C 3,2 C 14,5 km/h (3 Bft) 100,00 %
01.04.2018 03:00 6,3 C 6,1 C 85 % 999,9 hPa 0,0 l/m 12,3 km/h (3 Bft) W 269 0 min 0,025 mm 0,0 UV-I 0 W/m 4,0 C 2,1 C 17,7 km/h (3 Bft) 95,65 %
01.04.2018 03:01 6,3 C 6,1 C 85 % 999,9 hPa 0,0 l/m 13,1 km/h (3 Bft) W 271 0 min 0,000 mm 0,0 UV-I 0 W/m 4,0 C 1,6 C 16,1 km/h (3 Bft) 100,00 %
01.04.2018 03:02 6,3 C 6,1 C 85 % 999,9 hPa 0,0 l/m 13,0 km/h (3 Bft) W 281 0 min 0,000 mm 0,0 UV-I 0 W/m 4,0 C 1,7 C 17,7 km/h (3 Bft) 96,15 %
01.04.2018 03:03 6,2 C 6,1 C 85 % 999,9 hPa 0,0 l/m 16,2 km/h (3 Bft) W 261 0 min 0,000 mm 0,0 UV-I 0 W/m 3,9 C -0,0 C 20,9 km/h (4 Bft) 100,00 %
01.04.2018 03:04 6,3 C 6,1 C 85 % 999,9 hPa 0,0 l/m 15,2 km/h (3 Bft) W-SW 244 0 min 0,000 mm 0,0 UV-I 0 W/m 4,0 C 0,6 C 20,9 km/h (4 Bft) 96,15 %
01.04.2018 03:05 6,2 C 6,1 C 85 % 1000,0 hPa 0,0 l/m 15,2 km/h (3 Bft) W-SW 244 0 min 0,000 mm 0,0 UV-I 0 W/m 3,9 C 0,4 C 20,9 km/h (4 Bft) 96,30 %
01.04.2018 03:06 6,3 C 6,1 C 85 % 1000,0 hPa 0,0 l/m 13,6 km/h (3 Bft) W 263 0 min 0,000 mm 0,0 UV-I 0 W/m 4,0 C 1,4 C 16,1 km/h (3 Bft) 92,86 %
01.04.2018 03:07 6,3 C 6,1 C 85 % 999,9 hPa 0,0 l/m 14,3 km/h (3 Bft) W 261 0 min 0,000 mm 0,0 UV-I 0 W/m 4,0 C 1,0 C 17,7 km/h (3 Bft) 96,43 %
01.04.2018 03:08 6,2 C 6,1 C 85 % 999,9 hPa 0,0 l/m 15,8 km/h (3 Bft) W-SW 251 0 min 0,000 mm 0,0 UV-I 0 W/m 3,9 C 0,1 C 19,3 km/h (3 Bft) 100,00 %
01.04.2018 03:09 6,3 C 6,1 C 85 % 1000,0 hPa 0,0 l/m 13,4 km/h (3 Bft) W-SW 252 0 min 0,000 mm 0,0 UV-I 0 W/m 4,0 C 1,5 C 19,3 km/h (3 Bft) 96,67 %
01.04.2018 03:10 6,2 C 6,1 C 85 % 1000,0 hPa 0,0 l/m 13,8 km/h (3 Bft) SW 232 0 min 0,000 mm 0,0 UV-I 0 W/m 3,9 C 1,1 C 19,3 km/h (3 Bft) 100,00 %
01.04.2018 03:11 6,2 C 6,1 C 85 % 1000,0 hPa 0,0 l/m 11,0 km/h (2 Bft) W-SW 240 0 min 0,000 mm 0,0 UV-I 0 W/m 3,9 C 2,7 C 14,5 km/h (3 Bft) 95,83 %
01.04.2018 03:12 6,2 C 6,1 C 85 % 1000,0 hPa 0,0 l/m 11,8 km/h (2 Bft) W 275 0 min 0,000 mm 0,0 UV-I 0 W/m 3,9 C 2,3 C 16,1 km/h (3 Bft) 100,00 %
01.04.2018 03:13 6,2 C 6,1 C 85 % 1000,0 hPa 0,0 l/m 13,7 km/h (3 Bft) W-SW 239 0 min 0,000 mm 0,0 UV-I 0 W/m 3,9 C 1,2 C 16,1 km/h (3 Bft) 92,31 %
01.04.2018 03:14 6,2 C 6,1 C 85 % 1000,0 hPa 0,0 l/m 14,6 km/h (3 Bft) W 264 0 min 0,000 mm 0,0 UV-I 0 W/m 3,9 C 0,7 C 20,9 km/h (4 Bft) 100,00 %
01.04.2018 03:15 6,2 C 6,1 C 85 % 1000,0 hPa 0,0 l/m 13,7 km/h (3 Bft) W-SW 258 0 min 0,000 mm 0,0 UV-I 0 W/m 3,9 C 1,2 C 17,7 km/h (3 Bft) 91,30 %
01.04.2018 03:16 6,2 C 6,1 C 85 % 1000,0 hPa 0,0 l/m 14,9 km/h (3 Bft) W 274 0 min 0,000 mm 0,0 UV-I 0 W/m 3,9 C 0,6 C 19,3 km/h (3 Bft) 100,00 %
01.04.2018 03:17 6,2 C 6,1 C 85 % 1000,0 hPa 0,0 l/m 12,6 km/h (3 Bft) W-SW 250 0 min 0,000 mm 0,0 UV-I 0 W/m 3,9 C 1,8 C 19,3 km/h (3 Bft) 95,12 %
01.04.2018 03:18 6,2 C 6,1 C 85 % 1000,0 hPa 0,0 l/m 15,0 km/h (3 Bft) W-SW 256 0 min 0,000 mm 0,0 UV-I 0 W/m 3,9 C 0,5 C 19,3 km/h (3 Bft) 91,67 %
01.04.2018 03:19 6,2 C 6,1 C 85 % 1000,0 hPa 0,0 l/m 15,3 km/h (3 Bft) W 277 0 min 0,000 mm 0,0 UV-I 0 W/m 3,9 C 0,4 C 22,5 km/h (4 Bft) 96,55 %
01.04.2018 03:20 6,2 C 6,1 C 85 % 1000,1 hPa 0,0 l/m 14,7 km/h (3 Bft) W 265 0 min 0,000 mm 0,0 UV-I 0 W/m 3,9 C 0,7 C 19,3 km/h (3 Bft) 91,67 %
01.04.2018 03:21 6,1 C 6,1 C 85 % 1000,0 hPa 0,0 l/m 11,6 km/h (2 Bft) W 269 0 min 0,000 mm 0,0 UV-I 0 W/m 3,8 C 2,3 C 16,1 km/h (3 Bft) 100,00 %
01.04.2018 03:22 6,1 C 6,1 C 85 % 1000,1 hPa 0,0 l/m 14,1 km/h (3 Bft) W 270 0 min 0,000 mm 0,0 UV-I 0 W/m 3,8 C 0,9 C 19,3 km/h (3 Bft) 91,67 %
01.04.2018 03:23 6,1 C 6,1 C 85 % 1000,1 hPa 0,0 l/m 11,3 km/h (2 Bft) W 267 0 min 0,000 mm 0,0 UV-I 0 W/m 3,8 C 2,4 C 14,5 km/h (3 Bft) 96,15 %
01.04.2018 03:24 6,1 C 6,1 C 86 % 1000,1 hPa 0,0 l/m 10,9 km/h (2 Bft) SW 226 0 min 0,000 mm 0,0 UV-I 0 W/m 3,9 C 2,7 C 14,5 km/h (3 Bft) 96,30 %
01.04.2018 03:25 6,0 C 6,1 C 85 % 1000,1 hPa 0,0 l/m 12,5 km/h (3 Bft) SW 234 0 min 0,000 mm 0,0 UV-I 0 W/m 3,7 C 1,6 C 16,1 km/h (3 Bft) 95,65 %
01.04.2018 03:26 6,0 C 6,1 C 85 % 1000,1 hPa 0,0 l/m 12,2 km/h (2 Bft) W-SW 241 0 min 0,000 mm 0,0 UV-I 0 W/m 3,7 C 1,8 C 16,1 km/h (3 Bft) 93,33 %
01.04.2018 03:27 6,0 C 6,1 C 86 % 1000,1 hPa 0,0 l/m 14,4 km/h (3 Bft) W-SW 243 0 min 0,000 mm 0,0 UV-I 0 W/m 3,8 C 0,6 C 17,7 km/h (3 Bft) 96,15 %
01.04.2018 03:28 6,0 C 6,1 C 86 % 1000,2 hPa 0,0 l/m 11,4 km/h (2 Bft) W-SW 244 0 min 0,000 mm 0,0 UV-I 0 W/m 3,8 C 2,3 C 14,5 km/h (3 Bft) 96,30 %
01.04.2018 03:29 5,9 C 6,1 C 86 % 1000,2 hPa 0,0 l/m 8,6 km/h (2 Bft) W-SW 251 0 min 0,000 mm 0,0 UV-I 0 W/m 3,7 C 4,1 C 12,9 km/h (3 Bft) 93,33 %
01.04.2018 03:30 5,9 C 6,1 C 86 % 1000,2 hPa 0,0 l/m 10,8 km/h (2 Bft) W-SW 254 0 min 0,000 mm 0,0 UV-I 0 W/m 3,7 C 2,5 C 16,1 km/h (3 Bft) 96,55 %
01.04.2018 03:31 5,9 C 6,1 C 86 % 1000,2 hPa 0,0 l/m 8,3 km/h (2 Bft) W-SW 244 0 min 0,000 mm 0,0 UV-I 0 W/m 3,7 C 4,3 C 11,3 km/h (2 Bft) 96,15 %
01.04.2018 03:32 5,8 C 6,1 C 86 % 1000,2 hPa 0,0 l/m 11,3 km/h (2 Bft) W-SW 258 0 min 0,000 mm 0,0 UV-I 0 W/m 3,6 C 2,1 C 16,1 km/h (3 Bft) 100,00 %
01.04.2018 03:33 5,8 C 6,1 C 87 % 1000,2 hPa 0,0 l/m 13,4 km/h (3 Bft) W-SW 238 0 min 0,000 mm 0,0 UV-I 0 W/m 3,8 C 0,9 C 17,7 km/h (3 Bft) 96,67 %
01.04.2018 03:34 5,8 C 6,1 C 87 % 1000,2 hPa 0,0 l/m 13,6 km/h (3 Bft) W 259 0 min 0,000 mm 0,0 UV-I 0 W/m 3,8 C 0,8 C 17,7 km/h (3 Bft) 100,00 %
01.04.2018 03:35 5,8 C 6,1 C 87 % 1000,2 hPa 0,0 l/m 14,1 km/h (3 Bft) W 267 0 min 0,000 mm 0,0 UV-I 0 W/m 3,8 C 0,5 C 20,9 km/h (4 Bft) 92,59 %
01.04.2018 03:36 5,7 C 6,1 C 88 % 1000,2 hPa 0,0 l/m 15,7 km/h (3 Bft) W-SW 240 0 min 0,000 mm 0,0 UV-I 0 W/m 3,9 C -0,4 C 19,3 km/h (3 Bft) 100,00 %
01.04.2018 03:37 5,7 C 6,1 C 88 % 1000,2 hPa 0,0 l/m 17,4 km/h (3 Bft) SW 232 0 min 0,000 mm 0,0 UV-I 0 W/m 3,9 C -1,2 C 19,3 km/h (3 Bft) 96,67 %
01.04.2018 03:38 5,7 C 6,1 C 88 % 1000,2 hPa 0,0 l/m 13,6 km/h (3 Bft) SW 235 0 min 0,000 mm 0,0 UV-I 0 W/m 3,9 C 0,7 C 20,9 km/h (4 Bft) 95,65 %
01.04.2018 03:39 5,7 C 6,1 C 88 % 1000,2 hPa 0,0 l/m 11,3 km/h (2 Bft) W-SW 238 0 min 0,000 mm 0,0 UV-I 0 W/m 3,9 C 2,0 C 17,7 km/h (3 Bft) 92,59 %
01.04.2018 03:40 5,7 C 6,1 C 88 % 1000,2 hPa 0,0 l/m 10,8 km/h (2 Bft) SW 232 0 min 0,000 mm 0,0 UV-I 0 W/m 3,9 C 2,3 C 16,1 km/h (3 Bft) 92,86 %
01.04.2018 03:41 5,7 C 6,1 C 88 % 1000,2 hPa 0,0 l/m 11,5 km/h (2 Bft) W-SW 242 0 min 0,000 mm 0,0 UV-I 0 W/m 3,9 C 1,9 C 16,1 km/h (3 Bft) 96,30 %
01.04.2018 03:42 5,7 C 6,1 C 88 % 1000,2 hPa 0,0 l/m 14,2 km/h (3 Bft) W 273 0 min 0,000 mm 0,0 UV-I 0 W/m 3,9 C 0,3 C 19,3 km/h (3 Bft) 96,15 %
01.04.2018 03:43 5,6 C 6,1 C 89 % 1000,3 hPa 0,0 l/m 11,8 km/h (2 Bft) W 262 0 min 0,000 mm 0,0 UV-I 0 W/m 3,9 C 1,6 C 14,5 km/h (3 Bft) 100,00 %
01.04.2018 03:44 5,6 C 6,1 C 89 % 1000,2 hPa 0,0 l/m 13,4 km/h (3 Bft) W-SW 237 0 min 0,000 mm 0,0 UV-I 0 W/m 3,9 C 0,6 C 17,7 km/h (3 Bft) 100,00 %
01.04.2018 03:45 5,6 C 6,1 C 89 % 1000,2 hPa 0,0 l/m 13,5 km/h (3 Bft) W-SW 240 0 min 0,000 mm 0,0 UV-I 0 W/m 3,9 C 0,6 C 17,7 km/h (3 Bft) 96,30 %
01.04.2018 03:46 5,6 C 6,1 C 89 % 1000,3 hPa 0,0 l/m 12,6 km/h (3 Bft) W-SW 249 0 min 0,000 mm 0,0 UV-I 0 W/m 3,9 C 1,1 C 17,7 km/h (3 Bft) 95,65 %
01.04.2018 03:47 5,6 C 6,1 C 89 % 1000,3 hPa 0,0 l/m 13,0 km/h (3 Bft) W-SW 239 0 min 0,000 mm 0,0 UV-I 0 W/m 3,9 C 0,9 C 17,7 km/h (3 Bft) 100,00 %
01.04.2018 03:48 5,6 C 6,1 C 89 % 1000,2 hPa 0,0 l/m 13,0 km/h (3 Bft) SW 224 0 min 0,000 mm 0,0 UV-I 0 W/m 3,9 C 0,9 C 19,3 km/h (3 Bft) 94,12 %
01.04.2018 03:49 5,5 C 6,1 C 90 % 1000,3 hPa 0,0 l/m 14,0 km/h (3 Bft) SW 228 0 min 0,000 mm 0,0 UV-I 0 W/m 4,0 C 0,2 C 19,3 km/h (3 Bft) 95,83 %
01.04.2018 03:50 5,5 C 6,1 C 90 % 1000,3 hPa 0,0 l/m 15,1 km/h (3 Bft) W-SW 241 0 min 0,000 mm 0,0 UV-I 0 W/m 4,0 C -0,4 C 22,5 km/h (4 Bft) 95,83 %
01.04.2018 03:51 5,5 C 6,1 C 90 % 1000,3 hPa 0,0 l/m 10,8 km/h (2 Bft) W-SW 250 0 min 0,000 mm 0,0 UV-I 0 W/m 4,0 C 2,1 C 14,5 km/h (3 Bft) 95,65 %
01.04.2018 03:52 5,5 C 6,1 C 90 % 1000,3 hPa 0,0 l/m 10,4 km/h (2 Bft) W 261 0 min 0,000 mm 0,0 UV-I 0 W/m 4,0 C 2,4 C 12,9 km/h (3 Bft) 91,67 %
01.04.2018 03:53 5,5 C 6,1 C 90 % 1000,4 hPa 0,0 l/m 12,2 km/h (2 Bft) SW 230 0 min 0,000 mm 0,0 UV-I 0 W/m 4,0 C 1,2 C 14,5 km/h (3 Bft) 97,37 %
01.04.2018 03:54 5,5 C 6,1 C 90 % 1000,4 hPa 0,0 l/m 12,6 km/h (3 Bft) W 269 0 min 0,000 mm 0,0 UV-I 0 W/m 4,0 C 1,0 C 17,7 km/h (3 Bft) 96,30 %
01.04.2018 03:55 5,5 C 6,1 C 90 % 1000,4 hPa 0,0 l/m 10,8 km/h (2 Bft) W-SW 247 0 min 0,000 mm 0,0 UV-I 0 W/m 4,0 C 2,1 C 16,1 km/h (3 Bft) 100,00 %
01.04.2018 03:56 5,5 C 6,1 C 90 % 1000,4 hPa 0,0 l/m 14,8 km/h (3 Bft) W-SW 243 0 min 0,000 mm 0,0 UV-I 0 W/m 4,0 C -0,2 C 20,9 km/h (4 Bft) 96,67 %
01.04.2018 03:57 5,5 C 6,1 C 90 % 1000,4 hPa 0,0 l/m 14,7 km/h (3 Bft) W-SW 252 0 min 0,000 mm 0,0 UV-I 0 W/m 4,0 C -0,2 C 20,9 km/h (4 Bft) 96,55 %
01.04.2018 03:58 5,4 C 6,1 C 90 % 1000,4 hPa 0,0 l/m 14,2 km/h (3 Bft) W-SW 254 0 min 0,000 mm 0,0 UV-I 0 W/m 3,9 C -0,0 C 19,3 km/h (3 Bft) 100,00 %
01.04.2018 03:59 5,4 C 6,1 C 90 % 1000,4 hPa 0,0 l/m 11,3 km/h (2 Bft) SW 230 0 min 0,000 mm 0,0 UV-I 0 W/m 3,9 C 1,7 C 14,5 km/h (3 Bft) 92,31 %
01.04.2018 04:00 5,4 C 6,1 C 90 % 1000,4 hPa 0,0 l/m 10,4 km/h (2 Bft) W-SW 255 0 min 0,026 mm 0,0 UV-I 0 W/m 3,9 C 2,2 C 14,5 km/h (3 Bft) 96,30 %
01.04.2018 04:01 5,4 C 6,1 C 90 % 1000,4 hPa 0,0 l/m 15,6 km/h (3 Bft) SW 230 0 min 0,000 mm 0,0 UV-I 0 W/m 3,9 C -0,7 C 20,9 km/h (4 Bft) 96,15 %
01.04.2018 04:02 5,4 C 6,1 C 90 % 1000,4 hPa 0,0 l/m 14,3 km/h (3 Bft) W-SW 238 0 min 0,000 mm 0,0 UV-I 0 W/m 3,9 C -0,1 C 19,3 km/h (3 Bft) 100,00 %
01.04.2018 04:03 5,4 C 6,1 C 90 % 1000,4 hPa 0,0 l/m 16,1 km/h (3 Bft) SW 230 0 min 0,000 mm 0,0 UV-I 0 W/m 3,9 C -1,0 C 20,9 km/h (4 Bft) 100,00 %
01.04.2018 04:04 5,4 C 6,1 C 90 % 1000,4 hPa 0,0 l/m 14,7 km/h (3 Bft) W-SW 242 0 min 0,000 mm 0,0 UV-I 0 W/m 3,9 C -0,3 C 19,3 km/h (3 Bft) 96,67 %
01.04.2018 04:05 5,4 C 6,1 C 90 % 1000,4 hPa 0,0 l/m 12,4 km/h (3 Bft) W 259 0 min 0,000 mm 0,0 UV-I 0 W/m 3,9 C 1,0 C 14,5 km/h (3 Bft) 100,00 %
01.04.2018 04:06 5,4 C 6,1 C 90 % 1000,4 hPa 0,0 l/m 11,0 km/h (2 Bft) W-SW 247 0 min 0,000 mm 0,0 UV-I 0 W/m 3,9 C 1,8 C 14,5 km/h (3 Bft) 96,30 %
01.04.2018 04:07 5,4 C 6,1 C 90 % 1000,4 hPa 0,0 l/m 12,3 km/h (3 Bft) W-SW 245 0 min 0,000 mm 0,0 UV-I 0 W/m 3,9 C 1,0 C 16,1 km/h (3 Bft) 100,00 %
01.04.2018 04:08 5,4 C 6,1 C 90 % 1000,4 hPa 0,0 l/m 11,2 km/h (2 Bft) W-SW 244 0 min 0,000 mm 0,0 UV-I 0 W/m 3,9 C 1,7 C 16,1 km/h (3 Bft) 91,67 %
01.04.2018 04:09 5,4 C 6,1 C 90 % 1000,4 hPa 0,0 l/m 12,6 km/h (3 Bft) W-SW 237 0 min 0,000 mm 0,0 UV-I 0 W/m 3,9 C 0,9 C 19,3 km/h (3 Bft) 100,00 %
01.04.2018 04:10 5,4 C 6,1 C 90 % 1000,5 hPa 0,0 l/m 15,6 km/h (3 Bft) W-SW 241 0 min 0,000 mm 0,0 UV-I 0 W/m 3,9 C -0,7 C 19,3 km/h (3 Bft) 94,74 %
01.04.2018 04:11 5,4 C 6,1 C 90 % 1000,4 hPa 0,0 l/m 15,4 km/h (3 Bft) W-SW 240 0 min 0,000 mm 0,0 UV-I 0 W/m 3,9 C -0,6 C 22,5 km/h (4 Bft) 96,15 %
01.04.2018 04:12 5,4 C 6,1 C 90 % 1000,4 hPa 0,0 l/m 14,1 km/h (3 Bft) W-SW 252 0 min 0,000 mm 0,0 UV-I 0 W/m 3,9 C 0,0 C 19,3 km/h (3 Bft) 95,83 %
01.04.2018 04:13 5,4 C 6,1 C 90 % 1000,4 hPa 0,0 l/m 13,7 km/h (3 Bft) SW 226 0 min 0,000 mm 0,0 UV-I 0 W/m 3,9 C 0,2 C 20,9 km/h (4 Bft) 100,00 %
01.04.2018 04:14 5,4 C 6,1 C 90 % 1000,5 hPa 0,0 l/m 11,3 km/h (2 Bft) W-SW 256 0 min 0,000 mm 0,0 UV-I 0 W/m 3,9 C 1,7 C 16,1 km/h (3 Bft) 91,67 %
01.04.2018 04:15 5,4 C 6,1 C 90 % 1000,5 hPa 0,0 l/m 14,0 km/h (3 Bft) W-SW 256 0 min 0,000 mm 0,0 UV-I 0 W/m 3,9 C 0,1 C 17,7 km/h (3 Bft) 96,30 %
01.04.2018 04:16 5,4 C 6,1 C 90 % 1000,5 hPa 0,0 l/m 15,1 km/h (3 Bft) W-SW 252 0 min 0,000 mm 0,0 UV-I 0 W/m 3,9 C -0,5 C 20,9 km/h (4 Bft) 95,65 %
01.04.2018 04:17 5,4 C 6,1 C 90 % 1000,5 hPa 0,0 l/m 16,2 km/h (3 Bft) SW 227 0 min 0,000 mm 0,0 UV-I 0 W/m 3,9 C -1,0 C 22,5 km/h (4 Bft) 96,30 %
01.04.2018 04:18 5,4 C 6,1 C 90 % 1000,4 hPa 0,0 l/m 18,5 km/h (3 Bft) W-SW 250 0 min 0,000 mm 0,0 UV-I 0 W/m 3,9 C -2,0 C 27,4 km/h (4 Bft) 93,10 %
01.04.2018 04:19 5,4 C 6,1 C 90 % 1000,4 hPa 0,0 l/m 16,2 km/h (3 Bft) SW 232 0 min 0,000 mm 0,0 UV-I 0 W/m 3,9 C -1,0 C 22,5 km/h (4 Bft) 95,83 %
01.04.2018 04:20 5,4 C 6,1 C 90 % 1000,4 hPa 0,0 l/m 15,4 km/h (3 Bft) W-SW 248 0 min 0,000 mm 0,0 UV-I 0 W/m 3,9 C -0,6 C 19,3 km/h (3 Bft) 100,00 %
01.04.2018 04:21 5,4 C 6,1 C 90 % 1000,4 hPa 0,0 l/m 17,8 km/h (3 Bft) W 277 0 min 0,000 mm 0,0 UV-I 0 W/m 3,9 C -1,7 C 22,5 km/h (4 Bft) 100,00 %
01.04.2018 04:22 5,4 C 6,1 C 90 % 1000,4 hPa 0,0 l/m 15,0 km/h (3 Bft) W-SW 256 0 min 0,000 mm 0,0 UV-I 0 W/m 3,9 C -0,4 C 20,9 km/h (4 Bft) 100,00 %
01.04.2018 04:23 5,4 C 6,1 C 90 % 1000,4 hPa 0,0 l/m 16,3 km/h (3 Bft) W-SW 244 0 min 0,000 mm 0,0 UV-I 0 W/m 3,9 C -1,1 C 20,9 km/h (4 Bft) 100,00 %
01.04.2018 04:24 5,4 C 6,1 C 90 % 1000,5 hPa 0,0 l/m 16,2 km/h (3 Bft) SW 236 0 min 0,000 mm 0,0 UV-I 0 W/m 3,9 C -1,0 C 24,1 km/h (4 Bft) 96,15 %
01.04.2018 04:25 5,4 C 6,1 C 90 % 1000,5 hPa 0,0 l/m 16,5 km/h (3 Bft) W-SW 255 0 min 0,000 mm 0,0 UV-I 0 W/m 3,9 C -1,2 C 25,7 km/h (4 Bft) 100,00 %
01.04.2018 04:26 5,4 C 6,1 C 90 % 1000,4 hPa 0,0 l/m 15,2 km/h (3 Bft) SW 234 0 min 0,000 mm 0,0 UV-I 0 W/m 3,9 C -0,5 C 20,9 km/h (4 Bft) 100,00 %
01.04.2018 04:27 5,4 C 6,1 C 90 % 1000,5 hPa 0,0 l/m 12,0 km/h (2 Bft) W 270 0 min 0,000 mm 0,0 UV-I 0 W/m 3,9 C 1,2 C 17,7 km/h (3 Bft) 100,00 %
01.04.2018 04:28 5,3 C 6,1 C 90 % 1000,5 hPa 0,0 l/m 15,3 km/h (3 Bft) W 272 0 min 0,000 mm 0,0 UV-I 0 W/m 3,8 C -0,7 C 20,9 km/h (4 Bft) 100,00 %
01.04.2018 04:29 5,3 C 6,1 C 90 % 1000,5 hPa 0,0 l/m 11,9 km/h (2 Bft) W-SW 250 0 min 0,000 mm 0,0 UV-I 0 W/m 3,8 C 1,2 C 16,1 km/h (3 Bft) 100,00 %
01.04.2018 04:30 5,3 C 6,1 C 90 % 1000,4 hPa 0,0 l/m 14,4 km/h (3 Bft) W 259 0 min 0,000 mm 0,0 UV-I 0 W/m 3,8 C -0,3 C 19,3 km/h (3 Bft) 100,00 %
01.04.2018 04:31 5,3 C 6,1 C 90 % 1000,5 hPa 0,0 l/m 14,7 km/h (3 Bft) W-SW 250 0 min 0,000 mm 0,0 UV-I 0 W/m 3,8 C -0,4 C 19,3 km/h (3 Bft) 96,15 %
01.04.2018 04:32 5,3 C 6,1 C 90 % 1000,5 hPa 0,0 l/m 14,8 km/h (3 Bft) W-SW 238 0 min 0,000 mm 0,0 UV-I 0 W/m 3,8 C -0,5 C 20,9 km/h (4 Bft) 96,30 %
01.04.2018 04:33 5,3 C 6,1 C 90 % 1000,5 hPa 0,0 l/m 13,4 km/h (3 Bft) W-SW 249 0 min 0,000 mm 0,0 UV-I 0 W/m 3,8 C 0,3 C 19,3 km/h (3 Bft) 100,00 %
01.04.2018 04:34 5,3 C 6,1 C 91 % 1000,5 hPa 0,0 l/m 14,8 km/h (3 Bft) SW 227 0 min 0,000 mm 0,0 UV-I 0 W/m 4,0 C -0,5 C 19,3 km/h (3 Bft) 100,00 %
01.04.2018 04:35 5,3 C 6,1 C 91 % 1000,6 hPa 0,0 l/m 15,8 km/h (3 Bft) SW 236 0 min 0,000 mm 0,0 UV-I 0 W/m 4,0 C -1,0 C 20,9 km/h (4 Bft) 100,00 %
01.04.2018 04:36 5,3 C 6,1 C 91 % 1000,6 hPa 0,0 l/m 14,5 km/h (3 Bft) S-SW 213 0 min 0,000 mm 0,0 UV-I 0 W/m 4,0 C -0,3 C 20,9 km/h (4 Bft) 100,00 %
01.04.2018 04:37 5,3 C 6,1 C 91 % 1000,7 hPa 0,0 l/m 18,8 km/h (3 Bft) W 263 0 min 0,000 mm 0,0 UV-I 0 W/m 4,0 C -2,3 C 24,1 km/h (4 Bft) 100,00 %
01.04.2018 04:38 5,3 C 6,1 C 91 % 1000,6 hPa 0,0 l/m 15,5 km/h (3 Bft) W 263 0 min 0,000 mm 0,0 UV-I 0 W/m 4,0 C -0,8 C 20,9 km/h (4 Bft) 100,00 %
01.04.2018 04:39 5,3 C 6,1 C 91 % 1000,6 hPa 0,0 l/m 13,6 km/h (3 Bft) SW 234 0 min 0,000 mm 0,0 UV-I 0 W/m 4,0 C 0,2 C 17,7 km/h (3 Bft) 100,00 %
01.04.2018 04:40 5,3 C 6,1 C 91 % 1000,6 hPa 0,0 l/m 16,3 km/h (3 Bft) W-SW 239 0 min 0,000 mm 0,0 UV-I 0 W/m 4,0 C -1,2 C 22,5 km/h (4 Bft) 100,00 %
01.04.2018 04:41 5,3 C 6,1 C 91 % 1000,6 hPa 0,0 l/m 18,2 km/h (3 Bft) W 276 0 min 0,000 mm 0,0 UV-I 0 W/m 4,0 C -2,0 C 27,4 km/h (4 Bft) 94,12 %
01.04.2018 04:42 5,3 C 6,1 C 91 % 1000,6 hPa 0,0 l/m 16,4 km/h (3 Bft) W-SW 238 0 min 0,000 mm 0,0 UV-I 0 W/m 4,0 C -1,2 C 19,3 km/h (3 Bft) 95,83 %
01.04.2018 04:43 5,3 C 6,1 C 91 % 1000,7 hPa 0,0 l/m 15,0 km/h (3 Bft) W-SW 252 0 min 0,000 mm 0,0 UV-I 0 W/m 4,0 C -0,6 C 19,3 km/h (3 Bft) 100,00 %
01.04.2018 04:44 5,3 C 6,1 C 91 % 1000,6 hPa 0,0 l/m 14,7 km/h (3 Bft) W-SW 242 0 min 0,000 mm 0,0 UV-I 0 W/m 4,0 C -0,4 C 20,9 km/h (4 Bft) 100,00 %
01.04.2018 04:45 5,3 C 6,1 C 91 % 1000,7 hPa 0,0 l/m 17,4 km/h (3 Bft) SW 233 0 min 0,000 mm 0,0 UV-I 0 W/m 4,0 C -1,7 C 22,5 km/h (4 Bft) 100,00 %
01.04.2018 04:46 5,3 C 6,1 C 91 % 1000,7 hPa 0,0 l/m 19,6 km/h (3 Bft) SW 236 0 min 0,000 mm 0,0 UV-I 0 W/m 4,0 C -2,6 C 27,4 km/h (4 Bft) 100,00 %
01.04.2018 04:47 5,3 C 6,1 C 91 % 1000,7 hPa 0,0 l/m 14,8 km/h (3 Bft) W-SW 254 0 min 0,000 mm 0,0 UV-I 0 W/m 4,0 C -0,5 C 19,3 km/h (3 Bft) 100,00 %
01.04.2018 04:48 5,3 C 6,1 C 91 % 1000,7 hPa 0,0 l/m 17,3 km/h (3 Bft) W-SW 246 0 min 0,000 mm 0,0 UV-I 0 W/m 4,0 C -1,7 C 22,5 km/h (4 Bft) 100,00 %
01.04.2018 04:49 5,3 C 6,1 C 91 % 1000,7 hPa 0,0 l/m 13,4 km/h (3 Bft) W-SW 248 0 min 0,000 mm 0,0 UV-I 0 W/m 4,0 C 0,3 C 20,9 km/h (4 Bft) 100,00 %
01.04.2018 04:50 5,3 C 6,1 C 91 % 1000,7 hPa 0,0 l/m 16,8 km/h (3 Bft) SW 234 0 min 0,000 mm 0,0 UV-I 0 W/m 4,0 C -1,4 C 22,5 km/h (4 Bft) 100,00 %
01.04.2018 04:51 5,3 C 6,1 C 91 % 1000,7 hPa 0,0 l/m 14,1 km/h (3 Bft) SW 230 0 min 0,000 mm 0,0 UV-I 0 W/m 4,0 C -0,1 C 19,3 km/h (3 Bft) 100,00 %
01.04.2018 04:52 5,3 C 6,1 C 91 % 1000,7 hPa 0,0 l/m 17,5 km/h (3 Bft) W-SW 250 0 min 0,000 mm 0,0 UV-I 0 W/m 4,0 C -1,7 C 24,1 km/h (4 Bft) 100,00 %
01.04.2018 04:53 5,3 C 6,1 C 91 % 1000,7 hPa 0,0 l/m 17,8 km/h (3 Bft) W-SW 240 0 min 0,000 mm 0,0 UV-I 0 W/m 4,0 C -1,9 C 22,5 km/h (4 Bft) 100,00 %
01.04.2018 04:54 5,3 C 6,1 C 90 % 1000,7 hPa 0,0 l/m 15,1 km/h (3 Bft) SW 232 0 min 0,000 mm 0,0 UV-I 0 W/m 3,8 C -0,6 C 19,3 km/h (3 Bft) 100,00 %
01.04.2018 04:55 5,2 C 6,1 C 90 % 1000,6 hPa 0,0 l/m 15,0 km/h (3 Bft) W 262 0 min 0,000 mm 0,0 UV-I 0 W/m 3,7 C -0,7 C 17,7 km/h (3 Bft) 100,00 %
01.04.2018 04:56 5,3 C 6,1 C 90 % 1000,6 hPa 0,0 l/m 16,0 km/h (3 Bft) SW 221 0 min 0,000 mm 0,0 UV-I 0 W/m 3,8 C -1,1 C 22,5 km/h (4 Bft) 96,15 %
01.04.2018 04:57 5,3 C 6,1 C 90 % 1000,7 hPa 0,0 l/m 15,4 km/h (3 Bft) SW 234 0 min 0,000 mm 0,0 UV-I 0 W/m 3,8 C -0,8 C 19,3 km/h (3 Bft) 100,00 %
01.04.2018 04:58 5,3 C 6,1 C 90 % 1000,7 hPa 0,0 l/m 14,6 km/h (3 Bft) W-SW 257 0 min 0,000 mm 0,0 UV-I 0 W/m 3,8 C -0,4 C 17,7 km/h (3 Bft) 92,86 %
01.04.2018 04:59 5,3 C 6,1 C 90 % 1000,7 hPa 0,0 l/m 16,0 km/h (3 Bft) W-SW 238 0 min 0,000 mm 0,0 UV-I 0 W/m 3,8 C -1,1 C 19,3 km/h (3 Bft) 100,00 %
01.04.2018 05:00 5,3 C 6,1 C 90 % 1000,7 hPa 0,0 l/m 17,6 km/h (3 Bft) SW 235 0 min 0,000 mm 0,0 UV-I 0 W/m 3,8 C -1,8 C 20,9 km/h (4 Bft) 92,31 %
01.04.2018 05:01 5,2 C 6,1 C 90 % 1000,7 hPa 0,0 l/m 16,3 km/h (3 Bft) W 263 0 min 0,025 mm 0,0 UV-I 0 W/m 3,7 C -1,3 C 20,9 km/h (4 Bft) 100,00 %
01.04.2018 05:02 5,2 C 6,1 C 90 % 1000,6 hPa 0,0 l/m 16,0 km/h (3 Bft) W 262 0 min 0,000 mm 0,0 UV-I 0 W/m 3,7 C -1,2 C 22,5 km/h (4 Bft) 90,91 %
01.04.2018 05:03 5,2 C 6,1 C 90 % 1000,7 hPa 0,0 l/m 21,3 km/h (4 Bft) SW 228 0 min 0,000 mm 0,0 UV-I 0 W/m 3,7 C -3,4 C 32,2 km/h (5 Bft) 96,30 %
01.04.2018 05:04 5,2 C 6,1 C 90 % 1000,6 hPa 0,0 l/m 21,2 km/h (4 Bft) W-SW 242 0 min 0,000 mm 0,0 UV-I 0 W/m 3,7 C -3,4 C 27,4 km/h (4 Bft) 92,31 %
01.04.2018 05:05 5,2 C 6,1 C 90 % 1000,6 hPa 0,0 l/m 22,4 km/h (4 Bft) SW 234 0 min 0,000 mm 0,0 UV-I 0 W/m 3,7 C -3,8 C 30,6 km/h (5 Bft) 96,30 %
01.04.2018 05:06 5,2 C 6,1 C 90 % 1000,6 hPa 0,0 l/m 17,3 km/h (3 Bft) S-SW 210 0 min 0,000 mm 0,0 UV-I 0 W/m 3,7 C -1,8 C 24,1 km/h (4 Bft) 100,00 %
01.04.2018 05:07 5,2 C 6,1 C 90 % 1000,6 hPa 0,0 l/m 20,2 km/h (4 Bft) SW 227 0 min 0,000 mm 0,0 UV-I 0 W/m 3,7 C -3,0 C 25,7 km/h (4 Bft) 95,83 %
01.04.2018 05:08 5,2 C 6,1 C 90 % 1000,6 hPa 0,0 l/m 14,9 km/h (3 Bft) SW 226 0 min 0,000 mm 0,0 UV-I 0 W/m 3,7 C -0,6 C 20,9 km/h (4 Bft) 100,00 %
01.04.2018 05:09 5,2 C 6,1 C 90 % 1000,6 hPa 0,0 l/m 16,2 km/h (3 Bft) SW 222 0 min 0,000 mm 0,0 UV-I 0 W/m 3,7 C -1,3 C 22,5 km/h (4 Bft) 93,33 %
01.04.2018 05:10 5,2 C 6,1 C 90 % 1000,6 hPa 0,0 l/m 19,9 km/h (4 Bft) W-SW 239 0 min 0,000 mm 0,0 UV-I 0 W/m 3,7 C -2,9 C 27,4 km/h (4 Bft) 96,30 %
01.04.2018 05:11 5,2 C 6,1 C 90 % 1000,6 hPa 0,0 l/m 18,8 km/h (3 Bft) SW 214 0 min 0,000 mm 0,0 UV-I 0 W/m 3,7 C -2,4 C 29,0 km/h (5 Bft) 96,15 %
01.04.2018 05:12 5,2 C 6,1 C 90 % 1000,7 hPa 0,0 l/m 19,1 km/h (3 Bft) W-SW 251 0 min 0,000 mm 0,0 UV-I 0 W/m 3,7 C -2,6 C 22,5 km/h (4 Bft) 100,00 %
01.04.2018 05:13 5,2 C 6,1 C 90 % 1000,7 hPa 0,2 l/m 20,7 km/h (4 Bft) SW 220 0 min 0,000 mm 0,0 UV-I 0 W/m 3,7 C -3,2 C 27,4 km/h (4 Bft) 96,55 %
01.04.2018 05:14 5,2 C 6,1 C 90 % 1000,7 hPa 0,0 l/m 19,8 km/h (3 Bft) W-SW 240 0 min 0,000 mm 0,0 UV-I 0 W/m 3,7 C -2,8 C 25,7 km/h (4 Bft) 100,00 %
01.04.2018 05:15 5,2 C 6,1 C 90 % 1000,7 hPa 0,0 l/m 16,7 km/h (3 Bft) W 270 0 min 0,000 mm 0,0 UV-I 0 W/m 3,7 C -1,5 C 20,9 km/h (4 Bft) 92,86 %
01.04.2018 05:16 5,2 C 6,1 C 90 % 1000,7 hPa 0,0 l/m 22,4 km/h (4 Bft) W-SW 244 0 min 0,000 mm 0,0 UV-I 0 W/m 3,7 C -3,8 C 27,4 km/h (4 Bft) 100,00 %
01.04.2018 05:17 5,2 C 6,1 C 90 % 1000,8 hPa 0,0 l/m 18,4 km/h (3 Bft) SW 221 0 min 0,000 mm 0,0 UV-I 0 W/m 3,7 C -2,3 C 24,1 km/h (4 Bft) 96,15 %
01.04.2018 05:18 5,2 C 6,1 C 90 % 1000,8 hPa 0,0 l/m 17,5 km/h (3 Bft) W-SW 249 0 min 0,000 mm 0,0 UV-I 0 W/m 3,7 C -1,9 C 20,9 km/h (4 Bft) 91,67 %
01.04.2018 05:19 5,2 C 6,1 C 89 % 1000,8 hPa 0,0 l/m 18,9 km/h (3 Bft) W 261 0 min 0,000 mm 0,0 UV-I 0 W/m 3,5 C -2,5 C 25,7 km/h (4 Bft) 100,00 %
01.04.2018 05:20 5,2 C 6,1 C 89 % 1000,8 hPa 0,0 l/m 20,6 km/h (4 Bft) W 275 0 min 0,000 mm 0,0 UV-I 0 W/m 3,5 C -3,1 C 29,0 km/h (5 Bft) 91,67 %
01.04.2018 05:21 5,2 C 6,1 C 89 % 1000,8 hPa 0,0 l/m 23,8 km/h (4 Bft) SW 236 0 min 0,000 mm 0,0 UV-I 0 W/m 3,5 C -4,3 C 33,8 km/h (5 Bft) 100,00 %
01.04.2018 05:22 5,2 C 6,1 C 89 % 1000,8 hPa 0,0 l/m 19,6 km/h (3 Bft) W 259 0 min 0,000 mm 0,0 UV-I 0 W/m 3,5 C -2,8 C 30,6 km/h (5 Bft) 96,30 %
01.04.2018 05:23 5,2 C 6,1 C 89 % 1000,8 hPa 0,0 l/m 18,9 km/h (3 Bft) SW 222 0 min 0,000 mm 0,0 UV-I 0 W/m 3,5 C -2,5 C 25,7 km/h (4 Bft) 95,65 %
01.04.2018 05:24 5,2 C 6,1 C 89 % 1000,8 hPa 0,0 l/m 16,6 km/h (3 Bft) W-SW 257 0 min 0,000 mm 0,0 UV-I 0 W/m 3,5 C -1,5 C 22,5 km/h (4 Bft) 100,00 %
01.04.2018 05:25 5,2 C 6,1 C 89 % 1000,8 hPa 0,0 l/m 17,1 km/h (3 Bft) W-SW 252 0 min 0,000 mm 0,0 UV-I 0 W/m 3,5 C -1,7 C 24,1 km/h (4 Bft) 95,65 %
01.04.2018 05:26 5,2 C 6,1 C 89 % 1000,8 hPa 0,0 l/m 21,2 km/h (4 Bft) W-SW 245 0 min 0,000 mm 0,0 UV-I 0 W/m 3,5 C -3,4 C 27,4 km/h (4 Bft) 100,00 %
01.04.2018 05:27 5,2 C 6,1 C 89 % 1000,8 hPa 0,0 l/m 20,8 km/h (4 Bft) W-SW 240 0 min 0,000 mm 0,0 UV-I 0 W/m 3,5 C -3,2 C 29,0 km/h (5 Bft) 96,88 %
01.04.2018 05:28 5,2 C 6,1 C 89 % 1000,9 hPa 0,0 l/m 18,2 km/h (3 Bft) W 264 0 min 0,000 mm 0,0 UV-I 0 W/m 3,5 C -2,2 C 24,1 km/h (4 Bft) 100,00 %
01.04.2018 05:29 5,2 C 6,1 C 89 % 1000,9 hPa 0,0 l/m 17,1 km/h (3 Bft) W-SW 239 0 min 0,000 mm 0,0 UV-I 0 W/m 3,5 C -1,7 C 24,1 km/h (4 Bft) 93,33 %
01.04.2018 05:30 5,2 C 6,1 C 89 % 1000,9 hPa 0,0 l/m 15,4 km/h (3 Bft) W-SW 251 0 min 0,000 mm 0,0 UV-I 0 W/m 3,5 C -0,9 C 20,9 km/h (4 Bft) 100,00 %
01.04.2018 05:31 5,2 C 6,1 C 89 % 1000,9 hPa 0,0 l/m 18,9 km/h (3 Bft) W-SW 243 0 min 0,000 mm 0,0 UV-I 0 W/m 3,5 C -2,5 C 24,1 km/h (4 Bft) 96,30 %
01.04.2018 05:32 5,2 C 6,1 C 89 % 1000,9 hPa 0,0 l/m 18,6 km/h (3 Bft) W-SW 244 0 min 0,000 mm 0,0 UV-I 0 W/m 3,5 C -2,3 C 29,0 km/h (5 Bft) 91,30 %
01.04.2018 05:33 5,2 C 6,1 C 89 % 1000,9 hPa 0,0 l/m 20,4 km/h (4 Bft) W-SW 238 0 min 0,000 mm 0,0 UV-I 0 W/m 3,5 C -3,1 C 29,0 km/h (5 Bft) 100,00 %
01.04.2018 05:34 5,2 C 6,1 C 89 % 1000,9 hPa 0,0 l/m 17,9 km/h (3 Bft) SW 235 0 min 0,000 mm 0,0 UV-I 0 W/m 3,5 C -2,0 C 25,7 km/h (4 Bft) 96,15 %
01.04.2018 05:35 5,2 C 6,1 C 89 % 1000,9 hPa 0,0 l/m 16,3 km/h (3 Bft) W 263 0 min 0,000 mm 0,0 UV-I 0 W/m 3,5 C -1,3 C 29,0 km/h (5 Bft) 100,00 %
01.04.2018 05:36 5,1 C 6,1 C 89 % 1000,9 hPa 0,0 l/m 17,8 km/h (3 Bft) SW 223 0 min 0,000 mm 0,0 UV-I 0 W/m 3,4 C -2,1 C 25,7 km/h (4 Bft) 96,15 %
01.04.2018 05:37 5,1 C 6,1 C 89 % 1000,9 hPa 0,0 l/m 16,8 km/h (3 Bft) W 263 0 min 0,000 mm 0,0 UV-I 0 W/m 3,4 C -1,7 C 25,7 km/h (4 Bft) 93,33 %
01.04.2018 05:38 5,1 C 6,1 C 89 % 1001,0 hPa 0,0 l/m 16,2 km/h (3 Bft) SW 217 0 min 0,000 mm 0,0 UV-I 0 W/m 3,4 C -1,4 C 19,3 km/h (3 Bft) 100,00 %
01.04.2018 05:39 5,1 C 6,1 C 89 % 1000,9 hPa 0,0 l/m 16,6 km/h (3 Bft) W-SW 245 0 min 0,000 mm 0,0 UV-I 0 W/m 3,4 C -1,6 C 20,9 km/h (4 Bft) 100,00 %
01.04.2018 05:40 5,1 C 6,1 C 89 % 1000,9 hPa 0,0 l/m 17,1 km/h (3 Bft) W 269 0 min 0,000 mm 0,0 UV-I 0 W/m 3,4 C -1,8 C 20,9 km/h (4 Bft) 100,00 %
01.04.2018 05:41 5,1 C 6,1 C 89 % 1000,9 hPa 0,0 l/m 15,4 km/h (3 Bft) W 267 0 min 0,000 mm 0,0 UV-I 0 W/m 3,4 C -1,0 C 22,5 km/h (4 Bft) 100,00 %
01.04.2018 05:42 5,1 C 6,1 C 89 % 1001,0 hPa 0,0 l/m 14,5 km/h (3 Bft) W 273 0 min 0,000 mm 0,0 UV-I 0 W/m 3,4 C -0,5 C 20,9 km/h (4 Bft) 100,00 %
01.04.2018 05:43 5,0 C 6,1 C 89 % 1001,0 hPa 0,0 l/m 15,0 km/h (3 Bft) SW 235 0 min 0,000 mm 0,0 UV-I 0 W/m 3,3 C -0,9 C 17,7 km/h (3 Bft) 96,30 %
01.04.2018 05:44 5,0 C 6,1 C 89 % 1001,1 hPa 0,0 l/m 17,6 km/h (3 Bft) W 269 0 min 0,000 mm 0,0 UV-I 0 W/m 3,3 C -2,2 C 20,9 km/h (4 Bft) 100,00 %
01.04.2018 05:45 5,0 C 6,1 C 89 % 1001,0 hPa 0,0 l/m 16,2 km/h (3 Bft) W-SW 253 0 min 0,000 mm 0,0 UV-I 0 W/m 3,3 C -1,5 C 20,9 km/h (4 Bft) 100,00 %
01.04.2018 05:46 5,0 C 6,1 C 89 % 1001,0 hPa 0,0 l/m 20,4 km/h (4 Bft) W 260 0 min 0,000 mm 0,0 UV-I 0 W/m 3,3 C -3,3 C 25,7 km/h (4 Bft) 100,00 %
01.04.2018 05:47 5,0 C 6,1 C 89 % 1001,0 hPa 0,0 l/m 17,2 km/h (3 Bft) W-SW 241 0 min 0,000 mm 0,0 UV-I 0 W/m 3,3 C -2,0 C 24,1 km/h (4 Bft) 100,00 %
01.04.2018 05:48 5,0 C 6,1 C 89 % 1001,1 hPa 0,0 l/m 14,6 km/h (3 Bft) SW 227 0 min 0,000 mm 0,0 UV-I 0 W/m 3,3 C -0,7 C 19,3 km/h (3 Bft) 100,00 %
01.04.2018 05:49 5,0 C 6,1 C 89 % 1001,1 hPa 0,0 l/m 16,7 km/h (3 Bft) W-SW 238 0 min 0,000 mm 0,0 UV-I 0 W/m 3,3 C -1,8 C 24,1 km/h (4 Bft) 93,33 %
01.04.2018 05:50 5,0 C 6,1 C 89 % 1001,1 hPa 0,0 l/m 17,5 km/h (3 Bft) W 261 0 min 0,000 mm 0,0 UV-I 0 W/m 3,3 C -2,1 C 22,5 km/h (4 Bft) 100,00 %
01.04.2018 05:51 5,0 C 6,1 C 89 % 1001,1 hPa 0,0 l/m 17,0 km/h (3 Bft) W-SW 238 0 min 0,000 mm 0,0 UV-I 0 W/m 3,3 C -1,9 C 29,0 km/h (5 Bft) 100,00 %
01.04.2018 05:52 5,0 C 6,1 C 89 % 1001,1 hPa 0,0 l/m 14,8 km/h (3 Bft) SW 228 0 min 0,000 mm 0,0 UV-I 0 W/m 3,3 C -0,8 C 20,9 km/h (4 Bft) 100,00 %
01.04.2018 05:53 5,0 C 6,1 C 89 % 1001,1 hPa 0,0 l/m 16,4 km/h (3 Bft) W-SW 244 0 min 0,000 mm 0,0 UV-I 0 W/m 3,3 C -1,6 C 22,5 km/h (4 Bft) 100,00 %
01.04.2018 05:54 5,0 C 6,1 C 89 % 1001,1 hPa 0,0 l/m 18,1 km/h (3 Bft) W-SW 252 0 min 0,000 mm 0,0 UV-I 0 W/m 3,3 C -2,4 C 27,4 km/h (4 Bft) 100,00 %
01.04.2018 05:55 5,0 C 6,1 C 89 % 1001,1 hPa 0,0 l/m 17,1 km/h (3 Bft) W-SW 255 0 min 0,000 mm 0,0 UV-I 0 W/m 3,3 C -1,9 C 22,5 km/h (4 Bft) 100,00 %
01.04.2018 05:56 5,0 C 6,1 C 89 % 1001,2 hPa 0,0 l/m 15,0 km/h (3 Bft) W-SW 255 0 min 0,000 mm 0,0 UV-I 0 W/m 3,3 C -0,9 C 19,3 km/h (3 Bft) 100,00 %
01.04.2018 05:57 5,0 C 6,1 C 89 % 1001,2 hPa 0,0 l/m 16,6 km/h (3 Bft) SW 236 0 min 0,000 mm 0,0 UV-I 0 W/m 3,3 C -1,7 C 19,3 km/h (3 Bft) 95,65 %
01.04.2018 05:58 4,9 C 6,1 C 89 % 1001,2 hPa 0,0 l/m 15,1 km/h (3 Bft) W 275 0 min 0,000 mm 0,0 UV-I 0 W/m 3,2 C -1,1 C 19,3 km/h (3 Bft) 100,00 %
01.04.2018 05:59 4,9 C 6,1 C 89 % 1001,2 hPa 0,0 l/m 12,0 km/h (2 Bft) W-SW 257 0 min 0,000 mm 0,0 UV-I 0 W/m 3,2 C 0,6 C 16,1 km/h (3 Bft) 100,00 %
01.04.2018 06:00 4,9 C 6,1 C 89 % 1001,1 hPa 0,0 l/m 11,8 km/h (2 Bft) W-SW 245 0 min 0,025 mm 0,0 UV-I 0 W/m 3,2 C 0,8 C 19,3 km/h (3 Bft) 96,30 %
01.04.2018 06:01 4,9 C 6,1 C 89 % 1001,2 hPa 0,0 l/m 12,3 km/h (3 Bft) W 270 0 min 0,000 mm 0,0 UV-I 0 W/m 3,2 C 0,5 C 19,3 km/h (3 Bft) 100,00 %
01.04.2018 06:02 4,9 C 6,1 C 89 % 1001,2 hPa 0,0 l/m 18,1 km/h (3 Bft) W-SW 249 0 min 0,000 mm 0,0 UV-I 0 W/m 3,2 C -2,5 C 25,7 km/h (4 Bft) 100,00 %
01.04.2018 06:03 4,9 C 6,1 C 89 % 1001,2 hPa 0,0 l/m 14,9 km/h (3 Bft) W-SW 242 0 min 0,000 mm 0,0 UV-I 0 W/m 3,2 C -1,0 C 19,3 km/h (3 Bft) 100,00 %
01.04.2018 06:04 4,9 C 6,1 C 89 % 1001,2 hPa 0,0 l/m 12,6 km/h (3 Bft) SW 232 0 min 0,000 mm 0,0 UV-I 0 W/m 3,2 C 0,3 C 19,3 km/h (3 Bft) 100,00 %
01.04.2018 06:05 4,9 C 6,1 C 89 % 1001,2 hPa 0,0 l/m 14,3 km/h (3 Bft) SW 225 0 min 0,000 mm 0,0 UV-I 0 W/m 3,2 C -0,7 C 19,3 km/h (3 Bft) 100,00 %
01.04.2018 06:06 4,9 C 6,1 C 89 % 1001,2 hPa 0,0 l/m 13,8 km/h (3 Bft) W-SW 244 0 min 0,000 mm 0,0 UV-I 0 W/m 3,2 C -0,4 C 19,3 km/h (3 Bft) 100,00 %
01.04.2018 06:07 4,9 C 6,1 C 89 % 1001,2 hPa 0,0 l/m 16,0 km/h (3 Bft) W 275 0 min 0,000 mm 0,0 UV-I 0 W/m 3,2 C -1,5 C 22,5 km/h (4 Bft) 100,00 %
01.04.2018 06:09 4,9 C 6,1 C 89 % 1001,2 hPa 0,0 l/m 13,0 km/h (3 Bft) W 261 0 min 0,000 mm 0,0 UV-I 0 W/m 3,2 C 0,0 C 20,9 km/h (4 Bft) 100,00 %
01.04.2018 06:10 4,9 C 6,1 C 89 % 1001,2 hPa 0,0 l/m 16,4 km/h (3 Bft) W-SW 254 0 min 0,000 mm 0,0 UV-I 0 W/m 3,2 C -1,7 C 22,5 km/h (4 Bft) 92,59 %
01.04.2018 06:11 4,9 C 6,1 C 89 % 1001,3 hPa 0,0 l/m 15,2 km/h (3 Bft) W-SW 244 0 min 0,000 mm 0,0 UV-I 0 W/m 3,2 C -1,1 C 19,3 km/h (3 Bft) 100,00 %
01.04.2018 06:12 4,9 C 6,1 C 89 % 1001,3 hPa 0,0 l/m 15,6 km/h (3 Bft) W-SW 249 0 min 0,000 mm 0,0 UV-I 0 W/m 3,2 C -1,3 C 20,9 km/h (4 Bft) 100,00 %
01.04.2018 06:13 5,0 C 6,1 C 89 % 1001,3 hPa 0,0 l/m 15,0 km/h (3 Bft) W-SW 245 0 min 0,000 mm 0,0 UV-I 0 W/m 3,3 C -0,9 C 20,9 km/h (4 Bft) 100,00 %
01.04.2018 06:14 5,0 C 6,1 C 89 % 1001,3 hPa 0,0 l/m 18,4 km/h (3 Bft) W 263 0 min 0,000 mm 0,0 UV-I 0 W/m 3,3 C -2,5 C 27,4 km/h (4 Bft) 100,00 %
01.04.2018 06:15 5,0 C 6,1 C 89 % 1001,3 hPa 0,0 l/m 17,5 km/h (3 Bft) W-SW 239 0 min 0,000 mm 0,0 UV-I 0 W/m 3,3 C -2,1 C 20,9 km/h (4 Bft) 100,00 %
01.04.2018 06:16 5,0 C 6,1 C 89 % 1001,3 hPa 0,0 l/m 16,4 km/h (3 Bft) W 259 0 min 0,000 mm 0,0 UV-I 0 W/m 3,3 C -1,6 C 20,9 km/h (4 Bft) 100,00 %
01.04.2018 06:17 5,0 C 6,1 C 89 % 1001,4 hPa 0,0 l/m 13,7 km/h (3 Bft) W 265 0 min 0,000 mm 0,0 UV-I 0 W/m 3,3 C -0,2 C 19,3 km/h (3 Bft) 95,83 %
01.04.2018 06:18 5,0 C 6,1 C 89 % 1001,4 hPa 0,0 l/m 14,3 km/h (3 Bft) W 264 0 min 0,000 mm 0,0 UV-I 0 W/m 3,3 C -0,6 C 22,5 km/h (4 Bft) 100,00 %
01.04.2018 06:19 5,0 C 6,1 C 89 % 1001,4 hPa 0,0 l/m 12,7 km/h (3 Bft) W-SW 245 0 min 0,000 mm 0,0 UV-I 0 W/m 3,3 C 0,3 C 19,3 km/h (3 Bft) 100,00 %
01.04.2018 06:20 5,0 C 6,1 C 89 % 1001,4 hPa 0,0 l/m 13,7 km/h (3 Bft) W-SW 256 0 min 0,000 mm 0,0 UV-I 0 W/m 3,3 C -0,2 C 16,1 km/h (3 Bft) 100,00 %
01.04.2018 06:21 5,0 C 6,1 C 89 % 1001,4 hPa 0,0 l/m 13,0 km/h (3 Bft) W-SW 238 0 min 0,000 mm 0,0 UV-I 0 W/m 3,3 C 0,2 C 16,1 km/h (3 Bft) 100,00 %
01.04.2018 06:22 5,0 C 6,1 C 89 % 1001,4 hPa 0,0 l/m 12,9 km/h (3 Bft) W-SW 258 0 min 0,000 mm 0,0 UV-I 0 W/m 3,3 C 0,2 C 16,1 km/h (3 Bft) 100,00 %
01.04.2018 06:23 5,0 C 6,1 C 89 % 1001,4 hPa 0,0 l/m 14,9 km/h (3 Bft) W-SW 242 0 min 0,000 mm 0,0 UV-I 0 W/m 3,3 C -0,9 C 19,3 km/h (3 Bft) 100,00 %
01.04.2018 06:24 5,0 C 6,1 C 89 % 1001,4 hPa 0,0 l/m 14,4 km/h (3 Bft) W 265 0 min 0,000 mm 0,0 UV-I 0 W/m 3,3 C -0,6 C 20,9 km/h (4 Bft) 100,00 %
01.04.2018 06:25 5,1 C 6,1 C 88 % 1001,4 hPa 0,0 l/m 12,7 km/h (3 Bft) W-SW 243 0 min 0,000 mm 0,0 UV-I 0 W/m 3,3 C 0,5 C 24,1 km/h (4 Bft) 100,00 %
01.04.2018 06:26 5,1 C 6,1 C 88 % 1001,4 hPa 0,0 l/m 14,0 km/h (3 Bft) W-SW 244 0 min 0,000 mm 0,0 UV-I 0 W/m 3,3 C -0,3 C 19,3 km/h (3 Bft) 100,00 %
01.04.2018 06:27 5,1 C 6,1 C 88 % 1001,4 hPa 0,0 l/m 13,7 km/h (3 Bft) W-SW 248 0 min 0,000 mm 0,0 UV-I 0 W/m 3,3 C -0,1 C 16,1 km/h (3 Bft) 100,00 %
01.04.2018 06:28 5,1 C 6,1 C 88 % 1001,4 hPa 0,0 l/m 11,7 km/h (2 Bft) W-SW 257 0 min 0,000 mm 0,0 UV-I 0 W/m 3,3 C 1,1 C 17,7 km/h (3 Bft) 100,00 %
01.04.2018 06:29 5,1 C 6,1 C 88 % 1001,5 hPa 0,0 l/m 12,9 km/h (3 Bft) W-SW 246 0 min 0,000 mm 0,0 UV-I 0 W/m 3,3 C 0,3 C 20,9 km/h (4 Bft) 100,00 %
01.04.2018 06:30 5,1 C 6,1 C 88 % 1001,5 hPa 0,0 l/m 12,1 km/h (2 Bft) W-SW 248 0 min 0,000 mm 0,0 UV-I 0 W/m 3,3 C 0,8 C 16,1 km/h (3 Bft) 100,00 %
01.04.2018 06:31 5,1 C 6,1 C 88 % 1001,5 hPa 0,0 l/m 12,8 km/h (3 Bft) W-NW 292 0 min 0,000 mm 0,0 UV-I 0 W/m 3,3 C 0,4 C 16,1 km/h (3 Bft) 100,00 %
01.04.2018 06:32 5,1 C 6,1 C 88 % 1001,5 hPa 0,0 l/m 11,3 km/h (2 Bft) SW 236 0 min 0,000 mm 0,0 UV-I 0 W/m 3,3 C 1,3 C 16,1 km/h (3 Bft) 100,00 %
01.04.2018 06:33 5,1 C 6,1 C 88 % 1001,5 hPa 0,0 l/m 16,3 km/h (3 Bft) SW 218 0 min 0,000 mm 0,0 UV-I 0 W/m 3,3 C -1,4 C 22,5 km/h (4 Bft) 100,00 %
01.04.2018 06:34 5,0 C 6,1 C 88 % 1001,5 hPa 0,0 l/m 13,7 km/h (3 Bft) W-SW 250 0 min 0,000 mm 0,0 UV-I 0 W/m 3,2 C -0,2 C 20,9 km/h (4 Bft) 100,00 %
01.04.2018 06:35 5,1 C 6,1 C 88 % 1001,5 hPa 0,0 l/m 14,2 km/h (3 Bft) W 279 0 min 0,000 mm 0,0 UV-I 0 W/m 3,3 C -0,4 C 17,7 km/h (3 Bft) 100,00 %
01.04.2018 06:36 5,0 C 6,1 C 88 % 1001,5 hPa 0,0 l/m 13,5 km/h (3 Bft) W 265 0 min 0,000 mm 0,0 UV-I 0 W/m 3,2 C -0,1 C 17,7 km/h (3 Bft) 95,83 %
01.04.2018 06:37 5,0 C 6,1 C 88 % 1001,6 hPa 0,0 l/m 14,7 km/h (3 Bft) W-SW 252 0 min 0,000 mm 0,0 UV-I 0 W/m 3,2 C -0,8 C 17,7 km/h (3 Bft) 100,00 %
01.04.2018 06:38 5,1 C 6,1 C 88 % 1001,5 hPa 0,0 l/m 16,4 km/h (3 Bft) SW 232 0 min 0,000 mm 0,0 UV-I 4 W/m 3,3 C -1,5 C 20,9 km/h (4 Bft) 100,00 %
01.04.2018 06:39 5,1 C 6,1 C 88 % 1001,5 hPa 0,0 l/m 20,5 km/h (4 Bft) W-SW 249 0 min 0,000 mm 0,0 UV-I 5 W/m 3,3 C -3,2 C 24,1 km/h (4 Bft) 100,00 %
01.04.2018 06:40 5,1 C 6,1 C 88 % 1001,6 hPa 0,0 l/m 18,0 km/h (3 Bft) W-SW 243 0 min 0,000 mm 0,0 UV-I 5 W/m 3,3 C -2,2 C 27,4 km/h (4 Bft) 100,00 %
01.04.2018 06:41 5,1 C 6,1 C 88 % 1001,6 hPa 0,0 l/m 13,9 km/h (3 Bft) W-SW 251 0 min 0,000 mm 0,0 UV-I 5 W/m 3,3 C -0,2 C 19,3 km/h (3 Bft) 100,00 %
01.04.2018 06:42 5,1 C 6,1 C 88 % 1001,6 hPa 0,0 l/m 12,7 km/h (3 Bft) W 263 0 min 0,000 mm 0,0 UV-I 5 W/m 3,3 C 0,5 C 16,1 km/h (3 Bft) 100,00 %
01.04.2018 06:43 5,1 C 6,1 C 88 % 1001,6 hPa 0,0 l/m 14,8 km/h (3 Bft) W-NW 285 0 min 0,000 mm 0,0 UV-I 5 W/m 3,3 C -0,7 C 19,3 km/h (3 Bft) 100,00 %
01.04.2018 06:44 5,1 C 6,1 C 88 % 1001,6 hPa 0,0 l/m 16,1 km/h (3 Bft) W-SW 256 0 min 0,000 mm 0,0 UV-I 5 W/m 3,3 C -1,3 C 20,9 km/h (4 Bft) 100,00 %
01.04.2018 06:45 5,1 C 6,1 C 87 % 1001,6 hPa 0,0 l/m 14,5 km/h (3 Bft) W 261 0 min 0,000 mm 0,0 UV-I 5 W/m 3,1 C -0,5 C 17,7 km/h (3 Bft) 100,00 %
01.04.2018 06:46 5,1 C 6,1 C 87 % 1001,7 hPa 0,0 l/m 15,4 km/h (3 Bft) W 261 0 min 0,000 mm 0,0 UV-I 5 W/m 3,1 C -1,0 C 20,9 km/h (4 Bft) 100,00 %
01.04.2018 06:47 5,1 C 6,1 C 87 % 1001,7 hPa 0,0 l/m 14,2 km/h (3 Bft) SW 228 0 min 0,000 mm 0,0 UV-I 5 W/m 3,1 C -0,4 C 19,3 km/h (3 Bft) 94,44 %
01.04.2018 06:48 5,1 C 6,1 C 87 % 1001,7 hPa 0,0 l/m 14,1 km/h (3 Bft) W-SW 238 0 min 0,000 mm 0,0 UV-I 6 W/m 3,1 C -0,3 C 20,9 km/h (4 Bft) 100,00 %
01.04.2018 06:49 5,1 C 6,1 C 87 % 1001,7 hPa 0,0 l/m 12,9 km/h (3 Bft) W-SW 248 0 min 0,000 mm 0,0 UV-I 7 W/m 3,1 C 0,3 C 17,7 km/h (3 Bft) 100,00 %
01.04.2018 06:50 5,1 C 6,1 C 88 % 1001,7 hPa 0,0 l/m 15,8 km/h (3 Bft) W-SW 244 0 min 0,000 mm 0,0 UV-I 7 W/m 3,3 C -1,2 C 22,5 km/h (4 Bft) 100,00 %
01.04.2018 06:51 5,1 C 6,1 C 88 % 1001,7 hPa 0,0 l/m 15,9 km/h (3 Bft) W-SW 248 0 min 0,000 mm 0,0 UV-I 7 W/m 3,3 C -1,3 C 22,5 km/h (4 Bft) 95,83 %
01.04.2018 06:52 5,1 C 6,1 C 87 % 1001,7 hPa 0,0 l/m 14,2 km/h (3 Bft) W 268 0 min 0,000 mm 0,0 UV-I 7 W/m 3,1 C -0,4 C 19,3 km/h (3 Bft) 100,00 %
01.04.2018 06:53 5,1 C 6,1 C 87 % 1001,7 hPa 0,0 l/m 12,2 km/h (2 Bft) W 273 1 min 0,000 mm 0,0 UV-I 9 W/m 3,1 C 0,8 C 16,1 km/h (3 Bft) 100,00 %
01.04.2018 06:54 5,1 C 6,1 C 87 % 1001,7 hPa 0,0 l/m 12,9 km/h (3 Bft) W-SW 250 0 min 0,000 mm 0,0 UV-I 9 W/m 3,1 C 0,3 C 19,3 km/h (3 Bft) 100,00 %
01.04.2018 06:55 5,1 C 6,1 C 87 % 1001,7 hPa 0,0 l/m 14,4 km/h (3 Bft) W-SW 242 0 min 0,000 mm 0,0 UV-I 9 W/m 3,1 C -0,5 C 19,3 km/h (3 Bft) 100,00 %
01.04.2018 06:56 5,1 C 6,1 C 87 % 1001,7 hPa 0,0 l/m 16,3 km/h (3 Bft) W-SW 250 0 min 0,000 mm 0,0 UV-I 9 W/m 3,1 C -1,4 C 19,3 km/h (3 Bft) 100,00 %
01.04.2018 06:57 5,1 C 6,1 C 87 % 1001,7 hPa 0,0 l/m 14,6 km/h (3 Bft) W-SW 251 0 min 0,000 mm 0,0 UV-I 9 W/m 3,1 C -0,6 C 17,7 km/h (3 Bft) 100,00 %
01.04.2018 06:58 5,1 C 6,1 C 87 % 1001,7 hPa 0,0 l/m 12,8 km/h (3 Bft) W-SW 238 0 min 0,000 mm 0,0 UV-I 9 W/m 3,1 C 0,4 C 16,1 km/h (3 Bft) 100,00 %
01.04.2018 06:59 5,1 C 6,1 C 87 % 1001,7 hPa 0,0 l/m 15,0 km/h (3 Bft) W-SW 239 0 min 0,000 mm 0,0 UV-I 9 W/m 3,1 C -0,8 C 20,9 km/h (4 Bft) 100,00 %
01.04.2018 07:00 5,2 C 6,1 C 87 % 1001,8 hPa 0,0 l/m 17,8 km/h (3 Bft) W 259 0 min 0,026 mm 0,0 UV-I 10 W/m 3,2 C -2,0 C 24,1 km/h (4 Bft) 100,00 %
01.04.2018 07:01 5,2 C 6,1 C 87 % 1001,8 hPa 0,0 l/m 17,2 km/h (3 Bft) W 271 0 min 0,000 mm 0,0 UV-I 11 W/m 3,2 C -1,7 C 22,5 km/h (4 Bft) 95,83 %
01.04.2018 07:02 5,2 C 6,1 C 86 % 1001,8 hPa 0,0 l/m 13,2 km/h (3 Bft) SW 233 0 min 0,000 mm 0,0 UV-I 11 W/m 3,1 C 0,3 C 20,9 km/h (4 Bft) 100,00 %
01.04.2018 07:03 5,2 C 6,1 C 87 % 1001,8 hPa 0,0 l/m 14,4 km/h (3 Bft) SW 229 0 min 0,000 mm 0,0 UV-I 9 W/m 3,2 C -0,4 C 17,7 km/h (3 Bft) 95,83 %
01.04.2018 07:04 5,2 C 6,1 C 87 % 1001,8 hPa 0,0 l/m 11,4 km/h (2 Bft) W 266 0 min 0,000 mm 0,0 UV-I 9 W/m 3,2 C 1,4 C 17,7 km/h (3 Bft) 100,00 %
01.04.2018 07:05 5,2 C 6,1 C 87 % 1001,8 hPa 0,0 l/m 12,7 km/h (3 Bft) SW 236 0 min 0,000 mm 0,0 UV-I 9 W/m 3,2 C 0,6 C 19,3 km/h (3 Bft) 95,65 %
01.04.2018 07:06 5,2 C 6,1 C 87 % 1001,8 hPa 0,0 l/m 13,8 km/h (3 Bft) SW 226 0 min 0,000 mm 0,0 UV-I 9 W/m 3,2 C -0,0 C 19,3 km/h (3 Bft) 96,00 %
01.04.2018 07:07 5,2 C 6,1 C 87 % 1001,8 hPa 0,0 l/m 13,9 km/h (3 Bft) W 261 0 min 0,000 mm 0,0 UV-I 9 W/m 3,2 C -0,1 C 19,3 km/h (3 Bft) 100,00 %
01.04.2018 07:08 5,2 C 6,1 C 87 % 1001,7 hPa 0,0 l/m 14,7 km/h (3 Bft) W-SW 245 0 min 0,000 mm 0,0 UV-I 9 W/m 3,2 C -0,5 C 19,3 km/h (3 Bft) 96,97 %
01.04.2018 07:09 5,3 C 6,1 C 86 % 1001,8 hPa 0,0 l/m 15,6 km/h (3 Bft) W-SW 244 0 min 0,000 mm 0,0 UV-I 11 W/m 3,2 C -0,9 C 20,9 km/h (4 Bft) 96,15 %
01.04.2018 07:10 5,3 C 6,1 C 86 % 1001,7 hPa 0,0 l/m 13,5 km/h (3 Bft) SW 231 0 min 0,000 mm 0,0 UV-I 11 W/m 3,2 C 0,2 C 17,7 km/h (3 Bft) 100,00 %
01.04.2018 07:11 5,3 C 6,1 C 86 % 1001,8 hPa 0,0 l/m 17,8 km/h (3 Bft) SW 236 0 min 0,000 mm 0,0 UV-I 12 W/m 3,2 C -1,9 C 24,1 km/h (4 Bft) 92,86 %
01.04.2018 07:12 5,3 C 6,1 C 86 % 1001,8 hPa 0,0 l/m 20,1 km/h (4 Bft) W-SW 240 0 min 0,000 mm 0,0 UV-I 13 W/m 3,2 C -2,8 C 25,7 km/h (4 Bft) 100,00 %
01.04.2018 07:13 5,3 C 6,1 C 86 % 1001,8 hPa 0,0 l/m 16,5 km/h (3 Bft) W 259 0 min 0,000 mm 0,0 UV-I 14 W/m 3,2 C -1,3 C 20,9 km/h (4 Bft) 95,65 %
01.04.2018 07:14 5,3 C 6,1 C 86 % 1001,8 hPa 0,0 l/m 19,5 km/h (3 Bft) SW 220 0 min 0,000 mm 0,0 UV-I 16 W/m 3,2 C -2,6 C 24,1 km/h (4 Bft) 100,00 %
01.04.2018 07:15 5,3 C 6,1 C 86 % 1001,8 hPa 0,0 l/m 15,1 km/h (3 Bft) W 272 0 min 0,000 mm 0,0 UV-I 16 W/m 3,2 C -0,6 C 19,3 km/h (3 Bft) 96,55 %
01.04.2018 07:16 5,3 C 6,1 C 86 % 1001,8 hPa 0,0 l/m 15,1 km/h (3 Bft) W-SW 258 0 min 0,000 mm 0,0 UV-I 17 W/m 3,2 C -0,6 C 20,9 km/h (4 Bft) 96,30 %
01.04.2018 07:17 5,3 C 6,1 C 86 % 1001,8 hPa 0,0 l/m 17,1 km/h (3 Bft) W 260 0 min 0,000 mm 0,0 UV-I 18 W/m 3,2 C -1,6 C 24,1 km/h (4 Bft) 100,00 %
01.04.2018 07:18 5,3 C 6,1 C 86 % 1001,8 hPa 0,0 l/m 16,1 km/h (3 Bft) W-SW 237 0 min 0,000 mm 0,0 UV-I 19 W/m 3,2 C -1,1 C 22,5 km/h (4 Bft) 100,00 %
01.04.2018 07:19 5,3 C 6,1 C 86 % 1001,9 hPa 0,0 l/m 13,3 km/h (3 Bft) W-SW 248 0 min 0,000 mm 0,0 UV-I 19 W/m 3,2 C 0,3 C 19,3 km/h (3 Bft) 96,15 %
01.04.2018 07:20 5,3 C 6,1 C 86 % 1001,9 hPa 0,0 l/m 15,2 km/h (3 Bft) SW 220 0 min 0,000 mm 0,0 UV-I 19 W/m 3,2 C -0,7 C 19,3 km/h (3 Bft) 91,67 %
01.04.2018 07:21 5,3 C 6,1 C 86 % 1001,8 hPa 0,0 l/m 17,5 km/h (3 Bft) W-SW 242 0 min 0,000 mm 0,0 UV-I 21 W/m 3,2 C -1,7 C 20,9 km/h (4 Bft) 100,00 %
01.04.2018 07:22 5,3 C 6,1 C 86 % 1001,8 hPa 0,0 l/m 19,6 km/h (3 Bft) W-SW 238 0 min 0,000 mm 0,0 UV-I 21 W/m 3,2 C -2,6 C 27,4 km/h (4 Bft) 96,77 %
01.04.2018 07:23 5,3 C 6,1 C 86 % 1002,0 hPa 0,0 l/m 18,3 km/h (3 Bft) W 264 0 min 0,000 mm 0,0 UV-I 22 W/m 3,2 C -2,1 C 25,7 km/h (4 Bft) 100,00 %
01.04.2018 07:24 5,3 C 6,1 C 86 % 1001,9 hPa 0,0 l/m 17,4 km/h (3 Bft) W-SW 256 0 min 0,000 mm 0,0 UV-I 23 W/m 3,2 C -1,7 C 24,1 km/h (4 Bft) 86,67 %
01.04.2018 07:25 5,4 C 6,1 C 86 % 1001,9 hPa 0,0 l/m 16,8 km/h (3 Bft) SW 236 0 min 0,000 mm 0,0 UV-I 23 W/m 3,3 C -1,3 C 24,1 km/h (4 Bft) 96,67 %
01.04.2018 07:26 5,4 C 6,1 C 86 % 1001,9 hPa 0,0 l/m 17,9 km/h (3 Bft) W-SW 258 0 min 0,000 mm 0,0 UV-I 25 W/m 3,3 C -1,8 C 25,7 km/h (4 Bft) 91,30 %
01.04.2018 07:27 5,4 C 6,1 C 86 % 1001,9 hPa 0,0 l/m 16,9 km/h (3 Bft) W 275 0 min 0,000 mm 0,0 UV-I 25 W/m 3,3 C -1,3 C 25,7 km/h (4 Bft) 93,33 %
01.04.2018 07:28 5,4 C 6,1 C 85 % 1001,9 hPa 0,0 l/m 14,8 km/h (3 Bft) W-SW 250 0 min 0,000 mm 0,0 UV-I 25 W/m 3,1 C -0,3 C 24,1 km/h (4 Bft) 100,00 %
01.04.2018 07:29 5,4 C 6,1 C 85 % 1002,0 hPa 0,0 l/m 15,1 km/h (3 Bft) SW 227 0 min 0,000 mm 0,0 UV-I 25 W/m 3,1 C -0,5 C 19,3 km/h (3 Bft) 92,59 %
01.04.2018 07:30 5,4 C 6,1 C 85 % 1001,9 hPa 0,0 l/m 18,0 km/h (3 Bft) W 270 0 min 0,000 mm 0,0 UV-I 24 W/m 3,1 C -1,8 C 24,1 km/h (4 Bft) 100,00 %
01.04.2018 07:31 5,4 C 6,1 C 85 % 1001,9 hPa 0,0 l/m 17,7 km/h (3 Bft) W-SW 257 0 min 0,000 mm 0,0 UV-I 22 W/m 3,1 C -1,7 C 24,1 km/h (4 Bft) 92,59 %
01.04.2018 07:32 5,4 C 6,1 C 85 % 1001,9 hPa 0,0 l/m 17,6 km/h (3 Bft) W-SW 249 0 min 0,000 mm 0,0 UV-I 21 W/m 3,1 C -1,7 C 24,1 km/h (4 Bft) 100,00 %
01.04.2018 07:33 5,4 C 6,1 C 85 % 1001,9 hPa 0,0 l/m 18,5 km/h (3 Bft) SW 215 0 min 0,000 mm 0,0 UV-I 21 W/m 3,1 C -2,0 C 24,1 km/h (4 Bft) 86,67 %
01.04.2018 07:34 5,4 C 6,1 C 85 % 1001,9 hPa 0,0 l/m 19,9 km/h (4 Bft) W 264 0 min 0,000 mm 0,0 UV-I 21 W/m 3,1 C -2,6 C 25,7 km/h (4 Bft) 100,00 %
01.04.2018 07:35 5,4 C 6,1 C 85 % 1002,0 hPa 0,0 l/m 16,8 km/h (3 Bft) W 261 0 min 0,000 mm 0,0 UV-I 21 W/m 3,1 C -1,3 C 22,5 km/h (4 Bft) 92,59 %
01.04.2018 07:36 5,4 C 6,1 C 85 % 1002,0 hPa 0,0 l/m 17,6 km/h (3 Bft) W 263 0 min 0,000 mm 0,0 UV-I 21 W/m 3,1 C -1,7 C 24,1 km/h (4 Bft) 95,65 %
01.04.2018 07:37 5,4 C 6,1 C 85 % 1002,1 hPa 0,0 l/m 16,2 km/h (3 Bft) W-SW 252 0 min 0,000 mm 0,0 UV-I 21 W/m 3,1 C -1,0 C 20,9 km/h (4 Bft) 96,30 %
01.04.2018 07:38 5,4 C 6,1 C 85 % 1002,0 hPa 0,0 l/m 17,2 km/h (3 Bft) W 267 0 min 0,000 mm 0,0 UV-I 19 W/m 3,1 C -1,5 C 20,9 km/h (4 Bft) 92,31 %
01.04.2018 07:39 5,5 C 6,1 C 85 % 1002,1 hPa 0,0 l/m 16,3 km/h (3 Bft) W-SW 258 0 min 0,000 mm 0,0 UV-I 21 W/m 3,2 C -0,9 C 25,7 km/h (4 Bft) 100,00 %
01.04.2018 07:40 5,5 C 6,1 C 85 % 1002,0 hPa 0,0 l/m 15,3 km/h (3 Bft) W 273 0 min 0,000 mm 0,0 UV-I 21 W/m 3,2 C -0,5 C 24,1 km/h (4 Bft) 92,31 %
01.04.2018 07:41 5,5 C 6,1 C 85 % 1002,1 hPa 0,0 l/m 16,3 km/h (3 Bft) W 266 0 min 0,000 mm 0,0 UV-I 21 W/m 3,2 C -0,9 C 20,9 km/h (4 Bft) 100,00 %
01.04.2018 07:42 5,5 C 6,1 C 85 % 1002,1 hPa 0,0 l/m 12,9 km/h (3 Bft) W-NW 283 0 min 0,000 mm 0,0 UV-I 22 W/m 3,2 C 0,8 C 16,1 km/h (3 Bft) 98,17 %
01.04.2018 07:43 5,5 C 6,1 C 85 % 1002,1 hPa 0,0 l/m 14,7 km/h (3 Bft) W 265 0 min 0,000 mm 0,0 UV-I 23 W/m 3,2 C -0,2 C 19,3 km/h (3 Bft) 97,87 %
01.04.2018 07:44 5,5 C 6,1 C 85 % 1002,2 hPa 0,0 l/m 15,1 km/h (3 Bft) W 261 0 min 0,000 mm 0,0 UV-I 23 W/m 3,2 C -0,4 C 24,1 km/h (4 Bft) 96,15 %
01.04.2018 07:45 5,5 C 6,1 C 85 % 1002,2 hPa 0,0 l/m 18,3 km/h (3 Bft) W-NW 283 0 min 0,000 mm 0,0 UV-I 23 W/m 3,2 C -1,8 C 25,7 km/h (4 Bft) 93,33 %
01.04.2018 07:46 5,5 C 6,1 C 85 % 1002,2 hPa 0,0 l/m 17,9 km/h (3 Bft) W-NW 284 0 min 0,000 mm 0,0 UV-I 23 W/m 3,2 C -1,7 C 24,1 km/h (4 Bft) 96,30 %
01.04.2018 07:47 5,4 C 6,1 C 85 % 1002,3 hPa 0,0 l/m 14,7 km/h (3 Bft) W 265 0 min 0,000 mm 0,0 UV-I 23 W/m 3,1 C -0,3 C 20,9 km/h (4 Bft) 100,00 %
01.04.2018 07:48 5,4 C 6,1 C 85 % 1002,3 hPa 0,0 l/m 16,7 km/h (3 Bft) W 265 0 min 0,000 mm 0,0 UV-I 23 W/m 3,1 C -1,3 C 22,5 km/h (4 Bft) 96,30 %
01.04.2018 07:49 5,4 C 6,1 C 85 % 1002,3 hPa 0,0 l/m 13,3 km/h (3 Bft) W 262 0 min 0,000 mm 0,0 UV-I 25 W/m 3,1 C 0,5 C 17,7 km/h (3 Bft) 91,30 %
01.04.2018 07:50 5,4 C 6,1 C 85 % 1002,3 hPa 0,0 l/m 14,5 km/h (3 Bft) W 279 0 min 0,000 mm 0,0 UV-I 25 W/m 3,1 C -0,2 C 19,3 km/h (3 Bft) 100,00 %
01.04.2018 07:51 5,4 C 6,1 C 85 % 1002,3 hPa 0,0 l/m 17,6 km/h (3 Bft) W-SW 250 0 min 0,000 mm 0,0 UV-I 25 W/m 3,1 C -1,7 C 22,5 km/h (4 Bft) 94,12 %
01.04.2018 07:52 5,4 C 6,1 C 85 % 1002,3 hPa 0,0 l/m 13,3 km/h (3 Bft) W 262 0 min 0,000 mm 0,0 UV-I 25 W/m 3,1 C 0,5 C 17,7 km/h (3 Bft) 100,00 %
01.04.2018 07:53 5,4 C 6,1 C 85 % 1002,3 hPa 0,0 l/m 13,9 km/h (3 Bft) W 269 0 min 0,000 mm 0,0 UV-I 24 W/m 3,1 C 0,1 C 19,3 km/h (3 Bft) 92,86 %
01.04.2018 07:54 5,4 C 6,1 C 85 % 1002,4 hPa 0,0 l/m 15,0 km/h (3 Bft) SW 233 0 min 0,000 mm 0,0 UV-I 23 W/m 3,1 C -0,4 C 19,3 km/h (3 Bft) 100,00 %
01.04.2018 07:55 5,4 C 6,1 C 85 % 1002,3 hPa 0,0 l/m 15,1 km/h (3 Bft) W 272 0 min 0,000 mm 0,0 UV-I 23 W/m 3,1 C -0,5 C 19,3 km/h (3 Bft) 92,31 %
01.04.2018 07:56 5,4 C 6,1 C 85 % 1002,4 hPa 0,0 l/m 15,7 km/h (3 Bft) W-NW 290 0 min 0,000 mm 0,0 UV-I 23 W/m 3,1 C -0,8 C 20,9 km/h (4 Bft) 100,00 %
01.04.2018 07:57 5,4 C 6,1 C 85 % 1002,4 hPa 0,0 l/m 13,3 km/h (3 Bft) W 265 0 min 0,000 mm 0,0 UV-I 23 W/m 3,1 C 0,5 C 20,9 km/h (4 Bft) 100,00 %
01.04.2018 07:58 5,4 C 6,1 C 85 % 1002,4 hPa 0,0 l/m 16,7 km/h (3 Bft) W 274 0 min 0,000 mm 0,0 UV-I 25 W/m 3,1 C -1,3 C 24,1 km/h (4 Bft) 93,55 %
01.04.2018 07:59 5,5 C 6,1 C 85 % 1002,4 hPa 0,0 l/m 13,4 km/h (3 Bft) W 274 0 min 0,000 mm 0,0 UV-I 25 W/m 3,2 C 0,5 C 17,7 km/h (3 Bft) 96,67 %
01.04.2018 08:00 5,5 C 6,1 C 85 % 1002,4 hPa 0,0 l/m 13,7 km/h (3 Bft) SW 232 0 min 0,025 mm 0,0 UV-I 25 W/m 3,2 C 0,4 C 22,5 km/h (4 Bft) 100,00 %
01.04.2018 08:01 5,5 C 6,1 C 85 % 1002,4 hPa 0,0 l/m 18,3 km/h (3 Bft) W-SW 258 0 min 0,000 mm 0,0 UV-I 23 W/m 3,2 C -1,8 C 24,1 km/h (4 Bft) 95,83 %
01.04.2018 08:02 5,5 C 6,1 C 85 % 1002,5 hPa 0,0 l/m 12,5 km/h (3 Bft) W 261 0 min 0,000 mm 0,0 UV-I 24 W/m 3,2 C 1,0 C 16,1 km/h (3 Bft) 93,10 %
01.04.2018 08:03 5,5 C 6,1 C 85 % 1002,4 hPa 0,0 l/m 19,0 km/h (3 Bft) W-SW 254 0 min 0,000 mm 0,0 UV-I 25 W/m 3,2 C -2,1 C 25,7 km/h (4 Bft) 95,83 %
01.04.2018 08:04 5,4 C 6,1 C 85 % 1002,5 hPa 0,0 l/m 16,5 km/h (3 Bft) W-SW 257 0 min 0,000 mm 0,0 UV-I 27 W/m 3,1 C -1,2 C 22,5 km/h (4 Bft) 92,86 %
01.04.2018 08:05 5,5 C 6,1 C 85 % 1002,5 hPa 0,0 l/m 15,8 km/h (3 Bft) W-NW 284 0 min 0,000 mm 0,0 UV-I 29 W/m 3,2 C -0,7 C 19,3 km/h (3 Bft) 100,00 %
01.04.2018 08:06 5,5 C 6,1 C 85 % 1002,5 hPa 0,0 l/m 17,9 km/h (3 Bft) W-SW 258 0 min 0,000 mm 0,0 UV-I 30 W/m 3,2 C -1,7 C 25,7 km/h (4 Bft) 95,65 %
01.04.2018 08:07 5,5 C 6,1 C 85 % 1002,5 hPa 0,0 l/m 18,4 km/h (3 Bft) SW 228 0 min 0,000 mm 0,0 UV-I 33 W/m 3,2 C -1,9 C 27,4 km/h (4 Bft) 100,00 %
01.04.2018 08:08 5,5 C 6,1 C 85 % 1002,5 hPa 0,0 l/m 16,7 km/h (3 Bft) W 277 0 min 0,000 mm 0,0 UV-I 36 W/m 3,2 C -1,1 C 20,9 km/h (4 Bft) 92,31 %
01.04.2018 08:09 5,5 C 6,1 C 85 % 1002,5 hPa 0,0 l/m 15,5 km/h (3 Bft) W-NW 285 0 min 0,000 mm 0,0 UV-I 38 W/m 3,2 C -0,6 C 19,3 km/h (3 Bft) 100,00 %
01.04.2018 08:10 5,5 C 6,1 C 85 % 1002,5 hPa 0,0 l/m 13,8 km/h (3 Bft) W-SW 256 0 min 0,000 mm 0,0 UV-I 40 W/m 3,2 C 0,3 C 17,7 km/h (3 Bft) 96,55 %
01.04.2018 08:11 5,5 C 6,1 C 85 % 1002,5 hPa 0,0 l/m 14,1 km/h (3 Bft) W 265 0 min 0,000 mm 0,0 UV-I 40 W/m 3,2 C 0,1 C 17,7 km/h (3 Bft) 96,30 %
01.04.2018 08:12 5,5 C 6,1 C 85 % 1002,5 hPa 0,0 l/m 15,1 km/h (3 Bft) W 275 0 min 0,000 mm 0,0 UV-I 42 W/m 3,2 C -0,4 C 22,5 km/h (4 Bft) 95,65 %
01.04.2018 08:13 5,6 C 6,1 C 85 % 1002,5 hPa 0,0 l/m 12,8 km/h (3 Bft) W 272 0 min 0,000 mm 0,0 UV-I 44 W/m 3,3 C 1,0 C 17,7 km/h (3 Bft) 96,30 %
01.04.2018 08:14 5,6 C 6,1 C 85 % 1002,5 hPa 0,0 l/m 18,9 km/h (3 Bft) W-SW 257 0 min 0,000 mm 0,0 UV-I 46 W/m 3,3 C -2,0 C 29,0 km/h (5 Bft) 100,00 %
01.04.2018 08:15 5,6 C 6,1 C 84 % 1002,5 hPa 0,0 l/m 17,4 km/h (3 Bft) W-SW 237 0 min 0,000 mm 0,0 UV-I 45 W/m 3,1 C -1,3 C 22,5 km/h (4 Bft) 96,30 %
01.04.2018 08:16 5,6 C 6,1 C 84 % 1002,5 hPa 0,0 l/m 15,2 km/h (3 Bft) W-SW 252 0 min 0,000 mm 0,0 UV-I 43 W/m 3,1 C -0,3 C 20,9 km/h (4 Bft) 100,00 %
01.04.2018 08:17 5,6 C 6,1 C 84 % 1002,5 hPa 0,0 l/m 15,5 km/h (3 Bft) SW 221 0 min 0,000 mm 0,0 UV-I 42 W/m 3,1 C -0,4 C 17,7 km/h (3 Bft) 95,83 %
01.04.2018 08:18 5,6 C 6,1 C 84 % 1002,5 hPa 0,0 l/m 15,6 km/h (3 Bft) W-SW 247 0 min 0,000 mm 0,0 UV-I 45 W/m 3,1 C -0,5 C 25,7 km/h (4 Bft) 100,00 %
01.04.2018 08:19 5,7 C 6,1 C 84 % 1002,6 hPa 0,0 l/m 20,4 km/h (4 Bft) W 260 0 min 0,000 mm 0,0 UV-I 51 W/m 3,2 C -2,4 C 24,1 km/h (4 Bft) 91,67 %
01.04.2018 08:20 5,7 C 6,1 C 84 % 1002,5 hPa 0,0 l/m 17,4 km/h (3 Bft) W-SW 251 0 min 0,000 mm 0,0 UV-I 53 W/m 3,2 C -1,2 C 25,7 km/h (4 Bft) 100,00 %
01.04.2018 08:21 5,7 C 6,1 C 84 % 1002,6 hPa 0,0 l/m 16,7 km/h (3 Bft) W 259 0 min 0,000 mm 0,0 UV-I 54 W/m 3,2 C -0,9 C 22,5 km/h (4 Bft) 96,30 %
01.04.2018 08:22 5,7 C 6,1 C 84 % 1002,6 hPa 0,0 l/m 15,4 km/h (3 Bft) W 262 0 min 0,000 mm 0,0 UV-I 56 W/m 3,2 C -0,3 C 20,9 km/h (4 Bft) 91,30 %
01.04.2018 08:23 5,7 C 6,1 C 84 % 1002,6 hPa 0,0 l/m 15,1 km/h (3 Bft) W-SW 251 0 min 0,000 mm 0,0 UV-I 61 W/m 3,2 C -0,1 C 22,5 km/h (4 Bft) 100,00 %
01.04.2018 08:24 5,7 C 6,1 C 84 % 1002,6 hPa 0,0 l/m 13,9 km/h (3 Bft) W 266 0 min 0,000 mm 0,0 UV-I 63 W/m 3,2 C 0,5 C 19,3 km/h (3 Bft) 100,00 %
01.04.2018 08:25 5,7 C 6,1 C 84 % 1002,6 hPa 0,0 l/m 14,7 km/h (3 Bft) W 276 0 min 0,000 mm 0,0 UV-I 67 W/m 3,2 C 0,1 C 17,7 km/h (3 Bft) 96,15 %
01.04.2018 08:26 5,8 C 6,1 C 84 % 1002,6 hPa 0,0 l/m 16,4 km/h (3 Bft) W 261 0 min 0,000 mm 0,0 UV-I 67 W/m 3,3 C -0,6 C 20,9 km/h (4 Bft) 100,00 %
01.04.2018 08:27 5,8 C 6,1 C 84 % 1002,6 hPa 0,0 l/m 20,0 km/h (4 Bft) W-SW 248 0 min 0,000 mm 0,0 UV-I 67 W/m 3,3 C -2,1 C 27,4 km/h (4 Bft) 96,88 %
01.04.2018 08:28 5,8 C 6,1 C 83 % 1002,6 hPa 0,0 l/m 18,1 km/h (3 Bft) W-SW 246 0 min 0,000 mm 0,0 UV-I 67 W/m 3,1 C -1,4 C 22,5 km/h (4 Bft) 96,30 %
01.04.2018 08:29 5,8 C 6,1 C 83 % 1002,7 hPa 0,0 l/m 16,2 km/h (3 Bft) W-SW 254 0 min 0,000 mm 0,0 UV-I 69 W/m 3,1 C -0,5 C 22,5 km/h (4 Bft) 100,00 %
01.04.2018 08:30 5,8 C 6,1 C 83 % 1002,7 hPa 0,0 l/m 13,9 km/h (3 Bft) W-SW 253 0 min 0,000 mm 0,0 UV-I 73 W/m 3,1 C 0,6 C 19,3 km/h (3 Bft) 95,83 %
01.04.2018 08:31 5,8 C 6,1 C 83 % 1002,8 hPa 0,0 l/m 18,1 km/h (3 Bft) W 281 0 min 0,000 mm 0,0 UV-I 82 W/m 3,1 C -1,4 C 25,7 km/h (4 Bft) 100,00 %
01.04.2018 08:32 5,8 C 6,1 C 83 % 1002,8 hPa 0,0 l/m 17,8 km/h (3 Bft) W 268 0 min 0,000 mm 0,0 UV-I 90 W/m 3,1 C -1,2 C 24,1 km/h (4 Bft) 91,67 %
01.04.2018 08:33 5,8 C 6,1 C 83 % 1002,8 hPa 0,0 l/m 22,1 km/h (4 Bft) W 260 0 min 0,000 mm 0,0 UV-I 97 W/m 3,1 C -2,9 C 33,8 km/h (5 Bft) 96,15 %
01.04.2018 08:34 5,8 C 6,1 C 83 % 1002,7 hPa 0,0 l/m 20,5 km/h (4 Bft) W 280 0 min 0,000 mm 0,0 UV-I 103 W/m 3,1 C -2,3 C 25,7 km/h (4 Bft) 100,00 %
01.04.2018 08:35 5,8 C 6,1 C 83 % 1002,8 hPa 0,0 l/m 15,1 km/h (3 Bft) W-SW 250 0 min 0,000 mm 0,0 UV-I 109 W/m 3,1 C -0,0 C 22,5 km/h (4 Bft) 100,00 %
01.04.2018 08:36 5,9 C 6,1 C 83 % 1002,8 hPa 0,0 l/m 17,2 km/h (3 Bft) W 277 0 min 0,000 mm 0,0 UV-I 138 W/m 3,2 C -0,9 C 24,1 km/h (4 Bft) 100,00 %
01.04.2018 08:37 5,9 C 6,1 C 83 % 1002,8 hPa 0,0 l/m 13,7 km/h (3 Bft) W-NW 288 1 min 0,000 mm 0,0 UV-I 179 W/m 3,2 C 0,8 C 19,3 km/h (3 Bft) 96,30 %
01.04.2018 08:38 5,9 C 6,1 C 83 % 1002,8 hPa 0,0 l/m 16,7 km/h (3 Bft) W-SW 252 1 min 0,000 mm 0,0 UV-I 176 W/m 3,2 C -0,6 C 22,5 km/h (4 Bft) 100,00 %
01.04.2018 08:39 6,0 C 6,1 C 83 % 1002,8 hPa 0,0 l/m 16,4 km/h (3 Bft) SW 221 0 min 0,000 mm 0,0 UV-I 173 W/m 3,3 C -0,4 C 25,7 km/h (4 Bft) 100,00 %
01.04.2018 08:40 6,0 C 6,1 C 83 % 1002,8 hPa 0,0 l/m 21,5 km/h (4 Bft) W 269 1 min 0,000 mm 0,0 UV-I 181 W/m 3,3 C -2,4 C 30,6 km/h (5 Bft) 97,92 %
01.04.2018 08:41 6,1 C 6,1 C 83 % 1002,8 hPa 0,0 l/m 17,2 km/h (3 Bft) W-SW 242 1 min 0,000 mm 0,0 UV-I 192 W/m 3,4 C -0,6 C 27,4 km/h (4 Bft) 97,62 %
01.04.2018 08:42 6,1 C 6,1 C 83 % 1002,8 hPa 0,0 l/m 16,4 km/h (3 Bft) W 271 1 min 0,000 mm 0,0 UV-I 196 W/m 3,4 C -0,3 C 27,4 km/h (4 Bft) 100,00 %
01.04.2018 08:43 6,1 C 6,1 C 83 % 1002,9 hPa 0,0 l/m 20,2 km/h (4 Bft) W-NW 286 0 min 0,000 mm 0,0 UV-I 179 W/m 3,4 C -1,8 C 29,0 km/h (5 Bft) 95,83 %
01.04.2018 08:44 6,2 C 6,1 C 83 % 1002,9 hPa 0,0 l/m 14,6 km/h (3 Bft) W 260 0 min 0,000 mm 0,0 UV-I 154 W/m 3,5 C 0,7 C 20,9 km/h (4 Bft) 100,00 %
01.04.2018 08:45 6,2 C 6,1 C 82 % 1002,9 hPa 0,0 l/m 16,3 km/h (3 Bft) W-SW 245 0 min 0,000 mm 0,0 UV-I 153 W/m 3,4 C -0,1 C 19,3 km/h (3 Bft) 100,00 %
01.04.2018 08:46 6,2 C 6,1 C 82 % 1002,9 hPa 0,0 l/m 18,8 km/h (3 Bft) W 265 0 min 0,000 mm 0,0 UV-I 158 W/m 3,4 C -1,2 C 27,4 km/h (4 Bft) 96,55 %
01.04.2018 08:47 6,3 C 6,1 C 82 % 1002,9 hPa 0,0 l/m 18,4 km/h (3 Bft) SW 234 0 min 0,000 mm 0,0 UV-I 167 W/m 3,5 C -0,9 C 24,1 km/h (4 Bft) 100,00 %
01.04.2018 08:48 6,3 C 6,1 C 82 % 1002,9 hPa 0,0 l/m 18,1 km/h (3 Bft) W-SW 240 0 min 0,000 mm 0,0 UV-I 169 W/m 3,5 C -0,7 C 25,7 km/h (4 Bft) 100,00 %
01.04.2018 08:49 6,3 C 6,1 C 82 % 1002,9 hPa 0,0 l/m 17,9 km/h (3 Bft) W-SW 256 0 min 0,000 mm 0,0 UV-I 168 W/m 3,5 C -0,7 C 22,5 km/h (4 Bft) 100,00 %
01.04.2018 08:50 6,4 C 6,1 C 82 % 1003,0 hPa 0,0 l/m 20,0 km/h (4 Bft) W 270 0 min 0,000 mm 0,0 UV-I 169 W/m 3,6 C -1,4 C 37,0 km/h (5 Bft) 96,15 %
01.04.2018 08:51 6,4 C 6,1 C 82 % 1003,0 hPa 0,0 l/m 18,7 km/h (3 Bft) W-SW 254 0 min 0,000 mm 0,0 UV-I 175 W/m 3,6 C -0,9 C 33,8 km/h (5 Bft) 100,00 %
01.04.2018 08:52 6,4 C 6,1 C 82 % 1003,0 hPa 0,0 l/m 20,0 km/h (4 Bft) W 267 0 min 0,000 mm 0,0 UV-I 186 W/m 3,6 C -1,4 C 25,7 km/h (4 Bft) 100,00 %
01.04.2018 08:53 6,5 C 6,1 C 81 % 1003,0 hPa 0,0 l/m 22,2 km/h (4 Bft) W 268 0 min 0,000 mm 0,0 UV-I 137 W/m 3,5 C -2,0 C 30,6 km/h (5 Bft) 96,30 %
01.04.2018 08:54 6,5 C 6,1 C 81 % 1003,1 hPa 0,0 l/m 21,7 km/h (4 Bft) W-SW 254 0 min 0,000 mm 0,0 UV-I 132 W/m 3,5 C -1,8 C 30,6 km/h (5 Bft) 100,00 %
01.04.2018 08:55 6,6 C 6,1 C 81 % 1003,0 hPa 0,0 l/m 21,2 km/h (4 Bft) W 265 0 min 0,000 mm 0,0 UV-I 150 W/m 3,6 C -1,5 C 33,8 km/h (5 Bft) 100,00 %
01.04.2018 08:56 6,6 C 6,1 C 81 % 1003,0 hPa 0,0 l/m 18,5 km/h (3 Bft) W-NW 285 0 min 0,000 mm 0,0 UV-I 178 W/m 3,6 C -0,5 C 25,7 km/h (4 Bft) 100,00 %
01.04.2018 08:57 6,6 C 6,1 C 81 % 1003,1 hPa 0,0 l/m 13,5 km/h (3 Bft) W-NW 290 1 min 0,000 mm 0,1 UV-I 227 W/m 3,6 C 1,8 C 17,7 km/h (3 Bft) 96,15 %
01.04.2018 08:58 6,7 C 6,1 C 81 % 1003,2 hPa 0,0 l/m 16,8 km/h (3 Bft) W 274 1 min 0,000 mm 0,5 UV-I 265 W/m 3,7 C 0,3 C 33,8 km/h (5 Bft) 96,15 %
01.04.2018 08:59 6,7 C 6,1 C 80 % 1003,2 hPa 0,0 l/m 27,4 km/h (4 Bft) W-NW 302 1 min 0,000 mm 0,5 UV-I 216 W/m 3,5 C -3,3 C 40,2 km/h (6 Bft) 95,83 %
01.04.2018 09:00 6,7 C 6,1 C 80 % 1003,2 hPa 0,0 l/m 24,5 km/h (4 Bft) W-NW 285 1 min 0,076 mm 0,5 UV-I 207 W/m 3,5 C -2,5 C 30,6 km/h (5 Bft) 100,00 %
01.04.2018 09:01 6,8 C 6,1 C 80 % 1003,2 hPa 0,0 l/m 15,0 km/h (3 Bft) W 276 0 min 0,000 mm 0,5 UV-I 190 W/m 3,6 C 1,3 C 22,5 km/h (4 Bft) 100,00 %
01.04.2018 09:02 6,8 C 6,1 C 80 % 1003,2 hPa 0,0 l/m 18,4 km/h (3 Bft) W 262 0 min 0,000 mm 0,5 UV-I 202 W/m 3,6 C -0,2 C 29,0 km/h (5 Bft) 100,00 %
01.04.2018 09:03 6,8 C 6,1 C 80 % 1003,2 hPa 0,0 l/m 20,8 km/h (4 Bft) W-SW 257 0 min 0,000 mm 0,5 UV-I 204 W/m 3,6 C -1,1 C 32,2 km/h (5 Bft) 100,00 %
01.04.2018 09:04 6,9 C 6,1 C 79 % 1003,2 hPa 0,0 l/m 18,2 km/h (3 Bft) W-SW 246 0 min 0,000 mm 0,5 UV-I 189 W/m 3,5 C -0,0 C 25,7 km/h (4 Bft) 100,00 %
01.04.2018 09:05 6,9 C 6,1 C 79 % 1003,3 hPa 0,0 l/m 20,3 km/h (4 Bft) W 269 0 min 0,000 mm 0,5 UV-I 175 W/m 3,5 C -0,8 C 27,4 km/h (4 Bft) 100,00 %
01.04.2018 09:06 6,9 C 6,1 C 79 % 1003,3 hPa 0,0 l/m 19,0 km/h (3 Bft) W 275 0 min 0,000 mm 0,5 UV-I 171 W/m 3,5 C -0,3 C 25,7 km/h (4 Bft) 100,00 %
01.04.2018 09:07 6,9 C 6,1 C 79 % 1003,2 hPa 0,0 l/m 18,5 km/h (3 Bft) W 259 0 min 0,000 mm 0,5 UV-I 163 W/m 3,5 C -0,1 C 27,4 km/h (4 Bft) 92,31 %
01.04.2018 09:08 6,9 C 6,1 C 79 % 1003,3 hPa 0,0 l/m 19,2 km/h (3 Bft) NW 305 0 min 0,000 mm 0,5 UV-I 164 W/m 3,5 C -0,4 C 29,0 km/h (5 Bft) 100,00 %
01.04.2018 09:09 6,9 C 6,1 C 79 % 1003,4 hPa 0,0 l/m 34,1 km/h (5 Bft) W-NW 301 0 min 0,000 mm 0,5 UV-I 183 W/m 3,5 C -4,6 C 48,3 km/h (6 Bft) 96,15 %
01.04.2018 09:10 6,9 C 6,1 C 79 % 1003,2 hPa 0,0 l/m 28,7 km/h (4 Bft) W 260 0 min 0,000 mm 0,5 UV-I 197 W/m 3,5 C -3,4 C 41,8 km/h (6 Bft) 100,00 %
01.04.2018 09:11 7,0 C 6,1 C 78 % 1003,2 hPa 0,0 l/m 23,1 km/h (4 Bft) W 265 0 min 0,000 mm 0,5 UV-I 202 W/m 3,4 C -1,7 C 33,8 km/h (5 Bft) 96,15 %
01.04.2018 09:12 7,0 C 6,1 C 79 % 1003,1 hPa 0,0 l/m 20,8 km/h (4 Bft) W-NW 285 0 min 0,000 mm 0,5 UV-I 197 W/m 3,6 C -0,9 C 33,8 km/h (5 Bft) 100,00 %
01.04.2018 09:13 7,1 C 6,1 C 79 % 1003,2 hPa 0,0 l/m 22,0 km/h (4 Bft) W 270 0 min 0,000 mm 0,5 UV-I 168 W/m 3,7 C -1,2 C 29,0 km/h (5 Bft) 96,15 %
01.04.2018 09:14 7,1 C 6,1 C 79 % 1003,2 hPa 0,0 l/m 20,8 km/h (4 Bft) W 279 0 min 0,000 mm 0,5 UV-I 159 W/m 3,7 C -0,7 C 27,4 km/h (4 Bft) 100,00 %
01.04.2018 09:15 7,1 C 6,1 C 78 % 1003,1 hPa 0,0 l/m 24,9 km/h (4 Bft) W-NW 294 0 min 0,000 mm 0,5 UV-I 151 W/m 3,5 C -2,1 C 33,8 km/h (5 Bft) 95,83 %
01.04.2018 09:16 7,1 C 6,1 C 78 % 1003,3 hPa 0,0 l/m 25,6 km/h (4 Bft) W 278 0 min 0,000 mm 0,5 UV-I 149 W/m 3,5 C -2,3 C 37,0 km/h (5 Bft) 95,65 %
01.04.2018 09:17 7,1 C 6,1 C 78 % 1003,2 hPa 0,0 l/m 22,9 km/h (4 Bft) W 265 0 min 0,000 mm 0,5 UV-I 145 W/m 3,5 C -1,5 C 33,8 km/h (5 Bft) 100,00 %
01.04.2018 09:18 7,1 C 6,1 C 78 % 1003,2 hPa 0,0 l/m 21,2 km/h (4 Bft) W-SW 255 0 min 0,000 mm 0,5 UV-I 137 W/m 3,5 C -0,9 C 29,0 km/h (5 Bft) 93,10 %
01.04.2018 09:19 7,1 C 6,1 C 78 % 1003,2 hPa 0,0 l/m 17,1 km/h (3 Bft) W 261 0 min 0,000 mm 0,5 UV-I 133 W/m 3,5 C 0,7 C 22,5 km/h (4 Bft) 100,00 %
01.04.2018 09:20 7,1 C 6,1 C 78 % 1003,3 hPa 0,0 l/m 28,1 km/h (4 Bft) W 275 0 min 0,000 mm 0,5 UV-I 138 W/m 3,5 C -3,0 C 43,5 km/h (6 Bft) 100,00 %
01.04.2018 09:21 7,1 C 6,1 C 78 % 1003,2 hPa 0,0 l/m 25,1 km/h (4 Bft) W-SW 258 0 min 0,000 mm 0,5 UV-I 144 W/m 3,5 C -2,1 C 35,4 km/h (5 Bft) 96,30 %
01.04.2018 09:22 7,1 C 6,1 C 78 % 1003,3 hPa 0,0 l/m 22,1 km/h (4 Bft) W-SW 256 0 min 0,000 mm 0,5 UV-I 137 W/m 3,5 C -1,2 C 32,2 km/h (5 Bft) 96,15 %
01.04.2018 09:23 7,1 C 6,1 C 78 % 1003,3 hPa 0,0 l/m 21,6 km/h (4 Bft) W 262 0 min 0,000 mm 0,6 UV-I 130 W/m 3,5 C -1,0 C 30,6 km/h (5 Bft) 100,00 %
01.04.2018 09:24 7,0 C 6,1 C 78 % 1003,3 hPa 0,0 l/m 16,3 km/h (3 Bft) W-NW 287 0 min 0,000 mm 0,6 UV-I 158 W/m 3,4 C 0,9 C 22,5 km/h (4 Bft) 96,15 %
01.04.2018 09:25 7,0 C 6,1 C 78 % 1003,3 hPa 0,0 l/m 19,1 km/h (3 Bft) W-NW 290 0 min 0,000 mm 0,6 UV-I 176 W/m 3,4 C -0,3 C 25,7 km/h (4 Bft) 100,00 %
01.04.2018 09:26 7,1 C 6,1 C 79 % 1003,3 hPa 0,0 l/m 20,4 km/h (4 Bft) W 276 0 min 0,000 mm 0,6 UV-I 186 W/m 3,7 C -0,6 C 22,5 km/h (4 Bft) 96,55 %
01.04.2018 09:27 7,1 C 6,1 C 78 % 1003,3 hPa 0,0 l/m 28,4 km/h (4 Bft) W 273 0 min 0,000 mm 0,6 UV-I 166 W/m 3,5 C -3,0 C 38,6 km/h (5 Bft) 96,30 %
01.04.2018 09:28 7,1 C 6,1 C 78 % 1003,3 hPa 0,0 l/m 22,8 km/h (4 Bft) W 272 0 min 0,000 mm 0,6 UV-I 138 W/m 3,5 C -1,4 C 46,7 km/h (6 Bft) 100,00 %
01.04.2018 09:29 7,1 C 6,1 C 78 % 1003,3 hPa 0,0 l/m 24,6 km/h (4 Bft) W 259 0 min 0,000 mm 0,6 UV-I 158 W/m 3,5 C -2,0 C 38,6 km/h (5 Bft) 93,33 %
01.04.2018 09:30 7,1 C 6,1 C 78 % 1003,5 hPa 0,0 l/m 19,9 km/h (4 Bft) W-NW 286 0 min 0,000 mm 0,7 UV-I 188 W/m 3,5 C -0,4 C 27,4 km/h (4 Bft) 100,00 %
01.04.2018 09:31 7,1 C 6,1 C 78 % 1003,5 hPa 0,0 l/m 28,0 km/h (4 Bft) W 277 0 min 0,000 mm 0,6 UV-I 169 W/m 3,5 C -2,9 C 41,8 km/h (6 Bft) 95,83 %
01.04.2018 09:32 7,1 C 6,1 C 78 % 1003,5 hPa 0,0 l/m 25,2 km/h (4 Bft) W-SW 254 0 min 0,000 mm 0,6 UV-I 153 W/m 3,5 C -2,2 C 43,5 km/h (6 Bft) 91,67 %
01.04.2018 09:33 7,1 C 6,1 C 78 % 1003,5 hPa 0,0 l/m 24,0 km/h (4 Bft) W-NW 288 0 min 0,000 mm 0,7 UV-I 160 W/m 3,5 C -1,8 C 32,2 km/h (5 Bft) 96,55 %
01.04.2018 09:34 7,1 C 6,1 C 78 % 1003,5 hPa 0,0 l/m 26,8 km/h (4 Bft) W-SW 250 0 min 0,000 mm 0,7 UV-I 197 W/m 3,5 C -2,6 C 41,8 km/h (6 Bft) 100,00 %
01.04.2018 09:35 7,1 C 6,1 C 78 % 1003,4 hPa 0,0 l/m 26,0 km/h (4 Bft) W-SW 244 1 min 0,000 mm 0,8 UV-I 281 W/m 3,5 C -2,4 C 38,6 km/h (5 Bft) 95,65 %
01.04.2018 09:36 7,1 C 6,1 C 78 % 1003,5 hPa 0,0 l/m 29,9 km/h (5 Bft) W-SW 254 1 min 0,000 mm 0,8 UV-I 316 W/m 3,5 C -3,4 C 45,1 km/h (6 Bft) 96,55 %
01.04.2018 09:37 7,2 C 6,1 C 78 % 1003,6 hPa 0,0 l/m 18,5 km/h (3 Bft) W-SW 253 1 min 0,000 mm 0,8 UV-I 410 W/m 3,6 C 0,2 C 25,7 km/h (4 Bft) 100,00 %
01.04.2018 09:38 7,2 C 6,1 C 78 % 1003,5 hPa 0,0 l/m 17,9 km/h (3 Bft) W 263 1 min 0,000 mm 0,8 UV-I 378 W/m 3,6 C 0,5 C 25,7 km/h (4 Bft) 96,30 %
01.04.2018 09:39 7,3 C 6,1 C 78 % 1003,6 hPa 0,0 l/m 19,0 km/h (3 Bft) W 273 1 min 0,000 mm 0,8 UV-I 352 W/m 3,7 C 0,2 C 29,0 km/h (5 Bft) 100,00 %
01.04.2018 09:40 7,4 C 6,1 C 78 % 1003,6 hPa 0,0 l/m 20,4 km/h (4 Bft) W-SW 258 1 min 0,000 mm 0,8 UV-I 321 W/m 3,8 C -0,2 C 27,4 km/h (4 Bft) 96,30 %
01.04.2018 09:41 7,5 C 6,1 C 78 % 1003,6 hPa 0,0 l/m 21,8 km/h (4 Bft) W 271 1 min 0,000 mm 0,7 UV-I 272 W/m 3,9 C -0,6 C 38,6 km/h (5 Bft) 100,00 %
01.04.2018 09:42 7,5 C 6,1 C 78 % 1003,6 hPa 0,0 l/m 28,8 km/h (4 Bft) W 269 0 min 0,000 mm 0,7 UV-I 228 W/m 3,9 C -2,6 C 45,1 km/h (6 Bft) 96,97 %
01.04.2018 09:43 7,5 C 6,1 C 78 % 1003,6 hPa 0,0 l/m 25,9 km/h (4 Bft) NW 313 0 min 0,000 mm 0,7 UV-I 223 W/m 3,9 C -1,8 C 33,8 km/h (5 Bft) 100,00 %
01.04.2018 09:44 7,5 C 6,1 C 78 % 1003,6 hPa 0,0 l/m 19,6 km/h (3 Bft) W-SW 252 0 min 0,000 mm 0,8 UV-I 251 W/m 3,9 C 0,2 C 33,8 km/h (5 Bft) 100,00 %
01.04.2018 09:45 7,5 C 6,1 C 77 % 1003,5 hPa 0,0 l/m 24,1 km/h (4 Bft) W-NW 284 0 min 0,000 mm 0,8 UV-I 261 W/m 3,7 C -1,3 C 33,8 km/h (5 Bft) 100,00 %
01.04.2018 09:46 7,5 C 6,1 C 77 % 1003,6 hPa 0,0 l/m 25,5 km/h (4 Bft) W 264 0 min 0,000 mm 0,8 UV-I 255 W/m 3,7 C -1,7 C 43,5 km/h (6 Bft) 96,30 %
01.04.2018 09:47 7,6 C 6,1 C 77 % 1003,6 hPa 0,0 l/m 23,0 km/h (4 Bft) W-NW 298 0 min 0,000 mm 0,8 UV-I 247 W/m 3,8 C -0,8 C 37,0 km/h (5 Bft) 100,00 %
01.04.2018 09:48 7,6 C 6,1 C 78 % 1003,6 hPa 0,0 l/m 22,8 km/h (4 Bft) W-NW 286 1 min 0,000 mm 0,8 UV-I 275 W/m 4,0 C -0,8 C 30,6 km/h (5 Bft) 100,00 %
01.04.2018 09:49 7,6 C 6,1 C 78 % 1003,5 hPa 0,0 l/m 20,6 km/h (4 Bft) W-SW 240 1 min 0,000 mm 0,8 UV-I 285 W/m 4,0 C -0,0 C 27,4 km/h (4 Bft) 96,15 %
01.04.2018 09:50 7,6 C 6,1 C 78 % 1003,6 hPa 0,0 l/m 23,9 km/h (4 Bft) W 261 0 min 0,000 mm 0,8 UV-I 271 W/m 4,0 C -1,1 C 40,2 km/h (6 Bft) 96,67 %
01.04.2018 09:51 7,6 C 6,1 C 77 % 1003,6 hPa 0,0 l/m 29,7 km/h (5 Bft) W-NW 294 0 min 0,000 mm 0,9 UV-I 257 W/m 3,8 C -2,6 C 37,0 km/h (5 Bft) 100,00 %
01.04.2018 09:52 7,6 C 6,1 C 77 % 1003,7 hPa 0,0 l/m 24,6 km/h (4 Bft) W 261 1 min 0,000 mm 0,9 UV-I 277 W/m 3,8 C -1,3 C 32,2 km/h (5 Bft) 100,00 %
01.04.2018 09:53 7,7 C 6,1 C 77 % 1003,6 hPa 0,0 l/m 20,2 km/h (4 Bft) W 266 1 min 0,000 mm 0,9 UV-I 338 W/m 3,9 C 0,2 C 29,0 km/h (5 Bft) 92,31 %
01.04.2018 09:54 7,7 C 6,1 C 78 % 1003,6 hPa 0,0 l/m 29,2 km/h (5 Bft) W 265 1 min 0,000 mm 0,8 UV-I 314 W/m 4,1 C -2,4 C 40,2 km/h (6 Bft) 100,00 %
01.04.2018 09:55 7,7 C 6,1 C 77 % 1003,6 hPa 0,0 l/m 25,5 km/h (4 Bft) W 263 1 min 0,000 mm 0,9 UV-I 293 W/m 3,9 C -1,4 C 33,8 km/h (5 Bft) 100,00 %
01.04.2018 09:56 7,7 C 6,1 C 77 % 1003,6 hPa 0,0 l/m 24,1 km/h (4 Bft) W 279 1 min 0,000 mm 0,9 UV-I 307 W/m 3,9 C -1,0 C 32,2 km/h (5 Bft) 100,00 %
01.04.2018 09:58 7,8 C 6,1 C 77 % 1003,6 hPa 0,0 l/m 22,2 km/h (4 Bft) W 268 2 min 0,000 mm 0,9 UV-I 314 W/m 4,0 C -0,3 C 38,6 km/h (5 Bft) 100,00 %
01.04.2018 09:59 7,8 C 6,1 C 77 % 1003,6 hPa 0,0 l/m 24,6 km/h (4 Bft) W 277 1 min 0,000 mm 1,1 UV-I 318 W/m 4,0 C -1,0 C 35,4 km/h (5 Bft) 100,00 %
01.04.2018 10:00 7,8 C 6,1 C 77 % 1003,7 hPa 0,0 l/m 22,7 km/h (4 Bft) W-NW 286 1 min 0,000 mm 1,1 UV-I 318 W/m 4,0 C -0,5 C 35,4 km/h (5 Bft) 100,00 %
01.04.2018 10:01 7,8 C 6,1 C 77 % 1003,6 hPa 0,0 l/m 28,4 km/h (4 Bft) W 260 1 min 0,153 mm 1,0 UV-I 342 W/m 4,0 C -2,1 C 40,2 km/h (6 Bft) 96,30 %
01.04.2018 10:02 7,9 C 6,1 C 76 % 1003,7 hPa 0,0 l/m 34,8 km/h (5 Bft) W 267 1 min 0,000 mm 1,1 UV-I 356 W/m 3,9 C -3,3 C 45,1 km/h (6 Bft) 100,00 %
01.04.2018 10:03 7,9 C 6,1 C 76 % 1003,7 hPa 0,0 l/m 23,5 km/h (4 Bft) W 271 1 min 0,000 mm 1,1 UV-I 419 W/m 3,9 C -0,6 C 30,6 km/h (5 Bft) 100,00 %
01.04.2018 10:04 7,9 C 6,1 C 77 % 1003,8 hPa 0,0 l/m 19,3 km/h (3 Bft) NW 319 1 min 0,000 mm 1,1 UV-I 435 W/m 4,1 C 0,8 C 27,4 km/h (4 Bft) 100,00 %
01.04.2018 10:05 7,9 C 6,1 C 77 % 1003,8 hPa 0,0 l/m 14,9 km/h (3 Bft) W 265 1 min 0,000 mm 1,1 UV-I 318 W/m 4,1 C 2,6 C 22,5 km/h (4 Bft) 100,00 %
01.04.2018 10:06 8,0 C 6,1 C 77 % 1003,8 hPa 0,0 l/m 17,5 km/h (3 Bft) W 265 1 min 0,000 mm 1,3 UV-I 377 W/m 4,2 C 1,6 C 27,4 km/h (4 Bft) 100,00 %
01.04.2018 10:07 8,1 C 6,1 C 77 % 1003,8 hPa 0,0 l/m 17,3 km/h (3 Bft) W 277 1 min 0,000 mm 1,3 UV-I 661 W/m 4,3 C 1,8 C 24,1 km/h (4 Bft) 100,00 %
01.04.2018 10:08 8,2 C 6,1 C 78 % 1003,8 hPa 0,0 l/m 17,5 km/h (3 Bft) W 265 1 min 0,000 mm 1,1 UV-I 608 W/m 4,6 C 1,9 C 20,9 km/h (4 Bft) 100,00 %
01.04.2018 10:09 8,3 C 6,1 C 77 % 1003,9 hPa 0,0 l/m 20,4 km/h (4 Bft) W-NW 291 1 min 0,000 mm 0,9 UV-I 608 W/m 4,5 C 1,0 C 30,6 km/h (5 Bft) 100,00 %
01.04.2018 10:10 8,3 C 6,1 C 77 % 1003,8 hPa 0,0 l/m 23,3 km/h (4 Bft) W-SW 250 1 min 0,000 mm 0,8 UV-I 370 W/m 4,5 C 0,0 C 43,5 km/h (6 Bft) 100,00 %
01.04.2018 10:11 8,3 C 6,1 C 76 % 1003,8 hPa 0,0 l/m 29,2 km/h (5 Bft) W-SW 250 0 min 0,000 mm 0,8 UV-I 275 W/m 4,3 C -1,5 C 38,6 km/h (5 Bft) 100,00 %
01.04.2018 10:12 8,2 C 6,1 C 75 % 1003,9 hPa 0,0 l/m 25,8 km/h (4 Bft) W-SW 247 0 min 0,000 mm 0,8 UV-I 271 W/m 4,0 C -0,8 C 35,4 km/h (5 Bft) 100,00 %
01.04.2018 10:13 8,2 C 6,1 C 75 % 1003,9 hPa 0,0 l/m 28,7 km/h (4 Bft) W-NW 292 0 min 0,000 mm 0,8 UV-I 265 W/m 4,0 C -1,6 C 37,0 km/h (5 Bft) 100,00 %
01.04.2018 10:14 8,1 C 6,1 C 75 % 1004,0 hPa 0,0 l/m 26,5 km/h (4 Bft) W 259 0 min 0,000 mm 0,7 UV-I 247 W/m 3,9 C -1,2 C 40,2 km/h (6 Bft) 100,00 %
01.04.2018 10:15 8,1 C 6,1 C 75 % 1004,0 hPa 0,0 l/m 36,6 km/h (5 Bft) W 277 0 min 0,000 mm 0,7 UV-I 237 W/m 3,9 C -3,4 C 48,3 km/h (6 Bft) 100,00 %
01.04.2018 10:16 8,0 C 6,1 C 75 % 1004,0 hPa 0,0 l/m 32,7 km/h (5 Bft) W 267 0 min 0,000 mm 0,7 UV-I 239 W/m 3,8 C -2,7 C 46,7 km/h (6 Bft) 100,00 %
01.04.2018 10:17 7,9 C 6,1 C 76 % 1004,0 hPa 0,0 l/m 29,5 km/h (5 Bft) W-SW 256 0 min 0,000 mm 0,7 UV-I 250 W/m 3,9 C -2,2 C 38,6 km/h (5 Bft) 100,00 %
01.04.2018 10:18 7,8 C 6,1 C 76 % 1004,2 hPa 0,0 l/m 19,7 km/h (3 Bft) W-SW 257 0 min 0,000 mm 0,8 UV-I 279 W/m 3,8 C 0,6 C 29,0 km/h (5 Bft) 100,00 %
01.04.2018 10:19 7,8 C 6,1 C 76 % 1003,9 hPa 0,0 l/m 20,7 km/h (4 Bft) W 281 0 min 0,000 mm 0,9 UV-I 279 W/m 3,8 C 0,2 C 27,4 km/h (4 Bft) 100,00 %
01.04.2018 10:20 7,8 C 6,1 C 77 % 1004,0 hPa 0,0 l/m 25,4 km/h (4 Bft) W 262 0 min 0,000 mm 0,8 UV-I 279 W/m 4,0 C -1,3 C 41,8 km/h (6 Bft) 100,00 %
01.04.2018 10:21 7,8 C 6,1 C 76 % 1004,0 hPa 0,0 l/m 31,2 km/h (5 Bft) W-SW 254 0 min 0,000 mm 0,7 UV-I 254 W/m 3,8 C -2,7 C 40,2 km/h (6 Bft) 100,00 %
01.04.2018 10:22 7,8 C 6,1 C 77 % 1004,1 hPa 0,0 l/m 25,2 km/h (4 Bft) W 263 0 min 0,000 mm 0,7 UV-I 256 W/m 4,0 C -1,2 C 30,6 km/h (5 Bft) 100,00 %
01.04.2018 10:23 7,8 C 6,1 C 77 % 1004,2 hPa 0,0 l/m 32,5 km/h (5 Bft) W 265 0 min 0,000 mm 0,6 UV-I 221 W/m 4,0 C -3,0 C 43,5 km/h (6 Bft) 100,00 %
01.04.2018 10:24 7,8 C 6,1 C 76 % 1004,1 hPa 0,0 l/m 24,4 km/h (4 Bft) W-NW 282 0 min 0,000 mm 0,4 UV-I 148 W/m 3,8 C -1,0 C 29,0 km/h (5 Bft) 96,30 %
01.04.2018 10:25 7,8 C 6,1 C 77 % 1004,1 hPa 0,0 l/m 22,0 km/h (4 Bft) W 272 0 min 0,000 mm 0,0 UV-I 111 W/m 4,0 C -0,2 C 29,0 km/h (5 Bft) 100,00 %
01.04.2018 10:26 7,7 C 6,1 C 77 % 1004,2 hPa 0,0 l/m 18,1 km/h (3 Bft) W 270 0 min 0,000 mm 0,3 UV-I 105 W/m 3,9 C 1,0 C 25,7 km/h (4 Bft) 100,00 %
01.04.2018 10:27 7,7 C 6,1 C 77 % 1004,2 hPa 0,0 l/m 24,5 km/h (4 Bft) W-SW 257 0 min 0,000 mm 0,6 UV-I 121 W/m 3,9 C -1,1 C 43,5 km/h (6 Bft) 100,00 %
01.04.2018 10:28 7,7 C 6,1 C 77 % 1004,2 hPa 0,0 l/m 24,9 km/h (4 Bft) W 267 0 min 0,000 mm 0,7 UV-I 176 W/m 3,9 C -1,3 C 32,2 km/h (5 Bft) 100,00 %
01.04.2018 10:29 7,7 C 6,1 C 77 % 1004,1 hPa 0,0 l/m 20,9 km/h (4 Bft) W 271 0 min 0,000 mm 0,9 UV-I 214 W/m 3,9 C 0,0 C 29,0 km/h (5 Bft) 100,00 %
01.04.2018 10:30 7,7 C 6,1 C 77 % 1004,2 hPa 0,0 l/m 24,6 km/h (4 Bft) W 271 0 min 0,000 mm 0,8 UV-I 263 W/m 3,9 C -1,2 C 35,4 km/h (5 Bft) 100,00 %
01.04.2018 10:31 7,7 C 6,1 C 77 % 1004,1 hPa 0,0 l/m 29,5 km/h (5 Bft) W 263 0 min 0,000 mm 0,6 UV-I 172 W/m 3,9 C -2,5 C 41,8 km/h (6 Bft) 100,00 %
01.04.2018 10:32 7,6 C 6,1 C 77 % 1004,2 hPa 0,0 l/m 28,4 km/h (4 Bft) W 279 0 min 0,000 mm 0,5 UV-I 158 W/m 3,8 C -2,3 C 38,6 km/h (5 Bft) 100,00 %
01.04.2018 10:33 7,6 C 6,1 C 77 % 1004,2 hPa 0,0 l/m 27,4 km/h (4 Bft) W 271 0 min 0,000 mm 0,5 UV-I 158 W/m 3,8 C -2,1 C 35,4 km/h (5 Bft) 100,00 %
01.04.2018 10:34 7,6 C 6,1 C 77 % 1004,2 hPa 0,0 l/m 20,3 km/h (4 Bft) W 266 0 min 0,000 mm 0,5 UV-I 135 W/m 3,8 C 0,1 C 30,6 km/h (5 Bft) 100,00 %
01.04.2018 10:35 7,6 C 6,1 C 77 % 1004,2 hPa 0,0 l/m 30,1 km/h (5 Bft) W 277 0 min 0,000 mm 0,5 UV-I 144 W/m 3,8 C -2,7 C 40,2 km/h (6 Bft) 100,00 %
01.04.2018 10:36 7,6 C 6,1 C 77 % 1004,1 hPa 0,0 l/m 22,8 km/h (4 Bft) W-SW 254 0 min 0,000 mm 0,6 UV-I 144 W/m 3,8 C -0,8 C 29,0 km/h (5 Bft) 100,00 %
01.04.2018 10:37 7,6 C 6,1 C 77 % 1004,2 hPa 0,0 l/m 27,0 km/h (4 Bft) W 273 0 min 0,000 mm 0,5 UV-I 144 W/m 3,8 C -2,0 C 38,6 km/h (5 Bft) 100,00 %
01.04.2018 10:38 7,6 C 6,1 C 77 % 1004,2 hPa 0,0 l/m 22,9 km/h (4 Bft) W 267 0 min 0,000 mm 0,6 UV-I 169 W/m 3,8 C -0,8 C 32,2 km/h (5 Bft) 100,00 %
01.04.2018 10:39 7,6 C 6,1 C 78 % 1004,3 hPa 0,0 l/m 19,8 km/h (3 Bft) W 279 0 min 0,000 mm 0,2 UV-I 151 W/m 4,0 C 0,3 C 22,5 km/h (4 Bft) 100,00 %
01.04.2018 10:40 7,6 C 6,1 C 78 % 1004,3 hPa 0,0 l/m 19,7 km/h (3 Bft) W 263 0 min 0,000 mm 0,0 UV-I 114 W/m 4,0 C 0,3 C 29,0 km/h (5 Bft) 100,00 %
01.04.2018 10:41 7,6 C 6,1 C 78 % 1004,2 hPa 0,0 l/m 28,6 km/h (4 Bft) W-NW 296 0 min 0,000 mm 0,0 UV-I 101 W/m 4,0 C -2,4 C 40,2 km/h (6 Bft) 100,00 %
01.04.2018 10:42 7,5 C 6,1 C 78 % 1004,3 hPa 0,0 l/m 22,5 km/h (4 Bft) W 266 0 min 0,000 mm 0,0 UV-I 80 W/m 3,9 C -0,8 C 38,6 km/h (5 Bft) 100,00 %
01.04.2018 10:43 7,5 C 6,1 C 78 % 1004,3 hPa 0,0 l/m 23,1 km/h (4 Bft) W-NW 296 0 min 0,000 mm 0,0 UV-I 76 W/m 3,9 C -1,0 C 33,8 km/h (5 Bft) 100,00 %
01.04.2018 10:44 7,4 C 6,1 C 78 % 1004,3 hPa 0,0 l/m 21,6 km/h (4 Bft) W-NW 284 0 min 0,000 mm 0,0 UV-I 67 W/m 3,8 C -0,6 C 32,2 km/h (5 Bft) 100,00 %
01.04.2018 10:45 7,4 C 6,1 C 78 % 1004,3 hPa 0,0 l/m 24,0 km/h (4 Bft) W 265 0 min 0,000 mm 0,0 UV-I 62 W/m 3,8 C -1,4 C 33,8 km/h (5 Bft) 100,00 %
01.04.2018 10:46 7,3 C 6,1 C 78 % 1004,4 hPa 0,0 l/m 21,2 km/h (4 Bft) W 275 0 min 0,000 mm 0,0 UV-I 62 W/m 3,7 C -0,6 C 29,0 km/h (5 Bft) 100,00 %
01.04.2018 10:47 7,3 C 6,1 C 78 % 1004,3 hPa 0,0 l/m 18,4 km/h (3 Bft) W-SW 255 0 min 0,000 mm 0,0 UV-I 87 W/m 3,7 C 0,4 C 37,0 km/h (5 Bft) 100,00 %
01.04.2018 10:48 7,3 C 6,1 C 79 % 1004,3 hPa 0,0 l/m 15,5 km/h (3 Bft) W-SW 254 0 min 0,000 mm 0,0 UV-I 90 W/m 3,9 C 1,6 C 22,5 km/h (4 Bft) 100,00 %
01.04.2018 10:49 7,3 C 6,1 C 79 % 1004,4 hPa 0,0 l/m 13,3 km/h (3 Bft) W 269 0 min 0,000 mm 0,0 UV-I 77 W/m 3,9 C 2,7 C 16,1 km/h (3 Bft) 100,00 %
01.04.2018 10:50 7,3 C 6,1 C 79 % 1004,3 hPa 0,0 l/m 13,2 km/h (3 Bft) W-NW 284 0 min 0,000 mm 0,0 UV-I 90 W/m 3,9 C 2,8 C 19,3 km/h (3 Bft) 96,55 %
01.04.2018 10:51 7,3 C 6,1 C 79 % 1004,3 hPa 0,0 l/m 17,7 km/h (3 Bft) W 264 0 min 0,000 mm 0,3 UV-I 129 W/m 3,9 C 0,7 C 27,4 km/h (4 Bft) 100,00 %
01.04.2018 10:52 7,3 C 6,1 C 79 % 1004,3 hPa 0,0 l/m 15,4 km/h (3 Bft) W-NW 284 0 min 0,000 mm 0,5 UV-I 143 W/m 3,9 C 1,7 C 20,9 km/h (4 Bft) 100,00 %
01.04.2018 10:53 7,3 C 6,1 C 80 % 1004,4 hPa 0,0 l/m 15,8 km/h (3 Bft) W-SW 258 0 min 0,000 mm 0,0 UV-I 102 W/m 4,1 C 1,5 C 22,5 km/h (4 Bft) 100,00 %
01.04.2018 10:54 7,3 C 6,1 C 80 % 1004,4 hPa 0,0 l/m 28,1 km/h (4 Bft) W 279 0 min 0,000 mm 0,0 UV-I 65 W/m 4,1 C -2,7 C 40,2 km/h (6 Bft) 100,00 %
01.04.2018 10:55 7,3 C 6,1 C 79 % 1004,4 hPa 0,0 l/m 24,3 km/h (4 Bft) W-NW 284 0 min 0,000 mm 0,0 UV-I 66 W/m 3,9 C -1,6 C 32,2 km/h (5 Bft) 100,00 %
01.04.2018 10:56 7,3 C 6,1 C 80 % 1004,4 hPa 0,0 l/m 17,2 km/h (3 Bft) W-NW 292 0 min 0,000 mm 0,0 UV-I 90 W/m 4,1 C 0,9 C 20,9 km/h (4 Bft) 96,30 %
01.04.2018 10:57 7,2 C 6,1 C 81 % 1004,4 hPa 0,0 l/m 22,3 km/h (4 Bft) W-NW 286 0 min 0,000 mm 0,4 UV-I 100 W/m 4,2 C -1,1 C 32,2 km/h (5 Bft) 96,15 %
01.04.2018 10:58 7,2 C 6,1 C 80 % 1004,4 hPa 0,0 l/m 24,7 km/h (4 Bft) W-SW 257 0 min 0,000 mm 0,5 UV-I 127 W/m 4,0 C -1,9 C 32,2 km/h (5 Bft) 100,00 %
01.04.2018 10:59 7,2 C 6,1 C 80 % 1004,4 hPa 0,0 l/m 20,7 km/h (4 Bft) W 265 0 min 0,000 mm 0,5 UV-I 121 W/m 4,0 C -0,6 C 27,4 km/h (4 Bft) 100,00 %
01.04.2018 11:00 7,2 C 6,1 C 81 % 1004,5 hPa 0,0 l/m 24,7 km/h (4 Bft) W-SW 239 0 min 0,000 mm 0,3 UV-I 124 W/m 4,2 C -1,9 C 32,2 km/h (5 Bft) 100,00 %
01.04.2018 11:01 7,1 C 6,1 C 81 % 1004,5 hPa 0,0 l/m 17,6 km/h (3 Bft) W 281 0 min 0,152 mm 0,0 UV-I 86 W/m 4,1 C 0,5 C 27,4 km/h (4 Bft) 94,12 %
01.04.2018 11:03 7,1 C 6,1 C 81 % 1004,5 hPa 0,0 l/m 21,1 km/h (4 Bft) W-NW 286 0 min 0,000 mm 0,0 UV-I 58 W/m 4,1 C -0,9 C 29,0 km/h (5 Bft) 100,00 %
01.04.2018 11:04 7,1 C 6,1 C 81 % 1004,5 hPa 0,0 l/m 18,5 km/h (3 Bft) W 276 0 min 0,000 mm 0,0 UV-I 76 W/m 4,1 C 0,1 C 25,7 km/h (4 Bft) 100,00 %
01.04.2018 11:05 7,0 C 6,1 C 82 % 1004,6 hPa 0,0 l/m 22,1 km/h (4 Bft) W-SW 251 0 min 0,000 mm 0,1 UV-I 103 W/m 4,1 C -1,3 C 27,4 km/h (4 Bft) 96,15 %
01.04.2018 11:06 7,0 C 6,1 C 83 % 1004,6 hPa 0,0 l/m 20,6 km/h (4 Bft) W 278 0 min 0,000 mm 0,6 UV-I 139 W/m 4,3 C -0,8 C 27,4 km/h (4 Bft) 93,33 %
01.04.2018 11:07 6,9 C 6,1 C 82 % 1004,6 hPa 0,0 l/m 21,5 km/h (4 Bft) W-SW 252 0 min 0,000 mm 0,6 UV-I 157 W/m 4,0 C -1,3 C 29,0 km/h (5 Bft) 100,00 %
01.04.2018 11:08 6,9 C 6,1 C 83 % 1004,6 hPa 0,0 l/m 17,0 km/h (3 Bft) W 277 0 min 0,000 mm 0,7 UV-I 183 W/m 4,2 C 0,5 C 22,5 km/h (4 Bft) 96,30 %
01.04.2018 11:09 6,9 C 6,1 C 83 % 1004,6 hPa 0,0 l/m 20,3 km/h (4 Bft) W 269 0 min 0,000 mm 0,8 UV-I 202 W/m 4,2 C -0,8 C 27,4 km/h (4 Bft) 92,31 %
01.04.2018 11:10 7,0 C 6,1 C 83 % 1004,6 hPa 0,0 l/m 20,2 km/h (4 Bft) W 281 0 min 0,000 mm 1,0 UV-I 207 W/m 4,3 C -0,7 C 27,4 km/h (4 Bft) 100,00 %
01.04.2018 11:11 7,0 C 6,1 C 84 % 1004,6 hPa 0,0 l/m 18,3 km/h (3 Bft) W 274 0 min 0,000 mm 0,9 UV-I 232 W/m 4,5 C 0,1 C 25,7 km/h (4 Bft) 96,67 %
01.04.2018 11:12 7,1 C 6,1 C 84 % 1004,6 hPa 0,0 l/m 15,6 km/h (3 Bft) W-NW 301 0 min 0,000 mm 0,7 UV-I 178 W/m 4,6 C 1,3 C 22,5 km/h (4 Bft) 100,00 %
01.04.2018 11:13 7,1 C 6,1 C 84 % 1004,6 hPa 0,0 l/m 18,2 km/h (3 Bft) W-SW 254 0 min 0,000 mm 0,6 UV-I 190 W/m 4,6 C 0,2 C 25,7 km/h (4 Bft) 95,83 %
01.04.2018 11:14 7,2 C 6,1 C 83 % 1004,6 hPa 0,0 l/m 25,5 km/h (4 Bft) W-NW 290 0 min 0,000 mm 0,7 UV-I 205 W/m 4,5 C -2,1 C 38,6 km/h (5 Bft) 98,18 %
01.04.2018 11:15 7,2 C 6,1 C 82 % 1004,6 hPa 0,0 l/m 20,7 km/h (4 Bft) W 278 0 min 0,000 mm 0,7 UV-I 188 W/m 4,3 C -0,6 C 30,6 km/h (5 Bft) 97,56 %
01.04.2018 11:16 7,2 C 6,1 C 82 % 1004,6 hPa 0,0 l/m 20,8 km/h (4 Bft) W 259 0 min 0,000 mm 0,7 UV-I 180 W/m 4,3 C -0,6 C 29,0 km/h (5 Bft) 100,00 %
01.04.2018 11:17 7,3 C 6,1 C 82 % 1004,6 hPa 0,0 l/m 18,3 km/h (3 Bft) W 277 0 min 0,000 mm 0,6 UV-I 156 W/m 4,4 C 0,4 C 27,4 km/h (4 Bft) 95,83 %
01.04.2018 11:18 7,3 C 6,1 C 82 % 1004,6 hPa 0,0 l/m 21,5 km/h (4 Bft) W 267 0 min 0,000 mm 0,6 UV-I 144 W/m 4,4 C -0,7 C 29,0 km/h (5 Bft) 100,00 %
01.04.2018 11:19 7,3 C 6,1 C 82 % 1004,6 hPa 0,0 l/m 22,4 km/h (4 Bft) W 259 0 min 0,000 mm 0,6 UV-I 154 W/m 4,4 C -1,0 C 29,0 km/h (5 Bft) 96,97 %
01.04.2018 11:20 7,3 C 6,1 C 81 % 1004,6 hPa 0,0 l/m 21,2 km/h (4 Bft) W-NW 283 0 min 0,000 mm 0,8 UV-I 176 W/m 4,3 C -0,6 C 32,2 km/h (5 Bft) 92,31 %
01.04.2018 11:21 7,3 C 6,1 C 81 % 1004,6 hPa 0,0 l/m 19,0 km/h (3 Bft) W 261 0 min 0,000 mm 0,7 UV-I 167 W/m 4,3 C 0,2 C 25,7 km/h (4 Bft) 95,83 %
01.04.2018 11:22 7,3 C 6,1 C 81 % 1004,6 hPa 0,0 l/m 17,1 km/h (3 Bft) W-SW 252 0 min 0,000 mm 0,6 UV-I 161 W/m 4,3 C 0,9 C 22,5 km/h (4 Bft) 95,65 %
01.04.2018 11:23 7,3 C 6,1 C 81 % 1004,6 hPa 0,0 l/m 19,8 km/h (3 Bft) W-SW 258 0 min 0,000 mm 0,6 UV-I 139 W/m 4,3 C -0,1 C 24,1 km/h (4 Bft) 93,33 %
01.04.2018 11:24 7,3 C 6,1 C 81 % 1004,6 hPa 0,0 l/m 20,2 km/h (4 Bft) W 275 0 min 0,000 mm 0,5 UV-I 126 W/m 4,3 C -0,3 C 24,1 km/h (4 Bft) 96,88 %
01.04.2018 11:25 7,3 C 6,1 C 81 % 1004,7 hPa 0,0 l/m 23,5 km/h (4 Bft) W 279 0 min 0,000 mm 0,6 UV-I 131 W/m 4,3 C -1,4 C 35,4 km/h (5 Bft) 100,00 %
01.04.2018 11:26 7,3 C 6,1 C 81 % 1004,6 hPa 0,0 l/m 22,1 km/h (4 Bft) W-SW 254 0 min 0,000 mm 0,5 UV-I 116 W/m 4,3 C -0,9 C 32,2 km/h (5 Bft) 96,15 %
01.04.2018 11:27 7,3 C 6,1 C 81 % 1004,7 hPa 0,0 l/m 21,2 km/h (4 Bft) W-NW 284 0 min 0,000 mm 0,5 UV-I 102 W/m 4,3 C -0,6 C 27,4 km/h (4 Bft) 100,00 %
01.04.2018 11:28 7,2 C 6,1 C 81 % 1004,7 hPa 0,0 l/m 24,2 km/h (4 Bft) W 261 0 min 0,000 mm 0,6 UV-I 124 W/m 4,2 C -1,7 C 32,2 km/h (5 Bft) 96,67 %
01.04.2018 11:29 7,3 C 6,1 C 81 % 1004,7 hPa 0,0 l/m 30,2 km/h (5 Bft) W-SW 250 0 min 0,000 mm 0,8 UV-I 178 W/m 4,3 C -3,2 C 43,5 km/h (6 Bft) 96,55 %
01.04.2018 11:30 7,3 C 6,1 C 81 % 1004,7 hPa 0,0 l/m 25,4 km/h (4 Bft) W 264 0 min 0,000 mm 0,6 UV-I 152 W/m 4,3 C -1,9 C 35,4 km/h (5 Bft) 100,00 %
01.04.2018 11:31 7,3 C 6,1 C 81 % 1004,7 hPa 0,0 l/m 22,7 km/h (4 Bft) W-SW 248 0 min 0,000 mm 0,5 UV-I 103 W/m 4,3 C -1,1 C 32,2 km/h (5 Bft) 96,55 %
01.04.2018 11:32 7,3 C 6,1 C 81 % 1004,7 hPa 0,0 l/m 23,0 km/h (4 Bft) W-SW 257 0 min 0,000 mm 0,5 UV-I 112 W/m 4,3 C -1,2 C 40,2 km/h (6 Bft) 100,00 %
01.04.2018 11:33 7,3 C 6,1 C 81 % 1004,7 hPa 0,0 l/m 25,7 km/h (4 Bft) W 261 0 min 0,000 mm 0,0 UV-I 102 W/m 4,3 C -2,0 C 35,4 km/h (5 Bft) 96,55 %
01.04.2018 11:34 7,3 C 6,1 C 81 % 1004,7 hPa 0,0 l/m 17,9 km/h (3 Bft) W 273 0 min 0,000 mm 0,5 UV-I 110 W/m 4,3 C 0,6 C 22,5 km/h (4 Bft) 100,00 %
01.04.2018 11:35 7,3 C 6,1 C 81 % 1004,7 hPa 0,0 l/m 18,8 km/h (3 Bft) W 273 0 min 0,000 mm 0,7 UV-I 144 W/m 4,3 C 0,2 C 22,5 km/h (4 Bft) 95,65 %
01.04.2018 11:36 7,3 C 6,1 C 81 % 1004,7 hPa 0,0 l/m 23,4 km/h (4 Bft) W-SW 247 0 min 0,000 mm 0,8 UV-I 174 W/m 4,3 C -1,3 C 32,2 km/h (5 Bft) 95,83 %
01.04.2018 11:37 7,3 C 6,1 C 81 % 1004,7 hPa 0,0 l/m 24,4 km/h (4 Bft) W 261 0 min 0,000 mm 0,9 UV-I 194 W/m 4,3 C -1,6 C 32,2 km/h (5 Bft) 100,00 %
01.04.2018 11:38 7,4 C 6,1 C 81 % 1004,7 hPa 0,0 l/m 24,5 km/h (4 Bft) W 277 0 min 0,000 mm 1,0 UV-I 208 W/m 4,4 C -1,5 C 35,4 km/h (5 Bft) 100,00 %
01.04.2018 11:39 7,4 C 6,1 C 81 % 1004,7 hPa 0,0 l/m 22,8 km/h (4 Bft) W-NW 295 0 min 0,000 mm 1,1 UV-I 241 W/m 4,4 C -1,0 C 30,6 km/h (5 Bft) 92,31 %
01.04.2018 11:40 7,4 C 6,1 C 81 % 1004,7 hPa 0,0 l/m 29,5 km/h (5 Bft) W 262 0 min 0,000 mm 1,4 UV-I 299 W/m 4,4 C -2,9 C 38,6 km/h (5 Bft) 96,30 %
01.04.2018 11:41 7,5 C 6,1 C 80 % 1004,7 hPa 0,0 l/m 27,0 km/h (4 Bft) W 275 0 min 0,000 mm 1,5 UV-I 299 W/m 4,3 C -2,1 C 35,4 km/h (5 Bft) 100,00 %
01.04.2018 11:42 7,6 C 6,1 C 79 % 1004,6 hPa 0,0 l/m 27,1 km/h (4 Bft) W-NW 284 0 min 0,000 mm 1,3 UV-I 291 W/m 4,2 C -2,0 C 41,8 km/h (6 Bft) 92,31 %
01.04.2018 11:43 7,6 C 6,1 C 79 % 1004,6 hPa 0,0 l/m 30,5 km/h (5 Bft) W 267 0 min 0,000 mm 1,4 UV-I 285 W/m 4,2 C -2,8 C 41,8 km/h (6 Bft) 96,15 %
01.04.2018 11:44 7,7 C 6,1 C 80 % 1004,6 hPa 0,0 l/m 15,1 km/h (3 Bft) W 271 0 min 0,000 mm 1,4 UV-I 303 W/m 4,5 C 2,3 C 27,4 km/h (4 Bft) 96,30 %
01.04.2018 11:45 7,7 C 6,1 C 80 % 1004,6 hPa 0,0 l/m 16,7 km/h (3 Bft) W 261 0 min 0,000 mm 1,3 UV-I 263 W/m 4,5 C 1,6 C 20,9 km/h (4 Bft) 100,00 %
01.04.2018 11:46 7,8 C 6,1 C 80 % 1004,7 hPa 0,0 l/m 26,0 km/h (4 Bft) W 279 0 min 0,000 mm 1,1 UV-I 249 W/m 4,6 C -1,4 C 38,6 km/h (5 Bft) 91,30 %
01.04.2018 11:47 7,8 C 6,1 C 79 % 1004,6 hPa 0,0 l/m 31,7 km/h (5 Bft) W 259 0 min 0,000 mm 1,2 UV-I 258 W/m 4,4 C -2,8 C 46,7 km/h (6 Bft) 91,67 %
01.04.2018 11:48 7,8 C 6,1 C 79 % 1004,7 hPa 0,0 l/m 37,9 km/h (5 Bft) W 260 0 min 0,000 mm 1,1 UV-I 232 W/m 4,4 C -4,0 C 48,3 km/h (6 Bft) 100,00 %
01.04.2018 11:49 7,8 C 6,1 C 79 % 1004,7 hPa 0,0 l/m 29,4 km/h (5 Bft) W 273 0 min 0,000 mm 0,9 UV-I 203 W/m 4,4 C -2,3 C 35,4 km/h (5 Bft) 96,30 %
01.04.2018 11:50 7,7 C 6,1 C 79 % 1004,6 hPa 0,0 l/m 27,8 km/h (4 Bft) W 260 0 min 0,000 mm 0,9 UV-I 182 W/m 4,3 C -2,0 C 46,7 km/h (6 Bft) 100,00 %
01.04.2018 11:51 7,7 C 6,1 C 80 % 1004,7 hPa 0,0 l/m 19,5 km/h (3 Bft) W 273 0 min 0,000 mm 1,2 UV-I 242 W/m 4,5 C 0,5 C 22,5 km/h (4 Bft) 95,83 %
01.04.2018 11:52 7,7 C 6,1 C 81 % 1004,7 hPa 0,0 l/m 18,6 km/h (3 Bft) W-SW 246 0 min 0,000 mm 1,1 UV-I 224 W/m 4,7 C 0,8 C 27,4 km/h (4 Bft) 100,00 %
01.04.2018 11:53 7,7 C 6,1 C 81 % 1004,7 hPa 0,0 l/m 26,9 km/h (4 Bft) W-SW 246 0 min 0,000 mm 1,0 UV-I 192 W/m 4,7 C -1,8 C 37,0 km/h (5 Bft) 96,67 %
01.04.2018 11:54 7,7 C 6,1 C 81 % 1004,7 hPa 0,0 l/m 29,3 km/h (5 Bft) W 266 0 min 0,000 mm 1,3 UV-I 214 W/m 4,7 C -2,4 C 43,5 km/h (6 Bft) 96,55 %
01.04.2018 11:55 7,6 C 6,1 C 80 % 1004,8 hPa 0,0 l/m 33,2 km/h (5 Bft) W 264 0 min 0,000 mm 1,5 UV-I 305 W/m 4,4 C -3,4 C 46,7 km/h (6 Bft) 98,06 %
01.04.2018 11:56 7,6 C 6,1 C 80 % 1004,8 hPa 0,0 l/m 28,8 km/h (4 Bft) W 272 0 min 0,000 mm 1,6 UV-I 317 W/m 4,4 C -2,4 C 40,2 km/h (6 Bft) 95,12 %
01.04.2018 11:57 7,6 C 6,1 C 81 % 1004,8 hPa 0,0 l/m 21,9 km/h (4 Bft) W-NW 295 0 min 0,000 mm 1,4 UV-I 219 W/m 4,6 C -0,5 C 25,7 km/h (4 Bft) 100,00 %
01.04.2018 11:58 7,6 C 6,1 C 80 % 1004,8 hPa 0,0 l/m 25,4 km/h (4 Bft) W 271 0 min 0,000 mm 1,3 UV-I 179 W/m 4,4 C -1,5 C 40,2 km/h (6 Bft) 96,15 %
01.04.2018 11:59 7,5 C 6,1 C 81 % 1004,7 hPa 0,0 l/m 28,0 km/h (4 Bft) W-SW 256 0 min 0,000 mm 1,3 UV-I 182 W/m 4,5 C -2,4 C 32,2 km/h (5 Bft) 100,00 %
01.04.2018 12:00 7,4 C 6,1 C 81 % 1004,8 hPa 0,0 l/m 25,0 km/h (4 Bft) W 267 0 min 0,127 mm 1,5 UV-I 261 W/m 4,4 C -1,7 C 33,8 km/h (5 Bft) 96,55 %
01.04.2018 12:01 7,4 C 6,1 C 82 % 1004,8 hPa 0,0 l/m 25,0 km/h (4 Bft) W 273 0 min 0,000 mm 1,7 UV-I 291 W/m 4,5 C -1,7 C 35,4 km/h (5 Bft) 100,00 %
01.04.2018 12:02 7,4 C 6,1 C 82 % 1004,8 hPa 0,0 l/m 31,4 km/h (5 Bft) W 279 0 min 0,000 mm 1,9 UV-I 302 W/m 4,5 C -3,3 C 41,8 km/h (6 Bft) 95,65 %
01.04.2018 12:03 7,4 C 6,1 C 81 % 1004,8 hPa 0,0 l/m 25,1 km/h (4 Bft) W-SW 252 0 min 0,000 mm 1,7 UV-I 347 W/m 4,4 C -1,7 C 33,8 km/h (5 Bft) 100,00 %
01.04.2018 12:04 7,4 C 6,1 C 82 % 1004,8 hPa 0,0 l/m 25,7 km/h (4 Bft) W-NW 286 0 min 0,000 mm 1,7 UV-I 344 W/m 4,5 C -1,9 C 33,8 km/h (5 Bft) 93,33 %
01.04.2018 12:05 7,6 C 6,1 C 81 % 1004,8 hPa 0,0 l/m 23,1 km/h (4 Bft) W-SW 246 0 min 0,000 mm 1,8 UV-I 378 W/m 4,6 C -0,9 C 32,2 km/h (5 Bft) 100,00 %
01.04.2018 12:06 7,6 C 6,1 C 82 % 1004,9 hPa 0,0 l/m 27,4 km/h (4 Bft) W-SW 257 0 min 0,000 mm 1,7 UV-I 378 W/m 4,7 C -2,1 C 33,8 km/h (5 Bft) 96,15 %
01.04.2018 12:07 7,7 C 6,7 C 82 % 1004,8 hPa 0,0 l/m 21,1 km/h (4 Bft) W-SW 245 0 min 0,000 mm 1,6 UV-I 356 W/m 4,8 C -0,1 C 29,0 km/h (5 Bft) 95,83 %
01.04.2018 12:08 7,8 C 6,7 C 81 % 1004,9 hPa 0,0 l/m 29,3 km/h (5 Bft) W 265 0 min 0,000 mm 1,5 UV-I 354 W/m 4,7 C -2,3 C 45,1 km/h (6 Bft) 100,00 %
01.04.2018 12:09 7,8 C 6,7 C 81 % 1004,8 hPa 0,0 l/m 27,5 km/h (4 Bft) W-NW 299 0 min 0,000 mm 1,5 UV-I 310 W/m 4,7 C -1,8 C 35,4 km/h (5 Bft) 96,55 %
01.04.2018 12:10 7,8 C 6,1 C 80 % 1004,8 hPa 0,0 l/m 34,0 km/h (5 Bft) W 276 0 min 0,000 mm 1,6 UV-I 329 W/m 4,6 C -3,3 C 46,7 km/h (6 Bft) 96,30 %
01.04.2018 12:11 7,8 C 6,1 C 80 % 1004,8 hPa 0,0 l/m 32,3 km/h (5 Bft) W 260 0 min 0,000 mm 1,9 UV-I 338 W/m 4,6 C -2,9 C 48,3 km/h (6 Bft) 100,00 %
01.04.2018 12:12 7,9 C 6,7 C 80 % 1004,8 hPa 0,0 l/m 31,0 km/h (5 Bft) W-SW 254 0 min 0,000 mm 2,1 UV-I 338 W/m 4,7 C -2,5 C 40,2 km/h (6 Bft) 97,62 %
01.04.2018 12:13 7,9 C 6,7 C 80 % 1004,8 hPa 0,0 l/m 25,9 km/h (4 Bft) W 263 0 min 0,000 mm 2,1 UV-I 366 W/m 4,7 C -1,3 C 33,8 km/h (5 Bft) 90,91 %
01.04.2018 12:14 8,1 C 6,7 C 81 % 1004,8 hPa 0,0 l/m 21,8 km/h (4 Bft) W 261 1 min 0,000 mm 2,4 UV-I 889 W/m 5,0 C 0,2 C 32,2 km/h (5 Bft) 100,00 %
01.04.2018 12:15 8,2 C 6,7 C 81 % 1004,8 hPa 0,0 l/m 30,6 km/h (5 Bft) W-SW 251 1 min 0,000 mm 2,6 UV-I 889 W/m 5,1 C -2,0 C 45,1 km/h (6 Bft) 96,15 %
01.04.2018 12:16 8,4 C 6,7 C 80 % 1004,8 hPa 0,0 l/m 28,8 km/h (4 Bft) W 260 1 min 0,000 mm 2,3 UV-I 889 W/m 5,2 C -1,3 C 48,3 km/h (6 Bft) 100,00 %
01.04.2018 12:17 8,4 C 6,7 C 78 % 1004,9 hPa 0,0 l/m 33,5 km/h (5 Bft) W 277 1 min 0,000 mm 1,8 UV-I 571 W/m 4,8 C -2,3 C 53,1 km/h (7 Bft) 92,86 %
01.04.2018 12:18 8,5 C 6,7 C 78 % 1004,9 hPa 0,0 l/m 20,6 km/h (4 Bft) W 279 1 min 0,000 mm 1,8 UV-I 467 W/m 4,9 C 1,1 C 40,2 km/h (6 Bft) 97,22 %
01.04.2018 12:19 8,6 C 6,7 C 78 % 1004,8 hPa 0,0 l/m 33,1 km/h (5 Bft) W 281 1 min 0,000 mm 1,6 UV-I 473 W/m 5,0 C -2,0 C 43,5 km/h (6 Bft) 100,00 %
01.04.2018 12:20 8,6 C 6,1 C 77 % 1004,9 hPa 0,0 l/m 20,3 km/h (4 Bft) W 280 0 min 0,000 mm 1,4 UV-I 329 W/m 4,8 C 1,4 C 27,4 km/h (4 Bft) 94,44 %
01.04.2018 12:21 8,6 C 6,1 C 77 % 1004,8 hPa 0,0 l/m 20,2 km/h (4 Bft) W 272 0 min 0,000 mm 1,4 UV-I 326 W/m 4,8 C 1,4 C 27,4 km/h (4 Bft) 100,00 %
01.04.2018 12:22 8,6 C 6,1 C 78 % 1005,0 hPa 0,0 l/m 31,1 km/h (5 Bft) W 273 0 min 0,000 mm 1,4 UV-I 333 W/m 5,0 C -1,6 C 40,2 km/h (6 Bft) 98,02 %
01.04.2018 12:23 8,6 C 6,7 C 77 % 1004,8 hPa 0,0 l/m 32,8 km/h (5 Bft) W-SW 252 0 min 0,000 mm 1,5 UV-I 350 W/m 4,8 C -1,9 C 48,3 km/h (6 Bft) 97,73 %
01.04.2018 12:24 8,6 C 6,7 C 76 % 1004,8 hPa 0,0 l/m 34,2 km/h (5 Bft) W-NW 302 0 min 0,000 mm 1,5 UV-I 367 W/m 4,6 C -2,2 C 48,3 km/h (6 Bft) 96,30 %
01.04.2018 12:25 8,5 C 6,7 C 76 % 1005,0 hPa 0,0 l/m 27,7 km/h (4 Bft) W-NW 291 0 min 0,000 mm 1,4 UV-I 329 W/m 4,5 C -0,9 C 41,8 km/h (6 Bft) 100,00 %
01.04.2018 12:26 8,5 C 6,1 C 75 % 1005,0 hPa 0,0 l/m 21,1 km/h (4 Bft) W 274 0 min 0,000 mm 1,3 UV-I 300 W/m 4,3 C 1,0 C 29,0 km/h (5 Bft) 96,15 %
01.04.2018 12:27 8,5 C 6,1 C 75 % 1005,0 hPa 0,0 l/m 20,1 km/h (4 Bft) W 279 0 min 0,000 mm 1,3 UV-I 296 W/m 4,3 C 1,3 C 25,7 km/h (4 Bft) 100,00 %
01.04.2018 12:28 8,5 C 6,1 C 76 % 1005,0 hPa 0,0 l/m 22,6 km/h (4 Bft) W 267 0 min 0,000 mm 1,2 UV-I 267 W/m 4,5 C 0,5 C 29,0 km/h (5 Bft) 96,88 %
01.04.2018 12:29 8,5 C 6,7 C 76 % 1005,0 hPa 0,0 l/m 24,4 km/h (4 Bft) W 270 0 min 0,000 mm 1,1 UV-I 237 W/m 4,5 C -0,0 C 37,0 km/h (5 Bft) 100,00 %
01.04.2018 12:30 8,4 C 6,7 C 76 % 1005,0 hPa 0,0 l/m 22,0 km/h (4 Bft) W 267 0 min 0,000 mm 0,9 UV-I 203 W/m 4,4 C 0,6 C 33,8 km/h (5 Bft) 96,15 %
01.04.2018 12:33 8,3 C 6,1 C 76 % 1005,0 hPa 0,0 l/m 23,8 km/h (4 Bft) W-SW 251 0 min 0,000 mm 0,6 UV-I 137 W/m 4,3 C -0,1 C 32,2 km/h (5 Bft) 95,65 %
01.04.2018 12:34 8,2 C 6,1 C 76 % 1005,0 hPa 0,0 l/m 28,6 km/h (4 Bft) W 276 0 min 0,000 mm 0,5 UV-I 106 W/m 4,2 C -1,5 C 45,1 km/h (6 Bft) 100,00 %
01.04.2018 12:35 8,2 C 6,7 C 76 % 1005,1 hPa 0,0 l/m 25,3 km/h (4 Bft) W 275 0 min 0,000 mm 0,5 UV-I 102 W/m 4,2 C -0,7 C 35,4 km/h (5 Bft) 91,67 %
01.04.2018 12:36 8,2 C 6,7 C 76 % 1005,0 hPa 0,0 l/m 26,2 km/h (4 Bft) W 261 0 min 0,000 mm 0,5 UV-I 111 W/m 4,2 C -0,9 C 41,8 km/h (6 Bft) 96,15 %
01.04.2018 12:37 8,1 C 6,1 C 76 % 1005,0 hPa 0,0 l/m 27,1 km/h (4 Bft) W 261 0 min 0,000 mm 0,5 UV-I 119 W/m 4,1 C -1,3 C 33,8 km/h (5 Bft) 92,59 %
01.04.2018 12:38 8,1 C 6,1 C 76 % 1005,1 hPa 0,0 l/m 31,5 km/h (5 Bft) W-SW 240 0 min 0,000 mm 0,6 UV-I 128 W/m 4,1 C -2,4 C 48,3 km/h (6 Bft) 96,15 %
01.04.2018 12:39 8,0 C 6,7 C 76 % 1005,0 hPa 0,0 l/m 29,4 km/h (5 Bft) W 277 0 min 0,000 mm 0,7 UV-I 148 W/m 4,0 C -2,0 C 43,5 km/h (6 Bft) 84,62 %
01.04.2018 12:40 8,0 C 6,7 C 76 % 1005,0 hPa 0,0 l/m 25,5 km/h (4 Bft) W 270 0 min 0,000 mm 0,8 UV-I 158 W/m 4,0 C -1,0 C 30,6 km/h (5 Bft) 100,00 %
01.04.2018 12:41 7,9 C 6,7 C 76 % 1005,0 hPa 0,0 l/m 27,1 km/h (4 Bft) W 263 0 min 0,000 mm 0,7 UV-I 146 W/m 3,9 C -1,6 C 33,8 km/h (5 Bft) 93,33 %
01.04.2018 12:42 7,9 C 6,7 C 76 % 1005,1 hPa 0,0 l/m 19,3 km/h (3 Bft) W 274 0 min 0,000 mm 0,5 UV-I 124 W/m 3,9 C 0,8 C 25,7 km/h (4 Bft) 97,56 %
01.04.2018 12:43 7,9 C 6,1 C 77 % 1005,1 hPa 0,0 l/m 21,2 km/h (4 Bft) W 279 0 min 0,000 mm 0,1 UV-I 73 W/m 4,1 C 0,2 C 29,0 km/h (5 Bft) 100,00 %
01.04.2018 12:44 7,9 C 6,1 C 77 % 1005,0 hPa 0,0 l/m 28,2 km/h (4 Bft) W-SW 252 0 min 0,000 mm 0,0 UV-I 60 W/m 4,1 C -1,9 C 33,8 km/h (5 Bft) 95,65 %
01.04.2018 12:45 7,8 C 6,1 C 78 % 1005,1 hPa 0,0 l/m 20,8 km/h (4 Bft) W-SW 238 0 min 0,000 mm 0,0 UV-I 57 W/m 4,2 C 0,2 C 27,4 km/h (4 Bft) 100,00 %
01.04.2018 12:46 7,7 C 6,1 C 78 % 1005,2 hPa 0,0 l/m 31,3 km/h (5 Bft) W 269 0 min 0,000 mm 0,0 UV-I 71 W/m 4,1 C -2,9 C 41,8 km/h (6 Bft) 93,10 %
01.04.2018 12:47 7,6 C 6,1 C 79 % 1005,2 hPa 0,2 l/m 26,3 km/h (4 Bft) W-SW 247 0 min 0,000 mm 0,0 UV-I 91 W/m 4,2 C -1,8 C 40,2 km/h (6 Bft) 96,30 %
01.04.2018 12:48 7,4 C 6,1 C 80 % 1005,2 hPa 0,0 l/m 28,6 km/h (4 Bft) W-NW 299 0 min 0,000 mm 0,0 UV-I 78 W/m 4,2 C -2,7 C 38,6 km/h (5 Bft) 96,15 %
01.04.2018 12:49 7,2 C 6,1 C 81 % 1005,3 hPa 0,0 l/m 21,5 km/h (4 Bft) W-NW 294 0 min 0,000 mm 0,0 UV-I 75 W/m 4,2 C -0,9 C 29,0 km/h (5 Bft) 93,33 %
01.04.2018 12:50 7,1 C 6,1 C 82 % 1005,2 hPa 0,0 l/m 23,8 km/h (4 Bft) W 274 0 min 0,000 mm 0,0 UV-I 70 W/m 4,2 C -1,7 C 33,8 km/h (5 Bft) 95,65 %
01.04.2018 12:51 6,9 C 6,1 C 83 % 1005,2 hPa 0,0 l/m 13,7 km/h (3 Bft) W 266 0 min 0,000 mm 0,0 UV-I 63 W/m 4,2 C 2,0 C 17,7 km/h (3 Bft) 96,30 %
01.04.2018 12:52 6,8 C 6,7 C 84 % 1005,3 hPa 0,0 l/m 18,6 km/h (3 Bft) W 273 0 min 0,000 mm 0,0 UV-I 60 W/m 4,3 C -0,3 C 30,6 km/h (5 Bft) 95,65 %
01.04.2018 12:53 6,7 C 6,7 C 84 % 1005,3 hPa 0,0 l/m 17,7 km/h (3 Bft) W-NW 290 0 min 0,000 mm 0,0 UV-I 65 W/m 4,2 C -0,1 C 30,6 km/h (5 Bft) 100,00 %
01.04.2018 12:54 6,7 C 6,1 C 85 % 1005,3 hPa 0,0 l/m 13,9 km/h (3 Bft) W 262 0 min 0,000 mm 0,0 UV-I 89 W/m 4,4 C 1,7 C 17,7 km/h (3 Bft) 100,00 %
01.04.2018 12:55 6,6 C 6,1 C 85 % 1005,3 hPa 0,0 l/m 15,0 km/h (3 Bft) W 271 0 min 0,000 mm 0,5 UV-I 117 W/m 4,3 C 1,0 C 20,9 km/h (4 Bft) 100,00 %
01.04.2018 12:56 6,6 C 6,1 C 85 % 1005,2 hPa 0,0 l/m 19,6 km/h (3 Bft) W 261 0 min 0,000 mm 0,5 UV-I 115 W/m 4,3 C -1,0 C 25,7 km/h (4 Bft) 100,00 %
01.04.2018 12:57 6,6 C 6,1 C 85 % 1005,2 hPa 0,0 l/m 15,4 km/h (3 Bft) W-NW 300 0 min 0,000 mm 0,5 UV-I 120 W/m 4,3 C 0,8 C 20,9 km/h (4 Bft) 100,00 %
01.04.2018 12:58 6,7 C 6,7 C 86 % 1005,3 hPa 0,0 l/m 20,9 km/h (4 Bft) W-NW 287 0 min 0,000 mm 0,6 UV-I 129 W/m 4,5 C -1,3 C 27,4 km/h (4 Bft) 100,00 %
01.04.2018 12:59 6,7 C 6,7 C 85 % 1005,3 hPa 0,0 l/m 17,3 km/h (3 Bft) W 273 0 min 0,000 mm 0,3 UV-I 90 W/m 4,4 C 0,1 C 20,9 km/h (4 Bft) 100,00 %
01.04.2018 13:00 6,7 C 6,7 C 86 % 1005,3 hPa 0,0 l/m 18,8 km/h (3 Bft) W-SW 258 0 min 0,000 mm 0,0 UV-I 54 W/m 4,5 C -0,5 C 27,4 km/h (4 Bft) 100,00 %
01.04.2018 13:01 6,7 C 6,1 C 85 % 1005,3 hPa 0,0 l/m 16,3 km/h (3 Bft) W-NW 291 0 min 0,153 mm 0,0 UV-I 46 W/m 4,4 C 0,5 C 20,9 km/h (4 Bft) 100,00 %
01.04.2018 13:02 6,7 C 6,7 C 85 % 1005,3 hPa 0,0 l/m 15,4 km/h (3 Bft) W 265 0 min 0,000 mm 0,0 UV-I 46 W/m 4,4 C 0,9 C 22,5 km/h (4 Bft) 100,00 %
01.04.2018 13:03 6,7 C 6,7 C 85 % 1005,4 hPa 0,2 l/m 17,2 km/h (3 Bft) W 274 0 min 0,000 mm 0,0 UV-I 49 W/m 4,4 C 0,1 C 20,9 km/h (4 Bft) 96,15 %
01.04.2018 13:04 6,7 C 6,7 C 85 % 1005,5 hPa 0,0 l/m 21,6 km/h (4 Bft) W 279 0 min 0,000 mm 0,0 UV-I 41 W/m 4,4 C -1,5 C 32,2 km/h (5 Bft) 96,67 %
01.04.2018 13:05 6,7 C 6,1 C 85 % 1005,5 hPa 0,2 l/m 21,6 km/h (4 Bft) W 262 0 min 0,000 mm 0,0 UV-I 34 W/m 4,4 C -1,5 C 30,6 km/h (5 Bft) 90,91 %
01.04.2018 13:06 6,6 C 6,1 C 86 % 1005,6 hPa 0,0 l/m 19,4 km/h (3 Bft) W 277 0 min 0,000 mm 0,0 UV-I 32 W/m 4,4 C -0,9 C 24,1 km/h (4 Bft) 92,59 %
01.04.2018 13:07 6,6 C 6,1 C 86 % 1005,7 hPa 0,2 l/m 27,3 km/h (4 Bft) W 280 0 min 0,000 mm 0,0 UV-I 32 W/m 4,4 C -3,4 C 46,7 km/h (6 Bft) 100,00 %
01.04.2018 13:08 6,4 C 6,7 C 86 % 1005,7 hPa 0,2 l/m 27,1 km/h (4 Bft) W 279 0 min 0,000 mm 0,0 UV-I 32 W/m 4,2 C -3,7 C 48,3 km/h (6 Bft) 100,00 %
01.04.2018 13:09 6,3 C 6,7 C 87 % 1005,8 hPa 0,2 l/m 20,1 km/h (4 Bft) W 281 0 min 0,000 mm 0,0 UV-I 35 W/m 4,3 C -1,5 C 35,4 km/h (5 Bft) 95,12 %
01.04.2018 13:10 6,2 C 6,7 C 87 % 1005,8 hPa 0,2 l/m 24,4 km/h (4 Bft) W 268 0 min 0,000 mm 0,0 UV-I 42 W/m 4,2 C -3,1 C 37,0 km/h (5 Bft) 95,24 %
01.04.2018 13:11 6,0 C 6,1 C 88 % 1005,9 hPa 0,0 l/m 27,9 km/h (4 Bft) NW 311 0 min 0,000 mm 0,3 UV-I 68 W/m 4,2 C -4,4 C 38,6 km/h (5 Bft) 100,00 %
01.04.2018 13:12 5,9 C 6,7 C 88 % 1005,7 hPa 0,2 l/m 25,5 km/h (4 Bft) W-NW 286 0 min 0,000 mm 0,8 UV-I 134 W/m 4,1 C -3,9 C 40,2 km/h (6 Bft) 96,67 %
01.04.2018 13:13 5,8 C 6,7 C 88 % 1005,8 hPa 0,0 l/m 31,9 km/h (5 Bft) W-NW 286 0 min 0,000 mm 1,2 UV-I 186 W/m 4,0 C -5,7 C 46,7 km/h (6 Bft) 92,31 %
01.04.2018 13:14 5,7 C 6,7 C 88 % 1005,8 hPa 0,0 l/m 24,6 km/h (4 Bft) W-SW 238 0 min 0,000 mm 1,2 UV-I 208 W/m 3,9 C -3,9 C 37,0 km/h (5 Bft) 100,00 %
01.04.2018 13:15 5,7 C 6,7 C 89 % 1005,8 hPa 0,0 l/m 17,9 km/h (3 Bft) W 274 0 min 0,000 mm 1,4 UV-I 263 W/m 4,0 C -1,4 C 24,1 km/h (4 Bft) 95,65 %
01.04.2018 13:16 5,7 C 6,7 C 90 % 1005,7 hPa 0,0 l/m 14,6 km/h (3 Bft) W 265 0 min 0,000 mm 1,7 UV-I 342 W/m 4,2 C 0,1 C 19,3 km/h (3 Bft) 95,83 %
01.04.2018 13:17 5,7 C 6,1 C 90 % 1005,7 hPa 0,0 l/m 17,6 km/h (3 Bft) W 277 0 min 0,000 mm 1,6 UV-I 314 W/m 4,2 C -1,3 C 29,0 km/h (5 Bft) 96,15 %
01.04.2018 13:18 5,7 C 6,1 C 90 % 1005,7 hPa 0,0 l/m 20,5 km/h (4 Bft) W 281 0 min 0,000 mm 1,5 UV-I 279 W/m 4,2 C -2,5 C 27,4 km/h (4 Bft) 100,00 %
01.04.2018 13:19 5,8 C 6,7 C 91 % 1005,7 hPa 0,0 l/m 22,6 km/h (4 Bft) W-SW 252 0 min 0,000 mm 1,5 UV-I 289 W/m 4,4 C -3,1 C 29,0 km/h (5 Bft) 91,67 %
01.04.2018 13:20 5,8 C 6,7 C 91 % 1005,7 hPa 0,0 l/m 17,5 km/h (3 Bft) W-NW 285 0 min 0,000 mm 1,6 UV-I 358 W/m 4,4 C -1,1 C 24,1 km/h (4 Bft) 100,00 %
01.04.2018 13:21 5,9 C 6,7 C 91 % 1005,7 hPa 0,0 l/m 17,0 km/h (3 Bft) W 261 0 min 0,000 mm 1,6 UV-I 361 W/m 4,5 C -0,8 C 25,7 km/h (4 Bft) 96,30 %
01.04.2018 13:22 5,9 C 6,7 C 91 % 1005,7 hPa 0,0 l/m 21,9 km/h (4 Bft) W-SW 246 0 min 0,000 mm 1,4 UV-I 299 W/m 4,5 C -2,7 C 29,0 km/h (5 Bft) 96,15 %
01.04.2018 13:23 6,0 C 6,7 C 91 % 1005,7 hPa 0,0 l/m 20,8 km/h (4 Bft) W 271 0 min 0,000 mm 1,3 UV-I 284 W/m 4,6 C -2,2 C 25,7 km/h (4 Bft) 100,00 %
01.04.2018 13:24 6,1 C 6,7 C 91 % 1005,7 hPa 0,0 l/m 21,9 km/h (4 Bft) W-SW 252 0 min 0,000 mm 1,4 UV-I 304 W/m 4,7 C -2,4 C 32,2 km/h (5 Bft) 96,15 %
01.04.2018 13:25 6,1 C 6,7 C 91 % 1005,7 hPa 0,0 l/m 24,5 km/h (4 Bft) W 281 0 min 0,000 mm 1,4 UV-I 314 W/m 4,7 C -3,3 C 38,6 km/h (5 Bft) 100,00 %
01.04.2018 13:26 6,2 C 6,7 C 91 % 1005,7 hPa 0,0 l/m 28,7 km/h (4 Bft) W 276 0 min 0,000 mm 1,5 UV-I 318 W/m 4,8 C -4,4 C 40,2 km/h (6 Bft) 92,86 %
01.04.2018 13:27 6,2 C 6,7 C 91 % 1005,7 hPa 0,0 l/m 28,8 km/h (4 Bft) W-SW 256 0 min 0,000 mm 1,4 UV-I 348 W/m 4,8 C -4,4 C 45,1 km/h (6 Bft) 100,00 %
01.04.2018 13:28 6,3 C 6,7 C 90 % 1005,8 hPa 0,0 l/m 29,7 km/h (5 Bft) W 263 0 min 0,000 mm 1,2 UV-I 360 W/m 4,8 C -4,5 C 43,5 km/h (6 Bft) 95,65 %
01.04.2018 13:29 6,3 C 6,7 C 90 % 1005,8 hPa 0,0 l/m 24,1 km/h (4 Bft) W 277 0 min 0,000 mm 0,9 UV-I 183 W/m 4,8 C -2,9 C 35,4 km/h (5 Bft) 96,67 %
01.04.2018 13:30 6,3 C 6,7 C 90 % 1005,8 hPa 0,0 l/m 25,4 km/h (4 Bft) W 268 0 min 0,000 mm 0,7 UV-I 152 W/m 4,8 C -3,3 C 35,4 km/h (5 Bft) 100,00 %
01.04.2018 13:31 6,3 C 6,7 C 90 % 1005,8 hPa 0,0 l/m 20,4 km/h (4 Bft) NW 306 0 min 0,000 mm 0,6 UV-I 137 W/m 4,8 C -1,6 C 33,8 km/h (5 Bft) 100,00 %
01.04.2018 13:32 6,3 C 6,7 C 90 % 1005,9 hPa 0,0 l/m 17,1 km/h (3 Bft) NW 312 0 min 0,000 mm 0,6 UV-I 130 W/m 4,8 C -0,3 C 22,5 km/h (4 Bft) 96,15 %
01.04.2018 13:33 6,3 C 6,7 C 90 % 1005,8 hPa 0,0 l/m 22,3 km/h (4 Bft) W 263 0 min 0,000 mm 0,6 UV-I 120 W/m 4,8 C -2,3 C 32,2 km/h (5 Bft) 95,83 %
01.04.2018 13:34 6,3 C 6,7 C 90 % 1006,0 hPa 0,0 l/m 25,9 km/h (4 Bft) W-NW 302 0 min 0,000 mm 0,5 UV-I 117 W/m 4,8 C -3,4 C 51,5 km/h (7 Bft) 100,00 %
01.04.2018 13:35 6,3 C 6,7 C 89 % 1006,0 hPa 0,0 l/m 38,8 km/h (5 Bft) W-SW 248 0 min 0,000 mm 0,5 UV-I 108 W/m 4,6 C -6,4 C 48,3 km/h (6 Bft) 93,33 %
01.04.2018 13:36 6,2 C 6,7 C 88 % 1005,9 hPa 0,0 l/m 34,2 km/h (5 Bft) W-NW 286 0 min 0,000 mm 0,5 UV-I 105 W/m 4,4 C -5,6 C 43,5 km/h (6 Bft) 100,00 %
01.04.2018 13:37 6,2 C 6,7 C 88 % 1006,0 hPa 0,0 l/m 21,5 km/h (4 Bft) W 268 0 min 0,000 mm 0,5 UV-I 113 W/m 4,4 C -2,2 C 37,0 km/h (5 Bft) 95,65 %
01.04.2018 13:38 6,1 C 6,7 C 89 % 1006,0 hPa 0,0 l/m 24,3 km/h (4 Bft) W 281 0 min 0,000 mm 0,6 UV-I 126 W/m 4,4 C -3,2 C 37,0 km/h (5 Bft) 96,30 %
01.04.2018 13:39 6,1 C 6,7 C 89 % 1006,0 hPa 0,0 l/m 29,2 km/h (5 Bft) W 271 0 min 0,000 mm 0,6 UV-I 139 W/m 4,4 C -4,6 C 45,1 km/h (6 Bft) 96,55 %
01.04.2018 13:40 6,0 C 6,7 C 89 % 1006,1 hPa 0,0 l/m 32,9 km/h (5 Bft) W 269 0 min 0,000 mm 0,7 UV-I 150 W/m 4,3 C -5,7 C 48,3 km/h (6 Bft) 100,00 %
01.04.2018 13:41 5,9 C 6,7 C 89 % 1006,2 hPa 0,0 l/m 27,3 km/h (4 Bft) W-SW 254 0 min 0,000 mm 0,7 UV-I 155 W/m 4,2 C -4,4 C 43,5 km/h (6 Bft) 97,89 %
01.04.2018 13:42 5,8 C 6,7 C 89 % 1006,2 hPa 0,0 l/m 29,0 km/h (5 Bft) W 264 0 min 0,000 mm 0,7 UV-I 158 W/m 4,1 C -5,0 C 33,8 km/h (5 Bft) 100,00 %
01.04.2018 13:43 5,8 C 6,7 C 89 % 1006,1 hPa 0,0 l/m 32,0 km/h (5 Bft) W-SW 257 0 min 0,000 mm 0,8 UV-I 177 W/m 4,1 C -5,7 C 43,5 km/h (6 Bft) 91,30 %
01.04.2018 13:44 5,7 C 6,7 C 89 % 1006,5 hPa 0,0 l/m 38,5 km/h (5 Bft) W 281 0 min 0,000 mm 0,9 UV-I 194 W/m 4,0 C -7,2 C 49,9 km/h (6 Bft) 100,00 %
01.04.2018 13:45 5,6 C 6,1 C 88 % 1006,1 hPa 0,0 l/m 35,3 km/h (5 Bft) W 267 0 min 0,000 mm 0,9 UV-I 200 W/m 3,8 C -6,7 C 46,7 km/h (6 Bft) 100,00 %
01.04.2018 13:46 5,5 C 6,1 C 89 % 1006,2 hPa 0,0 l/m 37,4 km/h (5 Bft) W 259 0 min 0,000 mm 0,9 UV-I 192 W/m 3,8 C -7,3 C 57,9 km/h (7 Bft) 100,00 %
01.04.2018 13:47 5,4 C 6,7 C 89 % 1006,2 hPa 0,0 l/m 31,0 km/h (5 Bft) W 275 0 min 0,000 mm 0,8 UV-I 180 W/m 3,7 C -6,1 C 46,7 km/h (6 Bft) 96,15 %
01.04.2018 13:48 5,3 C 6,7 C 89 % 1006,2 hPa 0,0 l/m 28,2 km/h (4 Bft) W 261 0 min 0,000 mm 0,9 UV-I 191 W/m 3,6 C -5,5 C 35,4 km/h (5 Bft) 100,00 %
01.04.2018 13:49 5,3 C 6,7 C 89 % 1006,1 hPa 0,2 l/m 33,8 km/h (5 Bft) W 259 0 min 0,000 mm 1,1 UV-I 212 W/m 3,6 C -6,9 C 53,1 km/h (7 Bft) 92,86 %
01.04.2018 13:50 5,2 C 6,7 C 89 % 1006,2 hPa 0,0 l/m 31,5 km/h (5 Bft) W 277 0 min 0,000 mm 1,1 UV-I 216 W/m 3,5 C -6,5 C 43,5 km/h (6 Bft) 100,00 %
01.04.2018 13:51 5,2 C 6,7 C 89 % 1006,2 hPa 0,0 l/m 24,5 km/h (4 Bft) W-NW 282 0 min 0,000 mm 1,1 UV-I 209 W/m 3,5 C -4,5 C 37,0 km/h (5 Bft) 100,00 %
01.04.2018 13:52 5,2 C 6,7 C 90 % 1006,1 hPa 0,0 l/m 27,1 km/h (4 Bft) W 274 0 min 0,000 mm 1,0 UV-I 210 W/m 3,7 C -5,3 C 43,5 km/h (6 Bft) 100,00 %
01.04.2018 13:53 5,2 C 6,7 C 90 % 1006,2 hPa 0,0 l/m 28,0 km/h (4 Bft) W 267 0 min 0,000 mm 0,9 UV-I 182 W/m 3,7 C -5,6 C 35,4 km/h (5 Bft) 100,00 %
01.04.2018 13:54 5,2 C 6,7 C 90 % 1006,3 hPa 0,0 l/m 30,0 km/h (5 Bft) W 273 0 min 0,000 mm 0,8 UV-I 171 W/m 3,7 C -6,1 C 38,6 km/h (5 Bft) 100,00 %
01.04.2018 13:55 5,2 C 6,7 C 90 % 1006,3 hPa 0,0 l/m 28,2 km/h (4 Bft) W 264 0 min 0,000 mm 0,9 UV-I 192 W/m 3,7 C -5,6 C 37,0 km/h (5 Bft) 100,00 %
01.04.2018 13:56 5,2 C 6,7 C 89 % 1006,2 hPa 0,0 l/m 36,6 km/h (5 Bft) W-NW 284 0 min 0,000 mm 1,0 UV-I 216 W/m 3,5 C -7,6 C 46,7 km/h (6 Bft) 100,00 %
01.04.2018 13:57 5,3 C 6,7 C 89 % 1006,2 hPa 0,0 l/m 28,2 km/h (4 Bft) W 276 0 min 0,000 mm 0,9 UV-I 204 W/m 3,6 C -5,5 C 37,0 km/h (5 Bft) 100,00 %
01.04.2018 13:58 5,3 C 6,7 C 89 % 1006,3 hPa 0,0 l/m 32,7 km/h (5 Bft) W 274 0 min 0,000 mm 1,0 UV-I 199 W/m 3,6 C -6,6 C 43,5 km/h (6 Bft) 96,15 %
01.04.2018 13:59 5,3 C 6,7 C 89 % 1006,3 hPa 0,0 l/m 25,0 km/h (4 Bft) W-SW 252 0 min 0,000 mm 1,1 UV-I 221 W/m 3,6 C -4,5 C 32,2 km/h (5 Bft) 100,00 %
01.04.2018 14:00 5,3 C 6,7 C 89 % 1006,4 hPa 0,0 l/m 31,2 km/h (5 Bft) W 274 0 min 0,000 mm 1,2 UV-I 250 W/m 3,6 C -6,3 C 43,5 km/h (6 Bft) 100,00 %
01.04.2018 14:01 5,3 C 6,7 C 89 % 1006,4 hPa 0,0 l/m 25,1 km/h (4 Bft) W-SW 254 0 min 0,101 mm 1,4 UV-I 276 W/m 3,6 C -4,6 C 30,6 km/h (5 Bft) 95,83 %
01.04.2018 14:02 5,4 C 6,7 C 89 % 1006,4 hPa 0,0 l/m 28,4 km/h (4 Bft) W 263 0 min 0,000 mm 1,4 UV-I 265 W/m 3,7 C -5,4 C 40,2 km/h (6 Bft) 100,00 %
01.04.2018 14:03 5,4 C 6,7 C 89 % 1006,3 hPa 0,0 l/m 30,0 km/h (5 Bft) W-SW 246 0 min 0,000 mm 1,6 UV-I 280 W/m 3,7 C -5,8 C 40,2 km/h (6 Bft) 100,00 %
01.04.2018 14:04 5,4 C 6,7 C 89 % 1006,4 hPa 0,0 l/m 35,6 km/h (5 Bft) W-SW 240 0 min 0,000 mm 1,7 UV-I 318 W/m 3,7 C -7,1 C 43,5 km/h (6 Bft) 100,00 %
01.04.2018 14:05 5,5 C 6,7 C 89 % 1006,3 hPa 0,0 l/m 35,2 km/h (5 Bft) W 276 0 min 0,000 mm 1,7 UV-I 322 W/m 3,8 C -6,9 C 41,8 km/h (6 Bft) 100,00 %
01.04.2018 14:06 5,6 C 6,7 C 88 % 1006,3 hPa 0,0 l/m 32,0 km/h (5 Bft) SW 235 0 min 0,000 mm 1,7 UV-I 315 W/m 3,8 C -6,0 C 48,3 km/h (6 Bft) 100,00 %
01.04.2018 14:07 5,6 C 6,7 C 88 % 1006,3 hPa 0,0 l/m 33,4 km/h (5 Bft) W 274 0 min 0,000 mm 1,8 UV-I 352 W/m 3,8 C -6,3 C 46,7 km/h (6 Bft) 100,00 %
01.04.2018 14:08 5,7 C 6,7 C 88 % 1006,3 hPa 0,0 l/m 29,3 km/h (5 Bft) W-SW 251 0 min 0,000 mm 1,7 UV-I 372 W/m 3,9 C -5,2 C 41,8 km/h (6 Bft) 96,15 %
01.04.2018 14:09 5,7 C 6,7 C 88 % 1006,3 hPa 0,0 l/m 27,2 km/h (4 Bft) W-SW 240 0 min 0,000 mm 1,8 UV-I 371 W/m 3,9 C -4,6 C 37,0 km/h (5 Bft) 100,00 %
01.04.2018 14:10 5,8 C 6,7 C 88 % 1006,3 hPa 0,0 l/m 31,3 km/h (5 Bft) W-SW 237 0 min 0,000 mm 1,7 UV-I 371 W/m 4,0 C -5,6 C 40,2 km/h (6 Bft) 100,00 %
01.04.2018 14:11 5,8 C 6,7 C 88 % 1006,3 hPa 0,0 l/m 29,2 km/h (5 Bft) W-SW 256 0 min 0,000 mm 1,7 UV-I 375 W/m 4,0 C -5,0 C 40,2 km/h (6 Bft) 100,00 %
01.04.2018 14:12 5,9 C 6,7 C 88 % 1006,4 hPa 0,0 l/m 25,8 km/h (4 Bft) W 273 1 min 0,000 mm 1,8 UV-I 418 W/m 4,1 C -4,0 C 33,8 km/h (5 Bft) 100,00 %
01.04.2018 14:13 6,1 C 6,7 C 88 % 1006,4 hPa 0,0 l/m 25,2 km/h (4 Bft) W 263 1 min 0,000 mm 1,9 UV-I 423 W/m 4,3 C -3,5 C 33,8 km/h (5 Bft) 100,00 %
01.04.2018 14:14 6,2 C 6,7 C 88 % 1006,4 hPa 0,0 l/m 27,6 km/h (4 Bft) W 272 0 min 0,000 mm 2,2 UV-I 380 W/m 4,4 C -4,1 C 40,2 km/h (6 Bft) 100,00 %
01.04.2018 14:15 6,2 C 6,7 C 87 % 1006,3 hPa 0,0 l/m 26,7 km/h (4 Bft) SW 234 0 min 0,000 mm 2,2 UV-I 380 W/m 4,2 C -3,8 C 38,6 km/h (5 Bft) 100,00 %
01.04.2018 14:16 6,3 C 6,7 C 87 % 1006,4 hPa 0,0 l/m 23,0 km/h (4 Bft) W-SW 256 0 min 0,000 mm 2,1 UV-I 380 W/m 4,3 C -2,6 C 32,2 km/h (5 Bft) 100,00 %
01.04.2018 14:17 6,4 C 6,7 C 87 % 1006,3 hPa 0,0 l/m 23,4 km/h (4 Bft) SW 228 1 min 0,000 mm 1,8 UV-I 391 W/m 4,4 C -2,5 C 32,2 km/h (5 Bft) 100,00 %
01.04.2018 14:18 6,5 C 6,7 C 87 % 1006,4 hPa 0,0 l/m 20,5 km/h (4 Bft) W 265 1 min 0,000 mm 1,8 UV-I 441 W/m 4,5 C -1,4 C 32,2 km/h (5 Bft) 100,00 %
01.04.2018 14:19 6,5 C 6,7 C 87 % 1006,3 hPa 0,0 l/m 19,4 km/h (3 Bft) W-SW 243 1 min 0,000 mm 1,9 UV-I 441 W/m 4,5 C -1,0 C 24,1 km/h (4 Bft) 92,86 %
01.04.2018 14:20 6,7 C 6,7 C 87 % 1006,4 hPa 0,0 l/m 24,0 km/h (4 Bft) S-SW 211 1 min 0,000 mm 2,4 UV-I 441 W/m 4,7 C -2,3 C 35,4 km/h (5 Bft) 97,06 %
01.04.2018 14:21 6,8 C 6,7 C 87 % 1006,3 hPa 0,0 l/m 22,5 km/h (4 Bft) W-SW 246 1 min 0,000 mm 2,4 UV-I 648 W/m 4,8 C -1,7 C 32,2 km/h (5 Bft) 96,15 %
01.04.2018 14:22 6,9 C 6,7 C 87 % 1006,3 hPa 0,0 l/m 27,8 km/h (4 Bft) SW 223 1 min 0,000 mm 2,4 UV-I 736 W/m 4,9 C -3,1 C 35,4 km/h (5 Bft) 100,00 %
01.04.2018 14:23 7,0 C 6,7 C 86 % 1006,4 hPa 0,0 l/m 28,3 km/h (4 Bft) SW 221 1 min 0,000 mm 2,4 UV-I 715 W/m 4,8 C -3,1 C 37,0 km/h (5 Bft) 100,00 %
01.04.2018 14:24 7,1 C 6,7 C 86 % 1006,3 hPa 0,0 l/m 23,9 km/h (4 Bft) W-SW 248 1 min 0,000 mm 2,4 UV-I 704 W/m 4,9 C -1,8 C 38,6 km/h (5 Bft) 100,00 %
01.04.2018 14:25 7,1 C 6,7 C 86 % 1006,3 hPa 0,0 l/m 29,4 km/h (5 Bft) W 261 1 min 0,000 mm 2,3 UV-I 704 W/m 4,9 C -3,3 C 38,6 km/h (5 Bft) 95,65 %
01.04.2018 14:26 7,2 C 6,7 C 85 % 1006,3 hPa 0,0 l/m 24,5 km/h (4 Bft) W-SW 238 1 min 0,000 mm 2,4 UV-I 720 W/m 4,9 C -1,8 C 30,6 km/h (5 Bft) 94,44 %
01.04.2018 14:27 7,3 C 6,7 C 86 % 1006,3 hPa 0,0 l/m 22,4 km/h (4 Bft) SW 236 1 min 0,000 mm 2,4 UV-I 729 W/m 5,1 C -1,0 C 37,0 km/h (5 Bft) 100,00 %
01.04.2018 14:28 7,3 C 6,7 C 86 % 1006,2 hPa 0,0 l/m 29,1 km/h (5 Bft) W 275 1 min 0,000 mm 2,4 UV-I 747 W/m 5,1 C -2,9 C 41,8 km/h (6 Bft) 100,00 %
01.04.2018 14:29 7,4 C 6,7 C 85 % 1006,3 hPa 0,0 l/m 20,0 km/h (4 Bft) SW 229 1 min 0,000 mm 2,4 UV-I 755 W/m 5,0 C -0,1 C 29,0 km/h (5 Bft) 92,86 %
01.04.2018 14:30 7,4 C 6,7 C 85 % 1006,2 hPa 0,0 l/m 23,2 km/h (4 Bft) SW 215 1 min 0,000 mm 2,4 UV-I 758 W/m 5,0 C -1,1 C 37,0 km/h (5 Bft) 100,00 %
01.04.2018 14:31 7,6 C 6,7 C 85 % 1006,2 hPa 0,0 l/m 26,6 km/h (4 Bft) W-SW 243 1 min 0,000 mm 2,4 UV-I 744 W/m 5,2 C -1,9 C 37,0 km/h (5 Bft) 100,00 %
01.04.2018 14:32 7,6 C 6,7 C 85 % 1006,2 hPa 0,0 l/m 23,3 km/h (4 Bft) S-SW 205 1 min 0,000 mm 2,3 UV-I 714 W/m 5,2 C -0,9 C 30,6 km/h (5 Bft) 100,00 %
01.04.2018 14:33 7,7 C 6,7 C 85 % 1006,2 hPa 0,0 l/m 25,0 km/h (4 Bft) S-SW 202 1 min 0,000 mm 2,3 UV-I 726 W/m 5,3 C -1,3 C 35,4 km/h (5 Bft) 97,97 %
01.04.2018 14:34 7,8 C 6,7 C 85 % 1006,2 hPa 0,0 l/m 19,5 km/h (3 Bft) W-SW 256 1 min 0,000 mm 2,3 UV-I 740 W/m 5,4 C 0,6 C 27,4 km/h (4 Bft) 97,97 %
01.04.2018 14:35 7,9 C 6,7 C 85 % 1006,2 hPa 0,0 l/m 22,5 km/h (4 Bft) W 277 1 min 0,000 mm 2,4 UV-I 766 W/m 5,5 C -0,3 C 29,0 km/h (5 Bft) 100,00 %
01.04.2018 14:36 8,1 C 6,7 C 84 % 1006,2 hPa 0,0 l/m 21,8 km/h (4 Bft) W 271 1 min 0,000 mm 2,3 UV-I 771 W/m 5,6 C 0,2 C 29,0 km/h (5 Bft) 100,00 %
01.04.2018 14:37 8,2 C 6,7 C 83 % 1006,1 hPa 0,0 l/m 22,8 km/h (4 Bft) W-NW 288 1 min 0,000 mm 2,1 UV-I 772 W/m 5,5 C 0,0 C 32,2 km/h (5 Bft) 100,00 %
01.04.2018 14:38 8,2 C 6,7 C 82 % 1006,2 hPa 0,0 l/m 23,0 km/h (4 Bft) W-SW 254 1 min 0,000 mm 2,0 UV-I 772 W/m 5,3 C -0,0 C 37,0 km/h (5 Bft) 100,00 %
01.04.2018 14:39 8,3 C 6,7 C 82 % 1006,2 hPa 0,0 l/m 21,3 km/h (4 Bft) W 276 1 min 0,000 mm 2,3 UV-I 774 W/m 5,4 C 0,7 C 29,0 km/h (5 Bft) 100,00 %
01.04.2018 14:40 8,4 C 6,7 C 82 % 1006,2 hPa 0,0 l/m 17,4 km/h (3 Bft) W-SW 247 1 min 0,000 mm 1,7 UV-I 775 W/m 5,5 C 2,2 C 27,4 km/h (4 Bft) 100,00 %
01.04.2018 14:41 8,4 C 6,7 C 82 % 1006,2 hPa 0,0 l/m 25,7 km/h (4 Bft) W-SW 254 1 min 0,000 mm 1,7 UV-I 775 W/m 5,5 C -0,5 C 37,0 km/h (5 Bft) 100,00 %
01.04.2018 14:43 8,4 C 6,7 C 81 % 1006,2 hPa 0,0 l/m 24,7 km/h (4 Bft) W 269 2 min 0,000 mm 1,5 UV-I 436 W/m 5,3 C -0,3 C 37,0 km/h (5 Bft) 100,00 %
01.04.2018 14:44 8,4 C 6,7 C 82 % 1006,2 hPa 0,0 l/m 23,8 km/h (4 Bft) W 277 0 min 0,000 mm 1,5 UV-I 288 W/m 5,5 C 0,0 C 37,0 km/h (5 Bft) 100,00 %
01.04.2018 14:45 8,4 C 6,7 C 82 % 1006,1 hPa 0,0 l/m 21,7 km/h (4 Bft) W 263 0 min 0,000 mm 1,5 UV-I 288 W/m 5,5 C 0,7 C 27,4 km/h (4 Bft) 100,00 %
01.04.2018 14:46 8,5 C 6,7 C 82 % 1006,1 hPa 0,0 l/m 18,0 km/h (3 Bft) W 273 1 min 0,000 mm 1,5 UV-I 418 W/m 5,6 C 2,1 C 27,4 km/h (4 Bft) 97,56 %
01.04.2018 14:47 8,6 C 6,7 C 82 % 1006,1 hPa 0,0 l/m 23,4 km/h (4 Bft) W 279 1 min 0,000 mm 2,0 UV-I 476 W/m 5,7 C 0,4 C 33,8 km/h (5 Bft) 93,33 %
01.04.2018 14:48 8,7 C 6,7 C 80 % 1006,1 hPa 0,0 l/m 24,7 km/h (4 Bft) W 265 1 min 0,000 mm 2,0 UV-I 476 W/m 5,4 C 0,2 C 41,8 km/h (6 Bft) 93,10 %
01.04.2018 14:49 8,8 C 6,7 C 80 % 1006,1 hPa 0,0 l/m 24,4 km/h (4 Bft) W 263 1 min 0,000 mm 2,0 UV-I 675 W/m 5,5 C 0,4 C 30,6 km/h (5 Bft) 100,00 %
01.04.2018 14:50 8,8 C 6,7 C 79 % 1006,0 hPa 0,0 l/m 27,8 km/h (4 Bft) W 269 1 min 0,000 mm 2,2 UV-I 874 W/m 5,4 C -0,5 C 38,6 km/h (5 Bft) 100,00 %
01.04.2018 14:51 9,0 C 6,7 C 80 % 1006,0 hPa 0,0 l/m 30,8 km/h (5 Bft) W 275 1 min 0,000 mm 2,2 UV-I 870 W/m 5,7 C -0,9 C 45,1 km/h (6 Bft) 98,00 %
01.04.2018 14:52 9,1 C 6,7 C 78 % 1006,0 hPa 0,0 l/m 30,2 km/h (5 Bft) W-NW 288 1 min 0,000 mm 2,2 UV-I 783 W/m 5,5 C -0,7 C 40,2 km/h (6 Bft) 100,00 %
01.04.2018 14:53 9,2 C 6,7 C 77 % 1006,0 hPa 0,0 l/m 28,7 km/h (4 Bft) W-SW 249 1 min 0,000 mm 2,0 UV-I 759 W/m 5,4 C -0,2 C 37,0 km/h (5 Bft) 100,00 %
01.04.2018 14:54 9,1 C 6,7 C 77 % 1006,1 hPa 0,0 l/m 30,2 km/h (5 Bft) SW 223 1 min 0,000 mm 1,4 UV-I 759 W/m 5,3 C -0,7 C 43,5 km/h (6 Bft) 100,00 %
01.04.2018 14:55 9,0 C 6,7 C 75 % 1006,1 hPa 0,0 l/m 30,4 km/h (5 Bft) W-SW 248 1 min 0,000 mm 1,4 UV-I 468 W/m 4,8 C -0,8 C 41,8 km/h (6 Bft) 92,31 %
01.04.2018 14:56 8,9 C 6,7 C 75 % 1006,0 hPa 0,0 l/m 27,6 km/h (4 Bft) W 279 0 min 0,000 mm 1,4 UV-I 335 W/m 4,7 C -0,3 C 45,1 km/h (6 Bft) 96,55 %
01.04.2018 14:57 8,8 C 6,7 C 76 % 1006,0 hPa 0,0 l/m 23,4 km/h (4 Bft) W 270 1 min 0,000 mm 1,7 UV-I 369 W/m 4,8 C 0,7 C 43,5 km/h (6 Bft) 100,00 %
01.04.2018 14:58 8,8 C 6,7 C 77 % 1006,1 hPa 0,0 l/m 27,0 km/h (4 Bft) SW 234 1 min 0,000 mm 1,8 UV-I 384 W/m 5,0 C -0,3 C 32,2 km/h (5 Bft) 100,00 %
01.04.2018 14:59 8,8 C 6,7 C 76 % 1006,1 hPa 0,0 l/m 26,6 km/h (4 Bft) W 278 1 min 0,000 mm 1,5 UV-I 400 W/m 4,8 C -0,2 C 48,3 km/h (6 Bft) 100,00 %
01.04.2018 15:00 8,8 C 6,7 C 76 % 1006,2 hPa 0,0 l/m 25,2 km/h (4 Bft) SW 228 1 min 0,000 mm 1,5 UV-I 364 W/m 4,8 C 0,2 C 37,0 km/h (5 Bft) 95,83 %
01.04.2018 15:01 8,7 C 6,7 C 75 % 1006,0 hPa 0,0 l/m 26,6 km/h (4 Bft) W 268 1 min 0,280 mm 1,6 UV-I 367 W/m 4,5 C -0,4 C 33,8 km/h (5 Bft) 95,65 %
01.04.2018 15:02 8,7 C 6,7 C 76 % 1006,0 hPa 0,0 l/m 23,8 km/h (4 Bft) W-NW 284 1 min 0,000 mm 1,8 UV-I 367 W/m 4,7 C 0,4 C 30,6 km/h (5 Bft) 95,83 %
01.04.2018 15:03 8,7 C 6,7 C 77 % 1006,0 hPa 0,0 l/m 19,6 km/h (3 Bft) W 277 1 min 0,000 mm 1,6 UV-I 367 W/m 4,9 C 1,7 C 29,0 km/h (5 Bft) 96,15 %
01.04.2018 15:04 8,8 C 6,7 C 77 % 1006,0 hPa 0,0 l/m 25,9 km/h (4 Bft) W 265 1 min 0,000 mm 2,0 UV-I 367 W/m 5,0 C -0,0 C 33,8 km/h (5 Bft) 100,00 %
01.04.2018 15:05 8,9 C 6,7 C 77 % 1005,9 hPa 0,0 l/m 24,3 km/h (4 Bft) W 263 1 min 0,000 mm 2,1 UV-I 509 W/m 5,1 C 0,5 C 33,8 km/h (5 Bft) 91,30 %
01.04.2018 15:06 8,9 C 6,7 C 76 % 1005,9 hPa 0,0 l/m 19,8 km/h (3 Bft) W-SW 244 1 min 0,000 mm 2,0 UV-I 856 W/m 4,9 C 1,9 C 27,4 km/h (4 Bft) 97,99 %
01.04.2018 15:07 9,0 C 6,7 C 76 % 1005,9 hPa 0,0 l/m 20,1 km/h (4 Bft) W 265 1 min 0,000 mm 2,1 UV-I 868 W/m 5,0 C 2,0 C 24,1 km/h (4 Bft) 95,45 %
01.04.2018 15:08 9,1 C 6,7 C 76 % 1005,9 hPa 0,0 l/m 23,8 km/h (4 Bft) SW 229 1 min 0,000 mm 2,1 UV-I 828 W/m 5,1 C 0,9 C 33,8 km/h (5 Bft) 96,30 %
01.04.2018 15:09 9,2 C 6,7 C 75 % 1005,8 hPa 0,0 l/m 30,7 km/h (5 Bft) W-SW 258 1 min 0,000 mm 2,1 UV-I 786 W/m 5,0 C -0,6 C 41,8 km/h (6 Bft) 100,00 %
01.04.2018 15:10 9,3 C 6,7 C 75 % 1005,9 hPa 0,0 l/m 24,5 km/h (4 Bft) W-SW 246 1 min 0,000 mm 2,1 UV-I 760 W/m 5,1 C 1,0 C 32,2 km/h (5 Bft) 96,55 %
01.04.2018 15:11 9,3 C 6,7 C 75 % 1005,9 hPa 0,0 l/m 23,4 km/h (4 Bft) W-SW 244 1 min 0,000 mm 1,9 UV-I 747 W/m 5,1 C 1,3 C 32,2 km/h (5 Bft) 100,00 %
01.04.2018 15:12 9,4 C 6,7 C 75 % 1006,0 hPa 0,0 l/m 31,4 km/h (5 Bft) W-SW 237 1 min 0,000 mm 1,7 UV-I 747 W/m 5,2 C -0,5 C 41,8 km/h (6 Bft) 92,31 %
01.04.2018 15:13 9,3 C 6,7 C 75 % 1005,9 hPa 0,0 l/m 26,3 km/h (4 Bft) W-SW 250 1 min 0,000 mm 1,6 UV-I 747 W/m 5,1 C 0,5 C 35,4 km/h (5 Bft) 100,00 %
01.04.2018 15:14 9,3 C 6,7 C 75 % 1005,9 hPa 0,0 l/m 28,4 km/h (4 Bft) W-SW 246 1 min 0,000 mm 1,6 UV-I 491 W/m 5,1 C 0,0 C 45,1 km/h (6 Bft) 91,43 %
01.04.2018 15:15 9,2 C 6,7 C 74 % 1006,0 hPa 0,0 l/m 23,4 km/h (4 Bft) W-SW 252 1 min 0,000 mm 1,4 UV-I 413 W/m 4,8 C 1,2 C 30,6 km/h (5 Bft) 93,33 %
01.04.2018 15:16 9,1 C 6,7 C 75 % 1005,9 hPa 0,0 l/m 17,1 km/h (3 Bft) W-SW 249 0 min 0,000 mm 1,4 UV-I 328 W/m 4,9 C 3,2 C 25,7 km/h (4 Bft) 100,00 %
01.04.2018 15:17 9,0 C 6,7 C 75 % 1005,8 hPa 0,0 l/m 18,1 km/h (3 Bft) W-SW 242 1 min 0,000 mm 1,3 UV-I 353 W/m 4,8 C 2,7 C 25,7 km/h (4 Bft) 86,67 %
01.04.2018 15:18 9,0 C 6,7 C 76 % 1005,8 hPa 0,0 l/m 17,3 km/h (3 Bft) W-SW 246 1 min 0,000 mm 1,3 UV-I 353 W/m 5,0 C 3,0 C 20,9 km/h (4 Bft) 100,00 %
01.04.2018 15:19 8,9 C 6,7 C 77 % 1005,9 hPa 0,0 l/m 20,5 km/h (4 Bft) W 259 0 min 0,000 mm 1,2 UV-I 313 W/m 5,1 C 1,7 C 29,0 km/h (5 Bft) 100,00 %
01.04.2018 15:20 8,9 C 6,7 C 76 % 1005,9 hPa 0,0 l/m 24,1 km/h (4 Bft) W-SW 254 0 min 0,000 mm 1,0 UV-I 285 W/m 4,9 C 0,6 C 27,4 km/h (4 Bft) 97,73 %
01.04.2018 15:21 8,9 C 6,7 C 76 % 1005,9 hPa 0,0 l/m 20,5 km/h (4 Bft) W-SW 244 0 min 0,000 mm 1,0 UV-I 280 W/m 4,9 C 1,7 C 25,7 km/h (4 Bft) 91,67 %
01.04.2018 15:22 8,8 C 6,7 C 76 % 1006,0 hPa 0,0 l/m 20,7 km/h (4 Bft) SW 236 0 min 0,000 mm 1,1 UV-I 302 W/m 4,8 C 1,5 C 30,6 km/h (5 Bft) 100,00 %
01.04.2018 15:23 8,8 C 6,7 C 77 % 1005,9 hPa 0,0 l/m 16,0 km/h (3 Bft) W-SW 246 0 min 0,000 mm 1,2 UV-I 305 W/m 5,0 C 3,3 C 22,5 km/h (4 Bft) 91,67 %
01.04.2018 15:24 8,9 C 6,7 C 77 % 1005,8 hPa 0,0 l/m 21,4 km/h (4 Bft) W 269 0 min 0,000 mm 1,0 UV-I 288 W/m 5,1 C 1,4 C 33,8 km/h (5 Bft) 95,65 %
01.04.2018 15:25 8,9 C 6,7 C 76 % 1005,9 hPa 0,0 l/m 23,3 km/h (4 Bft) W 262 0 min 0,000 mm 0,9 UV-I 275 W/m 4,9 C 0,8 C 32,2 km/h (5 Bft) 100,00 %
01.04.2018 15:26 8,8 C 6,7 C 75 % 1005,8 hPa 0,0 l/m 25,3 km/h (4 Bft) W-SW 248 0 min 0,000 mm 0,9 UV-I 266 W/m 4,6 C 0,1 C 35,4 km/h (5 Bft) 96,15 %
01.04.2018 15:27 8,8 C 6,7 C 75 % 1005,9 hPa 0,0 l/m 26,3 km/h (4 Bft) W-SW 240 0 min 0,000 mm 0,7 UV-I 236 W/m 4,6 C -0,1 C 37,0 km/h (5 Bft) 100,00 %
01.04.2018 15:28 8,8 C 6,7 C 75 % 1005,9 hPa 0,0 l/m 25,3 km/h (4 Bft) W 263 0 min 0,000 mm 0,8 UV-I 243 W/m 4,6 C 0,1 C 33,8 km/h (5 Bft) 92,31 %
01.04.2018 15:29 8,9 C 6,7 C 75 % 1005,9 hPa 0,0 l/m 19,9 km/h (4 Bft) W-SW 252 0 min 0,000 mm 1,3 UV-I 243 W/m 4,7 C 1,9 C 33,8 km/h (5 Bft) 92,59 %
01.04.2018 15:30 9,0 C 6,7 C 75 % 1005,9 hPa 0,0 l/m 21,7 km/h (4 Bft) W-NW 287 0 min 0,000 mm 1,2 UV-I 243 W/m 4,8 C 1,4 C 27,4 km/h (4 Bft) 100,00 %
01.04.2018 15:31 9,2 C 6,7 C 74 % 1005,9 hPa 0,0 l/m 21,2 km/h (4 Bft) W-NW 300 1 min 0,000 mm 1,3 UV-I 701 W/m 4,8 C 1,9 C 29,0 km/h (5 Bft) 96,55 %
01.04.2018 15:33 9,6 C 6,7 C 74 % 1005,8 hPa 0,0 l/m 28,6 km/h (4 Bft) SW 234 2 min 0,000 mm 1,4 UV-I 763 W/m 5,2 C 0,4 C 35,4 km/h (5 Bft) 100,00 %
01.04.2018 15:34 9,7 C 6,7 C 72 % 1005,8 hPa 0,0 l/m 30,1 km/h (5 Bft) W 271 1 min 0,000 mm 1,5 UV-I 767 W/m 4,9 C 0,2 C 45,1 km/h (6 Bft) 100,00 %
01.04.2018 15:35 9,8 C 6,7 C 72 % 1005,9 hPa 0,0 l/m 23,5 km/h (4 Bft) W-SW 253 1 min 0,000 mm 1,4 UV-I 793 W/m 5,0 C 2,0 C 32,2 km/h (5 Bft) 95,65 %
01.04.2018 15:36 9,8 C 6,7 C 71 % 1005,8 hPa 0,0 l/m 26,2 km/h (4 Bft) W-SW 246 1 min 0,000 mm 0,9 UV-I 793 W/m 4,8 C 1,3 C 38,6 km/h (5 Bft) 100,00 %
01.04.2018 15:38 9,8 C 6,7 C 70 % 1005,8 hPa 0,0 l/m 28,8 km/h (4 Bft) W 279 0 min 0,000 mm 0,8 UV-I 241 W/m 4,6 C 0,6 C 37,0 km/h (5 Bft) 100,00 %
01.04.2018 15:39 9,7 C 6,7 C 69 % 1005,9 hPa 0,0 l/m 36,5 km/h (5 Bft) W-NW 288 0 min 0,000 mm 0,7 UV-I 176 W/m 4,3 C -1,0 C 49,9 km/h (6 Bft) 100,00 %
01.04.2018 15:40 9,7 C 6,7 C 68 % 1005,8 hPa 0,0 l/m 37,3 km/h (5 Bft) W 276 0 min 0,000 mm 0,5 UV-I 149 W/m 4,1 C -1,1 C 51,5 km/h (7 Bft) 100,00 %
01.04.2018 15:41 9,5 C 6,7 C 67 % 1005,9 hPa 0,0 l/m 34,5 km/h (5 Bft) W 260 0 min 0,000 mm 0,4 UV-I 123 W/m 3,7 C -0,9 C 46,7 km/h (6 Bft) 100,00 %
01.04.2018 15:42 9,4 C 6,7 C 68 % 1005,8 hPa 0,0 l/m 31,0 km/h (5 Bft) W 266 0 min 0,000 mm 0,0 UV-I 93 W/m 3,8 C -0,4 C 48,3 km/h (6 Bft) 100,00 %
01.04.2018 15:43 9,3 C 6,7 C 68 % 1006,0 hPa 0,0 l/m 34,5 km/h (5 Bft) W 275 0 min 0,000 mm 0,0 UV-I 74 W/m 3,7 C -1,2 C 51,5 km/h (7 Bft) 96,15 %
01.04.2018 15:44 9,2 C 6,7 C 68 % 1005,9 hPa 0,0 l/m 43,1 km/h (6 Bft) W-NW 282 0 min 0,000 mm 0,0 UV-I 56 W/m 3,6 C -2,7 C 59,5 km/h (7 Bft) 100,00 %
01.04.2018 15:45 9,1 C 6,7 C 68 % 1006,0 hPa 0,0 l/m 38,8 km/h (5 Bft) W 266 0 min 0,000 mm 0,0 UV-I 41 W/m 3,5 C -2,3 C 51,5 km/h (7 Bft) 100,00 %
01.04.2018 15:46 8,9 C 6,7 C 71 % 1006,2 hPa 0,0 l/m 36,2 km/h (5 Bft) W 273 0 min 0,000 mm 0,0 UV-I 39 W/m 3,9 C -2,1 C 48,3 km/h (6 Bft) 100,00 %
01.04.2018 15:47 8,6 C 6,7 C 73 % 1006,5 hPa 0,0 l/m 43,5 km/h (6 Bft) W 267 0 min 0,000 mm 0,0 UV-I 42 W/m 4,0 C -3,7 C 59,5 km/h (7 Bft) 100,00 %
01.04.2018 15:48 8,2 C 6,7 C 75 % 1006,5 hPa 0,0 l/m 38,0 km/h (5 Bft) NW 311 0 min 0,000 mm 0,0 UV-I 47 W/m 4,0 C -3,5 C 54,7 km/h (7 Bft) 100,00 %
01.04.2018 15:49 7,8 C 6,7 C 76 % 1006,5 hPa 0,0 l/m 29,1 km/h (5 Bft) W 267 0 min 0,000 mm 0,0 UV-I 56 W/m 3,8 C -2,2 C 45,1 km/h (6 Bft) 100,00 %
01.04.2018 15:50 7,3 C 6,7 C 78 % 1006,4 hPa 0,2 l/m 28,3 km/h (4 Bft) W-SW 238 0 min 0,000 mm 0,0 UV-I 80 W/m 3,7 C -2,7 C 41,8 km/h (6 Bft) 91,67 %
01.04.2018 15:51 7,1 C 6,7 C 79 % 1006,2 hPa 0,0 l/m 34,3 km/h (5 Bft) W-SW 243 0 min 0,000 mm 0,0 UV-I 121 W/m 3,7 C -4,4 C 53,1 km/h (7 Bft) 96,30 %
01.04.2018 15:52 6,8 C 6,7 C 79 % 1006,2 hPa 0,0 l/m 20,0 km/h (4 Bft) W-SW 247 0 min 0,000 mm 0,6 UV-I 179 W/m 3,4 C -0,8 C 29,0 km/h (5 Bft) 100,00 %
01.04.2018 15:53 6,7 C 6,7 C 82 % 1006,2 hPa 0,0 l/m 19,9 km/h (4 Bft) W-SW 246 0 min 0,000 mm 0,8 UV-I 225 W/m 3,8 C -0,9 C 24,1 km/h (4 Bft) 100,00 %
01.04.2018 15:54 6,7 C 6,7 C 82 % 1006,3 hPa 0,0 l/m 24,5 km/h (4 Bft) W 260 1 min 0,000 mm 0,9 UV-I 321 W/m 3,8 C -2,5 C 29,0 km/h (5 Bft) 100,00 %
01.04.2018 15:55 6,7 C 6,7 C 82 % 1006,3 hPa 0,0 l/m 22,4 km/h (4 Bft) W 265 1 min 0,000 mm 0,8 UV-I 385 W/m 3,8 C -1,8 C 27,4 km/h (4 Bft) 100,00 %
01.04.2018 15:56 6,7 C 6,7 C 83 % 1006,4 hPa 0,0 l/m 17,7 km/h (3 Bft) W 273 0 min 0,000 mm 0,6 UV-I 199 W/m 4,0 C -0,1 C 25,7 km/h (4 Bft) 100,00 %
01.04.2018 15:57 6,7 C 6,7 C 83 % 1006,4 hPa 0,0 l/m 21,2 km/h (4 Bft) W 263 0 min 0,000 mm 0,1 UV-I 129 W/m 4,0 C -1,4 C 29,0 km/h (5 Bft) 100,00 %
01.04.2018 15:58 6,8 C 6,7 C 83 % 1006,4 hPa 0,0 l/m 33,2 km/h (5 Bft) W 262 0 min 0,000 mm 0,0 UV-I 122 W/m 4,1 C -4,6 C 43,5 km/h (6 Bft) 100,00 %
01.04.2018 15:59 6,7 C 6,7 C 82 % 1006,4 hPa 0,0 l/m 26,8 km/h (4 Bft) W 262 0 min 0,000 mm 0,2 UV-I 145 W/m 3,8 C -3,2 C 38,6 km/h (5 Bft) 100,00 %
01.04.2018 16:00 6,7 C 6,7 C 82 % 1006,4 hPa 0,0 l/m 29,9 km/h (5 Bft) W 263 0 min 0,000 mm 0,6 UV-I 170 W/m 3,8 C -4,0 C 43,5 km/h (6 Bft) 100,00 %
01.04.2018 16:01 6,7 C 6,7 C 82 % 1006,5 hPa 0,0 l/m 24,9 km/h (4 Bft) W 264 0 min 0,228 mm 0,6 UV-I 196 W/m 3,8 C -2,6 C 33,8 km/h (5 Bft) 100,00 %
01.04.2018 16:02 6,7 C 6,7 C 82 % 1006,4 hPa 0,0 l/m 30,0 km/h (5 Bft) W 279 0 min 0,000 mm 0,7 UV-I 230 W/m 3,8 C -4,0 C 49,9 km/h (6 Bft) 100,00 %
01.04.2018 16:03 6,8 C 6,7 C 82 % 1006,4 hPa 0,0 l/m 24,1 km/h (4 Bft) W-NW 299 0 min 0,000 mm 1,0 UV-I 294 W/m 3,9 C -2,2 C 35,4 km/h (5 Bft) 100,00 %
01.04.2018 16:04 6,8 C 6,7 C 82 % 1006,5 hPa 0,0 l/m 29,8 km/h (5 Bft) W 263 1 min 0,000 mm 1,2 UV-I 413 W/m 3,9 C -3,8 C 43,5 km/h (6 Bft) 100,00 %
01.04.2018 16:05 6,9 C 6,7 C 82 % 1006,5 hPa 0,0 l/m 17,7 km/h (3 Bft) W 278 1 min 0,000 mm 1,3 UV-I 413 W/m 4,0 C 0,2 C 27,4 km/h (4 Bft) 100,00 %
01.04.2018 16:06 7,1 C 6,7 C 83 % 1006,5 hPa 0,0 l/m 22,2 km/h (4 Bft) W-SW 258 1 min 0,000 mm 1,3 UV-I 434 W/m 4,4 C -1,2 C 29,0 km/h (5 Bft) 100,00 %
01.04.2018 16:07 7,3 C 6,7 C 83 % 1006,4 hPa 0,0 l/m 16,0 km/h (3 Bft) W 278 1 min 0,000 mm 1,3 UV-I 443 W/m 4,6 C 1,4 C 24,1 km/h (4 Bft) 100,00 %
01.04.2018 16:08 7,4 C 6,7 C 82 % 1006,4 hPa 0,0 l/m 15,0 km/h (3 Bft) W 270 1 min 0,000 mm 1,2 UV-I 557 W/m 4,5 C 2,0 C 25,7 km/h (4 Bft) 100,00 %
01.04.2018 16:09 7,6 C 6,7 C 82 % 1006,4 hPa 0,0 l/m 19,7 km/h (3 Bft) W-NW 300 1 min 0,000 mm 1,2 UV-I 557 W/m 4,7 C 0,3 C 24,1 km/h (4 Bft) 93,33 %
01.04.2018 16:10 7,7 C 6,7 C 82 % 1006,4 hPa 0,0 l/m 16,7 km/h (3 Bft) W 271 1 min 0,000 mm 1,2 UV-I 557 W/m 4,8 C 1,6 C 20,9 km/h (4 Bft) 96,67 %
01.04.2018 16:11 7,7 C 6,7 C 80 % 1006,5 hPa 0,0 l/m 24,1 km/h (4 Bft) NW 318 1 min 0,000 mm 1,1 UV-I 557 W/m 4,5 C -1,0 C 32,2 km/h (5 Bft) 96,15 %
01.04.2018 16:12 7,7 C 6,7 C 80 % 1006,4 hPa 0,0 l/m 18,6 km/h (3 Bft) W 260 1 min 0,000 mm 1,1 UV-I 557 W/m 4,5 C 0,8 C 24,1 km/h (4 Bft) 100,00 %
01.04.2018 16:13 7,8 C 6,7 C 80 % 1006,5 hPa 0,0 l/m 16,2 km/h (3 Bft) W 267 1 min 0,000 mm 1,2 UV-I 557 W/m 4,6 C 1,9 C 20,9 km/h (4 Bft) 95,65 %
01.04.2018 16:14 7,9 C 6,7 C 80 % 1006,5 hPa 0,0 l/m 13,5 km/h (3 Bft) W 269 1 min 0,000 mm 1,2 UV-I 517 W/m 4,7 C 3,3 C 20,9 km/h (4 Bft) 100,00 %
01.04.2018 16:15 7,9 C 6,7 C 80 % 1006,5 hPa 0,0 l/m 20,1 km/h (4 Bft) W 264 1 min 0,000 mm 0,9 UV-I 443 W/m 4,7 C 0,5 C 29,0 km/h (5 Bft) 95,65 %
01.04.2018 16:16 8,0 C 6,7 C 79 % 1006,5 hPa 0,0 l/m 23,6 km/h (4 Bft) W-NW 287 0 min 0,000 mm 1,0 UV-I 176 W/m 4,6 C -0,5 C 29,0 km/h (5 Bft) 96,30 %
01.04.2018 16:17 7,9 C 6,7 C 79 % 1006,4 hPa 0,0 l/m 18,9 km/h (3 Bft) W 271 0 min 0,000 mm 0,9 UV-I 180 W/m 4,5 C 1,0 C 24,1 km/h (4 Bft) 100,00 %
01.04.2018 16:18 7,9 C 6,7 C 78 % 1006,5 hPa 0,0 l/m 15,0 km/h (3 Bft) W 263 0 min 0,000 mm 1,0 UV-I 193 W/m 4,3 C 2,6 C 17,7 km/h (3 Bft) 93,10 %
01.04.2018 16:19 7,9 C 6,7 C 78 % 1006,5 hPa 0,0 l/m 20,8 km/h (4 Bft) W-SW 255 0 min 0,000 mm 0,9 UV-I 167 W/m 4,3 C 0,3 C 29,0 km/h (5 Bft) 100,00 %
01.04.2018 16:20 7,9 C 6,7 C 78 % 1006,4 hPa 0,0 l/m 14,6 km/h (3 Bft) W-SW 249 0 min 0,000 mm 0,9 UV-I 162 W/m 4,3 C 2,8 C 22,5 km/h (4 Bft) 88,89 %
01.04.2018 16:21 7,8 C 6,7 C 78 % 1006,3 hPa 0,0 l/m 18,7 km/h (3 Bft) W 271 0 min 0,000 mm 0,7 UV-I 152 W/m 4,2 C 0,9 C 25,7 km/h (4 Bft) 100,00 %
01.04.2018 16:22 7,8 C 6,7 C 78 % 1006,3 hPa 0,0 l/m 18,2 km/h (3 Bft) W 264 0 min 0,000 mm 0,7 UV-I 125 W/m 4,2 C 1,1 C 25,7 km/h (4 Bft) 96,30 %
01.04.2018 16:23 7,8 C 6,7 C 78 % 1006,4 hPa 0,0 l/m 24,7 km/h (4 Bft) W 267 0 min 0,000 mm 0,7 UV-I 115 W/m 4,2 C -1,1 C 30,6 km/h (5 Bft) 100,00 %
01.04.2018 16:24 7,8 C 6,7 C 77 % 1006,4 hPa 0,0 l/m 23,1 km/h (4 Bft) W 260 0 min 0,000 mm 0,6 UV-I 111 W/m 4,0 C -0,6 C 32,2 km/h (5 Bft) 96,88 %
01.04.2018 16:25 7,8 C 6,7 C 77 % 1006,4 hPa 0,0 l/m 21,8 km/h (4 Bft) W-SW 254 0 min 0,000 mm 0,5 UV-I 147 W/m 4,0 C -0,2 C 29,0 km/h (5 Bft) 100,00 %
01.04.2018 16:26 7,9 C 6,7 C 78 % 1006,4 hPa 0,0 l/m 19,2 km/h (3 Bft) W-SW 237 0 min 0,000 mm 0,6 UV-I 202 W/m 4,3 C 0,9 C 27,4 km/h (4 Bft) 96,15 %
01.04.2018 16:27 7,9 C 6,7 C 78 % 1006,4 hPa 0,0 l/m 18,8 km/h (3 Bft) W 271 0 min 0,000 mm 0,7 UV-I 265 W/m 4,3 C 1,0 C 25,7 km/h (4 Bft) 96,67 %
01.04.2018 16:28 8,0 C 6,7 C 78 % 1006,3 hPa 0,0 l/m 21,6 km/h (4 Bft) W 276 0 min 0,000 mm 0,8 UV-I 258 W/m 4,4 C 0,2 C 29,0 km/h (5 Bft) 100,00 %
01.04.2018 16:29 8,1 C 6,7 C 76 % 1006,4 hPa 0,0 l/m 30,2 km/h (5 Bft) W 270 0 min 0,000 mm 0,8 UV-I 189 W/m 4,1 C -2,1 C 41,8 km/h (6 Bft) 100,00 %
01.04.2018 16:30 8,2 C 6,7 C 75 % 1006,3 hPa 0,0 l/m 32,8 km/h (5 Bft) W 269 0 min 0,000 mm 0,9 UV-I 149 W/m 4,0 C -2,5 C 48,3 km/h (6 Bft) 96,55 %
01.04.2018 16:31 8,3 C 6,7 C 75 % 1006,4 hPa 0,0 l/m 30,9 km/h (5 Bft) W 259 1 min 0,000 mm 0,8 UV-I 485 W/m 4,1 C -1,9 C 45,1 km/h (6 Bft) 96,67 %
01.04.2018 16:32 8,4 C 6,7 C 74 % 1006,4 hPa 0,0 l/m 34,8 km/h (5 Bft) W 259 1 min 0,000 mm 1,0 UV-I 480 W/m 4,0 C -2,6 C 48,3 km/h (6 Bft) 100,00 %
01.04.2018 16:33 8,4 C 6,7 C 73 % 1006,3 hPa 0,0 l/m 30,3 km/h (5 Bft) W-SW 246 1 min 0,000 mm 1,0 UV-I 460 W/m 3,8 C -1,7 C 38,6 km/h (5 Bft) 91,67 %
01.04.2018 16:34 8,5 C 6,7 C 73 % 1006,2 hPa 0,0 l/m 31,5 km/h (5 Bft) W-SW 246 1 min 0,000 mm 1,0 UV-I 468 W/m 3,9 C -1,8 C 43,5 km/h (6 Bft) 95,65 %
01.04.2018 16:35 8,5 C 6,7 C 71 % 1006,2 hPa 0,0 l/m 24,5 km/h (4 Bft) W-SW 258 1 min 0,000 mm 0,8 UV-I 469 W/m 3,5 C -0,1 C 32,2 km/h (5 Bft) 93,33 %
01.04.2018 16:36 8,5 C 6,7 C 72 % 1006,2 hPa 0,0 l/m 16,8 km/h (3 Bft) W-SW 254 0 min 0,000 mm 0,7 UV-I 178 W/m 3,7 C 2,5 C 20,9 km/h (4 Bft) 100,00 %
01.04.2018 16:37 8,5 C 6,7 C 73 % 1006,2 hPa 0,0 l/m 18,7 km/h (3 Bft) W-NW 286 0 min 0,000 mm 0,8 UV-I 112 W/m 3,9 C 1,8 C 30,6 km/h (5 Bft) 96,30 %
01.04.2018 16:38 8,4 C 6,7 C 73 % 1006,3 hPa 0,0 l/m 26,6 km/h (4 Bft) W-SW 245 0 min 0,000 mm 0,8 UV-I 171 W/m 3,8 C -0,8 C 35,4 km/h (5 Bft) 96,15 %
01.04.2018 16:39 8,4 C 6,7 C 72 % 1006,3 hPa 0,0 l/m 27,5 km/h (4 Bft) W-NW 286 0 min 0,000 mm 0,8 UV-I 217 W/m 3,7 C -1,0 C 37,0 km/h (5 Bft) 100,00 %
01.04.2018 16:40 8,4 C 6,7 C 72 % 1006,4 hPa 0,0 l/m 25,7 km/h (4 Bft) W 280 0 min 0,000 mm 0,9 UV-I 220 W/m 3,7 C -0,5 C 33,8 km/h (5 Bft) 96,67 %
01.04.2018 16:41 8,4 C 6,7 C 72 % 1006,4 hPa 0,0 l/m 34,5 km/h (5 Bft) NW 306 0 min 0,000 mm 0,8 UV-I 220 W/m 3,7 C -2,5 C 45,1 km/h (6 Bft) 100,00 %
01.04.2018 16:42 8,4 C 6,7 C 72 % 1006,3 hPa 0,0 l/m 21,1 km/h (4 Bft) S-SW 211 1 min 0,000 mm 0,7 UV-I 262 W/m 3,7 C 0,8 C 30,6 km/h (5 Bft) 91,67 %
01.04.2018 16:43 8,4 C 6,7 C 72 % 1006,4 hPa 0,0 l/m 20,9 km/h (4 Bft) SW 233 0 min 0,000 mm 0,8 UV-I 212 W/m 3,7 C 0,9 C 27,4 km/h (4 Bft) 100,00 %
01.04.2018 16:44 8,4 C 6,7 C 73 % 1006,4 hPa 0,0 l/m 27,8 km/h (4 Bft) W-NW 284 0 min 0,000 mm 0,7 UV-I 151 W/m 3,8 C -1,1 C 33,8 km/h (5 Bft) 96,30 %
01.04.2018 16:45 8,3 C 6,7 C 72 % 1006,4 hPa 0,0 l/m 21,1 km/h (4 Bft) W 260 0 min 0,000 mm 0,7 UV-I 126 W/m 3,6 C 0,7 C 35,4 km/h (5 Bft) 100,00 %
01.04.2018 16:46 8,3 C 6,7 C 73 % 1006,4 hPa 0,0 l/m 13,7 km/h (3 Bft) W-SW 248 0 min 0,000 mm 0,7 UV-I 133 W/m 3,8 C 3,7 C 17,7 km/h (3 Bft) 95,83 %
01.04.2018 16:47 8,3 C 6,7 C 74 % 1006,4 hPa 0,0 l/m 11,4 km/h (2 Bft) W 271 0 min 0,000 mm 0,7 UV-I 153 W/m 3,9 C 4,9 C 14,5 km/h (3 Bft) 100,00 %
01.04.2018 16:48 8,3 C 6,7 C 74 % 1006,5 hPa 0,0 l/m 20,1 km/h (4 Bft) W 259 0 min 0,000 mm 0,7 UV-I 164 W/m 3,9 C 1,1 C 27,4 km/h (4 Bft) 96,30 %
01.04.2018 16:49 8,3 C 6,7 C 74 % 1006,5 hPa 0,0 l/m 19,6 km/h (3 Bft) W 267 0 min 0,000 mm 0,7 UV-I 179 W/m 3,9 C 1,2 C 25,7 km/h (4 Bft) 100,00 %
01.04.2018 16:50 8,3 C 6,7 C 74 % 1006,5 hPa 0,0 l/m 14,5 km/h (3 Bft) W 269 1 min 0,000 mm 0,8 UV-I 264 W/m 3,9 C 3,3 C 17,7 km/h (3 Bft) 96,30 %
01.04.2018 16:51 8,4 C 6,7 C 74 % 1006,5 hPa 0,0 l/m 16,3 km/h (3 Bft) W-SW 257 1 min 0,000 mm 0,8 UV-I 355 W/m 4,0 C 2,6 C 20,9 km/h (4 Bft) 96,15 %
01.04.2018 16:52 8,6 C 6,7 C 75 % 1006,4 hPa 0,0 l/m 13,4 km/h (3 Bft) W-SW 253 1 min 0,000 mm 0,8 UV-I 517 W/m 4,4 C 4,2 C 17,7 km/h (3 Bft) 100,00 %
01.04.2018 16:53 8,7 C 6,7 C 75 % 1006,4 hPa 0,0 l/m 13,4 km/h (3 Bft) W 272 1 min 0,000 mm 0,8 UV-I 529 W/m 4,5 C 4,3 C 16,1 km/h (3 Bft) 96,55 %
01.04.2018 16:54 8,9 C 6,7 C 75 % 1006,5 hPa 0,0 l/m 19,5 km/h (3 Bft) W-SW 247 1 min 0,000 mm 0,9 UV-I 533 W/m 4,7 C 2,0 C 27,4 km/h (4 Bft) 100,00 %
01.04.2018 16:55 9,1 C 6,7 C 74 % 1006,5 hPa 0,0 l/m 23,3 km/h (4 Bft) W 265 1 min 0,000 mm 0,9 UV-I 533 W/m 4,7 C 1,1 C 27,4 km/h (4 Bft) 96,88 %
01.04.2018 16:56 9,2 C 6,7 C 73 % 1006,4 hPa 0,0 l/m 14,7 km/h (3 Bft) W 259 1 min 0,000 mm 0,9 UV-I 533 W/m 4,6 C 4,3 C 19,3 km/h (3 Bft) 95,83 %
01.04.2018 16:58 9,2 C 6,7 C 73 % 1006,4 hPa 0,0 l/m 16,6 km/h (3 Bft) W-SW 246 0 min 0,000 mm 0,6 UV-I 218 W/m 4,6 C 3,5 C 25,7 km/h (4 Bft) 98,00 %
01.04.2018 16:59 9,1 C 6,7 C 73 % 1006,4 hPa 0,0 l/m 21,8 km/h (4 Bft) W-NW 282 0 min 0,000 mm 0,5 UV-I 124 W/m 4,5 C 1,5 C 33,8 km/h (5 Bft) 91,67 %
01.04.2018 17:00 9,1 C 6,7 C 72 % 1006,3 hPa 0,0 l/m 20,8 km/h (4 Bft) W-SW 244 0 min 0,000 mm 0,5 UV-I 112 W/m 4,3 C 1,9 C 29,0 km/h (5 Bft) 96,15 %
01.04.2018 17:01 9,0 C 6,7 C 73 % 1006,4 hPa 0,0 l/m 21,0 km/h (4 Bft) W 270 0 min 0,178 mm 0,5 UV-I 104 W/m 4,4 C 1,7 C 32,2 km/h (5 Bft) 91,67 %
01.04.2018 17:02 8,9 C 6,7 C 72 % 1006,4 hPa 0,0 l/m 21,8 km/h (4 Bft) W-NW 300 0 min 0,000 mm 0,0 UV-I 110 W/m 4,1 C 1,3 C 38,6 km/h (5 Bft) 96,88 %
01.04.2018 17:03 8,9 C 6,7 C 71 % 1006,4 hPa 0,0 l/m 19,1 km/h (3 Bft) W-SW 258 0 min 0,000 mm 0,0 UV-I 120 W/m 3,9 C 2,2 C 30,6 km/h (5 Bft) 96,30 %
01.04.2018 17:04 8,8 C 6,7 C 71 % 1006,3 hPa 0,0 l/m 26,2 km/h (4 Bft) W 267 0 min 0,000 mm 0,0 UV-I 123 W/m 3,8 C -0,1 C 33,8 km/h (5 Bft) 94,12 %
01.04.2018 17:05 8,8 C 6,7 C 71 % 1006,4 hPa 0,0 l/m 19,3 km/h (3 Bft) W-NW 283 0 min 0,000 mm 0,0 UV-I 130 W/m 3,8 C 2,0 C 27,4 km/h (4 Bft) 96,30 %
01.04.2018 17:06 8,8 C 6,7 C 71 % 1006,3 hPa 0,0 l/m 22,0 km/h (4 Bft) W 268 0 min 0,000 mm 0,0 UV-I 121 W/m 3,8 C 1,1 C 32,2 km/h (5 Bft) 94,12 %
01.04.2018 17:07 8,8 C 6,7 C 71 % 1006,3 hPa 0,0 l/m 23,0 km/h (4 Bft) W 279 0 min 0,000 mm 0,0 UV-I 114 W/m 3,8 C 0,8 C 33,8 km/h (5 Bft) 96,30 %
01.04.2018 17:08 8,8 C 6,7 C 70 % 1006,4 hPa 0,0 l/m 26,1 km/h (4 Bft) W-SW 255 0 min 0,000 mm 0,0 UV-I 123 W/m 3,6 C -0,1 C 35,4 km/h (5 Bft) 84,62 %
01.04.2018 17:09 8,8 C 6,7 C 70 % 1006,4 hPa 0,0 l/m 20,2 km/h (4 Bft) W-NW 286 0 min 0,000 mm 0,0 UV-I 136 W/m 3,6 C 1,7 C 29,0 km/h (5 Bft) 96,30 %
01.04.2018 17:10 8,8 C 6,7 C 70 % 1006,5 hPa 0,0 l/m 28,5 km/h (4 Bft) W 263 0 min 0,000 mm 0,0 UV-I 152 W/m 3,6 C -0,7 C 43,5 km/h (6 Bft) 95,65 %
01.04.2018 17:11 8,8 C 6,7 C 68 % 1006,4 hPa 0,0 l/m 18,1 km/h (3 Bft) W-NW 283 1 min 0,000 mm 0,3 UV-I 226 W/m 3,2 C 2,4 C 27,4 km/h (4 Bft) 95,83 %
01.04.2018 17:12 8,9 C 6,7 C 69 % 1006,5 hPa 0,0 l/m 19,8 km/h (3 Bft) W-SW 248 1 min 0,000 mm 0,5 UV-I 262 W/m 3,5 C 1,9 C 30,6 km/h (5 Bft) 91,67 %
01.04.2018 17:13 8,9 C 6,7 C 69 % 1006,5 hPa 0,0 l/m 22,0 km/h (4 Bft) W-NW 296 1 min 0,000 mm 0,5 UV-I 232 W/m 3,5 C 1,2 C 29,0 km/h (5 Bft) 96,55 %
01.04.2018 17:14 9,1 C 6,7 C 69 % 1006,5 hPa 0,0 l/m 26,6 km/h (4 Bft) W 275 1 min 0,000 mm 0,6 UV-I 319 W/m 3,7 C 0,2 C 38,6 km/h (5 Bft) 89,66 %
01.04.2018 17:15 9,2 C 6,7 C 69 % 1006,6 hPa 0,0 l/m 27,3 km/h (4 Bft) W-SW 247 1 min 0,000 mm 0,6 UV-I 478 W/m 3,8 C 0,2 C 38,6 km/h (5 Bft) 93,33 %
01.04.2018 17:16 9,1 C 6,7 C 69 % 1006,6 hPa 0,0 l/m 32,5 km/h (5 Bft) W-SW 242 1 min 0,000 mm 0,2 UV-I 243 W/m 3,7 C -1,1 C 46,7 km/h (6 Bft) 95,83 %
01.04.2018 17:17 8,9 C 6,7 C 69 % 1006,5 hPa 0,0 l/m 33,5 km/h (5 Bft) SW 220 0 min 0,000 mm 0,0 UV-I 121 W/m 3,5 C -1,6 C 46,7 km/h (6 Bft) 93,10 %
01.04.2018 17:18 8,7 C 6,7 C 71 % 1006,6 hPa 0,0 l/m 30,6 km/h (5 Bft) W-SW 257 0 min 0,000 mm 0,0 UV-I 123 W/m 3,7 C -1,3 C 41,8 km/h (6 Bft) 100,00 %
01.04.2018 17:19 8,3 C 6,7 C 71 % 1006,7 hPa 0,0 l/m 27,5 km/h (4 Bft) W 269 0 min 0,000 mm 0,0 UV-I 127 W/m 3,4 C -1,1 C 41,8 km/h (6 Bft) 88,46 %
01.04.2018 17:20 8,1 C 6,7 C 72 % 1006,8 hPa 0,0 l/m 28,1 km/h (4 Bft) SW 232 0 min 0,000 mm 0,0 UV-I 138 W/m 3,4 C -1,6 C 43,5 km/h (6 Bft) 100,00 %
01.04.2018 17:21 8,0 C 6,7 C 74 % 1006,7 hPa 0,0 l/m 29,2 km/h (5 Bft) SW 223 0 min 0,000 mm 0,2 UV-I 169 W/m 3,7 C -2,0 C 40,2 km/h (6 Bft) 88,46 %
01.04.2018 17:23 7,8 C 6,7 C 74 % 1006,8 hPa 0,0 l/m 30,2 km/h (5 Bft) W-SW 247 2 min 0,000 mm 0,5 UV-I 258 W/m 3,5 C -2,5 C 48,3 km/h (6 Bft) 96,00 %
01.04.2018 17:24 7,8 C 6,7 C 74 % 1006,8 hPa 0,0 l/m 32,8 km/h (5 Bft) W-SW 250 1 min 0,000 mm 0,6 UV-I 309 W/m 3,5 C -3,1 C 41,8 km/h (6 Bft) 100,00 %
01.04.2018 17:25 7,8 C 6,7 C 75 % 1006,8 hPa 0,0 l/m 31,4 km/h (5 Bft) W-SW 245 1 min 0,000 mm 0,6 UV-I 338 W/m 3,7 C -2,8 C 40,2 km/h (6 Bft) 96,15 %
01.04.2018 17:26 7,8 C 6,7 C 75 % 1006,9 hPa 0,0 l/m 30,6 km/h (5 Bft) SW 227 1 min 0,000 mm 0,5 UV-I 390 W/m 3,7 C -2,6 C 40,2 km/h (6 Bft) 96,30 %
01.04.2018 17:27 7,9 C 6,7 C 75 % 1006,9 hPa 0,0 l/m 29,0 km/h (5 Bft) W-SW 241 1 min 0,000 mm 0,5 UV-I 364 W/m 3,7 C -2,1 C 37,0 km/h (5 Bft) 100,00 %
01.04.2018 17:28 7,9 C 6,7 C 76 % 1006,9 hPa 0,0 l/m 31,6 km/h (5 Bft) W-SW 242 1 min 0,000 mm 0,5 UV-I 358 W/m 3,9 C -2,7 C 48,3 km/h (6 Bft) 100,00 %
01.04.2018 17:29 7,9 C 6,7 C 76 % 1006,8 hPa 0,0 l/m 31,9 km/h (5 Bft) SW 236 1 min 0,000 mm 0,5 UV-I 323 W/m 3,9 C -2,7 C 53,1 km/h (7 Bft) 100,00 %
01.04.2018 17:30 7,8 C 6,7 C 76 % 1006,9 hPa 0,0 l/m 36,8 km/h (5 Bft) SW 221 1 min 0,000 mm 0,1 UV-I 323 W/m 3,8 C -3,8 C 51,5 km/h (7 Bft) 96,15 %
01.04.2018 17:31 7,7 C 6,7 C 75 % 1006,9 hPa 0,0 l/m 27,7 km/h (4 Bft) W-SW 239 1 min 0,000 mm 0,0 UV-I 323 W/m 3,6 C -2,0 C 41,8 km/h (6 Bft) 100,00 %
01.04.2018 17:32 7,6 C 6,7 C 76 % 1006,9 hPa 0,0 l/m 29,7 km/h (5 Bft) W 261 1 min 0,000 mm 0,0 UV-I 323 W/m 3,6 C -2,6 C 37,0 km/h (5 Bft) 100,00 %
01.04.2018 17:33 7,6 C 6,7 C 77 % 1006,9 hPa 0,0 l/m 27,6 km/h (4 Bft) W-SW 258 1 min 0,000 mm 0,2 UV-I 341 W/m 3,8 C -2,1 C 37,0 km/h (5 Bft) 100,00 %
01.04.2018 17:34 7,6 C 6,7 C 77 % 1006,9 hPa 0,0 l/m 25,6 km/h (4 Bft) W 279 1 min 0,000 mm 0,5 UV-I 349 W/m 3,8 C -1,6 C 33,8 km/h (5 Bft) 100,00 %
01.04.2018 17:35 7,6 C 6,7 C 77 % 1006,8 hPa 0,0 l/m 25,7 km/h (4 Bft) W-SW 250 1 min 0,000 mm 0,2 UV-I 326 W/m 3,8 C -1,6 C 33,8 km/h (5 Bft) 100,00 %
01.04.2018 17:36 7,6 C 6,7 C 77 % 1006,8 hPa 0,0 l/m 20,8 km/h (4 Bft) W-SW 254 1 min 0,000 mm 0,0 UV-I 322 W/m 3,8 C -0,1 C 27,4 km/h (4 Bft) 97,73 %
01.04.2018 17:37 7,6 C 6,7 C 77 % 1006,8 hPa 0,0 l/m 20,5 km/h (4 Bft) W 273 1 min 0,000 mm 0,0 UV-I 311 W/m 3,8 C 0,0 C 29,0 km/h (5 Bft) 100,00 %
01.04.2018 17:38 7,6 C 6,7 C 77 % 1006,8 hPa 0,0 l/m 20,1 km/h (4 Bft) W 261 1 min 0,000 mm 0,0 UV-I 299 W/m 3,8 C 0,2 C 29,0 km/h (5 Bft) 100,00 %
01.04.2018 17:39 7,7 C 6,7 C 77 % 1006,9 hPa 0,0 l/m 24,2 km/h (4 Bft) W-SW 245 1 min 0,000 mm 0,0 UV-I 294 W/m 3,9 C -1,1 C 33,8 km/h (5 Bft) 100,00 %
01.04.2018 17:40 7,7 C 6,7 C 77 % 1006,9 hPa 0,0 l/m 21,0 km/h (4 Bft) W-SW 256 1 min 0,000 mm 0,0 UV-I 292 W/m 3,9 C -0,0 C 29,0 km/h (5 Bft) 100,00 %
01.04.2018 17:41 7,7 C 6,7 C 78 % 1006,9 hPa 0,0 l/m 21,3 km/h (4 Bft) W-SW 243 1 min 0,000 mm 0,0 UV-I 287 W/m 4,1 C -0,1 C 29,0 km/h (5 Bft) 96,67 %
01.04.2018 17:42 7,7 C 6,7 C 77 % 1006,9 hPa 0,0 l/m 16,8 km/h (3 Bft) SW 236 1 min 0,000 mm 0,0 UV-I 280 W/m 3,9 C 1,6 C 25,7 km/h (4 Bft) 97,86 %
01.04.2018 17:43 7,7 C 6,7 C 77 % 1006,9 hPa 0,0 l/m 19,9 km/h (4 Bft) SW 225 1 min 0,000 mm 0,0 UV-I 271 W/m 3,9 C 0,4 C 25,7 km/h (4 Bft) 100,00 %
01.04.2018 17:44 7,8 C 6,7 C 77 % 1007,0 hPa 0,0 l/m 22,5 km/h (4 Bft) W-SW 250 1 min 0,000 mm 0,0 UV-I 263 W/m 4,0 C -0,4 C 30,6 km/h (5 Bft) 95,65 %
01.04.2018 17:45 7,8 C 6,7 C 76 % 1007,0 hPa 0,0 l/m 27,5 km/h (4 Bft) S-SW 209 1 min 0,000 mm 0,0 UV-I 259 W/m 3,8 C -1,8 C 35,4 km/h (5 Bft) 100,00 %
01.04.2018 17:46 7,8 C 6,7 C 76 % 1007,0 hPa 0,0 l/m 22,2 km/h (4 Bft) SW 220 1 min 0,000 mm 0,0 UV-I 258 W/m 3,8 C -0,3 C 33,8 km/h (5 Bft) 100,00 %
01.04.2018 17:47 7,8 C 6,7 C 76 % 1007,0 hPa 0,0 l/m 23,3 km/h (4 Bft) W-SW 246 1 min 0,000 mm 0,0 UV-I 264 W/m 3,8 C -0,6 C 35,4 km/h (5 Bft) 100,00 %
01.04.2018 17:48 7,8 C 6,7 C 76 % 1007,1 hPa 0,0 l/m 21,1 km/h (4 Bft) W-SW 258 1 min 0,000 mm 0,0 UV-I 228 W/m 3,8 C 0,1 C 32,2 km/h (5 Bft) 100,00 %
01.04.2018 17:49 7,8 C 6,7 C 76 % 1007,1 hPa 0,0 l/m 23,1 km/h (4 Bft) W-SW 242 0 min 0,000 mm 0,0 UV-I 104 W/m 3,8 C -0,6 C 37,0 km/h (5 Bft) 100,00 %
01.04.2018 17:50 7,7 C 6,7 C 76 % 1007,2 hPa 0,0 l/m 26,7 km/h (4 Bft) SW 233 0 min 0,000 mm 0,0 UV-I 124 W/m 3,7 C -1,8 C 33,8 km/h (5 Bft) 100,00 %
01.04.2018 17:51 7,7 C 6,7 C 76 % 1007,2 hPa 0,0 l/m 21,6 km/h (4 Bft) W-SW 244 1 min 0,000 mm 0,0 UV-I 178 W/m 3,7 C -0,2 C 40,2 km/h (6 Bft) 100,00 %
01.04.2018 17:52 7,7 C 6,7 C 76 % 1007,1 hPa 0,0 l/m 26,9 km/h (4 Bft) S-SW 209 1 min 0,000 mm 0,0 UV-I 217 W/m 3,7 C -1,8 C 33,8 km/h (5 Bft) 100,00 %
01.04.2018 17:53 7,6 C 6,7 C 76 % 1007,3 hPa 0,0 l/m 32,0 km/h (5 Bft) W 273 1 min 0,000 mm 0,0 UV-I 171 W/m 3,6 C -3,2 C 41,8 km/h (6 Bft) 100,00 %
01.04.2018 17:54 7,6 C 6,7 C 75 % 1007,2 hPa 0,0 l/m 29,1 km/h (5 Bft) SW 220 0 min 0,000 mm 0,0 UV-I 141 W/m 3,5 C -2,5 C 41,8 km/h (6 Bft) 83,33 %
01.04.2018 17:55 7,5 C 6,7 C 75 % 1007,2 hPa 0,0 l/m 29,0 km/h (5 Bft) W-SW 241 0 min 0,000 mm 0,0 UV-I 113 W/m 3,4 C -2,6 C 43,5 km/h (6 Bft) 100,00 %
01.04.2018 17:56 7,4 C 6,7 C 76 % 1007,2 hPa 0,0 l/m 33,3 km/h (5 Bft) SW 234 0 min 0,000 mm 0,0 UV-I 90 W/m 3,5 C -3,7 C 45,1 km/h (6 Bft) 100,00 %
01.04.2018 17:57 7,3 C 6,7 C 76 % 1007,2 hPa 0,0 l/m 30,6 km/h (5 Bft) SW 229 0 min 0,000 mm 0,0 UV-I 90 W/m 3,4 C -3,3 C 37,0 km/h (5 Bft) 100,00 %
01.04.2018 17:58 7,3 C 6,7 C 76 % 1007,2 hPa 0,0 l/m 27,4 km/h (4 Bft) W 271 0 min 0,000 mm 0,0 UV-I 113 W/m 3,4 C -2,5 C 37,0 km/h (5 Bft) 100,00 %
01.04.2018 17:59 7,2 C 6,7 C 76 % 1007,2 hPa 0,0 l/m 27,5 km/h (4 Bft) W 265 0 min 0,000 mm 0,0 UV-I 120 W/m 3,3 C -2,7 C 40,2 km/h (6 Bft) 100,00 %
01.04.2018 18:00 7,2 C 6,7 C 76 % 1007,2 hPa 0,0 l/m 39,7 km/h (6 Bft) W 266 0 min 0,000 mm 0,0 UV-I 114 W/m 3,3 C -5,2 C 56,3 km/h (7 Bft) 100,00 %
01.04.2018 18:01 7,1 C 6,7 C 76 % 1007,1 hPa 0,0 l/m 32,5 km/h (5 Bft) W-SW 242 0 min 0,152 mm 0,0 UV-I 94 W/m 3,2 C -4,0 C 51,5 km/h (7 Bft) 96,15 %
01.04.2018 18:02 7,1 C 6,7 C 77 % 1007,2 hPa 0,0 l/m 29,1 km/h (5 Bft) W 280 0 min 0,000 mm 0,0 UV-I 79 W/m 3,3 C -3,2 C 35,4 km/h (5 Bft) 100,00 %
01.04.2018 18:03 7,1 C 6,7 C 77 % 1007,2 hPa 0,0 l/m 28,5 km/h (4 Bft) SW 229 0 min 0,000 mm 0,0 UV-I 65 W/m 3,3 C -3,1 C 41,8 km/h (6 Bft) 100,00 %
01.04.2018 18:04 6,9 C 6,7 C 77 % 1007,2 hPa 0,0 l/m 28,3 km/h (4 Bft) SW 220 0 min 0,000 mm 0,0 UV-I 54 W/m 3,2 C -3,3 C 38,6 km/h (5 Bft) 100,00 %
01.04.2018 18:05 6,9 C 6,7 C 77 % 1007,2 hPa 0,0 l/m 24,1 km/h (4 Bft) W-NW 297 0 min 0,000 mm 0,0 UV-I 47 W/m 3,2 C -2,1 C 33,8 km/h (5 Bft) 100,00 %
01.04.2018 18:06 6,8 C 6,7 C 77 % 1007,2 hPa 0,0 l/m 25,1 km/h (4 Bft) W-SW 241 0 min 0,000 mm 0,0 UV-I 49 W/m 3,1 C -2,5 C 33,8 km/h (5 Bft) 100,00 %
01.04.2018 18:07 6,8 C 6,7 C 78 % 1007,2 hPa 0,0 l/m 20,4 km/h (4 Bft) W-SW 249 0 min 0,000 mm 0,0 UV-I 53 W/m 3,2 C -1,0 C 29,0 km/h (5 Bft) 95,65 %
01.04.2018 18:08 6,8 C 6,7 C 78 % 1007,2 hPa 0,0 l/m 25,2 km/h (4 Bft) SW 231 0 min 0,000 mm 0,0 UV-I 52 W/m 3,2 C -2,6 C 37,0 km/h (5 Bft) 100,00 %
01.04.2018 18:09 6,7 C 6,7 C 78 % 1007,2 hPa 0,0 l/m 22,0 km/h (4 Bft) W-SW 242 0 min 0,000 mm 0,0 UV-I 46 W/m 3,1 C -1,7 C 37,0 km/h (5 Bft) 100,00 %
01.04.2018 18:10 6,7 C 6,7 C 79 % 1007,2 hPa 0,0 l/m 19,4 km/h (3 Bft) W 263 0 min 0,000 mm 0,0 UV-I 41 W/m 3,3 C -0,7 C 24,1 km/h (4 Bft) 100,00 %
01.04.2018 18:11 6,6 C 6,7 C 79 % 1007,2 hPa 0,0 l/m 21,0 km/h (4 Bft) W-SW 255 0 min 0,000 mm 0,0 UV-I 36 W/m 3,2 C -1,5 C 32,2 km/h (5 Bft) 100,00 %
01.04.2018 18:12 6,6 C 6,7 C 79 % 1007,3 hPa 0,0 l/m 28,2 km/h (4 Bft) W-SW 255 0 min 0,000 mm 0,0 UV-I 33 W/m 3,2 C -3,7 C 35,4 km/h (5 Bft) 100,00 %
01.04.2018 18:13 6,6 C 6,7 C 79 % 1007,3 hPa 0,0 l/m 23,0 km/h (4 Bft) W-SW 239 0 min 0,000 mm 0,0 UV-I 30 W/m 3,2 C -2,2 C 35,4 km/h (5 Bft) 95,65 %
01.04.2018 18:14 6,6 C 6,7 C 79 % 1007,5 hPa 0,0 l/m 22,8 km/h (4 Bft) W-NW 292 0 min 0,000 mm 0,0 UV-I 24 W/m 3,2 C -2,1 C 29,0 km/h (5 Bft) 100,00 %
01.04.2018 18:15 6,6 C 6,7 C 79 % 1007,4 hPa 0,0 l/m 28,6 km/h (4 Bft) W-NW 286 0 min 0,000 mm 0,0 UV-I 16 W/m 3,2 C -3,8 C 41,8 km/h (6 Bft) 100,00 %
01.04.2018 18:16 6,6 C 6,7 C 79 % 1007,5 hPa 0,0 l/m 27,8 km/h (4 Bft) W-SW 242 0 min 0,000 mm 0,0 UV-I 12 W/m 3,2 C -3,6 C 45,1 km/h (6 Bft) 100,00 %
01.04.2018 18:17 6,6 C 6,7 C 79 % 1007,6 hPa 0,0 l/m 25,1 km/h (4 Bft) W-NW 292 0 min 0,000 mm 0,0 UV-I 11 W/m 3,2 C -2,8 C 38,6 km/h (5 Bft) 100,00 %
01.04.2018 18:18 6,6 C 6,7 C 78 % 1007,6 hPa 0,0 l/m 28,0 km/h (4 Bft) W-SW 240 0 min 0,000 mm 0,0 UV-I 9 W/m 3,0 C -3,6 C 38,6 km/h (5 Bft) 96,15 %
01.04.2018 18:19 6,6 C 6,7 C 78 % 1007,6 hPa 0,0 l/m 28,1 km/h (4 Bft) W 268 0 min 0,000 mm 0,0 UV-I 8 W/m 3,0 C -3,6 C 45,1 km/h (6 Bft) 100,00 %
01.04.2018 18:20 6,7 C 6,7 C 78 % 1007,7 hPa 0,0 l/m 29,8 km/h (5 Bft) NW 317 0 min 0,000 mm 0,0 UV-I 7 W/m 3,1 C -3,9 C 45,1 km/h (6 Bft) 96,15 %
01.04.2018 18:21 6,7 C 6,7 C 78 % 1007,7 hPa 0,0 l/m 37,9 km/h (5 Bft) W 273 0 min 0,000 mm 0,0 UV-I 7 W/m 3,1 C -5,6 C 53,1 km/h (7 Bft) 100,00 %
01.04.2018 18:22 6,7 C 6,7 C 78 % 1007,9 hPa 0,0 l/m 29,7 km/h (5 Bft) W-NW 289 0 min 0,000 mm 0,0 UV-I 7 W/m 3,1 C -3,9 C 46,7 km/h (6 Bft) 100,00 %
01.04.2018 18:23 6,6 C 6,7 C 80 % 1008,1 hPa 0,2 l/m 27,6 km/h (4 Bft) W-NW 284 0 min 0,000 mm 0,0 UV-I 9 W/m 3,4 C -3,5 C 49,9 km/h (6 Bft) 100,00 %
01.04.2018 18:24 6,4 C 6,7 C 81 % 1008,0 hPa 0,0 l/m 25,5 km/h (4 Bft) W 277 0 min 0,000 mm 0,0 UV-I 9 W/m 3,4 C -3,2 C 49,9 km/h (6 Bft) 100,00 %
01.04.2018 18:25 6,2 C 6,7 C 82 % 1008,2 hPa 0,0 l/m 23,9 km/h (4 Bft) W 265 0 min 0,000 mm 0,0 UV-I 9 W/m 3,4 C -3,0 C 40,2 km/h (6 Bft) 100,00 %
01.04.2018 18:26 5,8 C 6,7 C 84 % 1008,4 hPa 0,2 l/m 21,7 km/h (4 Bft) W-NW 287 0 min 0,000 mm 0,0 UV-I 9 W/m 3,3 C -2,8 C 56,3 km/h (7 Bft) 95,65 %
01.04.2018 18:27 5,5 C 6,7 C 84 % 1008,4 hPa 0,0 l/m 33,9 km/h (5 Bft) W 280 0 min 0,000 mm 0,0 UV-I 9 W/m 3,0 C -6,6 C 56,3 km/h (7 Bft) 100,00 %
01.04.2018 18:28 5,2 C 6,7 C 85 % 1008,5 hPa 0,0 l/m 28,5 km/h (4 Bft) W 264 0 min 0,000 mm 0,0 UV-I 7 W/m 2,9 C -5,7 C 48,3 km/h (6 Bft) 100,00 %
01.04.2018 18:29 5,0 C 6,7 C 85 % 1008,5 hPa 0,2 l/m 28,1 km/h (4 Bft) W 271 0 min 0,000 mm 0,0 UV-I 7 W/m 2,7 C -5,9 C 41,8 km/h (6 Bft) 100,00 %
01.04.2018 18:30 4,8 C 6,7 C 86 % 1008,6 hPa 0,0 l/m 28,8 km/h (4 Bft) W 262 0 min 0,000 mm 0,0 UV-I 7 W/m 2,7 C -6,3 C 40,2 km/h (6 Bft) 100,00 %
01.04.2018 18:31 4,6 C 6,7 C 87 % 1008,6 hPa 0,0 l/m 27,9 km/h (4 Bft) W-NW 288 0 min 0,000 mm 0,0 UV-I 8 W/m 2,6 C -6,4 C 33,8 km/h (5 Bft) 100,00 %
01.04.2018 18:32 4,4 C 6,7 C 88 % 1008,5 hPa 0,0 l/m 22,2 km/h (4 Bft) W-SW 243 0 min 0,000 mm 0,0 UV-I 9 W/m 2,6 C -4,8 C 27,4 km/h (4 Bft) 100,00 %
01.04.2018 18:33 4,4 C 6,7 C 88 % 1008,3 hPa 0,2 l/m 23,6 km/h (4 Bft) W 275 0 min 0,000 mm 0,0 UV-I 10 W/m 2,6 C -5,3 C 30,6 km/h (5 Bft) 100,00 %
01.04.2018 18:34 4,3 C 6,7 C 89 % 1008,5 hPa 0,0 l/m 20,0 km/h (4 Bft) W 261 0 min 0,000 mm 0,0 UV-I 12 W/m 2,7 C -4,1 C 32,2 km/h (5 Bft) 100,00 %
01.04.2018 18:35 4,3 C 6,7 C 89 % 1008,5 hPa 0,0 l/m 16,0 km/h (3 Bft) W 272 0 min 0,000 mm 0,0 UV-I 14 W/m 2,7 C -2,3 C 29,0 km/h (5 Bft) 100,00 %
01.04.2018 18:36 4,2 C 6,7 C 90 % 1008,5 hPa 0,0 l/m 22,1 km/h (4 Bft) W 276 0 min 0,000 mm 0,0 UV-I 14 W/m 2,7 C -5,0 C 27,4 km/h (4 Bft) 100,00 %
01.04.2018 18:37 4,2 C 6,7 C 90 % 1008,5 hPa 0,0 l/m 14,2 km/h (3 Bft) W-NW 298 0 min 0,000 mm 0,0 UV-I 14 W/m 2,7 C -1,5 C 20,9 km/h (4 Bft) 100,00 %
01.04.2018 18:38 4,2 C 6,7 C 90 % 1008,5 hPa 0,0 l/m 19,0 km/h (3 Bft) W-NW 293 0 min 0,000 mm 0,0 UV-I 14 W/m 2,7 C -3,8 C 25,7 km/h (4 Bft) 96,30 %
01.04.2018 18:39 4,2 C 6,7 C 90 % 1008,5 hPa 0,0 l/m 24,5 km/h (4 Bft) W 267 0 min 0,000 mm 0,0 UV-I 12 W/m 2,7 C -5,9 C 29,0 km/h (5 Bft) 96,15 %
01.04.2018 18:40 4,2 C 6,7 C 90 % 1008,5 hPa 0,0 l/m 18,4 km/h (3 Bft) W 277 0 min 0,000 mm 0,0 UV-I 12 W/m 2,7 C -3,5 C 30,6 km/h (5 Bft) 100,00 %
01.04.2018 18:41 4,2 C 6,7 C 91 % 1008,5 hPa 0,0 l/m 21,3 km/h (4 Bft) W 277 0 min 0,000 mm 0,0 UV-I 12 W/m 2,9 C -4,7 C 24,1 km/h (4 Bft) 91,67 %
01.04.2018 18:42 4,2 C 6,7 C 91 % 1008,6 hPa 0,0 l/m 19,0 km/h (3 Bft) W-SW 257 0 min 0,000 mm 0,0 UV-I 12 W/m 2,9 C -3,8 C 25,7 km/h (4 Bft) 100,00 %
01.04.2018 18:43 4,2 C 6,7 C 91 % 1008,6 hPa 0,0 l/m 22,5 km/h (4 Bft) W 265 0 min 0,000 mm 0,0 UV-I 10 W/m 2,9 C -5,2 C 35,4 km/h (5 Bft) 100,00 %
01.04.2018 18:44 4,2 C 6,7 C 91 % 1008,6 hPa 0,0 l/m 19,8 km/h (3 Bft) W 265 0 min 0,000 mm 0,0 UV-I 9 W/m 2,9 C -4,1 C 25,7 km/h (4 Bft) 100,00 %
01.04.2018 18:45 4,2 C 6,7 C 91 % 1008,6 hPa 0,0 l/m 20,1 km/h (4 Bft) NW 310 0 min 0,000 mm 0,0 UV-I 7 W/m 2,9 C -4,2 C 22,5 km/h (4 Bft) 100,00 %
01.04.2018 18:46 4,2 C 6,7 C 91 % 1008,6 hPa 0,0 l/m 13,2 km/h (3 Bft) W 261 0 min 0,000 mm 0,0 UV-I 7 W/m 2,9 C -0,9 C 17,7 km/h (3 Bft) 100,00 %
01.04.2018 18:47 4,2 C 6,7 C 91 % 1008,5 hPa 0,0 l/m 21,7 km/h (4 Bft) W-SW 258 0 min 0,000 mm 0,0 UV-I 8 W/m 2,9 C -4,9 C 30,6 km/h (5 Bft) 100,00 %
01.04.2018 18:48 4,2 C 6,7 C 91 % 1008,5 hPa 0,0 l/m 26,5 km/h (4 Bft) W 260 0 min 0,000 mm 0,0 UV-I 9 W/m 2,9 C -6,5 C 45,1 km/h (6 Bft) 100,00 %
01.04.2018 18:49 4,3 C 6,7 C 91 % 1008,4 hPa 0,0 l/m 19,4 km/h (3 Bft) W 265 0 min 0,000 mm 0,0 UV-I 9 W/m 3,0 C -3,8 C 29,0 km/h (5 Bft) 100,00 %
01.04.2018 18:50 4,3 C 6,7 C 91 % 1008,4 hPa 0,0 l/m 20,3 km/h (4 Bft) W-SW 254 0 min 0,000 mm 0,0 UV-I 11 W/m 3,0 C -4,2 C 27,4 km/h (4 Bft) 100,00 %
01.04.2018 18:51 4,3 C 6,7 C 90 % 1008,4 hPa 0,0 l/m 21,0 km/h (4 Bft) W-NW 290 0 min 0,000 mm 0,0 UV-I 11 W/m 2,8 C -4,5 C 25,7 km/h (4 Bft) 96,67 %
01.04.2018 18:53 4,4 C 6,7 C 90 % 1008,5 hPa 0,2 l/m 24,8 km/h (4 Bft) W-SW 242 0 min 0,000 mm 0,0 UV-I 11 W/m 2,9 C -5,7 C 33,8 km/h (5 Bft) 100,00 %
01.04.2018 18:54 4,4 C 6,7 C 90 % 1008,5 hPa 0,0 l/m 25,7 km/h (4 Bft) W 278 0 min 0,000 mm 0,0 UV-I 12 W/m 2,9 C -6,0 C 32,2 km/h (5 Bft) 91,30 %
01.04.2018 18:55 4,5 C 6,7 C 89 % 1008,5 hPa 0,0 l/m 29,4 km/h (5 Bft) W-SW 255 0 min 0,000 mm 0,0 UV-I 12 W/m 2,8 C -6,9 C 43,5 km/h (6 Bft) 100,00 %
01.04.2018 18:56 4,5 C 6,7 C 89 % 1008,4 hPa 0,0 l/m 23,5 km/h (4 Bft) W 267 0 min 0,000 mm 0,0 UV-I 13 W/m 2,8 C -5,1 C 30,6 km/h (5 Bft) 92,86 %
01.04.2018 18:57 4,6 C 6,7 C 89 % 1008,5 hPa 0,0 l/m 21,4 km/h (4 Bft) W-SW 243 0 min 0,000 mm 0,0 UV-I 16 W/m 2,9 C -4,2 C 24,1 km/h (4 Bft) 100,00 %
01.04.2018 18:58 4,6 C 6,7 C 89 % 1008,5 hPa 0,0 l/m 26,1 km/h (4 Bft) W 266 0 min 0,000 mm 0,0 UV-I 18 W/m 2,9 C -5,8 C 40,2 km/h (6 Bft) 95,65 %
01.04.2018 18:59 4,6 C 6,7 C 89 % 1008,6 hPa 0,0 l/m 29,2 km/h (5 Bft) W 271 0 min 0,000 mm 0,0 UV-I 21 W/m 2,9 C -6,7 C 43,5 km/h (6 Bft) 96,30 %
01.04.2018 19:00 4,6 C 6,7 C 88 % 1008,4 hPa 0,0 l/m 34,5 km/h (5 Bft) W 269 0 min 0,000 mm 0,0 UV-I 24 W/m 2,8 C -8,0 C 45,1 km/h (6 Bft) 100,00 %
01.04.2018 19:01 4,6 C 6,7 C 88 % 1008,4 hPa 0,0 l/m 28,9 km/h (5 Bft) W 271 0 min 0,051 mm 0,0 UV-I 27 W/m 2,8 C -6,6 C 35,4 km/h (5 Bft) 92,59 %
01.04.2018 19:02 4,6 C 6,7 C 88 % 1008,4 hPa 0,0 l/m 28,3 km/h (4 Bft) SW 227 0 min 0,000 mm 0,0 UV-I 28 W/m 2,8 C -6,5 C 38,6 km/h (5 Bft) 100,00 %
01.04.2018 19:03 4,6 C 6,7 C 88 % 1008,4 hPa 0,0 l/m 25,4 km/h (4 Bft) W-SW 246 0 min 0,000 mm 0,0 UV-I 28 W/m 2,8 C -5,6 C 33,8 km/h (5 Bft) 96,15 %
01.04.2018 19:04 4,5 C 6,7 C 88 % 1008,4 hPa 0,0 l/m 31,5 km/h (5 Bft) W-SW 246 0 min 0,000 mm 0,0 UV-I 26 W/m 2,7 C -7,5 C 40,2 km/h (6 Bft) 100,00 %
01.04.2018 19:05 4,5 C 6,7 C 88 % 1008,3 hPa 0,0 l/m 23,4 km/h (4 Bft) W 267 0 min 0,000 mm 0,0 UV-I 29 W/m 2,7 C -5,1 C 35,4 km/h (5 Bft) 96,30 %
01.04.2018 19:06 4,5 C 6,7 C 88 % 1008,3 hPa 0,0 l/m 26,2 km/h (4 Bft) W 261 1 min 0,000 mm 0,0 UV-I 43 W/m 2,7 C -6,0 C 37,0 km/h (5 Bft) 84,62 %
01.04.2018 19:07 4,5 C 6,7 C 88 % 1008,3 hPa 0,0 l/m 24,2 km/h (4 Bft) W-SW 248 1 min 0,000 mm 0,0 UV-I 47 W/m 2,7 C -5,4 C 33,8 km/h (5 Bft) 95,83 %
01.04.2018 19:08 4,4 C 6,7 C 88 % 1008,3 hPa 0,0 l/m 27,6 km/h (4 Bft) W-SW 257 1 min 0,000 mm 0,0 UV-I 46 W/m 2,6 C -6,6 C 35,4 km/h (5 Bft) 95,65 %
01.04.2018 19:09 4,4 C 6,7 C 88 % 1008,3 hPa 0,0 l/m 24,5 km/h (4 Bft) SW 227 1 min 0,000 mm 0,0 UV-I 46 W/m 2,6 C -5,6 C 38,6 km/h (5 Bft) 100,00 %
01.04.2018 19:10 4,4 C 6,7 C 88 % 1008,4 hPa 0,0 l/m 23,4 km/h (4 Bft) SW 233 1 min 0,000 mm 0,0 UV-I 48 W/m 2,6 C -5,2 C 30,6 km/h (5 Bft) 93,33 %
01.04.2018 19:11 4,3 C 6,7 C 89 % 1008,4 hPa 0,0 l/m 25,8 km/h (4 Bft) SW 226 1 min 0,000 mm 0,0 UV-I 52 W/m 2,7 C -6,1 C 35,4 km/h (5 Bft) 100,00 %
01.04.2018 19:12 4,3 C 6,7 C 89 % 1008,4 hPa 0,0 l/m 26,5 km/h (4 Bft) SW 230 1 min 0,000 mm 0,0 UV-I 54 W/m 2,7 C -6,4 C 33,8 km/h (5 Bft) 96,30 %
01.04.2018 19:13 4,3 C 6,7 C 89 % 1008,4 hPa 0,0 l/m 29,7 km/h (5 Bft) W-SW 242 1 min 0,000 mm 0,0 UV-I 60 W/m 2,7 C -7,3 C 33,8 km/h (5 Bft) 100,00 %
01.04.2018 19:14 4,3 C 6,7 C 89 % 1008,5 hPa 0,0 l/m 27,8 km/h (4 Bft) W-SW 257 1 min 0,000 mm 0,0 UV-I 45 W/m 2,7 C -6,8 C 33,8 km/h (5 Bft) 96,67 %
01.04.2018 19:15 4,3 C 6,7 C 89 % 1008,4 hPa 0,0 l/m 22,6 km/h (4 Bft) W-SW 238 1 min 0,000 mm 0,0 UV-I 41 W/m 2,7 C -5,1 C 32,2 km/h (5 Bft) 96,55 %
01.04.2018 19:16 4,3 C 6,7 C 89 % 1008,4 hPa 0,0 l/m 23,0 km/h (4 Bft) S-SW 207 1 min 0,000 mm 0,0 UV-I 38 W/m 2,7 C -5,2 C 30,6 km/h (5 Bft) 97,93 %
01.04.2018 19:17 4,3 C 6,7 C 89 % 1008,4 hPa 0,0 l/m 25,7 km/h (4 Bft) W-SW 257 1 min 0,000 mm 0,0 UV-I 35 W/m 2,7 C -6,1 C 33,8 km/h (5 Bft) 95,12 %
01.04.2018 19:18 4,3 C 6,7 C 89 % 1008,5 hPa 0,0 l/m 24,1 km/h (4 Bft) W-SW 240 1 min 0,000 mm 0,0 UV-I 32 W/m 2,7 C -5,6 C 30,6 km/h (5 Bft) 100,00 %
01.04.2018 19:19 4,3 C 6,7 C 89 % 1008,4 hPa 0,0 l/m 23,5 km/h (4 Bft) W-SW 258 1 min 0,000 mm 0,0 UV-I 29 W/m 2,7 C -5,4 C 30,6 km/h (5 Bft) 96,15 %
01.04.2018 19:20 4,3 C 6,7 C 89 % 1008,4 hPa 0,0 l/m 23,5 km/h (4 Bft) SW 223 1 min 0,000 mm 0,0 UV-I 26 W/m 2,7 C -5,4 C 33,8 km/h (5 Bft) 100,00 %
01.04.2018 19:21 4,3 C 6,7 C 89 % 1008,4 hPa 0,0 l/m 20,8 km/h (4 Bft) S-SW 196 1 min 0,000 mm 0,0 UV-I 23 W/m 2,7 C -4,4 C 33,8 km/h (5 Bft) 92,31 %
01.04.2018 19:22 4,3 C 6,7 C 89 % 1008,4 hPa 0,0 l/m 28,6 km/h (4 Bft) W-SW 250 1 min 0,000 mm 0,0 UV-I 20 W/m 2,7 C -7,0 C 33,8 km/h (5 Bft) 100,00 %
01.04.2018 19:23 4,3 C 6,7 C 89 % 1008,5 hPa 0,0 l/m 18,7 km/h (3 Bft) W-SW 252 1 min 0,000 mm 0,0 UV-I 17 W/m 2,7 C -3,5 C 29,0 km/h (5 Bft) 96,15 %
01.04.2018 19:24 4,3 C 6,7 C 89 % 1008,5 hPa 0,0 l/m 22,3 km/h (4 Bft) W-SW 241 0 min 0,000 mm 0,0 UV-I 14 W/m 2,7 C -5,0 C 32,2 km/h (5 Bft) 100,00 %
01.04.2018 19:25 4,3 C 6,7 C 89 % 1008,5 hPa 0,0 l/m 24,3 km/h (4 Bft) S-SW 202 0 min 0,000 mm 0,0 UV-I 11 W/m 2,7 C -5,7 C 37,0 km/h (5 Bft) 95,83 %
01.04.2018 19:26 4,3 C 6,7 C 89 % 1008,5 hPa 0,0 l/m 21,8 km/h (4 Bft) SW 234 0 min 0,000 mm 0,0 UV-I 8 W/m 2,7 C -4,8 C 38,6 km/h (5 Bft) 93,10 %
01.04.2018 19:27 4,3 C 6,7 C 89 % 1008,5 hPa 0,0 l/m 17,9 km/h (3 Bft) W-SW 244 0 min 0,000 mm 0,0 UV-I 5 W/m 2,7 C -3,2 C 29,0 km/h (5 Bft) 100,00 %
01.04.2018 19:28 4,3 C 6,7 C 89 % 1008,5 hPa 0,0 l/m 14,8 km/h (3 Bft) W-SW 256 0 min 0,000 mm 0,0 UV-I 19 W/m 2,7 C -1,7 C 24,1 km/h (4 Bft) 96,30 %
01.04.2018 19:29 4,3 C 6,7 C 89 % 1008,5 hPa 0,0 l/m 26,7 km/h (4 Bft) W-SW 245 0 min 0,000 mm 0,0 UV-I 17 W/m 2,7 C -6,4 C 35,4 km/h (5 Bft) 100,00 %
01.04.2018 19:30 4,3 C 6,7 C 89 % 1008,5 hPa 0,0 l/m 17,3 km/h (3 Bft) W 265 0 min 0,000 mm 0,0 UV-I 15 W/m 2,7 C -2,9 C 22,5 km/h (4 Bft) 96,15 %
01.04.2018 19:31 4,3 C 6,7 C 89 % 1008,5 hPa 0,0 l/m 26,1 km/h (4 Bft) S-SW 213 0 min 0,000 mm 0,0 UV-I 12 W/m 2,7 C -6,2 C 33,8 km/h (5 Bft) 100,00 %
01.04.2018 19:32 4,3 C 6,7 C 89 % 1008,4 hPa 0,0 l/m 24,5 km/h (4 Bft) S-SW 207 0 min 0,000 mm 0,0 UV-I 12 W/m 2,7 C -5,7 C 40,2 km/h (6 Bft) 90,91 %
01.04.2018 19:33 4,3 C 6,7 C 89 % 1008,5 hPa 0,0 l/m 18,9 km/h (3 Bft) SW 222 0 min 0,000 mm 0,0 UV-I 11 W/m 2,7 C -3,6 C 24,1 km/h (4 Bft) 100,00 %
01.04.2018 19:34 4,3 C 6,7 C 89 % 1008,5 hPa 0,0 l/m 19,8 km/h (3 Bft) W-SW 240 0 min 0,000 mm 0,0 UV-I 11 W/m 2,7 C -4,0 C 29,0 km/h (5 Bft) 100,00 %
01.04.2018 19:35 4,3 C 6,7 C 89 % 1008,5 hPa 0,0 l/m 21,1 km/h (4 Bft) SW 221 0 min 0,000 mm 0,0 UV-I 9 W/m 2,7 C -4,5 C 32,2 km/h (5 Bft) 100,00 %
01.04.2018 19:36 4,3 C 6,7 C 89 % 1008,4 hPa 0,0 l/m 16,8 km/h (3 Bft) W-SW 238 0 min 0,000 mm 0,0 UV-I 9 W/m 2,7 C -2,7 C 25,7 km/h (4 Bft) 94,12 %
01.04.2018 19:37 4,2 C 6,7 C 89 % 1008,4 hPa 0,0 l/m 19,0 km/h (3 Bft) SW 229 0 min 0,000 mm 0,0 UV-I 8 W/m 2,6 C -3,8 C 30,6 km/h (5 Bft) 96,30 %
01.04.2018 19:38 4,2 C 6,7 C 89 % 1008,4 hPa 0,0 l/m 16,0 km/h (3 Bft) S-SW 211 0 min 0,000 mm 0,0 UV-I 7 W/m 2,6 C -2,4 C 22,5 km/h (4 Bft) 100,00 %
01.04.2018 19:39 4,2 C 6,7 C 89 % 1008,5 hPa 0,0 l/m 15,6 km/h (3 Bft) W-SW 248 0 min 0,000 mm 0,0 UV-I 7 W/m 2,6 C -2,2 C 24,1 km/h (4 Bft) 100,00 %
01.04.2018 19:40 4,2 C 6,7 C 89 % 1008,6 hPa 0,0 l/m 15,4 km/h (3 Bft) SW 230 0 min 0,000 mm 0,0 UV-I 6 W/m 2,6 C -2,1 C 22,5 km/h (4 Bft) 85,71 %
01.04.2018 19:41 4,2 C 6,7 C 89 % 1008,7 hPa 0,0 l/m 13,8 km/h (3 Bft) W-SW 244 0 min 0,000 mm 0,0 UV-I 5 W/m 2,6 C -1,2 C 20,9 km/h (4 Bft) 96,67 %
01.04.2018 19:42 4,2 C 6,7 C 89 % 1008,7 hPa 0,0 l/m 17,6 km/h (3 Bft) SW 226 0 min 0,000 mm 0,0 UV-I 5 W/m 2,6 C -3,2 C 25,7 km/h (4 Bft) 100,00 %
01.04.2018 19:43 4,2 C 6,7 C 89 % 1008,8 hPa 0,0 l/m 16,6 km/h (3 Bft) W-SW 242 0 min 0,000 mm 0,0 UV-I 5 W/m 2,6 C -2,7 C 24,1 km/h (4 Bft) 100,00 %
01.04.2018 19:44 4,2 C 6,7 C 89 % 1008,7 hPa 0,0 l/m 18,8 km/h (3 Bft) W-SW 242 0 min 0,000 mm 0,0 UV-I 5 W/m 2,6 C -3,7 C 24,1 km/h (4 Bft) 100,00 %
01.04.2018 19:45 4,2 C 6,7 C 89 % 1008,7 hPa 0,0 l/m 12,7 km/h (3 Bft) W-SW 241 0 min 0,000 mm 0,0 UV-I 5 W/m 2,6 C -0,6 C 29,0 km/h (5 Bft) 100,00 %
01.04.2018 19:46 4,2 C 6,7 C 89 % 1008,9 hPa 0,0 l/m 21,8 km/h (4 Bft) W 265 0 min 0,000 mm 0,0 UV-I 4 W/m 2,6 C -4,9 C 29,0 km/h (5 Bft) 100,00 %
01.04.2018 19:47 4,2 C 6,7 C 89 % 1008,8 hPa 0,0 l/m 16,4 km/h (3 Bft) SW 217 0 min 0,000 mm 0,0 UV-I 0 W/m 2,6 C -2,6 C 22,5 km/h (4 Bft) 100,00 %
01.04.2018 19:48 4,2 C 6,7 C 89 % 1008,8 hPa 0,0 l/m 17,0 km/h (3 Bft) S-SW 207 0 min 0,000 mm 0,0 UV-I 0 W/m 2,6 C -2,9 C 22,5 km/h (4 Bft) 100,00 %
01.04.2018 19:49 4,2 C 6,7 C 89 % 1008,8 hPa 0,0 l/m 14,2 km/h (3 Bft) W-SW 238 0 min 0,000 mm 0,0 UV-I 0 W/m 2,6 C -1,5 C 20,9 km/h (4 Bft) 100,00 %
01.04.2018 19:50 4,2 C 6,7 C 89 % 1008,8 hPa 0,0 l/m 16,6 km/h (3 Bft) W-SW 245 0 min 0,000 mm 0,0 UV-I 0 W/m 2,6 C -2,7 C 22,5 km/h (4 Bft) 91,67 %
01.04.2018 19:51 4,1 C 6,7 C 89 % 1008,7 hPa 0,0 l/m 18,1 km/h (3 Bft) W 278 0 min 0,000 mm 0,0 UV-I 0 W/m 2,5 C -3,5 C 22,5 km/h (4 Bft) 100,00 %
01.04.2018 19:52 4,1 C 6,7 C 89 % 1008,7 hPa 0,0 l/m 18,6 km/h (3 Bft) W-SW 238 0 min 0,000 mm 0,0 UV-I 0 W/m 2,5 C -3,7 C 22,5 km/h (4 Bft) 100,00 %
01.04.2018 19:53 4,1 C 6,7 C 89 % 1008,7 hPa 0,0 l/m 19,4 km/h (3 Bft) SW 229 0 min 0,000 mm 0,0 UV-I 0 W/m 2,5 C -4,1 C 29,0 km/h (5 Bft) 100,00 %
01.04.2018 19:54 4,2 C 6,7 C 89 % 1008,7 hPa 0,0 l/m 16,8 km/h (3 Bft) W-SW 248 0 min 0,000 mm 0,0 UV-I 0 W/m 2,6 C -2,8 C 29,0 km/h (5 Bft) 100,00 %
01.04.2018 19:55 4,2 C 6,7 C 89 % 1008,7 hPa 0,0 l/m 16,1 km/h (3 Bft) SW 232 0 min 0,000 mm 0,0 UV-I 0 W/m 2,6 C -2,5 C 24,1 km/h (4 Bft) 100,00 %
01.04.2018 19:56 4,1 C 6,7 C 89 % 1008,7 hPa 0,0 l/m 16,5 km/h (3 Bft) W-SW 250 0 min 0,000 mm 0,0 UV-I 0 W/m 2,5 C -2,8 C 22,5 km/h (4 Bft) 100,00 %
01.04.2018 19:58 4,1 C 6,7 C 89 % 1008,7 hPa 0,0 l/m 15,1 km/h (3 Bft) SW 225 0 min 0,000 mm 0,0 UV-I 0 W/m 2,5 C -2,1 C 27,4 km/h (4 Bft) 96,23 %
01.04.2018 19:59 4,1 C 6,7 C 89 % 1008,7 hPa 0,0 l/m 16,4 km/h (3 Bft) SW 231 0 min 0,000 mm 0,0 UV-I 0 W/m 2,5 C -2,7 C 20,9 km/h (4 Bft) 97,93 %
01.04.2018 20:00 4,1 C 6,7 C 89 % 1008,8 hPa 0,0 l/m 16,2 km/h (3 Bft) SW 215 0 min 0,000 mm 0,0 UV-I 0 W/m 2,5 C -2,6 C 25,7 km/h (4 Bft) 100,00 %
01.04.2018 20:01 4,1 C 6,7 C 89 % 1008,8 hPa 0,0 l/m 12,9 km/h (3 Bft) W-SW 250 0 min 0,026 mm 0,0 UV-I 0 W/m 2,5 C -0,8 C 17,7 km/h (3 Bft) 100,00 %
01.04.2018 20:02 4,1 C 6,7 C 89 % 1008,8 hPa 0,0 l/m 19,4 km/h (3 Bft) W-SW 248 0 min 0,000 mm 0,0 UV-I 0 W/m 2,5 C -4,1 C 24,1 km/h (4 Bft) 100,00 %
01.04.2018 20:03 4,1 C 6,7 C 89 % 1008,8 hPa 0,0 l/m 15,9 km/h (3 Bft) W-SW 252 0 min 0,000 mm 0,0 UV-I 0 W/m 2,5 C -2,5 C 25,7 km/h (4 Bft) 96,15 %
01.04.2018 20:04 4,1 C 6,7 C 89 % 1008,9 hPa 0,0 l/m 17,9 km/h (3 Bft) S-SW 203 0 min 0,000 mm 0,0 UV-I 0 W/m 2,5 C -3,4 C 24,1 km/h (4 Bft) 100,00 %
01.04.2018 20:05 4,2 C 6,7 C 89 % 1008,9 hPa 0,0 l/m 16,1 km/h (3 Bft) W-SW 251 0 min 0,000 mm 0,0 UV-I 0 W/m 2,6 C -2,5 C 25,7 km/h (4 Bft) 100,00 %
01.04.2018 20:06 4,2 C 6,7 C 90 % 1009,0 hPa 0,0 l/m 18,9 km/h (3 Bft) W-SW 243 0 min 0,000 mm 0,0 UV-I 0 W/m 2,7 C -3,7 C 27,4 km/h (4 Bft) 100,00 %
01.04.2018 20:07 4,2 C 6,7 C 90 % 1009,0 hPa 0,0 l/m 21,2 km/h (4 Bft) W 260 0 min 0,000 mm 0,0 UV-I 0 W/m 2,7 C -4,7 C 27,4 km/h (4 Bft) 100,00 %
01.04.2018 20:08 4,2 C 6,7 C 90 % 1009,0 hPa 0,0 l/m 19,9 km/h (4 Bft) W-SW 243 0 min 0,000 mm 0,0 UV-I 0 W/m 2,7 C -4,2 C 25,7 km/h (4 Bft) 100,00 %
01.04.2018 20:09 4,3 C 6,7 C 89 % 1009,1 hPa 0,0 l/m 17,9 km/h (3 Bft) W-SW 254 0 min 0,000 mm 0,0 UV-I 0 W/m 2,7 C -3,2 C 22,5 km/h (4 Bft) 100,00 %
01.04.2018 20:10 4,3 C 6,7 C 89 % 1009,2 hPa 0,0 l/m 21,6 km/h (4 Bft) W-SW 244 0 min 0,000 mm 0,0 UV-I 0 W/m 2,7 C -4,7 C 29,0 km/h (5 Bft) 92,31 %
01.04.2018 20:11 4,3 C 6,7 C 89 % 1009,3 hPa 0,0 l/m 18,2 km/h (3 Bft) W 269 0 min 0,000 mm 0,0 UV-I 0 W/m 2,7 C -3,3 C 24,1 km/h (4 Bft) 100,00 %
01.04.2018 20:12 4,3 C 6,7 C 89 % 1009,3 hPa 0,0 l/m 19,6 km/h (3 Bft) W-SW 257 0 min 0,000 mm 0,0 UV-I 0 W/m 2,7 C -3,9 C 27,4 km/h (4 Bft) 100,00 %
01.04.2018 20:13 4,4 C 6,7 C 89 % 1009,3 hPa 0,0 l/m 20,4 km/h (4 Bft) W 274 0 min 0,000 mm 0,0 UV-I 0 W/m 2,7 C -4,1 C 32,2 km/h (5 Bft) 100,00 %
01.04.2018 20:14 4,4 C 6,7 C 89 % 1009,4 hPa 0,0 l/m 18,5 km/h (3 Bft) W-SW 247 0 min 0,000 mm 0,0 UV-I 0 W/m 2,7 C -3,3 C 27,4 km/h (4 Bft) 100,00 %
01.04.2018 20:15 4,4 C 6,7 C 89 % 1009,5 hPa 0,0 l/m 22,9 km/h (4 Bft) W 265 0 min 0,000 mm 0,0 UV-I 0 W/m 2,7 C -5,0 C 35,4 km/h (5 Bft) 100,00 %
01.04.2018 20:16 4,4 C 6,7 C 89 % 1009,5 hPa 0,0 l/m 20,0 km/h (4 Bft) W-NW 296 0 min 0,000 mm 0,0 UV-I 0 W/m 2,7 C -3,9 C 24,1 km/h (4 Bft) 100,00 %
01.04.2018 20:17 4,5 C 6,7 C 89 % 1009,4 hPa 0,0 l/m 21,9 km/h (4 Bft) W-SW 253 0 min 0,000 mm 0,0 UV-I 0 W/m 2,8 C -4,6 C 29,0 km/h (5 Bft) 100,00 %
01.04.2018 20:18 4,4 C 6,7 C 89 % 1009,5 hPa 0,0 l/m 24,5 km/h (4 Bft) W 267 0 min 0,000 mm 0,0 UV-I 0 W/m 2,7 C -5,6 C 30,6 km/h (5 Bft) 100,00 %
01.04.2018 20:19 4,5 C 6,7 C 89 % 1009,5 hPa 0,0 l/m 21,5 km/h (4 Bft) W-SW 253 0 min 0,000 mm 0,0 UV-I 0 W/m 2,8 C -4,4 C 35,4 km/h (5 Bft) 96,30 %
01.04.2018 20:20 4,6 C 6,7 C 90 % 1009,6 hPa 0,0 l/m 22,8 km/h (4 Bft) W-SW 252 0 min 0,000 mm 0,0 UV-I 0 W/m 3,1 C -4,7 C 30,6 km/h (5 Bft) 96,15 %
01.04.2018 20:21 4,6 C 6,7 C 89 % 1009,5 hPa 0,0 l/m 18,0 km/h (3 Bft) W-SW 242 0 min 0,000 mm 0,0 UV-I 0 W/m 2,9 C -2,8 C 22,5 km/h (4 Bft) 100,00 %
01.04.2018 20:22 4,6 C 6,7 C 89 % 1009,5 hPa 0,0 l/m 20,0 km/h (4 Bft) W 271 0 min 0,000 mm 0,0 UV-I 0 W/m 2,9 C -3,7 C 24,1 km/h (4 Bft) 95,83 %
01.04.2018 20:23 4,6 C 6,7 C 89 % 1009,6 hPa 0,0 l/m 18,5 km/h (3 Bft) W 267 0 min 0,000 mm 0,0 UV-I 0 W/m 2,9 C -3,1 C 25,7 km/h (4 Bft) 100,00 %
01.04.2018 20:24 4,6 C 6,7 C 89 % 1009,7 hPa 0,0 l/m 18,3 km/h (3 Bft) W 281 0 min 0,000 mm 0,0 UV-I 0 W/m 2,9 C -3,0 C 33,8 km/h (5 Bft) 95,83 %
01.04.2018 20:25 4,6 C 6,7 C 90 % 1009,6 hPa 0,0 l/m 28,0 km/h (4 Bft) W 271 0 min 0,000 mm 0,0 UV-I 0 W/m 3,1 C -6,4 C 37,0 km/h (5 Bft) 96,15 %
01.04.2018 20:26 4,6 C 6,7 C 90 % 1009,7 hPa 0,0 l/m 24,9 km/h (4 Bft) W 269 0 min 0,000 mm 0,0 UV-I 0 W/m 3,1 C -5,5 C 33,8 km/h (5 Bft) 100,00 %
01.04.2018 20:27 4,6 C 6,7 C 90 % 1009,6 hPa 0,0 l/m 26,8 km/h (4 Bft) W 273 0 min 0,000 mm 0,0 UV-I 0 W/m 3,1 C -6,0 C 33,8 km/h (5 Bft) 96,15 %
01.04.2018 20:28 4,6 C 6,7 C 89 % 1009,5 hPa 0,0 l/m 20,0 km/h (4 Bft) W 279 0 min 0,000 mm 0,0 UV-I 0 W/m 2,9 C -3,7 C 30,6 km/h (5 Bft) 100,00 %
01.04.2018 20:29 4,6 C 6,7 C 90 % 1009,6 hPa 0,0 l/m 23,7 km/h (4 Bft) W-NW 285 0 min 0,000 mm 0,0 UV-I 0 W/m 3,1 C -5,1 C 33,8 km/h (5 Bft) 92,31 %
01.04.2018 20:30 4,6 C 6,7 C 89 % 1009,5 hPa 0,0 l/m 23,4 km/h (4 Bft) W-NW 282 0 min 0,000 mm 0,0 UV-I 0 W/m 2,9 C -5,0 C 32,2 km/h (5 Bft) 100,00 %
01.04.2018 20:31 4,6 C 6,7 C 89 % 1009,5 hPa 0,0 l/m 16,9 km/h (3 Bft) W-SW 248 0 min 0,000 mm 0,0 UV-I 0 W/m 2,9 C -2,3 C 25,7 km/h (4 Bft) 95,65 %
01.04.2018 20:33 4,6 C 6,7 C 89 % 1009,5 hPa 0,0 l/m 22,6 km/h (4 Bft) W 269 0 min 0,000 mm 0,0 UV-I 0 W/m 2,9 C -4,7 C 37,0 km/h (5 Bft) 96,23 %
01.04.2018 20:34 4,6 C 6,7 C 89 % 1009,6 hPa 0,0 l/m 16,5 km/h (3 Bft) W 266 0 min 0,000 mm 0,0 UV-I 0 W/m 2,9 C -2,2 C 24,1 km/h (4 Bft) 100,00 %
01.04.2018 20:35 4,6 C 6,7 C 89 % 1009,7 hPa 0,0 l/m 17,2 km/h (3 Bft) W 275 0 min 0,000 mm 0,0 UV-I 0 W/m 2,9 C -2,5 C 22,5 km/h (4 Bft) 96,15 %
01.04.2018 20:36 4,6 C 6,7 C 89 % 1009,6 hPa 0,0 l/m 20,7 km/h (4 Bft) W 271 0 min 0,000 mm 0,0 UV-I 0 W/m 2,9 C -4,0 C 27,4 km/h (4 Bft) 96,30 %
01.04.2018 20:37 4,6 C 6,7 C 89 % 1009,7 hPa 0,0 l/m 18,1 km/h (3 Bft) W 265 0 min 0,000 mm 0,0 UV-I 0 W/m 2,9 C -2,9 C 25,7 km/h (4 Bft) 100,00 %
01.04.2018 20:38 4,6 C 6,7 C 89 % 1009,7 hPa 0,0 l/m 13,5 km/h (3 Bft) W 269 0 min 0,000 mm 0,0 UV-I 0 W/m 2,9 C -0,6 C 14,5 km/h (3 Bft) 94,44 %
01.04.2018 20:39 4,6 C 6,7 C 89 % 1009,8 hPa 0,0 l/m 15,4 km/h (3 Bft) W 267 0 min 0,000 mm 0,0 UV-I 0 W/m 2,9 C -1,6 C 17,7 km/h (3 Bft) 100,00 %
01.04.2018 20:40 4,7 C 6,7 C 89 % 1009,8 hPa 0,0 l/m 15,3 km/h (3 Bft) W 273 0 min 0,000 mm 0,0 UV-I 0 W/m 3,0 C -1,4 C 19,3 km/h (3 Bft) 95,83 %
01.04.2018 20:41 4,7 C 6,7 C 89 % 1009,8 hPa 0,0 l/m 15,3 km/h (3 Bft) W-SW 252 0 min 0,000 mm 0,0 UV-I 0 W/m 3,0 C -1,4 C 24,1 km/h (4 Bft) 100,00 %
01.04.2018 20:43 4,7 C 6,7 C 89 % 1009,9 hPa 0,0 l/m 15,2 km/h (3 Bft) W-NW 284 0 min 0,000 mm 0,0 UV-I 0 W/m 3,0 C -1,4 C 22,5 km/h (4 Bft) 96,23 %
01.04.2018 20:44 4,7 C 6,7 C 89 % 1009,9 hPa 0,0 l/m 16,8 km/h (3 Bft) W 268 0 min 0,000 mm 0,0 UV-I 0 W/m 3,0 C -2,2 C 20,9 km/h (4 Bft) 100,00 %
01.04.2018 20:45 4,7 C 6,7 C 89 % 1010,0 hPa 0,0 l/m 14,1 km/h (3 Bft) NW 307 0 min 0,000 mm 0,0 UV-I 0 W/m 3,0 C -0,8 C 19,3 km/h (3 Bft) 100,00 %
01.04.2018 20:46 4,7 C 6,7 C 89 % 1010,0 hPa 0,0 l/m 16,3 km/h (3 Bft) W 273 0 min 0,000 mm 0,0 UV-I 0 W/m 3,0 C -1,9 C 20,9 km/h (4 Bft) 96,55 %
01.04.2018 20:47 4,7 C 6,7 C 89 % 1010,1 hPa 0,0 l/m 11,8 km/h (2 Bft) W 268 0 min 0,000 mm 0,0 UV-I 0 W/m 3,0 C 0,5 C 16,1 km/h (3 Bft) 96,97 %
01.04.2018 20:48 4,7 C 6,7 C 89 % 1010,1 hPa 0,0 l/m 7,2 km/h (2 Bft) W-NW 282 0 min 0,000 mm 0,0 UV-I 0 W/m 3,0 C 4,0 C 14,5 km/h (3 Bft) 100,00 %
01.04.2018 20:50 4,7 C 6,7 C 89 % 1010,1 hPa 0,0 l/m 5,9 km/h (2 Bft) W 281 0 min 0,000 mm 0,0 UV-I 0 W/m 3,0 C 4,7 C 11,3 km/h (2 Bft) 97,96 %
01.04.2018 20:51 4,7 C 6,7 C 89 % 1010,1 hPa 0,0 l/m 7,2 km/h (2 Bft) SW 234 0 min 0,000 mm 0,0 UV-I 0 W/m 3,0 C 4,0 C 11,3 km/h (2 Bft) 91,67 %
01.04.2018 20:53 4,7 C 6,7 C 89 % 1010,1 hPa 0,0 l/m 9,0 km/h (2 Bft) W 269 0 min 0,000 mm 0,0 UV-I 0 W/m 3,0 C 2,5 C 12,9 km/h (3 Bft) 98,00 %
01.04.2018 20:54 4,7 C 6,7 C 89 % 1010,1 hPa 0,0 l/m 6,7 km/h (2 Bft) W 268 0 min 0,000 mm 0,0 UV-I 0 W/m 3,0 C 4,4 C 9,7 km/h (2 Bft) 100,00 %
01.04.2018 20:55 4,7 C 6,7 C 90 % 1010,1 hPa 0,0 l/m 9,7 km/h (2 Bft) W 262 0 min 0,000 mm 0,0 UV-I 0 W/m 3,2 C 2,0 C 12,9 km/h (3 Bft) 95,83 %
01.04.2018 20:56 4,7 C 6,7 C 90 % 1010,1 hPa 0,0 l/m 11,2 km/h (2 Bft) W 265 0 min 0,000 mm 0,0 UV-I 0 W/m 3,2 C 0,9 C 14,5 km/h (3 Bft) 96,15 %
01.04.2018 20:57 4,7 C 6,7 C 90 % 1010,2 hPa 0,0 l/m 12,0 km/h (2 Bft) W 276 0 min 0,000 mm 0,0 UV-I 0 W/m 3,2 C 0,4 C 14,5 km/h (3 Bft) 100,00 %
01.04.2018 20:58 4,7 C 6,7 C 90 % 1010,2 hPa 0,0 l/m 14,7 km/h (3 Bft) W 267 0 min 0,000 mm 0,0 UV-I 0 W/m 3,2 C -1,1 C 19,3 km/h (3 Bft) 95,65 %
01.04.2018 20:59 4,7 C 6,7 C 90 % 1010,2 hPa 0,0 l/m 11,3 km/h (2 Bft) W 272 0 min 0,000 mm 0,0 UV-I 0 W/m 3,2 C 0,9 C 17,7 km/h (3 Bft) 100,00 %
01.04.2018 21:00 4,7 C 6,7 C 89 % 1010,2 hPa 0,0 l/m 13,6 km/h (3 Bft) W 273 0 min 0,000 mm 0,0 UV-I 0 W/m 3,0 C -0,5 C 16,1 km/h (3 Bft) 100,00 %
01.04.2018 21:01 4,7 C 6,7 C 89 % 1010,2 hPa 0,0 l/m 10,5 km/h (2 Bft) W 263 0 min 0,025 mm 0,0 UV-I 0 W/m 3,0 C 1,4 C 17,7 km/h (3 Bft) 97,37 %
01.04.2018 21:02 4,7 C 6,7 C 89 % 1010,2 hPa 0,0 l/m 15,3 km/h (3 Bft) W 262 0 min 0,000 mm 0,0 UV-I 0 W/m 3,0 C -1,4 C 19,3 km/h (3 Bft) 95,83 %
01.04.2018 21:03 4,7 C 6,7 C 89 % 1010,2 hPa 0,0 l/m 14,0 km/h (3 Bft) W 273 0 min 0,000 mm 0,0 UV-I 0 W/m 3,0 C -0,8 C 16,1 km/h (3 Bft) 100,00 %
01.04.2018 21:04 4,7 C 6,7 C 89 % 1010,2 hPa 0,0 l/m 13,0 km/h (3 Bft) W-SW 255 0 min 0,000 mm 0,0 UV-I 0 W/m 3,0 C -0,2 C 17,7 km/h (3 Bft) 96,30 %
01.04.2018 21:05 4,7 C 6,7 C 89 % 1010,2 hPa 0,0 l/m 14,0 km/h (3 Bft) W-SW 249 0 min 0,000 mm 0,0 UV-I 0 W/m 3,0 C -0,8 C 20,9 km/h (4 Bft) 100,00 %
01.04.2018 21:06 4,7 C 6,7 C 89 % 1010,2 hPa 0,0 l/m 13,4 km/h (3 Bft) W-SW 250 0 min 0,000 mm 0,0 UV-I 0 W/m 3,0 C -0,4 C 16,1 km/h (3 Bft) 96,30 %
01.04.2018 21:07 4,7 C 6,7 C 89 % 1010,2 hPa 0,0 l/m 15,9 km/h (3 Bft) W-NW 288 0 min 0,000 mm 0,0 UV-I 0 W/m 3,0 C -1,7 C 20,9 km/h (4 Bft) 92,31 %
01.04.2018 21:08 4,8 C 6,7 C 89 % 1010,2 hPa 0,0 l/m 19,7 km/h (3 Bft) W 273 0 min 0,000 mm 0,0 UV-I 0 W/m 3,1 C -3,3 C 25,7 km/h (4 Bft) 100,00 %
01.04.2018 21:09 4,8 C 6,7 C 89 % 1010,2 hPa 0,0 l/m 18,4 km/h (3 Bft) W-SW 237 0 min 0,000 mm 0,0 UV-I 0 W/m 3,1 C -2,8 C 22,5 km/h (4 Bft) 93,10 %
01.04.2018 21:10 4,8 C 6,7 C 89 % 1010,2 hPa 0,0 l/m 17,5 km/h (3 Bft) SW 223 0 min 0,000 mm 0,0 UV-I 0 W/m 3,1 C -2,4 C 25,7 km/h (4 Bft) 96,30 %
01.04.2018 21:11 4,8 C 6,7 C 89 % 1010,2 hPa 0,0 l/m 17,6 km/h (3 Bft) W-SW 253 0 min 0,000 mm 0,0 UV-I 0 W/m 3,1 C -2,4 C 29,0 km/h (5 Bft) 96,15 %
01.04.2018 21:12 4,8 C 6,7 C 89 % 1010,2 hPa 0,0 l/m 18,7 km/h (3 Bft) W 275 0 min 0,000 mm 0,0 UV-I 0 W/m 3,1 C -2,9 C 22,5 km/h (4 Bft) 95,83 %
01.04.2018 21:13 4,9 C 6,7 C 88 % 1010,3 hPa 0,0 l/m 19,8 km/h (3 Bft) SW 229 0 min 0,000 mm 0,0 UV-I 0 W/m 3,1 C -3,2 C 29,0 km/h (5 Bft) 88,24 %
01.04.2018 21:14 4,9 C 6,7 C 88 % 1010,2 hPa 0,0 l/m 19,2 km/h (3 Bft) W-SW 252 0 min 0,000 mm 0,0 UV-I 0 W/m 3,1 C -3,0 C 27,4 km/h (4 Bft) 95,83 %
01.04.2018 21:15 4,9 C 6,7 C 88 % 1010,2 hPa 0,0 l/m 18,6 km/h (3 Bft) S-SW 211 0 min 0,000 mm 0,0 UV-I 0 W/m 3,1 C -2,7 C 25,7 km/h (4 Bft) 96,15 %
01.04.2018 21:16 4,9 C 6,7 C 88 % 1010,2 hPa 0,0 l/m 16,1 km/h (3 Bft) W 263 0 min 0,000 mm 0,0 UV-I 0 W/m 3,1 C -1,6 C 24,1 km/h (4 Bft) 91,67 %
01.04.2018 21:17 4,9 C 6,7 C 88 % 1010,2 hPa 0,0 l/m 17,2 km/h (3 Bft) W-SW 244 0 min 0,000 mm 0,0 UV-I 0 W/m 3,1 C -2,1 C 22,5 km/h (4 Bft) 96,30 %
01.04.2018 21:18 4,9 C 6,7 C 88 % 1010,2 hPa 0,0 l/m 19,6 km/h (3 Bft) SW 236 0 min 0,000 mm 0,0 UV-I 0 W/m 3,1 C -3,1 C 29,0 km/h (5 Bft) 95,65 %
01.04.2018 21:19 4,9 C 6,7 C 88 % 1010,2 hPa 0,0 l/m 17,1 km/h (3 Bft) W-SW 254 0 min 0,000 mm 0,0 UV-I 0 W/m 3,1 C -2,1 C 22,5 km/h (4 Bft) 93,75 %
01.04.2018 21:20 4,9 C 6,7 C 88 % 1010,2 hPa 0,0 l/m 15,9 km/h (3 Bft) W-SW 245 0 min 0,000 mm 0,0 UV-I 0 W/m 3,1 C -1,5 C 24,1 km/h (4 Bft) 100,00 %
01.04.2018 21:21 5,0 C 6,7 C 88 % 1010,2 hPa 0,0 l/m 19,2 km/h (3 Bft) W-SW 242 0 min 0,000 mm 0,0 UV-I 0 W/m 3,2 C -2,8 C 27,4 km/h (4 Bft) 92,59 %
01.04.2018 21:22 5,0 C 6,7 C 88 % 1010,1 hPa 0,0 l/m 22,3 km/h (4 Bft) SW 219 0 min 0,000 mm 0,0 UV-I 0 W/m 3,2 C -4,0 C 30,6 km/h (5 Bft) 100,00 %
01.04.2018 21:23 5,0 C 6,7 C 88 % 1010,1 hPa 0,0 l/m 18,5 km/h (3 Bft) W-SW 248 0 min 0,000 mm 0,0 UV-I 0 W/m 3,2 C -2,6 C 25,7 km/h (4 Bft) 96,30 %
01.04.2018 21:24 5,0 C 6,7 C 88 % 1010,1 hPa 0,0 l/m 17,4 km/h (3 Bft) SW 234 0 min 0,000 mm 0,0 UV-I 0 W/m 3,2 C -2,1 C 22,5 km/h (4 Bft) 100,00 %
01.04.2018 21:25 5,0 C 6,7 C 88 % 1010,1 hPa 0,0 l/m 17,9 km/h (3 Bft) W-SW 246 0 min 0,000 mm 0,0 UV-I 0 W/m 3,2 C -2,3 C 24,1 km/h (4 Bft) 96,30 %
01.04.2018 21:26 5,0 C 6,7 C 88 % 1010,1 hPa 0,0 l/m 18,7 km/h (3 Bft) W-SW 245 0 min 0,000 mm 0,0 UV-I 0 W/m 3,2 C -2,6 C 24,1 km/h (4 Bft) 100,00 %
01.04.2018 21:27 5,0 C 6,7 C 88 % 1010,1 hPa 0,0 l/m 21,2 km/h (4 Bft) W-SW 245 0 min 0,000 mm 0,0 UV-I 0 W/m 3,2 C -3,6 C 30,6 km/h (5 Bft) 95,83 %
01.04.2018 21:28 5,0 C 6,7 C 88 % 1010,1 hPa 0,0 l/m 21,3 km/h (4 Bft) SW 221 0 min 0,000 mm 0,0 UV-I 0 W/m 3,2 C -3,7 C 32,2 km/h (5 Bft) 96,15 %
01.04.2018 21:29 5,0 C 6,7 C 88 % 1010,1 hPa 0,0 l/m 21,9 km/h (4 Bft) SW 229 0 min 0,000 mm 0,0 UV-I 0 W/m 3,2 C -3,9 C 27,4 km/h (4 Bft) 100,00 %
01.04.2018 21:30 5,0 C 6,7 C 88 % 1010,1 hPa 0,0 l/m 24,1 km/h (4 Bft) SW 235 0 min 0,000 mm 0,0 UV-I 0 W/m 3,2 C -4,7 C 33,8 km/h (5 Bft) 95,65 %
01.04.2018 21:31 5,0 C 6,7 C 88 % 1010,1 hPa 0,0 l/m 20,0 km/h (4 Bft) SW 225 0 min 0,000 mm 0,0 UV-I 0 W/m 3,2 C -3,2 C 30,6 km/h (5 Bft) 96,30 %
01.04.2018 21:33 5,0 C 6,7 C 87 % 1010,2 hPa 0,0 l/m 20,6 km/h (4 Bft) W-SW 247 0 min 0,000 mm 0,0 UV-I 0 W/m 3,0 C -3,4 C 32,2 km/h (5 Bft) 97,73 %
01.04.2018 21:34 5,0 C 6,7 C 87 % 1010,2 hPa 0,0 l/m 21,9 km/h (4 Bft) W-SW 251 0 min 0,000 mm 0,0 UV-I 0 W/m 3,0 C -3,9 C 29,0 km/h (5 Bft) 96,15 %
01.04.2018 21:35 5,0 C 6,7 C 87 % 1010,2 hPa 0,0 l/m 24,3 km/h (4 Bft) W-SW 254 0 min 0,000 mm 0,0 UV-I 0 W/m 3,0 C -4,7 C 37,0 km/h (5 Bft) 100,00 %
01.04.2018 21:36 5,0 C 6,7 C 87 % 1010,2 hPa 0,0 l/m 23,7 km/h (4 Bft) W-SW 253 0 min 0,000 mm 0,0 UV-I 0 W/m 3,0 C -4,5 C 30,6 km/h (5 Bft) 89,66 %
01.04.2018 21:38 5,0 C 6,7 C 87 % 1010,4 hPa 0,0 l/m 23,0 km/h (4 Bft) W 261 0 min 0,000 mm 0,0 UV-I 0 W/m 3,0 C -4,3 C 32,2 km/h (5 Bft) 97,87 %
01.04.2018 21:39 4,9 C 6,7 C 87 % 1010,4 hPa 0,0 l/m 24,3 km/h (4 Bft) W-SW 254 0 min 0,000 mm 0,0 UV-I 0 W/m 2,9 C -4,9 C 32,2 km/h (5 Bft) 96,15 %
01.04.2018 21:40 4,9 C 6,7 C 87 % 1010,4 hPa 0,0 l/m 20,3 km/h (4 Bft) SW 234 0 min 0,000 mm 0,0 UV-I 0 W/m 2,9 C -3,4 C 29,0 km/h (5 Bft) 100,00 %
01.04.2018 21:41 4,9 C 6,7 C 87 % 1010,5 hPa 0,0 l/m 23,4 km/h (4 Bft) W-SW 256 0 min 0,000 mm 0,0 UV-I 0 W/m 2,9 C -4,6 C 33,8 km/h (5 Bft) 96,15 %
01.04.2018 21:42 4,9 C 6,7 C 87 % 1010,6 hPa 0,0 l/m 23,0 km/h (4 Bft) SW 234 0 min 0,000 mm 0,0 UV-I 0 W/m 2,9 C -4,4 C 32,2 km/h (5 Bft) 100,00 %
01.04.2018 21:43 4,8 C 6,7 C 88 % 1010,5 hPa 0,0 l/m 32,1 km/h (5 Bft) W-SW 242 0 min 0,000 mm 0,0 UV-I 0 W/m 3,0 C -7,2 C 45,1 km/h (6 Bft) 96,15 %
01.04.2018 21:44 4,8 C 6,7 C 88 % 1010,7 hPa 0,0 l/m 26,1 km/h (4 Bft) W-NW 284 0 min 0,000 mm 0,0 UV-I 0 W/m 3,0 C -5,6 C 41,8 km/h (6 Bft) 100,00 %
01.04.2018 21:45 4,8 C 6,7 C 88 % 1010,6 hPa 0,2 l/m 31,5 km/h (5 Bft) W-SW 242 0 min 0,000 mm 0,0 UV-I 0 W/m 3,0 C -7,0 C 45,1 km/h (6 Bft) 100,00 %
01.04.2018 21:49 4,7 C 6,7 C 89 % 1010,7 hPa 0,2 l/m 24,1 km/h (4 Bft) W 263 0 min 0,000 mm 0,0 UV-I 0 W/m 3,0 C -5,1 C 29,0 km/h (5 Bft) 98,82 %
01.04.2018 21:50 4,6 C 6,7 C 89 % 1010,7 hPa 0,0 l/m 24,5 km/h (4 Bft) W 265 0 min 0,000 mm 0,0 UV-I 0 W/m 2,9 C -5,3 C 37,0 km/h (5 Bft) 96,67 %
01.04.2018 21:51 4,6 C 6,7 C 89 % 1010,7 hPa 0,0 l/m 24,0 km/h (4 Bft) W 272 0 min 0,000 mm 0,0 UV-I 0 W/m 2,9 C -5,2 C 30,6 km/h (5 Bft) 100,00 %
01.04.2018 21:52 4,6 C 6,7 C 89 % 1010,7 hPa 0,0 l/m 22,8 km/h (4 Bft) W-SW 255 0 min 0,000 mm 0,0 UV-I 0 W/m 2,9 C -4,7 C 29,0 km/h (5 Bft) 100,00 %
01.04.2018 21:53 4,6 C 6,7 C 90 % 1010,8 hPa 0,0 l/m 21,9 km/h (4 Bft) W 273 0 min 0,000 mm 0,0 UV-I 0 W/m 3,1 C -4,4 C 30,6 km/h (5 Bft) 100,00 %
01.04.2018 21:54 4,6 C 6,7 C 90 % 1010,8 hPa 0,0 l/m 23,6 km/h (4 Bft) W 269 0 min 0,000 mm 0,0 UV-I 0 W/m 3,1 C -5,0 C 30,6 km/h (5 Bft) 100,00 %
01.04.2018 21:55 4,5 C 6,7 C 90 % 1010,8 hPa 0,0 l/m 18,6 km/h (3 Bft) W-SW 254 0 min 0,000 mm 0,0 UV-I 0 W/m 3,0 C -3,2 C 24,1 km/h (4 Bft) 100,00 %
01.04.2018 21:56 4,5 C 6,7 C 90 % 1010,8 hPa 0,0 l/m 22,7 km/h (4 Bft) W 270 0 min 0,000 mm 0,0 UV-I 0 W/m 3,0 C -4,8 C 30,6 km/h (5 Bft) 100,00 %
01.04.2018 21:58 4,4 C 6,7 C 90 % 1010,7 hPa 0,0 l/m 21,6 km/h (4 Bft) W-NW 282 0 min 0,000 mm 0,0 UV-I 0 W/m 2,9 C -4,6 C 30,6 km/h (5 Bft) 100,00 %
01.04.2018 21:59 4,4 C 6,7 C 90 % 1010,7 hPa 0,0 l/m 23,4 km/h (4 Bft) W 273 0 min 0,000 mm 0,0 UV-I 0 W/m 2,9 C -5,2 C 29,0 km/h (5 Bft) 100,00 %
01.04.2018 22:00 4,4 C 6,7 C 90 % 1010,7 hPa 0,0 l/m 21,2 km/h (4 Bft) W 259 0 min 0,000 mm 0,0 UV-I 0 W/m 2,9 C -4,4 C 33,8 km/h (5 Bft) 100,00 %
01.04.2018 22:01 4,4 C 6,7 C 90 % 1010,8 hPa 0,2 l/m 22,4 km/h (4 Bft) W-SW 252 0 min 0,025 mm 0,0 UV-I 0 W/m 2,9 C -4,9 C 35,4 km/h (5 Bft) 96,30 %
01.04.2018 22:02 4,4 C 6,7 C 90 % 1010,8 hPa 0,0 l/m 20,1 km/h (4 Bft) W 277 0 min 0,000 mm 0,0 UV-I 0 W/m 2,9 C -4,0 C 24,1 km/h (4 Bft) 100,00 %
01.04.2018 22:03 4,4 C 6,7 C 90 % 1010,9 hPa 0,0 l/m 14,4 km/h (3 Bft) W-NW 297 0 min 0,000 mm 0,0 UV-I 0 W/m 2,9 C -1,3 C 19,3 km/h (3 Bft) 100,00 %
01.04.2018 22:04 4,4 C 6,7 C 90 % 1011,0 hPa 0,0 l/m 8,5 km/h (2 Bft) W-NW 284 0 min 0,000 mm 0,0 UV-I 0 W/m 2,9 C 2,6 C 17,7 km/h (3 Bft) 92,86 %
01.04.2018 22:05 4,3 C 6,7 C 91 % 1011,2 hPa 0,0 l/m 6,0 km/h (2 Bft) W-NW 289 0 min 0,000 mm 0,0 UV-I 0 W/m 3,0 C 4,3 C 11,3 km/h (2 Bft) 96,30 %
01.04.2018 22:06 4,3 C 6,7 C 91 % 1011,2 hPa 0,0 l/m 7,6 km/h (2 Bft) W-NW 282 0 min 0,000 mm 0,0 UV-I 0 W/m 3,0 C 3,2 C 11,3 km/h (2 Bft) 96,15 %
01.04.2018 22:07 4,3 C 6,7 C 91 % 1011,2 hPa 0,0 l/m 15,2 km/h (3 Bft) NW 317 0 min 0,000 mm 0,0 UV-I 0 W/m 3,0 C -1,9 C 20,9 km/h (4 Bft) 100,00 %
01.04.2018 22:10 4,2 C 6,7 C 92 % 1011,3 hPa 0,4 l/m 9,7 km/h (2 Bft) W-NW 292 0 min 0,000 mm 0,0 UV-I 0 W/m 3,0 C 1,4 C 20,9 km/h (4 Bft) 97,37 %
01.04.2018 22:16 3,5 C 6,7 C 92 % 1011,2 hPa 0,6 l/m 18,4 km/h (3 Bft) W 267 0 min 0,000 mm 0,0 UV-I 0 W/m 2,3 C -4,4 C 22,5 km/h (4 Bft) 98,57 %
01.04.2018 22:17 3,4 C 6,7 C 92 % 1011,3 hPa 0,2 l/m 21,9 km/h (4 Bft) W-SW 242 0 min 0,000 mm 0,0 UV-I 0 W/m 2,2 C -6,0 C 37,0 km/h (5 Bft) 100,00 %
01.04.2018 22:18 3,4 C 6,7 C 92 % 1011,3 hPa 0,2 l/m 23,0 km/h (4 Bft) W 261 0 min 0,000 mm 0,0 UV-I 0 W/m 2,2 C -6,4 C 30,6 km/h (5 Bft) 97,91 %
01.04.2018 22:19 3,4 C 6,7 C 92 % 1011,3 hPa 0,0 l/m 18,6 km/h (3 Bft) W-SW 249 0 min 0,000 mm 0,0 UV-I 0 W/m 2,2 C -4,6 C 24,1 km/h (4 Bft) 100,00 %
01.04.2018 22:20 3,4 C 6,7 C 92 % 1011,3 hPa 0,0 l/m 18,3 km/h (3 Bft) W 273 0 min 0,000 mm 0,0 UV-I 0 W/m 2,2 C -4,5 C 25,7 km/h (4 Bft) 92,31 %
01.04.2018 22:21 3,4 C 6,7 C 92 % 1011,3 hPa 0,0 l/m 19,2 km/h (3 Bft) W 280 0 min 0,000 mm 0,0 UV-I 0 W/m 2,2 C -4,9 C 24,1 km/h (4 Bft) 100,00 %
01.04.2018 22:22 3,4 C 6,7 C 92 % 1011,3 hPa 0,2 l/m 22,7 km/h (4 Bft) W 279 0 min 0,000 mm 0,0 UV-I 0 W/m 2,2 C -6,3 C 27,4 km/h (4 Bft) 100,00 %
01.04.2018 22:23 3,4 C 6,7 C 92 % 1011,4 hPa 0,0 l/m 20,1 km/h (4 Bft) W 263 0 min 0,000 mm 0,0 UV-I 0 W/m 2,2 C -5,3 C 22,5 km/h (4 Bft) 100,00 %
01.04.2018 22:24 3,4 C 6,7 C 92 % 1011,4 hPa 0,0 l/m 15,3 km/h (3 Bft) W-NW 290 0 min 0,000 mm 0,0 UV-I 0 W/m 2,2 C -3,0 C 20,9 km/h (4 Bft) 100,00 %
01.04.2018 22:25 3,4 C 6,7 C 93 % 1011,4 hPa 0,0 l/m 16,7 km/h (3 Bft) W-SW 251 0 min 0,000 mm 0,0 UV-I 0 W/m 2,4 C -3,7 C 25,7 km/h (4 Bft) 100,00 %
01.04.2018 22:26 3,4 C 6,7 C 93 % 1011,4 hPa 0,0 l/m 19,9 km/h (4 Bft) W 265 0 min 0,000 mm 0,0 UV-I 0 W/m 2,4 C -5,2 C 27,4 km/h (4 Bft) 100,00 %
01.04.2018 22:27 3,4 C 6,7 C 93 % 1011,4 hPa 0,0 l/m 18,9 km/h (3 Bft) W 260 0 min 0,000 mm 0,0 UV-I 0 W/m 2,4 C -4,8 C 25,7 km/h (4 Bft) 95,65 %
01.04.2018 22:28 3,4 C 6,7 C 93 % 1011,4 hPa 0,0 l/m 15,6 km/h (3 Bft) W-SW 256 0 min 0,000 mm 0,0 UV-I 0 W/m 2,4 C -3,2 C 20,9 km/h (4 Bft) 100,00 %
01.04.2018 22:29 3,4 C 6,7 C 93 % 1011,3 hPa 0,0 l/m 16,8 km/h (3 Bft) W 277 0 min 0,000 mm 0,0 UV-I 0 W/m 2,4 C -3,8 C 20,9 km/h (4 Bft) 100,00 %
01.04.2018 22:30 3,5 C 6,7 C 93 % 1011,3 hPa 0,0 l/m 14,1 km/h (3 Bft) W 260 0 min 0,000 mm 0,0 UV-I 0 W/m 2,5 C -2,2 C 25,7 km/h (4 Bft) 100,00 %
01.04.2018 22:31 3,5 C 6,7 C 93 % 1011,3 hPa 0,2 l/m 18,9 km/h (3 Bft) W-SW 257 0 min 0,000 mm 0,0 UV-I 0 W/m 2,5 C -4,6 C 25,7 km/h (4 Bft) 100,00 %
01.04.2018 22:33 3,6 C 6,7 C 93 % 1011,3 hPa 0,0 l/m 15,5 km/h (3 Bft) W 262 0 min 0,000 mm 0,0 UV-I 0 W/m 2,6 C -2,9 C 19,3 km/h (3 Bft) 100,00 %
01.04.2018 22:34 3,6 C 6,7 C 93 % 1011,3 hPa 0,0 l/m 12,8 km/h (3 Bft) W 275 0 min 0,000 mm 0,0 UV-I 0 W/m 2,6 C -1,4 C 17,7 km/h (3 Bft) 100,00 %
01.04.2018 22:35 3,6 C 6,7 C 93 % 1011,3 hPa 0,0 l/m 13,7 km/h (3 Bft) W 265 0 min 0,000 mm 0,0 UV-I 0 W/m 2,6 C -1,9 C 19,3 km/h (3 Bft) 100,00 %
01.04.2018 22:36 3,6 C 6,7 C 93 % 1011,4 hPa 0,0 l/m 12,2 km/h (2 Bft) W-SW 247 0 min 0,000 mm 0,0 UV-I 0 W/m 2,6 C -1,0 C 20,9 km/h (4 Bft) 100,00 %
01.04.2018 22:38 3,7 C 6,7 C 94 % 1011,4 hPa 0,0 l/m 14,2 km/h (3 Bft) W-SW 242 0 min 0,000 mm 0,0 UV-I 0 W/m 2,8 C -2,1 C 25,7 km/h (4 Bft) 100,00 %
01.04.2018 22:39 3,7 C 6,7 C 94 % 1011,4 hPa 0,0 l/m 11,6 km/h (2 Bft) W 259 0 min 0,000 mm 0,0 UV-I 0 W/m 2,8 C -0,5 C 20,9 km/h (4 Bft) 100,00 %
01.04.2018 22:40 3,8 C 6,7 C 94 % 1011,4 hPa 0,0 l/m 14,5 km/h (3 Bft) W-SW 244 0 min 0,000 mm 0,0 UV-I 0 W/m 2,9 C -2,1 C 22,5 km/h (4 Bft) 100,00 %
01.04.2018 22:41 3,8 C 6,7 C 94 % 1011,4 hPa 0,0 l/m 19,0 km/h (3 Bft) W-SW 252 0 min 0,000 mm 0,0 UV-I 0 W/m 2,9 C -4,3 C 22,5 km/h (4 Bft) 100,00 %
01.04.2018 22:42 3,9 C 6,7 C 94 % 1011,4 hPa 0,0 l/m 14,9 km/h (3 Bft) SW 232 0 min 0,000 mm 0,0 UV-I 0 W/m 3,0 C -2,2 C 19,3 km/h (3 Bft) 96,30 %
01.04.2018 22:43 3,9 C 6,7 C 94 % 1011,4 hPa 0,0 l/m 13,6 km/h (3 Bft) W 263 0 min 0,000 mm 0,0 UV-I 0 W/m 3,0 C -1,5 C 16,1 km/h (3 Bft) 100,00 %
01.04.2018 22:44 3,9 C 6,7 C 94 % 1011,4 hPa 0,0 l/m 16,6 km/h (3 Bft) W 263 0 min 0,000 mm 0,0 UV-I 0 W/m 3,0 C -3,1 C 20,9 km/h (4 Bft) 100,00 %
01.04.2018 22:45 4,0 C 6,7 C 94 % 1011,4 hPa 0,0 l/m 16,8 km/h (3 Bft) SW 233 0 min 0,000 mm 0,0 UV-I 0 W/m 3,1 C -3,0 C 20,9 km/h (4 Bft) 93,33 %
01.04.2018 22:46 4,1 C 6,7 C 93 % 1011,4 hPa 0,0 l/m 23,0 km/h (4 Bft) W-SW 252 0 min 0,000 mm 0,0 UV-I 0 W/m 3,1 C -5,5 C 29,0 km/h (5 Bft) 100,00 %
01.04.2018 22:48 4,1 C 6,7 C 93 % 1011,4 hPa 0,0 l/m 17,3 km/h (3 Bft) W-SW 251 0 min 0,000 mm 0,0 UV-I 0 W/m 3,1 C -3,2 C 24,1 km/h (4 Bft) 96,00 %
01.04.2018 22:49 4,1 C 6,7 C 93 % 1011,5 hPa 0,0 l/m 16,7 km/h (3 Bft) W-SW 252 0 min 0,000 mm 0,0 UV-I 0 W/m 3,1 C -2,9 C 22,5 km/h (4 Bft) 100,00 %
01.04.2018 22:50 4,2 C 6,7 C 93 % 1011,5 hPa 0,0 l/m 19,0 km/h (3 Bft) W 278 0 min 0,000 mm 0,0 UV-I 0 W/m 3,2 C -3,8 C 25,7 km/h (4 Bft) 100,00 %
01.04.2018 22:51 4,2 C 6,7 C 93 % 1011,5 hPa 0,0 l/m 19,2 km/h (3 Bft) SW 231 0 min 0,000 mm 0,0 UV-I 0 W/m 3,2 C -3,9 C 25,7 km/h (4 Bft) 100,00 %
01.04.2018 22:53 4,2 C 6,7 C 93 % 1011,5 hPa 0,0 l/m 19,3 km/h (3 Bft) SW 227 0 min 0,000 mm 0,0 UV-I 0 W/m 3,2 C -3,9 C 27,4 km/h (4 Bft) 97,87 %
01.04.2018 22:54 4,2 C 6,7 C 92 % 1011,5 hPa 0,0 l/m 21,6 km/h (4 Bft) SW 225 0 min 0,000 mm 0,0 UV-I 0 W/m 3,0 C -4,8 C 29,0 km/h (5 Bft) 100,00 %
01.04.2018 22:55 4,2 C 6,7 C 92 % 1011,5 hPa 0,0 l/m 19,2 km/h (3 Bft) W-SW 247 0 min 0,000 mm 0,0 UV-I 0 W/m 3,0 C -3,9 C 25,7 km/h (4 Bft) 100,00 %
01.04.2018 22:56 4,2 C 6,7 C 92 % 1011,5 hPa 0,0 l/m 17,4 km/h (3 Bft) W-SW 257 0 min 0,000 mm 0,0 UV-I 0 W/m 3,0 C -3,1 C 22,5 km/h (4 Bft) 100,00 %
01.04.2018 22:57 4,2 C 6,7 C 92 % 1011,6 hPa 0,0 l/m 22,0 km/h (4 Bft) W 265 0 min 0,000 mm 0,0 UV-I 0 W/m 3,0 C -5,0 C 27,4 km/h (4 Bft) 100,00 %
01.04.2018 22:58 4,3 C 6,7 C 92 % 1011,6 hPa 0,0 l/m 26,3 km/h (4 Bft) W 271 0 min 0,000 mm 0,0 UV-I 0 W/m 3,1 C -6,3 C 37,0 km/h (5 Bft) 97,95 %
01.04.2018 22:59 4,3 C 6,7 C 92 % 1011,6 hPa 0,0 l/m 20,9 km/h (4 Bft) W 275 0 min 0,000 mm 0,0 UV-I 0 W/m 3,1 C -4,4 C 30,6 km/h (5 Bft) 100,00 %
01.04.2018 23:00 4,2 C 6,7 C 92 % 1011,5 hPa 0,0 l/m 20,9 km/h (4 Bft) W-SW 237 0 min 0,000 mm 0,0 UV-I 0 W/m 3,0 C -4,6 C 29,0 km/h (5 Bft) 100,00 %
01.04.2018 23:01 4,3 C 6,7 C 92 % 1011,5 hPa 0,0 l/m 17,3 km/h (3 Bft) W-SW 238 0 min 0,000 mm 0,0 UV-I 0 W/m 3,1 C -2,9 C 24,1 km/h (4 Bft) 100,00 %
01.04.2018 23:02 4,3 C 6,7 C 92 % 1011,6 hPa 0,0 l/m 18,2 km/h (3 Bft) W 269 0 min 0,000 mm 0,0 UV-I 0 W/m 3,1 C -3,3 C 27,4 km/h (4 Bft) 100,00 %
01.04.2018 23:04 4,2 C 6,7 C 92 % 1011,5 hPa 0,0 l/m 20,3 km/h (4 Bft) W-SW 238 0 min 0,000 mm 0,0 UV-I 0 W/m 3,0 C -4,3 C 40,2 km/h (6 Bft) 100,00 %
01.04.2018 23:05 4,2 C 6,7 C 92 % 1011,5 hPa 0,0 l/m 24,2 km/h (4 Bft) W 264 0 min 0,000 mm 0,0 UV-I 0 W/m 3,0 C -5,8 C 32,2 km/h (5 Bft) 100,00 %
01.04.2018 23:06 4,2 C 6,7 C 92 % 1011,6 hPa 0,0 l/m 18,2 km/h (3 Bft) W 260 0 min 0,000 mm 0,0 UV-I 0 W/m 3,0 C -3,4 C 25,7 km/h (4 Bft) 100,00 %
01.04.2018 23:07 4,2 C 6,7 C 91 % 1011,6 hPa 0,0 l/m 19,2 km/h (3 Bft) W-SW 238 0 min 0,000 mm 0,0 UV-I 0 W/m 2,9 C -3,9 C 30,6 km/h (5 Bft) 100,00 %
01.04.2018 23:09 4,2 C 6,7 C 91 % 1011,6 hPa 0,0 l/m 22,7 km/h (4 Bft) SW 236 0 min 0,000 mm 0,0 UV-I 0 W/m 2,9 C -5,2 C 33,8 km/h (5 Bft) 100,00 %
01.04.2018 23:10 4,2 C 6,7 C 91 % 1011,6 hPa 0,0 l/m 22,0 km/h (4 Bft) W-SW 244 0 min 0,000 mm 0,0 UV-I 0 W/m 2,9 C -5,0 C 33,8 km/h (5 Bft) 100,00 %
01.04.2018 23:11 4,2 C 6,7 C 91 % 1011,6 hPa 0,0 l/m 20,8 km/h (4 Bft) W-NW 284 0 min 0,000 mm 0,0 UV-I 0 W/m 2,9 C -4,5 C 24,1 km/h (4 Bft) 100,00 %
01.04.2018 23:12 4,2 C 6,7 C 91 % 1011,7 hPa 0,0 l/m 18,1 km/h (3 Bft) W 266 0 min 0,000 mm 0,0 UV-I 0 W/m 2,9 C -3,4 C 25,7 km/h (4 Bft) 96,30 %
01.04.2018 23:14 4,2 C 6,7 C 91 % 1011,8 hPa 0,0 l/m 18,4 km/h (3 Bft) W-SW 254 0 min 0,000 mm 0,0 UV-I 0 W/m 2,9 C -3,5 C 27,4 km/h (4 Bft) 96,00 %
01.04.2018 23:15 4,2 C 6,7 C 91 % 1011,8 hPa 0,0 l/m 18,2 km/h (3 Bft) W 259 0 min 0,000 mm 0,0 UV-I 0 W/m 2,9 C -3,4 C 22,5 km/h (4 Bft) 90,91 %
01.04.2018 23:16 4,2 C 6,7 C 91 % 1011,8 hPa 0,0 l/m 16,8 km/h (3 Bft) W-SW 252 0 min 0,000 mm 0,0 UV-I 0 W/m 2,9 C -2,8 C 24,1 km/h (4 Bft) 96,30 %
01.04.2018 23:17 4,1 C 6,7 C 91 % 1011,8 hPa 0,0 l/m 17,6 km/h (3 Bft) W-SW 255 0 min 0,000 mm 0,0 UV-I 0 W/m 2,8 C -3,3 C 24,1 km/h (4 Bft) 100,00 %
01.04.2018 23:18 4,1 C 6,7 C 91 % 1011,8 hPa 0,0 l/m 16,4 km/h (3 Bft) W-SW 253 0 min 0,000 mm 0,0 UV-I 0 W/m 2,8 C -2,7 C 20,9 km/h (4 Bft) 96,55 %
01.04.2018 23:19 4,2 C 6,7 C 91 % 1011,8 hPa 0,0 l/m 20,7 km/h (4 Bft) SW 221 0 min 0,000 mm 0,0 UV-I 0 W/m 2,9 C -4,5 C 29,0 km/h (5 Bft) 100,00 %
01.04.2018 23:20 4,1 C 6,7 C 91 % 1011,9 hPa 0,0 l/m 23,4 km/h (4 Bft) W 275 0 min 0,000 mm 0,0 UV-I 0 W/m 2,8 C -5,6 C 33,8 km/h (5 Bft) 95,83 %
01.04.2018 23:21 4,2 C 6,7 C 91 % 1011,9 hPa 0,0 l/m 17,3 km/h (3 Bft) W 280 0 min 0,000 mm 0,0 UV-I 0 W/m 2,9 C -3,0 C 22,5 km/h (4 Bft) 96,15 %
01.04.2018 23:22 4,1 C 6,7 C 91 % 1011,9 hPa 0,0 l/m 17,5 km/h (3 Bft) SW 222 0 min 0,000 mm 0,0 UV-I 0 W/m 2,8 C -3,2 C 22,5 km/h (4 Bft) 100,00 %
01.04.2018 23:23 4,1 C 6,7 C 91 % 1011,9 hPa 0,0 l/m 19,2 km/h (3 Bft) W 263 0 min 0,000 mm 0,0 UV-I 0 W/m 2,8 C -4,0 C 25,7 km/h (4 Bft) 94,44 %
01.04.2018 23:24 4,1 C 6,7 C 91 % 1011,9 hPa 0,0 l/m 14,7 km/h (3 Bft) W 273 0 min 0,000 mm 0,0 UV-I 0 W/m 2,8 C -1,9 C 19,3 km/h (3 Bft) 100,00 %
01.04.2018 23:25 4,1 C 6,7 C 91 % 1011,9 hPa 0,0 l/m 15,1 km/h (3 Bft) W 277 0 min 0,000 mm 0,0 UV-I 0 W/m 2,8 C -2,1 C 22,5 km/h (4 Bft) 96,97 %
01.04.2018 23:26 4,1 C 6,7 C 91 % 1011,9 hPa 0,0 l/m 16,4 km/h (3 Bft) W-SW 248 0 min 0,000 mm 0,0 UV-I 0 W/m 2,8 C -2,7 C 22,5 km/h (4 Bft) 92,31 %
01.04.2018 23:27 4,1 C 6,7 C 91 % 1011,9 hPa 0,0 l/m 19,3 km/h (3 Bft) W-SW 253 0 min 0,000 mm 0,0 UV-I 0 W/m 2,8 C -4,0 C 27,4 km/h (4 Bft) 100,00 %
01.04.2018 23:28 4,0 C 6,7 C 91 % 1011,9 hPa 0,0 l/m 19,1 km/h (3 Bft) W-SW 254 0 min 0,000 mm 0,0 UV-I 0 W/m 2,7 C -4,1 C 25,7 km/h (4 Bft) 96,15 %
01.04.2018 23:29 4,0 C 6,7 C 91 % 1011,8 hPa 0,0 l/m 17,8 km/h (3 Bft) W-SW 248 0 min 0,000 mm 0,0 UV-I 0 W/m 2,7 C -3,5 C 25,7 km/h (4 Bft) 100,00 %
01.04.2018 23:30 4,0 C 6,7 C 91 % 1011,8 hPa 0,0 l/m 18,1 km/h (3 Bft) W-SW 253 0 min 0,000 mm 0,0 UV-I 0 W/m 2,7 C -3,6 C 22,5 km/h (4 Bft) 92,86 %
01.04.2018 23:31 4,0 C 6,7 C 91 % 1011,9 hPa 0,0 l/m 15,9 km/h (3 Bft) W 261 0 min 0,000 mm 0,0 UV-I 0 W/m 2,7 C -2,6 C 22,5 km/h (4 Bft) 100,00 %
01.04.2018 23:33 4,1 C 6,7 C 91 % 1011,9 hPa 0,0 l/m 19,3 km/h (3 Bft) W 278 0 min 0,000 mm 0,0 UV-I 0 W/m 2,8 C -4,0 C 25,7 km/h (4 Bft) 98,00 %
01.04.2018 23:34 4,1 C 6,7 C 91 % 1011,9 hPa 0,0 l/m 17,6 km/h (3 Bft) W-SW 254 0 min 0,000 mm 0,0 UV-I 0 W/m 2,8 C -3,3 C 29,0 km/h (5 Bft) 95,65 %
01.04.2018 23:35 4,1 C 6,7 C 91 % 1011,9 hPa 0,0 l/m 15,9 km/h (3 Bft) W-NW 293 0 min 0,000 mm 0,0 UV-I 0 W/m 2,8 C -2,5 C 20,9 km/h (4 Bft) 96,30 %
01.04.2018 23:36 4,1 C 6,7 C 91 % 1011,9 hPa 0,0 l/m 13,5 km/h (3 Bft) W 274 0 min 0,000 mm 0,0 UV-I 0 W/m 2,8 C -1,2 C 19,3 km/h (3 Bft) 92,86 %
01.04.2018 23:37 4,1 C 6,7 C 91 % 1012,0 hPa 0,0 l/m 15,8 km/h (3 Bft) W 279 0 min 0,000 mm 0,0 UV-I 0 W/m 2,8 C -2,4 C 19,3 km/h (3 Bft) 96,30 %
01.04.2018 23:38 4,1 C 6,7 C 91 % 1012,0 hPa 0,0 l/m 11,2 km/h (2 Bft) NW 307 0 min 0,000 mm 0,0 UV-I 0 W/m 2,8 C 0,2 C 16,1 km/h (3 Bft) 100,00 %
01.04.2018 23:39 4,0 C 6,7 C 91 % 1012,0 hPa 0,0 l/m 6,6 km/h (2 Bft) W 281 0 min 0,000 mm 0,0 UV-I 0 W/m 2,7 C 3,8 C 11,3 km/h (2 Bft) 96,30 %
01.04.2018 23:40 4,0 C 6,7 C 92 % 1011,9 hPa 0,0 l/m 6,7 km/h (2 Bft) W 263 0 min 0,000 mm 0,0 UV-I 0 W/m 2,8 C 3,7 C 12,9 km/h (3 Bft) 100,00 %
01.04.2018 23:41 3,9 C 6,7 C 92 % 1012,0 hPa 0,0 l/m 6,8 km/h (2 Bft) NW 313 0 min 0,000 mm 0,0 UV-I 0 W/m 2,7 C 3,5 C 14,5 km/h (3 Bft) 96,15 %
01.04.2018 23:42 3,9 C 6,7 C 92 % 1011,9 hPa 0,0 l/m 10,8 km/h (2 Bft) W-NW 288 0 min 0,000 mm 0,0 UV-I 0 W/m 2,7 C 0,3 C 14,5 km/h (3 Bft) 100,00 %
01.04.2018 23:43 3,9 C 6,7 C 92 % 1011,9 hPa 0,0 l/m 8,5 km/h (2 Bft) W-NW 297 0 min 0,000 mm 0,0 UV-I 0 W/m 2,7 C 2,0 C 14,5 km/h (3 Bft) 91,67 %
01.04.2018 23:44 3,9 C 6,7 C 92 % 1011,9 hPa 0,0 l/m 5,8 km/h (2 Bft) W-NW 290 0 min 0,000 mm 0,0 UV-I 0 W/m 2,7 C 3,9 C 9,7 km/h (2 Bft) 100,00 %
01.04.2018 23:45 3,9 C 6,7 C 92 % 1011,9 hPa 0,0 l/m 7,1 km/h (2 Bft) W 277 0 min 0,000 mm 0,0 UV-I 0 W/m 2,7 C 3,3 C 11,3 km/h (2 Bft) 91,30 %
01.04.2018 23:46 3,8 C 6,7 C 92 % 1012,0 hPa 0,0 l/m 4,5 km/h (1 Bft) W 276 0 min 0,000 mm 0,0 UV-I 0 W/m 2,6 C 3,8 C 6,4 km/h (2 Bft) 100,00 %
01.04.2018 23:47 3,8 C 6,7 C 93 % 1012,0 hPa 0,0 l/m 7,7 km/h (2 Bft) W-SW 247 0 min 0,000 mm 0,0 UV-I 0 W/m 2,8 C 2,6 C 12,9 km/h (3 Bft) 91,30 %
01.04.2018 23:48 3,8 C 6,7 C 93 % 1012,0 hPa 0,0 l/m 6,1 km/h (2 Bft) W-NW 291 0 min 0,000 mm 0,0 UV-I 0 W/m 2,8 C 3,8 C 12,9 km/h (3 Bft) 95,83 %
01.04.2018 23:49 3,8 C 6,7 C 93 % 1012,0 hPa 0,0 l/m 9,5 km/h (2 Bft) W 263 0 min 0,000 mm 0,0 UV-I 0 W/m 2,8 C 1,1 C 16,1 km/h (3 Bft) 100,00 %
01.04.2018 23:50 3,8 C 6,7 C 93 % 1012,0 hPa 0,0 l/m 9,8 km/h (2 Bft) W-NW 289 0 min 0,000 mm 0,0 UV-I 0 W/m 2,8 C 0,9 C 14,5 km/h (3 Bft) 100,00 %
01.04.2018 23:51 3,8 C 6,7 C 93 % 1012,0 hPa 0,0 l/m 5,2 km/h (1 Bft) W-NW 296 0 min 0,000 mm 0,0 UV-I 0 W/m 2,8 C 3,8 C 8,0 km/h (2 Bft) 100,00 %
01.04.2018 23:52 3,8 C 6,7 C 93 % 1012,0 hPa 0,0 l/m 5,4 km/h (1 Bft) W-NW 284 0 min 0,000 mm 0,0 UV-I 0 W/m 2,8 C 3,8 C 11,3 km/h (2 Bft) 100,00 %
01.04.2018 23:53 3,8 C 6,7 C 93 % 1012,1 hPa 0,0 l/m 5,1 km/h (1 Bft) W-NW 294 0 min 0,000 mm 0,0 UV-I 0 W/m 2,8 C 3,8 C 9,7 km/h (2 Bft) 100,00 %
01.04.2018 23:54 3,8 C 6,7 C 93 % 1012,1 hPa 0,0 l/m 5,4 km/h (1 Bft) W 281 0 min 0,000 mm 0,0 UV-I 0 W/m 2,8 C 3,8 C 11,3 km/h (2 Bft) 100,00 %
01.04.2018 23:55 3,8 C 6,7 C 93 % 1012,2 hPa 0,0 l/m 7,8 km/h (2 Bft) W 270 0 min 0,000 mm 0,0 UV-I 0 W/m 2,8 C 2,5 C 11,3 km/h (2 Bft) 100,00 %
01.04.2018 23:56 3,8 C 6,7 C 93 % 1012,2 hPa 0,2 l/m 8,8 km/h (2 Bft) W 268 0 min 0,000 mm 0,0 UV-I 0 W/m 2,8 C 1,7 C 17,7 km/h (3 Bft) 100,00 %
01.04.2018 23:58 3,7 C 6,7 C 94 % 1012,3 hPa 0,2 l/m 7,6 km/h (2 Bft) W-NW 293 0 min 0,000 mm 0,0 UV-I 0 W/m 2,8 C 2,6 C 14,5 km/h (3 Bft) 98,11 %
01.04.2018 23:59 3,7 C 6,7 C 94 % 1012,3 hPa 0,0 l/m 7,6 km/h (2 Bft) W-NW 286 0 min 0,000 mm 0,0 UV-I 0 W/m 2,8 C 2,6 C 12,9 km/h (3 Bft) 100,00 %
_ Min-Zeit 22:17 00:00 15:41 00:17 - 23:46 - - - - - - 22:17 19:00 23:46 17:54
Minimum _ 3,4 C 6,1 C 67 % 997,7 hPa - 4,5 km/h (1 Bft) - - - - - - 2,2 C -8,0 C 6,4 km/h (2 Bft) 83,33 %
_ Max-Zeit 15:35 12:07 22:38 23:58 22:16 15:47 - - 09:58 15:01 12:15 12:14 14:51 16:47 15:44 00:04
Maximum _ 9,8 C 6,7 C 94 % 1012,3 hPa 0,6 l/m 43,5 km/h
W (6 Bft)
- - 2 min 0,280 mm 2,6 UV-I 889 W/m 5,7 C 4,9 C 59,5 km/h
W (7 Bft)
100,00 %
Durchschnitt _ 6,1 C 6,4 C 85 % 1004,7 hPa #6,0 l/m 19,8 km/h (3 Bft) W - #3:11 h #1,930 mm 1,0 UV-I 201 W/m 3,8 C -1,2 C 27,6 km/h (4 Bft) 97,88 %